<?xml version='1.0' encoding='UTF-8'?><gpx version="1.1" creator="JPX - https://github.com/jenetics/jpx" xmlns="http://www.topografix.com/GPX/1/1"><trk><trkseg><trkpt lat="46.026378278182406" lon="11.903615531567251"><ele>281.00000000000006</ele><time>2026-05-03T13:16:43.119Z</time></trkpt><trkpt lat="46.02639830146671" lon="11.90350978044229"><ele>281.0</ele><time>2026-05-03T13:18:44.001Z</time></trkpt><trkpt lat="46.026336943949374" lon="11.903560237226856"><ele>281.0</ele><time>2026-05-03T13:20:04Z</time></trkpt><trkpt lat="46.02626431111081" lon="11.903530954402465"><ele>281.0</ele><time>2026-05-03T13:20:45Z</time></trkpt><trkpt lat="46.026202882650225" lon="11.903561016018312"><ele>281.0</ele><time>2026-05-03T13:20:52Z</time></trkpt><trkpt lat="46.026155865539316" lon="11.903628877341415"><ele>281.00000000000006</ele><time>2026-05-03T13:22:28.999Z</time></trkpt><trkpt lat="46.02618354139896" lon="11.903748013456084"><ele>281.0</ele><time>2026-05-03T13:22:32.999Z</time></trkpt><trkpt lat="46.02612686875061" lon="11.903837110931867"><ele>281.0</ele><time>2026-05-03T13:22:33.999Z</time></trkpt><trkpt lat="46.02606842102959" lon="11.903971066632547"><ele>281.0</ele><time>2026-05-03T13:22:35.999Z</time></trkpt><trkpt lat="46.026021884938636" lon="11.904037245020103"><ele>281.0</ele><time>2026-05-03T13:22:38.999Z</time></trkpt><trkpt lat="46.02594073895159" lon="11.9040777396452"><ele>281.0</ele><time>2026-05-03T13:22:41.999Z</time></trkpt><trkpt lat="46.025816126951504" lon="11.90403933777648"><ele>281.0</ele><time>2026-05-03T13:22:42.999Z</time></trkpt><trkpt lat="46.025747362648545" lon="11.903964848625906"><ele>281.1666666666667</ele><time>2026-05-03T13:22:43.999Z</time></trkpt><trkpt lat="46.02567426167356" lon="11.90386847637626"><ele>281.33333333333337</ele><time>2026-05-03T13:22:45.999Z</time></trkpt><trkpt lat="46.025597428228934" lon="11.903785786228733"><ele>281.5</ele><time>2026-05-03T13:22:48.999Z</time></trkpt><trkpt lat="46.0255315452093" lon="11.903707034612706"><ele>281.6666666666667</ele><time>2026-05-03T13:22:50.999Z</time></trkpt><trkpt lat="46.025445405461596" lon="11.90373427328041"><ele>281.8333333333333</ele><time>2026-05-03T13:22:52.999Z</time></trkpt><trkpt lat="46.025372242806675" lon="11.903764793562525"><ele>282.0</ele><time>2026-05-03T13:22:55.999Z</time></trkpt><trkpt lat="46.025310017521484" lon="11.903805685988386"><ele>282.0</ele><time>2026-05-03T13:23:01Z</time></trkpt><trkpt lat="46.025310770137864" lon="11.90389806438166"><ele>282.0</ele><time>2026-05-03T13:23:02Z</time></trkpt><trkpt lat="46.02533007499641" lon="11.904027880802385"><ele>282.0</ele><time>2026-05-03T13:23:03Z</time></trkpt><trkpt lat="46.02534754470187" lon="11.90412840143359"><ele>282.0</ele><time>2026-05-03T13:23:04Z</time></trkpt><trkpt lat="46.02536706016495" lon="11.9042934178857"><ele>282.0</ele><time>2026-05-03T13:23:06Z</time></trkpt><trkpt lat="46.025328384846304" lon="11.904400051360017"><ele>282.0</ele><time>2026-05-03T13:23:08Z</time></trkpt><trkpt lat="46.02526997276473" lon="11.904445817191732"><ele>282.2</ele><time>2026-05-03T13:23:09Z</time></trkpt><trkpt lat="46.025196271741876" lon="11.904509215951377"><ele>282.4</ele><time>2026-05-03T13:23:10Z</time></trkpt><trkpt lat="46.02506751106722" lon="11.904449563638355"><ele>282.6</ele><time>2026-05-03T13:23:11Z</time></trkpt><trkpt lat="46.02499099725116" lon="11.904456278523282"><ele>282.8</ele><time>2026-05-03T13:23:12Z</time></trkpt><trkpt lat="46.024912271204165" lon="11.904472989348983"><ele>283.0</ele><time>2026-05-03T13:23:13Z</time></trkpt><trkpt lat="46.02482814309675" lon="11.904487212320936"><ele>283.0</ele><time>2026-05-03T13:23:14Z</time></trkpt><trkpt lat="46.02474651910885" lon="11.904520719425314"><ele>283.0</ele><time>2026-05-03T13:23:15Z</time></trkpt><trkpt lat="46.02465642502873" lon="11.904563791521323"><ele>283.0</ele><time>2026-05-03T13:23:16Z</time></trkpt><trkpt lat="46.02456316914881" lon="11.904584580218156"><ele>283.0</ele><time>2026-05-03T13:23:17Z</time></trkpt><trkpt lat="46.02447177846948" lon="11.904607733117363"><ele>283.0</ele><time>2026-05-03T13:23:18Z</time></trkpt><trkpt lat="46.02438425343972" lon="11.904629425789192"><ele>283.0</ele><time>2026-05-03T13:23:19Z</time></trkpt><trkpt lat="46.02428157456548" lon="11.904662043953637"><ele>283.0</ele><time>2026-05-03T13:23:20Z</time></trkpt><trkpt lat="46.024177637235425" lon="11.904691047460439"><ele>283.0</ele><time>2026-05-03T13:23:21Z</time></trkpt><trkpt lat="46.02406844248608" lon="11.904715905529827"><ele>283.0</ele><time>2026-05-03T13:23:22Z</time></trkpt><trkpt lat="46.02396611579328" lon="11.904750500705685"><ele>283.0</ele><time>2026-05-03T13:23:23Z</time></trkpt><trkpt lat="46.023862236459856" lon="11.904784381143243"><ele>282.2</ele><time>2026-05-03T13:23:24Z</time></trkpt><trkpt lat="46.023752492213156" lon="11.904809967629925"><ele>281.4</ele><time>2026-05-03T13:23:25Z</time></trkpt><trkpt lat="46.02363592265529" lon="11.90484576925178"><ele>280.59999999999997</ele><time>2026-05-03T13:23:26Z</time></trkpt><trkpt lat="46.02354400526633" lon="11.904881680172858"><ele>279.8</ele><time>2026-05-03T13:23:27Z</time></trkpt><trkpt lat="46.02345732032018" lon="11.904901898522757"><ele>279.0</ele><time>2026-05-03T13:23:28Z</time></trkpt><trkpt lat="46.023370443486534" lon="11.904921833620058"><ele>279.0</ele><time>2026-05-03T13:23:29Z</time></trkpt><trkpt lat="46.02327535960817" lon="11.90495311785217"><ele>279.0</ele><time>2026-05-03T13:23:30Z</time></trkpt><trkpt lat="46.02318926831816" lon="11.904978547887314"><ele>279.0</ele><time>2026-05-03T13:23:31Z</time></trkpt><trkpt lat="46.023109985614056" lon="11.904993700130484"><ele>279.0</ele><time>2026-05-03T13:23:32Z</time></trkpt><trkpt lat="46.02302600276682" lon="11.905024481138181"><ele>279.0</ele><time>2026-05-03T13:23:33Z</time></trkpt><trkpt lat="46.02294008246845" lon="11.905048761072957"><ele>279.0</ele><time>2026-05-03T13:23:34Z</time></trkpt><trkpt lat="46.02285807454528" lon="11.905067134409387"><ele>279.0</ele><time>2026-05-03T13:23:35Z</time></trkpt><trkpt lat="46.022774674216784" lon="11.905059405828107"><ele>279.0</ele><time>2026-05-03T13:23:36Z</time></trkpt><trkpt lat="46.02269429830237" lon="11.905014411299357"><ele>279.0</ele><time>2026-05-03T13:23:37Z</time></trkpt><trkpt lat="46.022613459859365" lon="11.904949273313374"><ele>279.0</ele><time>2026-05-03T13:23:38Z</time></trkpt><trkpt lat="46.02253690632" lon="11.904883493662645"><ele>279.0</ele><time>2026-05-03T13:23:39Z</time></trkpt><trkpt lat="46.022462019170206" lon="11.90485317167946"><ele>279.0</ele><time>2026-05-03T13:23:40Z</time></trkpt><trkpt lat="46.022376247783356" lon="11.904866210404027"><ele>278.0</ele><time>2026-05-03T13:23:41Z</time></trkpt><trkpt lat="46.022275986392025" lon="11.90490994357647"><ele>277.0</ele><time>2026-05-03T13:23:42Z</time></trkpt><trkpt lat="46.02217411862424" lon="11.904952130974971"><ele>276.0</ele><time>2026-05-03T13:23:43Z</time></trkpt><trkpt lat="46.02208726333003" lon="11.904973654840248"><ele>275.0</ele><time>2026-05-03T13:23:44Z</time></trkpt><trkpt lat="46.0220067360687" lon="11.904986733366671"><ele>274.0</ele><time>2026-05-03T13:23:45Z</time></trkpt><trkpt lat="46.0219336710267" lon="11.90501609649015"><ele>274.0</ele><time>2026-05-03T13:23:46Z</time></trkpt><trkpt lat="46.021868432000645" lon="11.905036821243202"><ele>274.0</ele><time>2026-05-03T13:23:47Z</time></trkpt><trkpt lat="46.02180506002081" lon="11.905056638009095"><ele>274.0</ele><time>2026-05-03T13:23:48Z</time></trkpt><trkpt lat="46.021697476996216" lon="11.905054081000813"><ele>274.0</ele><time>2026-05-03T13:23:50Z</time></trkpt><trkpt lat="46.02159376072073" lon="11.905004831727549"><ele>274.0</ele><time>2026-05-03T13:23:52Z</time></trkpt><trkpt lat="46.021514386646174" lon="11.905008607506828"><ele>274.0</ele><time>2026-05-03T13:23:54Z</time></trkpt><trkpt lat="46.02148001509004" lon="11.905095058417512"><ele>274.0</ele><time>2026-05-03T13:23:55Z</time></trkpt><trkpt lat="46.02150780308345" lon="11.905266676128704"><ele>274.0</ele><time>2026-05-03T13:23:57Z</time></trkpt><trkpt lat="46.0215383338042" lon="11.905395726507962"><ele>274.0</ele><time>2026-05-03T13:23:58Z</time></trkpt><trkpt lat="46.02155648399824" lon="11.905523443371713"><ele>274.0</ele><time>2026-05-03T13:23:59Z</time></trkpt><trkpt lat="46.02156151494557" lon="11.905651929995651"><ele>274.0</ele><time>2026-05-03T13:24:00Z</time></trkpt><trkpt lat="46.02156214813927" lon="11.905820334077514"><ele>273.75</ele><time>2026-05-03T13:24:01Z</time></trkpt><trkpt lat="46.02157185186952" lon="11.905983880396981"><ele>273.5</ele><time>2026-05-03T13:24:02Z</time></trkpt><trkpt lat="46.02158318475961" lon="11.906176846519168"><ele>273.25</ele><time>2026-05-03T13:24:03Z</time></trkpt><trkpt lat="46.021602157012666" lon="11.906360684802843"><ele>273.0</ele><time>2026-05-03T13:24:04Z</time></trkpt><trkpt lat="46.02161009261008" lon="11.906510467142386"><ele>273.0</ele><time>2026-05-03T13:24:05Z</time></trkpt><trkpt lat="46.021623424875266" lon="11.906669937073124"><ele>273.0</ele><time>2026-05-03T13:24:06Z</time></trkpt><trkpt lat="46.02164508249459" lon="11.906838067327849"><ele>273.0</ele><time>2026-05-03T13:24:07Z</time></trkpt><trkpt lat="46.02166975697247" lon="11.906994945693041"><ele>273.0</ele><time>2026-05-03T13:24:08Z</time></trkpt><trkpt lat="46.02169501174368" lon="11.907141274834954"><ele>273.0</ele><time>2026-05-03T13:24:09Z</time></trkpt><trkpt lat="46.02172048280224" lon="11.907290973383658"><ele>273.0</ele><time>2026-05-03T13:24:10Z</time></trkpt><trkpt lat="46.02175107894316" lon="11.907454782067422"><ele>273.0</ele><time>2026-05-03T13:24:11Z</time></trkpt><trkpt lat="46.02178161017826" lon="11.90761987183128"><ele>273.0</ele><time>2026-05-03T13:24:12Z</time></trkpt><trkpt lat="46.02182706647307" lon="11.907793054730526"><ele>273.0</ele><time>2026-05-03T13:24:13Z</time></trkpt><trkpt lat="46.02186662053621" lon="11.90797579395609"><ele>273.0</ele><time>2026-05-03T13:24:13.999Z</time></trkpt><trkpt lat="46.021912192551376" lon="11.908164379369133"><ele>273.0</ele><time>2026-05-03T13:24:14.999Z</time></trkpt><trkpt lat="46.021947021317736" lon="11.908328888557286"><ele>273.0</ele><time>2026-05-03T13:24:15.999Z</time></trkpt><trkpt lat="46.02198731987304" lon="11.908497167836972"><ele>273.0</ele><time>2026-05-03T13:24:16.999Z</time></trkpt><trkpt lat="46.022021748353325" lon="11.90864874582977"><ele>273.25</ele><time>2026-05-03T13:24:17.999Z</time></trkpt><trkpt lat="46.02205371424127" lon="11.908796399366524"><ele>273.5</ele><time>2026-05-03T13:24:18.999Z</time></trkpt><trkpt lat="46.022087068430295" lon="11.908948513898126"><ele>273.75</ele><time>2026-05-03T13:24:19.999Z</time></trkpt><trkpt lat="46.02212392880534" lon="11.9091110668718"><ele>274.0</ele><time>2026-05-03T13:24:20.999Z</time></trkpt><trkpt lat="46.02216016375001" lon="11.909278055257257"><ele>274.25</ele><time>2026-05-03T13:24:21.999Z</time></trkpt><trkpt lat="46.02219726474158" lon="11.909451522011928"><ele>274.5</ele><time>2026-05-03T13:24:22.999Z</time></trkpt><trkpt lat="46.02223959936473" lon="11.909628006276511"><ele>274.75</ele><time>2026-05-03T13:24:23.999Z</time></trkpt><trkpt lat="46.022277465606436" lon="11.909785219739362"><ele>275.0</ele><time>2026-05-03T13:24:24.999Z</time></trkpt><trkpt lat="46.022314494569606" lon="11.909932316178844"><ele>275.25</ele><time>2026-05-03T13:24:25.999Z</time></trkpt><trkpt lat="46.02234609879405" lon="11.910084203700203"><ele>275.5</ele><time>2026-05-03T13:24:26.999Z</time></trkpt><trkpt lat="46.02237841162037" lon="11.910241272874261"><ele>275.75</ele><time>2026-05-03T13:24:27.999Z</time></trkpt><trkpt lat="46.02241413941824" lon="11.910401476904077"><ele>276.0</ele><time>2026-05-03T13:24:28.999Z</time></trkpt><trkpt lat="46.02244219849173" lon="11.910554335982912"><ele>276.0</ele><time>2026-05-03T13:24:29.999Z</time></trkpt><trkpt lat="46.02247605072652" lon="11.910723781693394"><ele>276.0</ele><time>2026-05-03T13:24:30.999Z</time></trkpt><trkpt lat="46.022509584512804" lon="11.910883644244814"><ele>276.0</ele><time>2026-05-03T13:24:31.999Z</time></trkpt><trkpt lat="46.0225285561844" lon="11.911031976046385"><ele>276.0</ele><time>2026-05-03T13:24:32.999Z</time></trkpt><trkpt lat="46.022539830911" lon="11.911172376437642"><ele>276.0</ele><time>2026-05-03T13:24:33.999Z</time></trkpt><trkpt lat="46.022561173964256" lon="11.91132494218992"><ele>276.1666666666667</ele><time>2026-05-03T13:24:34.999Z</time></trkpt><trkpt lat="46.02256895356779" lon="11.911476360617296"><ele>276.3333333333333</ele><time>2026-05-03T13:24:35.999Z</time></trkpt><trkpt lat="46.02257322201342" lon="11.911599362195025"><ele>276.5</ele><time>2026-05-03T13:24:36.999Z</time></trkpt><trkpt lat="46.022581816705525" lon="11.911729600446323"><ele>276.66666666666663</ele><time>2026-05-03T13:24:37.999Z</time></trkpt><trkpt lat="46.02258605838104" lon="11.911836900322848"><ele>276.8333333333333</ele><time>2026-05-03T13:24:38.999Z</time></trkpt><trkpt lat="46.022591757533185" lon="11.911952508778494"><ele>277.0</ele><time>2026-05-03T13:24:39.999Z</time></trkpt><trkpt lat="46.02258172891801" lon="11.912053924075481"><ele>277.0</ele><time>2026-05-03T13:24:40.999Z</time></trkpt><trkpt lat="46.0225660244609" lon="11.912235198619646"><ele>277.0</ele><time>2026-05-03T13:24:42.999Z</time></trkpt><trkpt lat="46.022547047025874" lon="11.91233429306757"><ele>277.0</ele><time>2026-05-03T13:24:43.999Z</time></trkpt><trkpt lat="46.02252960188146" lon="11.91243579832912"><ele>277.0</ele><time>2026-05-03T13:24:44.999Z</time></trkpt><trkpt lat="46.022542526637004" lon="11.912542520991702"><ele>277.0</ele><time>2026-05-03T13:24:45.999Z</time></trkpt><trkpt lat="46.02256772914978" lon="11.912659414537977"><ele>277.0</ele><time>2026-05-03T13:24:46.999Z</time></trkpt><trkpt lat="46.022604368621685" lon="11.912782063888889"><ele>276.5</ele><time>2026-05-03T13:24:47.999Z</time></trkpt><trkpt lat="46.02263808072709" lon="11.912917572474639"><ele>276.0</ele><time>2026-05-03T13:24:48.999Z</time></trkpt><trkpt lat="46.02264935188263" lon="11.91312124055288"><ele>275.5</ele><time>2026-05-03T13:24:49.999Z</time></trkpt><trkpt lat="46.02266042172422" lon="11.913303192010874"><ele>275.0</ele><time>2026-05-03T13:24:50.999Z</time></trkpt><trkpt lat="46.02267227196833" lon="11.9134855442128"><ele>275.0</ele><time>2026-05-03T13:24:51.999Z</time></trkpt><trkpt lat="46.02267919397515" lon="11.913640207692058"><ele>275.0</ele><time>2026-05-03T13:24:52.999Z</time></trkpt><trkpt lat="46.022680448156336" lon="11.913802144679275"><ele>275.0</ele><time>2026-05-03T13:24:53.999Z</time></trkpt><trkpt lat="46.02268538742728" lon="11.913974834703161"><ele>275.0</ele><time>2026-05-03T13:24:54.999Z</time></trkpt><trkpt lat="46.022690017255705" lon="11.914148160322203"><ele>275.0</ele><time>2026-05-03T13:24:55.999Z</time></trkpt><trkpt lat="46.0226967007268" lon="11.914330660461095"><ele>275.0</ele><time>2026-05-03T13:24:56.999Z</time></trkpt><trkpt lat="46.0227115249624" lon="11.914507651354791"><ele>275.0</ele><time>2026-05-03T13:24:57.999Z</time></trkpt><trkpt lat="46.02272655246277" lon="11.914686618835821"><ele>275.0</ele><time>2026-05-03T13:24:58.999Z</time></trkpt><trkpt lat="46.022732818490574" lon="11.91485155076036"><ele>275.0</ele><time>2026-05-03T13:24:59.999Z</time></trkpt><trkpt lat="46.02273877337854" lon="11.915016725038397"><ele>275.0</ele><time>2026-05-03T13:25:00.999Z</time></trkpt><trkpt lat="46.02273691824733" lon="11.915190864917202"><ele>275.0</ele><time>2026-05-03T13:25:01.999Z</time></trkpt><trkpt lat="46.0227401054406" lon="11.915349961924102"><ele>275.0</ele><time>2026-05-03T13:25:02.999Z</time></trkpt><trkpt lat="46.02275551630291" lon="11.91552242919497"><ele>275.75</ele><time>2026-05-03T13:25:03.999Z</time></trkpt><trkpt lat="46.022758110055406" lon="11.915691971097246"><ele>276.5</ele><time>2026-05-03T13:25:04.999Z</time></trkpt><trkpt lat="46.02276988068251" lon="11.915863930895766"><ele>277.25</ele><time>2026-05-03T13:25:05.999Z</time></trkpt><trkpt lat="46.02277762427762" lon="11.916031813172605"><ele>278.0</ele><time>2026-05-03T13:25:07Z</time></trkpt><trkpt lat="46.02277394914818" lon="11.916204390369494"><ele>279.25</ele><time>2026-05-03T13:25:08Z</time></trkpt><trkpt lat="46.02275906746386" lon="11.91637050757965"><ele>280.5</ele><time>2026-05-03T13:25:09Z</time></trkpt><trkpt lat="46.02276624434463" lon="11.916532601117854"><ele>281.75</ele><time>2026-05-03T13:25:10Z</time></trkpt><trkpt lat="46.02277980365996" lon="11.916701988990281"><ele>283.0</ele><time>2026-05-03T13:25:11Z</time></trkpt><trkpt lat="46.02279280931669" lon="11.916881917269285"><ele>283.75</ele><time>2026-05-03T13:25:12Z</time></trkpt><trkpt lat="46.02280874374152" lon="11.917068891082776"><ele>284.5</ele><time>2026-05-03T13:25:13Z</time></trkpt><trkpt lat="46.022817507056835" lon="11.917244598668264"><ele>285.25</ele><time>2026-05-03T13:25:14Z</time></trkpt><trkpt lat="46.022824613729" lon="11.917410062344324"><ele>286.0</ele><time>2026-05-03T13:25:15Z</time></trkpt><trkpt lat="46.022832057443516" lon="11.91759203310082"><ele>286.25</ele><time>2026-05-03T13:25:16Z</time></trkpt><trkpt lat="46.02283528853365" lon="11.917773137517203"><ele>286.5</ele><time>2026-05-03T13:25:17Z</time></trkpt><trkpt lat="46.02283872834192" lon="11.917936863569071"><ele>286.75</ele><time>2026-05-03T13:25:18Z</time></trkpt><trkpt lat="46.02284532417931" lon="11.918118209229485"><ele>287.0</ele><time>2026-05-03T13:25:19Z</time></trkpt><trkpt lat="46.022855794494824" lon="11.918292959230378"><ele>288.0</ele><time>2026-05-03T13:25:20Z</time></trkpt><trkpt lat="46.022863999841995" lon="11.918464445094608"><ele>289.0</ele><time>2026-05-03T13:25:21Z</time></trkpt><trkpt lat="46.02287196010105" lon="11.918634787877298"><ele>290.0</ele><time>2026-05-03T13:25:22Z</time></trkpt><trkpt lat="46.02288535441334" lon="11.918806434923308"><ele>291.0</ele><time>2026-05-03T13:25:23Z</time></trkpt><trkpt lat="46.022894586369574" lon="11.918974675865808"><ele>291.0</ele><time>2026-05-03T13:25:24Z</time></trkpt><trkpt lat="46.022903504929786" lon="11.919149593362835"><ele>291.0</ele><time>2026-05-03T13:25:25Z</time></trkpt><trkpt lat="46.02291480015373" lon="11.919328297355344"><ele>291.0</ele><time>2026-05-03T13:25:26Z</time></trkpt><trkpt lat="46.02292718055215" lon="11.919506959579921"><ele>291.0</ele><time>2026-05-03T13:25:27Z</time></trkpt><trkpt lat="46.02293607067922" lon="11.91968209245063"><ele>291.5</ele><time>2026-05-03T13:25:28Z</time></trkpt><trkpt lat="46.02294342695401" lon="11.919857822017606"><ele>292.0</ele><time>2026-05-03T13:25:29Z</time></trkpt><trkpt lat="46.02295193998748" lon="11.920027700873275"><ele>292.5</ele><time>2026-05-03T13:25:30Z</time></trkpt><trkpt lat="46.0229624163595" lon="11.920190347684155"><ele>293.0</ele><time>2026-05-03T13:25:31Z</time></trkpt><trkpt lat="46.0229684931839" lon="11.920331645727641"><ele>293.0</ele><time>2026-05-03T13:25:32Z</time></trkpt><trkpt lat="46.022978630013874" lon="11.92046893682182"><ele>293.0</ele><time>2026-05-03T13:25:33Z</time></trkpt><trkpt lat="46.02298571735616" lon="11.920596860470182"><ele>293.0</ele><time>2026-05-03T13:25:34Z</time></trkpt><trkpt lat="46.02299244913775" lon="11.920723772724532"><ele>293.0</ele><time>2026-05-03T13:25:35Z</time></trkpt><trkpt lat="46.02299085611976" lon="11.920862660565497"><ele>293.0</ele><time>2026-05-03T13:25:36Z</time></trkpt><trkpt lat="46.02295119859439" lon="11.920970825666954"><ele>292.6666666666667</ele><time>2026-05-03T13:25:37Z</time></trkpt><trkpt lat="46.02289549027401" lon="11.921058625747628"><ele>292.33333333333337</ele><time>2026-05-03T13:25:38Z</time></trkpt><trkpt lat="46.02283740043283" lon="11.921151395445769"><ele>292.0</ele><time>2026-05-03T13:25:39Z</time></trkpt><trkpt lat="46.02280248777381" lon="11.92127304129525"><ele>291.6666666666667</ele><time>2026-05-03T13:25:40Z</time></trkpt><trkpt lat="46.02280214305275" lon="11.921405902861649"><ele>291.3333333333333</ele><time>2026-05-03T13:25:41Z</time></trkpt><trkpt lat="46.02283663715566" lon="11.921510785081987"><ele>291.0</ele><time>2026-05-03T13:25:42Z</time></trkpt><trkpt lat="46.02289690499138" lon="11.921612109928807"><ele>291.0</ele><time>2026-05-03T13:25:43Z</time></trkpt><trkpt lat="46.022975938864754" lon="11.92170857269054"><ele>291.0</ele><time>2026-05-03T13:25:44Z</time></trkpt><trkpt lat="46.02304700904897" lon="11.921838242948388"><ele>291.0</ele><time>2026-05-03T13:25:45Z</time></trkpt><trkpt lat="46.02311097331763" lon="11.921978180447262"><ele>291.0</ele><time>2026-05-03T13:25:46Z</time></trkpt><trkpt lat="46.023167505102684" lon="11.922121215821084"><ele>291.0</ele><time>2026-05-03T13:25:47Z</time></trkpt><trkpt lat="46.02321965563336" lon="11.922275359523713"><ele>291.5</ele><time>2026-05-03T13:25:48Z</time></trkpt><trkpt lat="46.02327701885105" lon="11.922431460008285"><ele>292.0</ele><time>2026-05-03T13:25:49Z</time></trkpt><trkpt lat="46.023339013942206" lon="11.922590536838527"><ele>292.5</ele><time>2026-05-03T13:25:50Z</time></trkpt><trkpt lat="46.023399792116194" lon="11.922747160611495"><ele>293.0</ele><time>2026-05-03T13:25:51Z</time></trkpt><trkpt lat="46.023463845411285" lon="11.922903941394024"><ele>293.5</ele><time>2026-05-03T13:25:52Z</time></trkpt><trkpt lat="46.02352758196732" lon="11.923044231206541"><ele>294.0</ele><time>2026-05-03T13:25:53Z</time></trkpt><trkpt lat="46.02358702300627" lon="11.92319599460439"><ele>294.5</ele><time>2026-05-03T13:25:54Z</time></trkpt><trkpt lat="46.023656565830834" lon="11.923348923572606"><ele>295.0</ele><time>2026-05-03T13:25:55Z</time></trkpt><trkpt lat="46.023725480708904" lon="11.923504052505445"><ele>295.5</ele><time>2026-05-03T13:25:56Z</time></trkpt><trkpt lat="46.02379794195952" lon="11.923647050258051"><ele>296.0</ele><time>2026-05-03T13:25:57Z</time></trkpt><trkpt lat="46.02387667412863" lon="11.923796308730871"><ele>296.5</ele><time>2026-05-03T13:25:58Z</time></trkpt><trkpt lat="46.02395329330899" lon="11.923944012148795"><ele>297.0</ele><time>2026-05-03T13:25:59Z</time></trkpt><trkpt lat="46.024028103807204" lon="11.924087999038862"><ele>297.0</ele><time>2026-05-03T13:26:00Z</time></trkpt><trkpt lat="46.024100762998685" lon="11.92422752406324"><ele>297.0</ele><time>2026-05-03T13:26:01Z</time></trkpt><trkpt lat="46.024172499190556" lon="11.924357668252107"><ele>297.0</ele><time>2026-05-03T13:26:02Z</time></trkpt><trkpt lat="46.024249443446436" lon="11.924491768610233"><ele>297.0</ele><time>2026-05-03T13:26:03Z</time></trkpt><trkpt lat="46.02432705094949" lon="11.924628751255478"><ele>297.0</ele><time>2026-05-03T13:26:04Z</time></trkpt><trkpt lat="46.02441957462639" lon="11.924779233989314"><ele>297.0</ele><time>2026-05-03T13:26:05Z</time></trkpt><trkpt lat="46.0244887934957" lon="11.924919017955801"><ele>297.0</ele><time>2026-05-03T13:26:06Z</time></trkpt><trkpt lat="46.024574100464385" lon="11.925061129466036"><ele>297.0</ele><time>2026-05-03T13:26:07Z</time></trkpt><trkpt lat="46.024659673981155" lon="11.925211294351133"><ele>297.75</ele><time>2026-05-03T13:26:08Z</time></trkpt><trkpt lat="46.02474345343269" lon="11.925369226880559"><ele>298.5</ele><time>2026-05-03T13:26:09Z</time></trkpt><trkpt lat="46.02482955192911" lon="11.925531302033825"><ele>299.25</ele><time>2026-05-03T13:26:10Z</time></trkpt><trkpt lat="46.02490978868019" lon="11.925700920486873"><ele>300.0</ele><time>2026-05-03T13:26:11Z</time></trkpt><trkpt lat="46.024979003333335" lon="11.925859991455631"><ele>299.75</ele><time>2026-05-03T13:26:12Z</time></trkpt><trkpt lat="46.025049058651014" lon="11.92602723471863"><ele>299.5</ele><time>2026-05-03T13:26:13Z</time></trkpt><trkpt lat="46.02511788967213" lon="11.926184009413932"><ele>299.25</ele><time>2026-05-03T13:26:14Z</time></trkpt><trkpt lat="46.025159066799745" lon="11.926326954661596"><ele>299.0</ele><time>2026-05-03T13:26:15Z</time></trkpt><trkpt lat="46.02521635582274" lon="11.926472942826246"><ele>299.0</ele><time>2026-05-03T13:26:16Z</time></trkpt><trkpt lat="46.025270216963634" lon="11.926621006991057"><ele>299.0</ele><time>2026-05-03T13:26:17Z</time></trkpt><trkpt lat="46.02532118210112" lon="11.926770726472267"><ele>299.0</ele><time>2026-05-03T13:26:18Z</time></trkpt><trkpt lat="46.02537679832934" lon="11.92693252908307"><ele>299.0</ele><time>2026-05-03T13:26:19Z</time></trkpt><trkpt lat="46.02543032871811" lon="11.927090718135014"><ele>300.0</ele><time>2026-05-03T13:26:20Z</time></trkpt><trkpt lat="46.025483360920234" lon="11.927243229518"><ele>301.0</ele><time>2026-05-03T13:26:20.999Z</time></trkpt><trkpt lat="46.02553297235151" lon="11.927399768262465"><ele>302.0</ele><time>2026-05-03T13:26:21.999Z</time></trkpt><trkpt lat="46.02558603666002" lon="11.927563773093514"><ele>303.0</ele><time>2026-05-03T13:26:22.999Z</time></trkpt><trkpt lat="46.02563719104072" lon="11.927734825106855"><ele>302.5</ele><time>2026-05-03T13:26:23.999Z</time></trkpt><trkpt lat="46.025691120024824" lon="11.927906617913163"><ele>302.0</ele><time>2026-05-03T13:26:24.999Z</time></trkpt><trkpt lat="46.02574771541733" lon="11.928082499692266"><ele>301.5</ele><time>2026-05-03T13:26:25.999Z</time></trkpt><trkpt lat="46.025800186190025" lon="11.928256026471406"><ele>301.0</ele><time>2026-05-03T13:26:26.999Z</time></trkpt><trkpt lat="46.02585343080583" lon="11.928418220831235"><ele>301.0</ele><time>2026-05-03T13:26:27.999Z</time></trkpt><trkpt lat="46.02590464784963" lon="11.92858513835018"><ele>301.0</ele><time>2026-05-03T13:26:28.999Z</time></trkpt><trkpt lat="46.02595337616225" lon="11.92875436082332"><ele>301.0</ele><time>2026-05-03T13:26:29.999Z</time></trkpt><trkpt lat="46.02600110313495" lon="11.92891515125109"><ele>301.0</ele><time>2026-05-03T13:26:30.999Z</time></trkpt><trkpt lat="46.02605095567727" lon="11.929092150643413"><ele>302.75</ele><time>2026-05-03T13:26:31.999Z</time></trkpt><trkpt lat="46.02610337412877" lon="11.929263541500577"><ele>304.5</ele><time>2026-05-03T13:26:32.999Z</time></trkpt><trkpt lat="46.02615301494363" lon="11.929440361261044"><ele>306.25</ele><time>2026-05-03T13:26:33.999Z</time></trkpt><trkpt lat="46.026205914209264" lon="11.929619492143036"><ele>308.0</ele><time>2026-05-03T13:26:34.999Z</time></trkpt><trkpt lat="46.026253585258104" lon="11.929811963470035"><ele>308.0</ele><time>2026-05-03T13:26:35.999Z</time></trkpt><trkpt lat="46.02629745423885" lon="11.930012682581026"><ele>308.0</ele><time>2026-05-03T13:26:36.999Z</time></trkpt><trkpt lat="46.02634138669721" lon="11.930215331389357"><ele>308.0</ele><time>2026-05-03T13:26:37.999Z</time></trkpt><trkpt lat="46.02638019164532" lon="11.930397358805338"><ele>308.0</ele><time>2026-05-03T13:26:38.999Z</time></trkpt><trkpt lat="46.026430233176846" lon="11.93061991275693"><ele>309.25</ele><time>2026-05-03T13:26:39.999Z</time></trkpt><trkpt lat="46.02646671180028" lon="11.930830088881413"><ele>310.5</ele><time>2026-05-03T13:26:40.999Z</time></trkpt><trkpt lat="46.026502141686585" lon="11.931019828209154"><ele>311.75</ele><time>2026-05-03T13:26:41.999Z</time></trkpt><trkpt lat="46.026524406817266" lon="11.931210233193553"><ele>313.0</ele><time>2026-05-03T13:26:42.999Z</time></trkpt><trkpt lat="46.026548637044954" lon="11.931409767817623"><ele>314.25</ele><time>2026-05-03T13:26:43.999Z</time></trkpt><trkpt lat="46.026570013578045" lon="11.931609463473805"><ele>315.5</ele><time>2026-05-03T13:26:44.999Z</time></trkpt><trkpt lat="46.0265873334044" lon="11.931811878622158"><ele>316.75</ele><time>2026-05-03T13:26:45.999Z</time></trkpt><trkpt lat="46.02660233058788" lon="11.932002261115377"><ele>318.0</ele><time>2026-05-03T13:26:46.999Z</time></trkpt><trkpt lat="46.02661421054328" lon="11.932203694763379"><ele>318.25</ele><time>2026-05-03T13:26:47.999Z</time></trkpt><trkpt lat="46.026624858133744" lon="11.93240982645085"><ele>318.5</ele><time>2026-05-03T13:26:48.999Z</time></trkpt><trkpt lat="46.0266364568195" lon="11.932616541145448"><ele>318.75</ele><time>2026-05-03T13:26:49.999Z</time></trkpt><trkpt lat="46.02664538759396" lon="11.932811968308188"><ele>319.0</ele><time>2026-05-03T13:26:50.999Z</time></trkpt><trkpt lat="46.02665375427406" lon="11.93299094682524"><ele>315.75</ele><time>2026-05-03T13:26:51.999Z</time></trkpt><trkpt lat="46.02665591918138" lon="11.933170416992272"><ele>312.5</ele><time>2026-05-03T13:26:52.999Z</time></trkpt><trkpt lat="46.02666371629415" lon="11.933348249766647"><ele>309.25</ele><time>2026-05-03T13:26:53.999Z</time></trkpt><trkpt lat="46.02667477465635" lon="11.93353572402566"><ele>306.0</ele><time>2026-05-03T13:26:54.999Z</time></trkpt><trkpt lat="46.02668694979836" lon="11.93372556908741"><ele>306.0</ele><time>2026-05-03T13:26:55.999Z</time></trkpt><trkpt lat="46.02669848008147" lon="11.933918197082173"><ele>306.0</ele><time>2026-05-03T13:26:56.999Z</time></trkpt><trkpt lat="46.026712084251514" lon="11.934116035863571"><ele>306.0</ele><time>2026-05-03T13:26:57.999Z</time></trkpt><trkpt lat="46.02672956217343" lon="11.934324800048794"><ele>306.0</ele><time>2026-05-03T13:26:58.999Z</time></trkpt><trkpt lat="46.02675074552291" lon="11.934532597020858"><ele>306.5</ele><time>2026-05-03T13:26:59.999Z</time></trkpt><trkpt lat="46.026778525275034" lon="11.93473974026125"><ele>307.0</ele><time>2026-05-03T13:27:00.999Z</time></trkpt><trkpt lat="46.02680972024329" lon="11.934931015362476"><ele>307.5</ele><time>2026-05-03T13:27:01.999Z</time></trkpt><trkpt lat="46.02684141343451" lon="11.935109196339809"><ele>308.0</ele><time>2026-05-03T13:27:02.999Z</time></trkpt><trkpt lat="46.02687501080092" lon="11.935302694634336"><ele>308.0</ele><time>2026-05-03T13:27:03.999Z</time></trkpt><trkpt lat="46.026908450497494" lon="11.935488894355785"><ele>308.0</ele><time>2026-05-03T13:27:04.999Z</time></trkpt><trkpt lat="46.02694148900681" lon="11.935675426508373"><ele>308.0</ele><time>2026-05-03T13:27:05.999Z</time></trkpt><trkpt lat="46.0269795386187" lon="11.935863618755793"><ele>308.0</ele><time>2026-05-03T13:27:06.999Z</time></trkpt><trkpt lat="46.027012511044084" lon="11.936047063471575"><ele>309.75</ele><time>2026-05-03T13:27:07.999Z</time></trkpt><trkpt lat="46.02705045750443" lon="11.936233392545615"><ele>311.5</ele><time>2026-05-03T13:27:08.999Z</time></trkpt><trkpt lat="46.02708968929301" lon="11.936419395107418"><ele>313.25</ele><time>2026-05-03T13:27:09.999Z</time></trkpt><trkpt lat="46.02713048615547" lon="11.93661061951769"><ele>315.0</ele><time>2026-05-03T13:27:10.999Z</time></trkpt><trkpt lat="46.02716675896257" lon="11.936806449442551"><ele>315.25</ele><time>2026-05-03T13:27:11.999Z</time></trkpt><trkpt lat="46.02720021251408" lon="11.937004135400583"><ele>315.5</ele><time>2026-05-03T13:27:13Z</time></trkpt><trkpt lat="46.02723396020601" lon="11.937196719661108"><ele>315.75</ele><time>2026-05-03T13:27:14Z</time></trkpt><trkpt lat="46.02727182135853" lon="11.937393082168517"><ele>316.0</ele><time>2026-05-03T13:27:15Z</time></trkpt><trkpt lat="46.02730224302932" lon="11.937569153658707"><ele>315.0</ele><time>2026-05-03T13:27:16Z</time></trkpt><trkpt lat="46.02733260505799" lon="11.937744043590238"><ele>314.0</ele><time>2026-05-03T13:27:17Z</time></trkpt><trkpt lat="46.02737202148286" lon="11.937940369204487"><ele>313.0</ele><time>2026-05-03T13:27:18Z</time></trkpt><trkpt lat="46.027412455478704" lon="11.938154505216437"><ele>312.0</ele><time>2026-05-03T13:27:19Z</time></trkpt><trkpt lat="46.027457161705605" lon="11.938374071502606"><ele>309.6666666666667</ele><time>2026-05-03T13:27:20Z</time></trkpt><trkpt lat="46.02750294411117" lon="11.93859732467357"><ele>307.33333333333337</ele><time>2026-05-03T13:27:21Z</time></trkpt><trkpt lat="46.02755016716015" lon="11.938811129800587"><ele>305.0</ele><time>2026-05-03T13:27:22Z</time></trkpt><trkpt lat="46.02760695608715" lon="11.93902234089442"><ele>305.0</ele><time>2026-05-03T13:27:23Z</time></trkpt><trkpt lat="46.027666693409635" lon="11.939240612349266"><ele>305.0</ele><time>2026-05-03T13:27:24Z</time></trkpt><trkpt lat="46.027729948621285" lon="11.9394611976763"><ele>305.0</ele><time>2026-05-03T13:27:25Z</time></trkpt><trkpt lat="46.027794692722146" lon="11.939691728794287"><ele>305.0</ele><time>2026-05-03T13:27:26Z</time></trkpt><trkpt lat="46.02785795077227" lon="11.939902132676151"><ele>305.0</ele><time>2026-05-03T13:27:27Z</time></trkpt><trkpt lat="46.02791606507596" lon="11.940107806254531"><ele>305.0</ele><time>2026-05-03T13:27:28Z</time></trkpt><trkpt lat="46.02797203838363" lon="11.940307316626443"><ele>306.25</ele><time>2026-05-03T13:27:29Z</time></trkpt><trkpt lat="46.028025963088915" lon="11.940487441550925"><ele>307.5</ele><time>2026-05-03T13:27:30Z</time></trkpt><trkpt lat="46.02808058888973" lon="11.94067775022948"><ele>308.75</ele><time>2026-05-03T13:27:31Z</time></trkpt><trkpt lat="46.028136319668214" lon="11.940873036627925"><ele>310.0</ele><time>2026-05-03T13:27:32Z</time></trkpt><trkpt lat="46.02819710053298" lon="11.941074089332025"><ele>310.25</ele><time>2026-05-03T13:27:33Z</time></trkpt><trkpt lat="46.028252977114775" lon="11.941274096901747"><ele>310.5</ele><time>2026-05-03T13:27:34Z</time></trkpt><trkpt lat="46.02830620250657" lon="11.941470683915876"><ele>310.75</ele><time>2026-05-03T13:27:35Z</time></trkpt><trkpt lat="46.028361047903445" lon="11.94167054464507"><ele>311.0</ele><time>2026-05-03T13:27:36Z</time></trkpt><trkpt lat="46.028412937935634" lon="11.941873129422998"><ele>312.33333333333337</ele><time>2026-05-03T13:27:37Z</time></trkpt><trkpt lat="46.028480602771275" lon="11.942075424815775"><ele>313.6666666666667</ele><time>2026-05-03T13:27:38Z</time></trkpt><trkpt lat="46.02855121793473" lon="11.942278308315037"><ele>315.0</ele><time>2026-05-03T13:27:39Z</time></trkpt><trkpt lat="46.028614377751175" lon="11.942497980081185"><ele>315.0</ele><time>2026-05-03T13:27:40Z</time></trkpt><trkpt lat="46.028689186409544" lon="11.942745078976587"><ele>315.0</ele><time>2026-05-03T13:27:41Z</time></trkpt><trkpt lat="46.02873841120557" lon="11.942950269843376"><ele>315.0</ele><time>2026-05-03T13:27:42Z</time></trkpt><trkpt lat="46.028810902424915" lon="11.94320527912328"><ele>315.6666666666667</ele><time>2026-05-03T13:27:43Z</time></trkpt><trkpt lat="46.02887421173553" lon="11.943418941695201"><ele>316.33333333333337</ele><time>2026-05-03T13:27:44Z</time></trkpt><trkpt lat="46.02893083039113" lon="11.9436272738665"><ele>317.0</ele><time>2026-05-03T13:27:45Z</time></trkpt><trkpt lat="46.02898105512133" lon="11.9438171551551"><ele>317.0</ele><time>2026-05-03T13:27:46Z</time></trkpt><trkpt lat="46.02903447958355" lon="11.943987298021984"><ele>317.0</ele><time>2026-05-03T13:27:47Z</time></trkpt><trkpt lat="46.029066420145305" lon="11.94416913153713"><ele>317.0</ele><time>2026-05-03T13:27:48Z</time></trkpt><trkpt lat="46.02912461872355" lon="11.944350567592428"><ele>317.0</ele><time>2026-05-03T13:27:49Z</time></trkpt><trkpt lat="46.02918411822994" lon="11.944524891895522"><ele>316.5</ele><time>2026-05-03T13:27:50Z</time></trkpt><trkpt lat="46.02921117901698" lon="11.944707851580961"><ele>316.0</ele><time>2026-05-03T13:27:51Z</time></trkpt><trkpt lat="46.02926789810349" lon="11.944891593502119"><ele>315.5</ele><time>2026-05-03T13:27:52Z</time></trkpt><trkpt lat="46.029307704087735" lon="11.945079954085587"><ele>315.0</ele><time>2026-05-03T13:27:53Z</time></trkpt><trkpt lat="46.029337559465795" lon="11.945263714194471"><ele>314.75</ele><time>2026-05-03T13:27:54Z</time></trkpt><trkpt lat="46.029370810344" lon="11.945464879404778"><ele>314.5</ele><time>2026-05-03T13:27:55Z</time></trkpt><trkpt lat="46.02940581102815" lon="11.945657886082433"><ele>314.25</ele><time>2026-05-03T13:27:56Z</time></trkpt><trkpt lat="46.02944171138723" lon="11.945850851364618"><ele>314.0</ele><time>2026-05-03T13:27:57Z</time></trkpt><trkpt lat="46.02948277334503" lon="11.946054847674434"><ele>314.0</ele><time>2026-05-03T13:27:58Z</time></trkpt><trkpt lat="46.02952132633008" lon="11.94625045710584"><ele>314.0</ele><time>2026-05-03T13:27:59Z</time></trkpt><trkpt lat="46.02955784498542" lon="11.94644659110988"><ele>314.0</ele><time>2026-05-03T13:28:00Z</time></trkpt><trkpt lat="46.02959163556139" lon="11.946641157722325"><ele>314.0</ele><time>2026-05-03T13:28:01Z</time></trkpt><trkpt lat="46.029628776031856" lon="11.946839015796732"><ele>313.75</ele><time>2026-05-03T13:28:02Z</time></trkpt><trkpt lat="46.02966432929472" lon="11.947035084151704"><ele>313.5</ele><time>2026-05-03T13:28:03Z</time></trkpt><trkpt lat="46.029701973613754" lon="11.947249068293385"><ele>313.25</ele><time>2026-05-03T13:28:04Z</time></trkpt><trkpt lat="46.02974959447598" lon="11.947456558834256"><ele>313.0</ele><time>2026-05-03T13:28:05Z</time></trkpt><trkpt lat="46.02978797457351" lon="11.947649600294904"><ele>312.0</ele><time>2026-05-03T13:28:06Z</time></trkpt><trkpt lat="46.02982446378134" lon="11.947858772821563"><ele>311.0</ele><time>2026-05-03T13:28:07Z</time></trkpt><trkpt lat="46.02987023442464" lon="11.94807913611855"><ele>310.0</ele><time>2026-05-03T13:28:08Z</time></trkpt><trkpt lat="46.0299152244323" lon="11.94829719353387"><ele>309.5</ele><time>2026-05-03T13:28:09Z</time></trkpt><trkpt lat="46.02995211986861" lon="11.948502851457398"><ele>309.0</ele><time>2026-05-03T13:28:10Z</time></trkpt><trkpt lat="46.02998959051649" lon="11.948708543450604"><ele>308.5</ele><time>2026-05-03T13:28:11Z</time></trkpt><trkpt lat="46.03002894905326" lon="11.948918126936437"><ele>308.0</ele><time>2026-05-03T13:28:12Z</time></trkpt><trkpt lat="46.030068958689355" lon="11.94913669562877"><ele>308.33333333333337</ele><time>2026-05-03T13:28:13Z</time></trkpt><trkpt lat="46.030112429899425" lon="11.949365429373689"><ele>308.6666666666667</ele><time>2026-05-03T13:28:14Z</time></trkpt><trkpt lat="46.03015893349317" lon="11.949597835341256"><ele>309.0</ele><time>2026-05-03T13:28:15Z</time></trkpt><trkpt lat="46.030199518854566" lon="11.94982195536208"><ele>309.0</ele><time>2026-05-03T13:28:16Z</time></trkpt><trkpt lat="46.03023551269569" lon="11.950028758740283"><ele>309.0</ele><time>2026-05-03T13:28:17Z</time></trkpt><trkpt lat="46.03027635576758" lon="11.950248093988192"><ele>309.0</ele><time>2026-05-03T13:28:18Z</time></trkpt><trkpt lat="46.03031662936019" lon="11.950469329207474"><ele>308.3333333333333</ele><time>2026-05-03T13:28:19Z</time></trkpt><trkpt lat="46.03035439912961" lon="11.95069656180679"><ele>307.66666666666663</ele><time>2026-05-03T13:28:20Z</time></trkpt><trkpt lat="46.03038918473338" lon="11.95090199657471"><ele>307.0</ele><time>2026-05-03T13:28:21Z</time></trkpt><trkpt lat="46.0304259268834" lon="11.951109269830447"><ele>307.0</ele><time>2026-05-03T13:28:21.999Z</time></trkpt><trkpt lat="46.03046433555491" lon="11.951317843070745"><ele>307.0</ele><time>2026-05-03T13:28:22.999Z</time></trkpt><trkpt lat="46.030502704477" lon="11.951527556435014"><ele>307.0</ele><time>2026-05-03T13:28:23.999Z</time></trkpt><trkpt lat="46.03053884819673" lon="11.951732948216968"><ele>307.0</ele><time>2026-05-03T13:28:24.999Z</time></trkpt><trkpt lat="46.030574684796974" lon="11.95193061604188"><ele>306.25</ele><time>2026-05-03T13:28:25.999Z</time></trkpt><trkpt lat="46.03060470885548" lon="11.952135008223685"><ele>305.5</ele><time>2026-05-03T13:28:26.999Z</time></trkpt><trkpt lat="46.03062928713784" lon="11.952341256433659"><ele>304.75</ele><time>2026-05-03T13:28:27.999Z</time></trkpt><trkpt lat="46.03065432848691" lon="11.952535647863245"><ele>304.0</ele><time>2026-05-03T13:28:28.999Z</time></trkpt><trkpt lat="46.03067962341511" lon="11.95273639978259"><ele>303.75</ele><time>2026-05-03T13:28:29.999Z</time></trkpt><trkpt lat="46.030700897066325" lon="11.952937221626751"><ele>303.5</ele><time>2026-05-03T13:28:30.999Z</time></trkpt><trkpt lat="46.03072474501465" lon="11.95314012462804"><ele>303.25</ele><time>2026-05-03T13:28:31.999Z</time></trkpt><trkpt lat="46.03074741394404" lon="11.95333619519906"><ele>303.0</ele><time>2026-05-03T13:28:32.999Z</time></trkpt><trkpt lat="46.03076618624358" lon="11.953533800422406"><ele>303.0</ele><time>2026-05-03T13:28:33.999Z</time></trkpt><trkpt lat="46.03078212656233" lon="11.9537256667652"><ele>303.0</ele><time>2026-05-03T13:28:34.999Z</time></trkpt><trkpt lat="46.030789141415546" lon="11.953917259508511"><ele>303.0</ele><time>2026-05-03T13:28:35.999Z</time></trkpt><trkpt lat="46.03080767059779" lon="11.954115595561156"><ele>303.0</ele><time>2026-05-03T13:28:36.999Z</time></trkpt><trkpt lat="46.03083170962776" lon="11.954307906193733"><ele>301.75</ele><time>2026-05-03T13:28:37.999Z</time></trkpt><trkpt lat="46.030845404899296" lon="11.95451443461732"><ele>300.5</ele><time>2026-05-03T13:28:38.999Z</time></trkpt><trkpt lat="46.03086525735905" lon="11.954703937139167"><ele>299.25</ele><time>2026-05-03T13:28:39.999Z</time></trkpt><trkpt lat="46.03088492902179" lon="11.95490556798815"><ele>298.0</ele><time>2026-05-03T13:28:40.999Z</time></trkpt><trkpt lat="46.03090574722039" lon="11.955108908989587"><ele>297.75</ele><time>2026-05-03T13:28:41.999Z</time></trkpt><trkpt lat="46.03092199577806" lon="11.955315535633561"><ele>297.5</ele><time>2026-05-03T13:28:42.999Z</time></trkpt><trkpt lat="46.030938576104994" lon="11.955523474006"><ele>297.25</ele><time>2026-05-03T13:28:43.999Z</time></trkpt><trkpt lat="46.030958799492176" lon="11.955730601077024"><ele>297.0</ele><time>2026-05-03T13:28:44.999Z</time></trkpt><trkpt lat="46.0309811849658" lon="11.95594196255819"><ele>296.6666666666667</ele><time>2026-05-03T13:28:45.999Z</time></trkpt><trkpt lat="46.03100289333441" lon="11.956158352268323"><ele>296.33333333333337</ele><time>2026-05-03T13:28:46.999Z</time></trkpt><trkpt lat="46.03102300198664" lon="11.956382036564243"><ele>296.0</ele><time>2026-05-03T13:28:47.999Z</time></trkpt><trkpt lat="46.031043512353854" lon="11.956602388949483"><ele>295.25</ele><time>2026-05-03T13:28:48.999Z</time></trkpt><trkpt lat="46.03106216579663" lon="11.956823862892033"><ele>294.5</ele><time>2026-05-03T13:28:49.999Z</time></trkpt><trkpt lat="46.03108289762974" lon="11.95704874492547"><ele>293.75</ele><time>2026-05-03T13:28:50.999Z</time></trkpt><trkpt lat="46.03110288609094" lon="11.957238681357666"><ele>293.0</ele><time>2026-05-03T13:28:51.999Z</time></trkpt><trkpt lat="46.03112932465004" lon="11.957448691585087"><ele>292.33333333333337</ele><time>2026-05-03T13:28:52.999Z</time></trkpt><trkpt lat="46.03114991084125" lon="11.957677963119757"><ele>291.6666666666667</ele><time>2026-05-03T13:28:53.999Z</time></trkpt><trkpt lat="46.031171590188265" lon="11.957899098471037"><ele>291.0</ele><time>2026-05-03T13:28:54.999Z</time></trkpt><trkpt lat="46.03119305951678" lon="11.958104188700343"><ele>291.0</ele><time>2026-05-03T13:28:55.999Z</time></trkpt><trkpt lat="46.03121140810946" lon="11.958307090648061"><ele>291.0</ele><time>2026-05-03T13:28:56.999Z</time></trkpt><trkpt lat="46.03122684220374" lon="11.9585041909535"><ele>291.0</ele><time>2026-05-03T13:28:57.999Z</time></trkpt><trkpt lat="46.0312456519919" lon="11.958693242420887"><ele>291.0</ele><time>2026-05-03T13:28:58.999Z</time></trkpt><trkpt lat="46.031263913452946" lon="11.958888755576337"><ele>290.75</ele><time>2026-05-03T13:28:59.999Z</time></trkpt><trkpt lat="46.0312807478302" lon="11.959071727422243"><ele>290.5</ele><time>2026-05-03T13:29:00.999Z</time></trkpt><trkpt lat="46.03129421172603" lon="11.959240104295992"><ele>290.25</ele><time>2026-05-03T13:29:01.999Z</time></trkpt><trkpt lat="46.03131205446794" lon="11.959405849765906"><ele>290.0</ele><time>2026-05-03T13:29:02.999Z</time></trkpt><trkpt lat="46.03132302378993" lon="11.959554681810864"><ele>289.6666666666667</ele><time>2026-05-03T13:29:03.999Z</time></trkpt><trkpt lat="46.031325858554034" lon="11.959673520081305"><ele>289.33333333333337</ele><time>2026-05-03T13:29:04.999Z</time></trkpt><trkpt lat="46.031317298145325" lon="11.959770212290316"><ele>289.0</ele><time>2026-05-03T13:29:05.999Z</time></trkpt><trkpt lat="46.03130094713001" lon="11.959863988239466"><ele>288.6666666666667</ele><time>2026-05-03T13:29:06.999Z</time></trkpt><trkpt lat="46.03127642843226" lon="11.959971691752678"><ele>288.3333333333333</ele><time>2026-05-03T13:29:07.999Z</time></trkpt><trkpt lat="46.03127506852331" lon="11.960083734300612"><ele>288.0</ele><time>2026-05-03T13:29:08.999Z</time></trkpt><trkpt lat="46.03130932876703" lon="11.960182831290455"><ele>287.8</ele><time>2026-05-03T13:29:09.999Z</time></trkpt><trkpt lat="46.031361914559234" lon="11.960286801358539"><ele>287.6</ele><time>2026-05-03T13:29:10.999Z</time></trkpt><trkpt lat="46.03140238513323" lon="11.960409596665674"><ele>287.4</ele><time>2026-05-03T13:29:11.999Z</time></trkpt><trkpt lat="46.031425373796424" lon="11.960553525406576"><ele>287.2</ele><time>2026-05-03T13:29:12.999Z</time></trkpt><trkpt lat="46.03143066592995" lon="11.960675159951407"><ele>287.0</ele><time>2026-05-03T13:29:13.999Z</time></trkpt><trkpt lat="46.03143472997566" lon="11.960792994729648"><ele>286.6666666666667</ele><time>2026-05-03T13:29:14.999Z</time></trkpt><trkpt lat="46.03144223534234" lon="11.96092207250183"><ele>286.33333333333337</ele><time>2026-05-03T13:29:15.999Z</time></trkpt><trkpt lat="46.031443882580895" lon="11.961041431849688"><ele>286.0</ele><time>2026-05-03T13:29:16.999Z</time></trkpt><trkpt lat="46.03143977201904" lon="11.96114865468819"><ele>285.6666666666667</ele><time>2026-05-03T13:29:17.999Z</time></trkpt><trkpt lat="46.03143785853635" lon="11.961243360186385"><ele>285.3333333333333</ele><time>2026-05-03T13:29:19Z</time></trkpt><trkpt lat="46.03143479275374" lon="11.96133461477555"><ele>285.0</ele><time>2026-05-03T13:29:21Z</time></trkpt><trkpt lat="46.03146972690355" lon="11.961434189945074"><ele>285.0</ele><time>2026-05-03T13:30:27Z</time></trkpt><trkpt lat="46.031481597060555" lon="11.96153196169891"><ele>285.0</ele><time>2026-05-03T13:30:30Z</time></trkpt><trkpt lat="46.031506394224834" lon="11.961638187428715"><ele>285.0</ele><time>2026-05-03T13:30:32Z</time></trkpt><trkpt lat="46.03152970682055" lon="11.961751351781396"><ele>285.0</ele><time>2026-05-03T13:30:33Z</time></trkpt><trkpt lat="46.0315517961309" lon="11.961893223444797"><ele>285.0</ele><time>2026-05-03T13:30:33.999Z</time></trkpt><trkpt lat="46.03157080154254" lon="11.962030259072929"><ele>285.0</ele><time>2026-05-03T13:30:34.999Z</time></trkpt><trkpt lat="46.03159809530339" lon="11.962186572957938"><ele>285.25</ele><time>2026-05-03T13:30:35.999Z</time></trkpt><trkpt lat="46.03163867017811" lon="11.962346497544626"><ele>285.5</ele><time>2026-05-03T13:30:36.999Z</time></trkpt><trkpt lat="46.03169070559177" lon="11.962500092820004"><ele>285.75</ele><time>2026-05-03T13:30:37.999Z</time></trkpt><trkpt lat="46.03175325571624" lon="11.962660589284086"><ele>286.0</ele><time>2026-05-03T13:30:38.999Z</time></trkpt><trkpt lat="46.0318271431423" lon="11.962827017726687"><ele>286.3333333333333</ele><time>2026-05-03T13:30:39.999Z</time></trkpt><trkpt lat="46.031930789727205" lon="11.96300643505753"><ele>286.6666666666667</ele><time>2026-05-03T13:30:40.999Z</time></trkpt><trkpt lat="46.03202712666301" lon="11.963165720441731"><ele>287.0</ele><time>2026-05-03T13:30:41.999Z</time></trkpt><trkpt lat="46.03212988492498" lon="11.963324501104863"><ele>286.25</ele><time>2026-05-03T13:30:42.999Z</time></trkpt><trkpt lat="46.032231536394626" lon="11.963483756641624"><ele>285.5</ele><time>2026-05-03T13:30:43.999Z</time></trkpt><trkpt lat="46.032318995130986" lon="11.963631528897295"><ele>284.75</ele><time>2026-05-03T13:30:44.999Z</time></trkpt><trkpt lat="46.032394168576296" lon="11.963770769437302"><ele>284.0</ele><time>2026-05-03T13:30:45.999Z</time></trkpt><trkpt lat="46.0324812901543" lon="11.963923189252021"><ele>283.0</ele><time>2026-05-03T13:30:46.999Z</time></trkpt><trkpt lat="46.032572680404016" lon="11.96407522627603"><ele>282.0</ele><time>2026-05-03T13:30:47.999Z</time></trkpt><trkpt lat="46.03268090546778" lon="11.964240852528947"><ele>281.0</ele><time>2026-05-03T13:30:48.999Z</time></trkpt><trkpt lat="46.03277022658337" lon="11.964416995379194"><ele>280.0</ele><time>2026-05-03T13:30:49.999Z</time></trkpt><trkpt lat="46.032861166160735" lon="11.964601254633427"><ele>278.3333333333333</ele><time>2026-05-03T13:30:50.999Z</time></trkpt><trkpt lat="46.03293847326472" lon="11.964807330493706"><ele>276.6666666666667</ele><time>2026-05-03T13:30:51.999Z</time></trkpt><trkpt lat="46.03301724709114" lon="11.965042283413899"><ele>275.0</ele><time>2026-05-03T13:30:52.999Z</time></trkpt><trkpt lat="46.033089648557926" lon="11.9652745514889"><ele>274.33333333333337</ele><time>2026-05-03T13:30:53.999Z</time></trkpt><trkpt lat="46.03315148587242" lon="11.965479230724329"><ele>273.6666666666667</ele><time>2026-05-03T13:30:54.999Z</time></trkpt><trkpt lat="46.0332108283227" lon="11.96568518180479"><ele>273.0</ele><time>2026-05-03T13:30:55.999Z</time></trkpt><trkpt lat="46.03327560980087" lon="11.965896025409096"><ele>273.6666666666667</ele><time>2026-05-03T13:30:56.999Z</time></trkpt><trkpt lat="46.033344593642724" lon="11.966112803939316"><ele>274.33333333333337</ele><time>2026-05-03T13:30:57.999Z</time></trkpt><trkpt lat="46.033398158598196" lon="11.966315470415125"><ele>275.0</ele><time>2026-05-03T13:30:58.999Z</time></trkpt><trkpt lat="46.03344918384271" lon="11.966544535202157"><ele>273.6666666666667</ele><time>2026-05-03T13:30:59.999Z</time></trkpt><trkpt lat="46.03348473938254" lon="11.966768587425475"><ele>272.3333333333333</ele><time>2026-05-03T13:31:00.999Z</time></trkpt><trkpt lat="46.03350168210201" lon="11.967011379150469"><ele>271.0</ele><time>2026-05-03T13:31:01.999Z</time></trkpt><trkpt lat="46.03350585032256" lon="11.967253632506603"><ele>271.0</ele><time>2026-05-03T13:31:02.999Z</time></trkpt><trkpt lat="46.03351649801182" lon="11.967505055413096"><ele>271.0</ele><time>2026-05-03T13:31:03.999Z</time></trkpt><trkpt lat="46.03349276939347" lon="11.967738241223469"><ele>271.0</ele><time>2026-05-03T13:31:04.999Z</time></trkpt><trkpt lat="46.033485319282356" lon="11.967967078226351"><ele>269.75</ele><time>2026-05-03T13:31:05.999Z</time></trkpt><trkpt lat="46.03347051065318" lon="11.968148868553605"><ele>268.5</ele><time>2026-05-03T13:31:06.999Z</time></trkpt><trkpt lat="46.03346605524717" lon="11.96835052681643"><ele>267.25</ele><time>2026-05-03T13:31:07.999Z</time></trkpt><trkpt lat="46.033455363295786" lon="11.96855852649806"><ele>266.0</ele><time>2026-05-03T13:31:08.999Z</time></trkpt><trkpt lat="46.033446260409406" lon="11.96876574181511"><ele>266.0</ele><time>2026-05-03T13:31:09.999Z</time></trkpt><trkpt lat="46.033451340425536" lon="11.968982539801091"><ele>266.0</ele><time>2026-05-03T13:31:10.999Z</time></trkpt><trkpt lat="46.03344643108333" lon="11.969204800242052"><ele>266.0</ele><time>2026-05-03T13:31:11.999Z</time></trkpt><trkpt lat="46.033445803448515" lon="11.969410301856325"><ele>266.0</ele><time>2026-05-03T13:31:12.999Z</time></trkpt><trkpt lat="46.03346498194682" lon="11.969621661487563"><ele>266.0</ele><time>2026-05-03T13:31:13.999Z</time></trkpt><trkpt lat="46.03349602786066" lon="11.969833282905958"><ele>266.0</ele><time>2026-05-03T13:31:14.999Z</time></trkpt><trkpt lat="46.033536968145214" lon="11.970028784180911"><ele>266.0</ele><time>2026-05-03T13:31:15.999Z</time></trkpt><trkpt lat="46.03359195456133" lon="11.970220693621089"><ele>266.0</ele><time>2026-05-03T13:31:16.999Z</time></trkpt><trkpt lat="46.033650874682394" lon="11.970410943147314"><ele>265.25</ele><time>2026-05-03T13:31:17.999Z</time></trkpt><trkpt lat="46.03371735849386" lon="11.97059880222475"><ele>264.5</ele><time>2026-05-03T13:31:18.999Z</time></trkpt><trkpt lat="46.033773957760715" lon="11.970775511997052"><ele>263.75</ele><time>2026-05-03T13:31:19.999Z</time></trkpt><trkpt lat="46.03383987075739" lon="11.970949940252217"><ele>263.0</ele><time>2026-05-03T13:31:20.999Z</time></trkpt><trkpt lat="46.03390561541755" lon="11.97112933359332"><ele>262.75</ele><time>2026-05-03T13:31:21.999Z</time></trkpt><trkpt lat="46.0339661431335" lon="11.971281050737812"><ele>262.5</ele><time>2026-05-03T13:31:22.999Z</time></trkpt><trkpt lat="46.03404241354815" lon="11.971470945402409"><ele>262.25</ele><time>2026-05-03T13:31:23.999Z</time></trkpt><trkpt lat="46.03411171240284" lon="11.971656840616498"><ele>262.0</ele><time>2026-05-03T13:31:25Z</time></trkpt><trkpt lat="46.0341756986978" lon="11.971837132539319"><ele>262.75</ele><time>2026-05-03T13:31:26Z</time></trkpt><trkpt lat="46.03422917415157" lon="11.971997706233855"><ele>263.5</ele><time>2026-05-03T13:31:27Z</time></trkpt><trkpt lat="46.034289726340354" lon="11.972158620171742"><ele>264.25</ele><time>2026-05-03T13:31:28Z</time></trkpt><trkpt lat="46.0343486698446" lon="11.97231719359619"><ele>265.0</ele><time>2026-05-03T13:31:29Z</time></trkpt><trkpt lat="46.03441198733676" lon="11.97249511843395"><ele>264.75</ele><time>2026-05-03T13:31:30Z</time></trkpt><trkpt lat="46.03447713216598" lon="11.972654160131652"><ele>264.5</ele><time>2026-05-03T13:31:31Z</time></trkpt><trkpt lat="46.03453706457219" lon="11.972816884513403"><ele>264.25</ele><time>2026-05-03T13:31:32Z</time></trkpt><trkpt lat="46.03459398284372" lon="11.972973445695192"><ele>264.0</ele><time>2026-05-03T13:31:33Z</time></trkpt><trkpt lat="46.034657508629195" lon="11.973134480130463"><ele>264.0</ele><time>2026-05-03T13:31:34Z</time></trkpt><trkpt lat="46.03472437132398" lon="11.973298603975884"><ele>264.0</ele><time>2026-05-03T13:31:35Z</time></trkpt><trkpt lat="46.03479076683458" lon="11.973466899734463"><ele>264.0</ele><time>2026-05-03T13:31:36Z</time></trkpt><trkpt lat="46.03486257000522" lon="11.973644368394543"><ele>264.0</ele><time>2026-05-03T13:31:37Z</time></trkpt><trkpt lat="46.03493869020658" lon="11.973838926269192"><ele>264.3333333333333</ele><time>2026-05-03T13:31:38Z</time></trkpt><trkpt lat="46.03502953195337" lon="11.974051659593009"><ele>264.66666666666663</ele><time>2026-05-03T13:31:39Z</time></trkpt><trkpt lat="46.03511580125562" lon="11.974263431511641"><ele>265.0</ele><time>2026-05-03T13:31:40Z</time></trkpt><trkpt lat="46.03519758866237" lon="11.97447039109477"><ele>264.0</ele><time>2026-05-03T13:31:41Z</time></trkpt><trkpt lat="46.03528509987255" lon="11.974681880473122"><ele>263.0</ele><time>2026-05-03T13:31:42Z</time></trkpt><trkpt lat="46.03536699508484" lon="11.974881732132046"><ele>262.0</ele><time>2026-05-03T13:31:43Z</time></trkpt><trkpt lat="46.03544793474907" lon="11.97508102052511"><ele>262.0</ele><time>2026-05-03T13:31:44Z</time></trkpt><trkpt lat="46.03553185924189" lon="11.975289177086715"><ele>262.0</ele><time>2026-05-03T13:31:45Z</time></trkpt><trkpt lat="46.03561222245617" lon="11.975479445636253"><ele>262.0</ele><time>2026-05-03T13:31:46Z</time></trkpt><trkpt lat="46.03569632338081" lon="11.975682096697074"><ele>261.66666666666663</ele><time>2026-05-03T13:31:47Z</time></trkpt><trkpt lat="46.03577420505519" lon="11.975880845393224"><ele>261.3333333333333</ele><time>2026-05-03T13:31:48Z</time></trkpt><trkpt lat="46.03584532793739" lon="11.976067381961638"><ele>261.0</ele><time>2026-05-03T13:31:49Z</time></trkpt><trkpt lat="46.03593019471883" lon="11.976252410825715"><ele>260.3333333333333</ele><time>2026-05-03T13:31:50Z</time></trkpt><trkpt lat="46.035991765420434" lon="11.976441129269595"><ele>259.66666666666663</ele><time>2026-05-03T13:31:51Z</time></trkpt><trkpt lat="46.03606561493163" lon="11.976628451504851"><ele>259.0</ele><time>2026-05-03T13:31:52Z</time></trkpt><trkpt lat="46.03615458961635" lon="11.976827635939072"><ele>259.0</ele><time>2026-05-03T13:31:53Z</time></trkpt><trkpt lat="46.0362344578803" lon="11.977016721031378"><ele>259.0</ele><time>2026-05-03T13:31:54Z</time></trkpt><trkpt lat="46.03631024056044" lon="11.977195564501768"><ele>259.0</ele><time>2026-05-03T13:31:55Z</time></trkpt><trkpt lat="46.03638607727538" lon="11.977386730115947"><ele>260.66666666666663</ele><time>2026-05-03T13:31:56Z</time></trkpt><trkpt lat="46.0364586619917" lon="11.977573474700222"><ele>262.3333333333333</ele><time>2026-05-03T13:31:57Z</time></trkpt><trkpt lat="46.03653305463536" lon="11.977760643222718"><ele>264.0</ele><time>2026-05-03T13:31:58Z</time></trkpt><trkpt lat="46.03661644312004" lon="11.977950358153612"><ele>263.25</ele><time>2026-05-03T13:31:59Z</time></trkpt><trkpt lat="46.03668099111181" lon="11.978124517353336"><ele>262.5</ele><time>2026-05-03T13:32:00Z</time></trkpt><trkpt lat="46.03675860213885" lon="11.978311690116358"><ele>261.75</ele><time>2026-05-03T13:32:01Z</time></trkpt><trkpt lat="46.036839426225974" lon="11.97849901249589"><ele>261.0</ele><time>2026-05-03T13:32:02Z</time></trkpt><trkpt lat="46.03690817028886" lon="11.97868394008997"><ele>261.0</ele><time>2026-05-03T13:32:03Z</time></trkpt><trkpt lat="46.036978163703246" lon="11.978858450655332"><ele>261.0</ele><time>2026-05-03T13:32:04Z</time></trkpt><trkpt lat="46.037050554077936" lon="11.979035159500153"><ele>261.0</ele><time>2026-05-03T13:32:05Z</time></trkpt><trkpt lat="46.03712370749714" lon="11.979220162979098"><ele>261.0</ele><time>2026-05-03T13:32:06Z</time></trkpt><trkpt lat="46.03719672186107" lon="11.979404119068835"><ele>259.5</ele><time>2026-05-03T13:32:07Z</time></trkpt><trkpt lat="46.03726456247242" lon="11.979575326415763"><ele>258.0</ele><time>2026-05-03T13:32:08Z</time></trkpt><trkpt lat="46.03733470512904" lon="11.979749462723984"><ele>256.5</ele><time>2026-05-03T13:32:09Z</time></trkpt><trkpt lat="46.03741410851061" lon="11.979935857661008"><ele>255.0</ele><time>2026-05-03T13:32:10Z</time></trkpt><trkpt lat="46.037491887086716" lon="11.980127772808984"><ele>253.0</ele><time>2026-05-03T13:32:11Z</time></trkpt><trkpt lat="46.037559757191424" lon="11.9802968249855"><ele>251.0</ele><time>2026-05-03T13:32:12Z</time></trkpt><trkpt lat="46.03762406135673" lon="11.98046235556214"><ele>249.0</ele><time>2026-05-03T13:32:13Z</time></trkpt><trkpt lat="46.03769404999162" lon="11.980635674077542"><ele>247.0</ele><time>2026-05-03T13:32:14Z</time></trkpt><trkpt lat="46.03776940379431" lon="11.980813651379771"><ele>247.0</ele><time>2026-05-03T13:32:15Z</time></trkpt><trkpt lat="46.037843957157335" lon="11.98098985403722"><ele>247.0</ele><time>2026-05-03T13:32:16Z</time></trkpt><trkpt lat="46.03791679225603" lon="11.981167410986654"><ele>247.0</ele><time>2026-05-03T13:32:17Z</time></trkpt><trkpt lat="46.03798996935164" lon="11.981336819668236"><ele>247.0</ele><time>2026-05-03T13:32:18Z</time></trkpt><trkpt lat="46.03805683114379" lon="11.98150058835155"><ele>247.0</ele><time>2026-05-03T13:32:19Z</time></trkpt><trkpt lat="46.03812468841722" lon="11.981664072516926"><ele>247.0</ele><time>2026-05-03T13:32:20Z</time></trkpt><trkpt lat="46.03819142804292" lon="11.981818847135928"><ele>247.0</ele><time>2026-05-03T13:32:21Z</time></trkpt><trkpt lat="46.03825196451232" lon="11.981968144439913"><ele>247.0</ele><time>2026-05-03T13:32:22Z</time></trkpt><trkpt lat="46.03830226682204" lon="11.982100316799105"><ele>246.83333333333331</ele><time>2026-05-03T13:32:23Z</time></trkpt><trkpt lat="46.03834368476725" lon="11.982203034150404"><ele>246.66666666666666</ele><time>2026-05-03T13:32:24Z</time></trkpt><trkpt lat="46.038404192217946" lon="11.982316313909582"><ele>246.5</ele><time>2026-05-03T13:32:25Z</time></trkpt><trkpt lat="46.038436044871915" lon="11.982405937932368"><ele>246.33333333333331</ele><time>2026-05-03T13:32:26Z</time></trkpt><trkpt lat="46.0384827716135" lon="11.982513687077715"><ele>246.16666666666666</ele><time>2026-05-03T13:32:28Z</time></trkpt><trkpt lat="46.03853500925797" lon="11.9826453780767"><ele>246.0</ele><time>2026-05-03T13:32:31Z</time></trkpt><trkpt lat="46.03855852201927" lon="11.982735612231968"><ele>246.0</ele><time>2026-05-03T13:32:33Z</time></trkpt><trkpt lat="46.03856376196386" lon="11.982845384179942"><ele>246.0</ele><time>2026-05-03T13:32:35Z</time></trkpt><trkpt lat="46.03855588183353" lon="11.982940256586057"><ele>246.0</ele><time>2026-05-03T13:32:36Z</time></trkpt><trkpt lat="46.038553312392224" lon="11.983040475700198"><ele>246.0</ele><time>2026-05-03T13:32:36.999Z</time></trkpt><trkpt lat="46.038574698829706" lon="11.983155118676118"><ele>246.0</ele><time>2026-05-03T13:32:37.999Z</time></trkpt><trkpt lat="46.03861794520815" lon="11.983261245848768"><ele>246.0</ele><time>2026-05-03T13:32:38.999Z</time></trkpt><trkpt lat="46.03867363709634" lon="11.983362819664036"><ele>246.0</ele><time>2026-05-03T13:32:39.999Z</time></trkpt><trkpt lat="46.03871508555672" lon="11.983458772034526"><ele>246.00000000000003</ele><time>2026-05-03T13:32:40.999Z</time></trkpt><trkpt lat="46.03873516656602" lon="11.983599622860636"><ele>246.00000000000003</ele><time>2026-05-03T13:32:41.999Z</time></trkpt><trkpt lat="46.03873014729174" lon="11.983757978103492"><ele>246.0</ele><time>2026-05-03T13:32:42.999Z</time></trkpt><trkpt lat="46.03871220918991" lon="11.983941891078409"><ele>246.0</ele><time>2026-05-03T13:32:43.999Z</time></trkpt><trkpt lat="46.038681675840316" lon="11.984120076812312"><ele>244.0</ele><time>2026-05-03T13:32:44.999Z</time></trkpt><trkpt lat="46.038624035964105" lon="11.984315354871198"><ele>242.0</ele><time>2026-05-03T13:32:45.999Z</time></trkpt><trkpt lat="46.03855473309954" lon="11.984500514483855"><ele>240.0</ele><time>2026-05-03T13:32:46.999Z</time></trkpt><trkpt lat="46.038475613997505" lon="11.984696136258348"><ele>240.0</ele><time>2026-05-03T13:32:47.999Z</time></trkpt><trkpt lat="46.03839531986513" lon="11.984878734274336"><ele>240.0</ele><time>2026-05-03T13:32:48.999Z</time></trkpt><trkpt lat="46.038329833596606" lon="11.985048684911183"><ele>240.0</ele><time>2026-05-03T13:32:49.999Z</time></trkpt><trkpt lat="46.03826347966643" lon="11.985208830176461"><ele>240.0</ele><time>2026-05-03T13:32:50.999Z</time></trkpt><trkpt lat="46.03819223997196" lon="11.98538385237693"><ele>240.5</ele><time>2026-05-03T13:32:51.999Z</time></trkpt><trkpt lat="46.03812715079351" lon="11.985555783815483"><ele>241.0</ele><time>2026-05-03T13:32:52.999Z</time></trkpt><trkpt lat="46.038066973874805" lon="11.9857211716481"><ele>241.5</ele><time>2026-05-03T13:32:53.999Z</time></trkpt><trkpt lat="46.03802454849961" lon="11.98590299407802"><ele>242.0</ele><time>2026-05-03T13:32:54.999Z</time></trkpt><trkpt lat="46.038009245428526" lon="11.986100305626127"><ele>239.75</ele><time>2026-05-03T13:32:55.999Z</time></trkpt><trkpt lat="46.03801585318625" lon="11.986302053672292"><ele>237.5</ele><time>2026-05-03T13:32:56.999Z</time></trkpt><trkpt lat="46.0380212396919" lon="11.986509033025646"><ele>235.25</ele><time>2026-05-03T13:32:57.999Z</time></trkpt><trkpt lat="46.03801781770758" lon="11.986709755227007"><ele>233.0</ele><time>2026-05-03T13:32:58.999Z</time></trkpt><trkpt lat="46.03801453008901" lon="11.986902497337674"><ele>232.75</ele><time>2026-05-03T13:32:59.999Z</time></trkpt><trkpt lat="46.03801498285227" lon="11.987103102270027"><ele>232.5</ele><time>2026-05-03T13:33:00.999Z</time></trkpt><trkpt lat="46.03800522818778" lon="11.987305670667547"><ele>232.25</ele><time>2026-05-03T13:33:01.999Z</time></trkpt><trkpt lat="46.03800413639318" lon="11.987521673964755"><ele>232.0</ele><time>2026-05-03T13:33:02.999Z</time></trkpt><trkpt lat="46.03799909579588" lon="11.987724888389767"><ele>232.5</ele><time>2026-05-03T13:33:03.999Z</time></trkpt><trkpt lat="46.037990044837926" lon="11.987912711705397"><ele>233.0</ele><time>2026-05-03T13:33:04.999Z</time></trkpt><trkpt lat="46.03800106170888" lon="11.988103491100228"><ele>233.5</ele><time>2026-05-03T13:33:05.999Z</time></trkpt><trkpt lat="46.038028755603655" lon="11.988295608387897"><ele>234.0</ele><time>2026-05-03T13:33:06.999Z</time></trkpt><trkpt lat="46.038065552338104" lon="11.98849707086371"><ele>234.5</ele><time>2026-05-03T13:33:07.999Z</time></trkpt><trkpt lat="46.03809899470244" lon="11.98870554233174"><ele>235.0</ele><time>2026-05-03T13:33:08.999Z</time></trkpt><trkpt lat="46.03813042114947" lon="11.988912359954396"><ele>235.5</ele><time>2026-05-03T13:33:09.999Z</time></trkpt><trkpt lat="46.038160709558476" lon="11.989098496696936"><ele>236.0</ele><time>2026-05-03T13:33:10.999Z</time></trkpt><trkpt lat="46.03818866505082" lon="11.989285887836397"><ele>236.75</ele><time>2026-05-03T13:33:11.999Z</time></trkpt><trkpt lat="46.03821684923522" lon="11.989483320315486"><ele>237.5</ele><time>2026-05-03T13:33:12.999Z</time></trkpt><trkpt lat="46.03824403669087" lon="11.989680134537096"><ele>238.25</ele><time>2026-05-03T13:33:13.999Z</time></trkpt><trkpt lat="46.03825847230464" lon="11.989880373225612"><ele>239.0</ele><time>2026-05-03T13:33:14.999Z</time></trkpt><trkpt lat="46.03826651920021" lon="11.990073638712644"><ele>239.25</ele><time>2026-05-03T13:33:15.999Z</time></trkpt><trkpt lat="46.03826058900556" lon="11.990249178596367"><ele>239.5</ele><time>2026-05-03T13:33:16.999Z</time></trkpt><trkpt lat="46.038250698122404" lon="11.99041790317709"><ele>239.75</ele><time>2026-05-03T13:33:17.999Z</time></trkpt><trkpt lat="46.03823342160598" lon="11.99058931380798"><ele>240.0</ele><time>2026-05-03T13:33:18.999Z</time></trkpt><trkpt lat="46.03821168545762" lon="11.990752397314383"><ele>240.0</ele><time>2026-05-03T13:33:19.999Z</time></trkpt><trkpt lat="46.03818874767761" lon="11.990915888826105"><ele>240.0</ele><time>2026-05-03T13:33:20.999Z</time></trkpt><trkpt lat="46.03816571873359" lon="11.991081813406925"><ele>240.0</ele><time>2026-05-03T13:33:21.999Z</time></trkpt><trkpt lat="46.03814463256818" lon="11.991254075365337"><ele>240.0</ele><time>2026-05-03T13:33:22.999Z</time></trkpt><trkpt lat="46.03812857306835" lon="11.991432612831009"><ele>240.0</ele><time>2026-05-03T13:33:23.999Z</time></trkpt><trkpt lat="46.03811252855743" lon="11.991607124130278"><ele>240.0</ele><time>2026-05-03T13:33:24.999Z</time></trkpt><trkpt lat="46.038101242357506" lon="11.991763555941015"><ele>240.0</ele><time>2026-05-03T13:33:25.999Z</time></trkpt><trkpt lat="46.03809158844578" lon="11.9919255716559"><ele>240.0</ele><time>2026-05-03T13:33:26.999Z</time></trkpt><trkpt lat="46.038079399347545" lon="11.992101726436422"><ele>240.0</ele><time>2026-05-03T13:33:27.999Z</time></trkpt><trkpt lat="46.0380652327478" lon="11.992277316081376"><ele>240.0</ele><time>2026-05-03T13:33:28.999Z</time></trkpt><trkpt lat="46.03805034172331" lon="11.9924490192713"><ele>240.0</ele><time>2026-05-03T13:33:29.999Z</time></trkpt><trkpt lat="46.03803287997793" lon="11.992616959618926"><ele>240.0</ele><time>2026-05-03T13:33:31Z</time></trkpt><trkpt lat="46.038018906093356" lon="11.992783346567064"><ele>240.0</ele><time>2026-05-03T13:33:32Z</time></trkpt><trkpt lat="46.038000593344194" lon="11.992958950388456"><ele>240.0</ele><time>2026-05-03T13:33:33Z</time></trkpt><trkpt lat="46.037981558994616" lon="11.993123221914276"><ele>240.0</ele><time>2026-05-03T13:33:34Z</time></trkpt><trkpt lat="46.0379604016283" lon="11.993293303586228"><ele>240.0</ele><time>2026-05-03T13:33:35Z</time></trkpt><trkpt lat="46.03793742906328" lon="11.9934844537898"><ele>240.0</ele><time>2026-05-03T13:33:36Z</time></trkpt><trkpt lat="46.03791103463259" lon="11.993671604561168"><ele>240.0</ele><time>2026-05-03T13:33:37Z</time></trkpt><trkpt lat="46.037887775434484" lon="11.993868393787471"><ele>240.0</ele><time>2026-05-03T13:33:38Z</time></trkpt><trkpt lat="46.03787290215352" lon="11.994072897895899"><ele>240.0</ele><time>2026-05-03T13:33:39Z</time></trkpt><trkpt lat="46.03786656211667" lon="11.994283289256957"><ele>240.66666666666669</ele><time>2026-05-03T13:33:40Z</time></trkpt><trkpt lat="46.03785473205995" lon="11.994511920218024"><ele>241.33333333333334</ele><time>2026-05-03T13:33:41Z</time></trkpt><trkpt lat="46.0378324932858" lon="11.994754193909046"><ele>242.0</ele><time>2026-05-03T13:33:42Z</time></trkpt><trkpt lat="46.03781089509263" lon="11.9950013917842"><ele>242.33333333333334</ele><time>2026-05-03T13:33:43Z</time></trkpt><trkpt lat="46.037787503820795" lon="11.995259969840813"><ele>242.66666666666669</ele><time>2026-05-03T13:33:44Z</time></trkpt><trkpt lat="46.03776604989836" lon="11.995513941254705"><ele>243.0</ele><time>2026-05-03T13:33:45Z</time></trkpt><trkpt lat="46.03775300516921" lon="11.995749402257434"><ele>242.66666666666669</ele><time>2026-05-03T13:33:46Z</time></trkpt><trkpt lat="46.03774315694006" lon="11.995968833244214"><ele>242.33333333333334</ele><time>2026-05-03T13:33:47Z</time></trkpt><trkpt lat="46.03773912085829" lon="11.99619281124141"><ele>242.0</ele><time>2026-05-03T13:33:48Z</time></trkpt><trkpt lat="46.0377330389789" lon="11.996415251679904"><ele>242.0</ele><time>2026-05-03T13:33:49Z</time></trkpt><trkpt lat="46.037733915758665" lon="11.996650614772777"><ele>242.0</ele><time>2026-05-03T13:33:50Z</time></trkpt><trkpt lat="46.03773105964143" lon="11.99687700396616"><ele>242.0</ele><time>2026-05-03T13:33:51Z</time></trkpt><trkpt lat="46.03773438245019" lon="11.997112888630816"><ele>241.66666666666669</ele><time>2026-05-03T13:33:52Z</time></trkpt><trkpt lat="46.03773774070224" lon="11.997338788432943"><ele>241.33333333333331</ele><time>2026-05-03T13:33:53Z</time></trkpt><trkpt lat="46.03774854871433" lon="11.997567509343328"><ele>241.0</ele><time>2026-05-03T13:33:54Z</time></trkpt><trkpt lat="46.03776642641392" lon="11.99780576388909"><ele>241.33333333333331</ele><time>2026-05-03T13:33:55Z</time></trkpt><trkpt lat="46.03778329206702" lon="11.99802509030864"><ele>241.66666666666669</ele><time>2026-05-03T13:33:56Z</time></trkpt><trkpt lat="46.037803458249904" lon="11.998246192456143"><ele>242.0</ele><time>2026-05-03T13:33:57Z</time></trkpt><trkpt lat="46.03782285673317" lon="11.998448470889867"><ele>242.0</ele><time>2026-05-03T13:33:58Z</time></trkpt><trkpt lat="46.037844961254294" lon="11.99863759131382"><ele>242.0</ele><time>2026-05-03T13:33:59Z</time></trkpt><trkpt lat="46.03786524834805" lon="11.998811559421604"><ele>242.0</ele><time>2026-05-03T13:34:00Z</time></trkpt><trkpt lat="46.03788689235166" lon="11.998957659669344"><ele>242.0</ele><time>2026-05-03T13:34:01Z</time></trkpt><trkpt lat="46.0379053535108" lon="11.999099866759243"><ele>241.83333333333334</ele><time>2026-05-03T13:34:02Z</time></trkpt><trkpt lat="46.03792207213226" lon="11.999209422905059"><ele>241.66666666666669</ele><time>2026-05-03T13:34:03Z</time></trkpt><trkpt lat="46.03793835772955" lon="11.999370345633206"><ele>241.5</ele><time>2026-05-03T13:34:05Z</time></trkpt><trkpt lat="46.03789850516153" lon="11.999459152802817"><ele>241.33333333333331</ele><time>2026-05-03T13:34:07Z</time></trkpt><trkpt lat="46.037801688194754" lon="11.999469947727304"><ele>241.16666666666666</ele><time>2026-05-03T13:34:08Z</time></trkpt><trkpt lat="46.03771670697023" lon="11.999473612425186"><ele>241.0</ele><time>2026-05-03T13:34:09Z</time></trkpt><trkpt lat="46.03762696250678" lon="11.999485991280181"><ele>240.99999999999997</ele><time>2026-05-03T13:34:10Z</time></trkpt><trkpt lat="46.0375627794732" lon="11.999497233821831"><ele>241.0</ele><time>2026-05-03T13:34:11Z</time></trkpt><trkpt lat="46.03746383266047" lon="11.99951051156998"><ele>241.0</ele><time>2026-05-03T13:34:13Z</time></trkpt><trkpt lat="46.03738688574145" lon="11.99954022263618"><ele>241.0</ele><time>2026-05-03T13:34:16Z</time></trkpt><trkpt lat="46.03731941214951" lon="11.999574619315107"><ele>240.99999999999997</ele><time>2026-05-03T13:34:20Z</time></trkpt><trkpt lat="46.03720396974937" lon="11.99959991995435"><ele>241.0</ele><time>2026-05-03T13:34:22Z</time></trkpt><trkpt lat="46.03713162787865" lon="11.999647846277798"><ele>240.83333333333331</ele><time>2026-05-03T13:34:23Z</time></trkpt><trkpt lat="46.037050215687366" lon="11.999696432716553"><ele>240.66666666666666</ele><time>2026-05-03T13:34:24Z</time></trkpt><trkpt lat="46.03696273883758" lon="11.99975905769312"><ele>240.5</ele><time>2026-05-03T13:34:25Z</time></trkpt><trkpt lat="46.036893420979005" lon="11.999818649931441"><ele>240.33333333333331</ele><time>2026-05-03T13:34:26Z</time></trkpt><trkpt lat="46.03683384760287" lon="11.999883366957855"><ele>240.16666666666666</ele><time>2026-05-03T13:34:27Z</time></trkpt><trkpt lat="46.036782124590246" lon="11.999947635737396"><ele>240.0</ele><time>2026-05-03T13:34:28Z</time></trkpt><trkpt lat="46.03673425401234" lon="12.000026868547499"><ele>240.0</ele><time>2026-05-03T13:34:29Z</time></trkpt><trkpt lat="46.036701785558904" lon="12.00010975672379"><ele>240.0</ele><time>2026-05-03T13:34:30Z</time></trkpt><trkpt lat="46.0365993909362" lon="12.000161605650495"><ele>240.0</ele><time>2026-05-03T13:34:32Z</time></trkpt><trkpt lat="46.03653799826779" lon="12.000200750074084"><ele>240.0</ele><time>2026-05-03T13:34:33Z</time></trkpt><trkpt lat="46.03644256537674" lon="12.000191602975827"><ele>240.0</ele><time>2026-05-03T13:34:34Z</time></trkpt><trkpt lat="46.0363451449198" lon="12.000247186454022"><ele>240.0</ele><time>2026-05-03T13:34:35Z</time></trkpt><trkpt lat="46.0362634337905" lon="12.000283516596888"><ele>240.0</ele><time>2026-05-03T13:34:36Z</time></trkpt><trkpt lat="46.03618177470197" lon="12.000344691129763"><ele>240.0</ele><time>2026-05-03T13:34:37Z</time></trkpt><trkpt lat="46.03609018413667" lon="12.00042569246771"><ele>240.0</ele><time>2026-05-03T13:34:38Z</time></trkpt><trkpt lat="46.03598842414193" lon="12.000521530719348"><ele>240.0</ele><time>2026-05-03T13:34:39Z</time></trkpt><trkpt lat="46.03590216824403" lon="12.000587586682204"><ele>240.0</ele><time>2026-05-03T13:34:40Z</time></trkpt><trkpt lat="46.03581604990758" lon="12.000639682463007"><ele>240.0</ele><time>2026-05-03T13:34:41Z</time></trkpt><trkpt lat="46.035718710927874" lon="12.00068177774592"><ele>240.0</ele><time>2026-05-03T13:34:42Z</time></trkpt><trkpt lat="46.03562011510251" lon="12.000745974765703"><ele>240.0</ele><time>2026-05-03T13:34:43Z</time></trkpt><trkpt lat="46.03554809515274" lon="12.00083003582062"><ele>240.0</ele><time>2026-05-03T13:34:44Z</time></trkpt><trkpt lat="46.03547487069458" lon="12.000911420461208"><ele>240.0</ele><time>2026-05-03T13:34:45Z</time></trkpt><trkpt lat="46.035401699411885" lon="12.00098839824671"><ele>240.16666666666666</ele><time>2026-05-03T13:34:46Z</time></trkpt><trkpt lat="46.03533061639416" lon="12.001052821600833"><ele>240.33333333333331</ele><time>2026-05-03T13:34:47Z</time></trkpt><trkpt lat="46.03527331828988" lon="12.00109765746721"><ele>240.5</ele><time>2026-05-03T13:34:48Z</time></trkpt><trkpt lat="46.035210655991406" lon="12.001151734368383"><ele>240.66666666666666</ele><time>2026-05-03T13:34:49Z</time></trkpt><trkpt lat="46.0351288076881" lon="12.001206986518572"><ele>240.83333333333331</ele><time>2026-05-03T13:34:50Z</time></trkpt><trkpt lat="46.03506349732703" lon="12.001245119973053"><ele>241.0</ele><time>2026-05-03T13:34:51Z</time></trkpt><trkpt lat="46.0349772937517" lon="12.001289122943962"><ele>240.60000000000002</ele><time>2026-05-03T13:34:52Z</time></trkpt><trkpt lat="46.03488679550029" lon="12.001320799714982"><ele>240.20000000000002</ele><time>2026-05-03T13:34:53Z</time></trkpt><trkpt lat="46.034800876662054" lon="12.001370307343002"><ele>239.79999999999998</ele><time>2026-05-03T13:34:54Z</time></trkpt><trkpt lat="46.03471154469656" lon="12.001431346321016"><ele>239.39999999999998</ele><time>2026-05-03T13:34:55Z</time></trkpt><trkpt lat="46.03461339972842" lon="12.001521314165359"><ele>239.0</ele><time>2026-05-03T13:34:56Z</time></trkpt><trkpt lat="46.034512858421074" lon="12.00162282929964"><ele>239.0</ele><time>2026-05-03T13:34:57Z</time></trkpt><trkpt lat="46.03442633739794" lon="12.001719161815112"><ele>238.99999999999997</ele><time>2026-05-03T13:34:57.999Z</time></trkpt><trkpt lat="46.034339082281186" lon="12.001815108200159"><ele>238.99999999999997</ele><time>2026-05-03T13:34:58.999Z</time></trkpt><trkpt lat="46.034249630350885" lon="12.00191214138489"><ele>239.0</ele><time>2026-05-03T13:34:59.999Z</time></trkpt><trkpt lat="46.03416622046413" lon="12.002017285435313"><ele>239.0</ele><time>2026-05-03T13:35:00.999Z</time></trkpt><trkpt lat="46.034080102365095" lon="12.002119731209278"><ele>239.0</ele><time>2026-05-03T13:35:01.999Z</time></trkpt><trkpt lat="46.033997694539515" lon="12.002213053422874"><ele>238.99999999999997</ele><time>2026-05-03T13:35:02.999Z</time></trkpt><trkpt lat="46.033914262878724" lon="12.002319572232208"><ele>238.99999999999997</ele><time>2026-05-03T13:35:03.999Z</time></trkpt><trkpt lat="46.03384524962713" lon="12.00243570913866"><ele>239.0</ele><time>2026-05-03T13:35:04.999Z</time></trkpt><trkpt lat="46.03378831107377" lon="12.002574000388087"><ele>239.0</ele><time>2026-05-03T13:35:05.999Z</time></trkpt><trkpt lat="46.033738979609346" lon="12.002734261116704"><ele>239.39999999999998</ele><time>2026-05-03T13:35:06.999Z</time></trkpt><trkpt lat="46.03368837404644" lon="12.002891067455257"><ele>239.79999999999998</ele><time>2026-05-03T13:35:07.999Z</time></trkpt><trkpt lat="46.03364633443291" lon="12.003019846047653"><ele>240.20000000000002</ele><time>2026-05-03T13:35:08.999Z</time></trkpt><trkpt lat="46.033593686897994" lon="12.003139050015337"><ele>240.60000000000002</ele><time>2026-05-03T13:35:09.999Z</time></trkpt><trkpt lat="46.033524460240834" lon="12.003241320739889"><ele>241.0</ele><time>2026-05-03T13:35:10.999Z</time></trkpt><trkpt lat="46.033430347485165" lon="12.003332678126139"><ele>241.0</ele><time>2026-05-03T13:35:11.999Z</time></trkpt><trkpt lat="46.03335181759389" lon="12.00345023233491"><ele>241.00000000000003</ele><time>2026-05-03T13:35:12.999Z</time></trkpt><trkpt lat="46.033269849715715" lon="12.003532548227321"><ele>241.00000000000003</ele><time>2026-05-03T13:35:13.999Z</time></trkpt><trkpt lat="46.033201550056006" lon="12.003610102195374"><ele>241.0</ele><time>2026-05-03T13:35:14.999Z</time></trkpt><trkpt lat="46.033113475032735" lon="12.003684469589945"><ele>241.0</ele><time>2026-05-03T13:35:15.999Z</time></trkpt><trkpt lat="46.03301343112001" lon="12.003747845294775"><ele>242.0</ele><time>2026-05-03T13:35:16.999Z</time></trkpt><trkpt lat="46.03288738656285" lon="12.003809555438545"><ele>243.00000000000003</ele><time>2026-05-03T13:35:17.999Z</time></trkpt><trkpt lat="46.032783461795056" lon="12.003857886051732"><ele>244.00000000000003</ele><time>2026-05-03T13:35:18.999Z</time></trkpt><trkpt lat="46.03269983773874" lon="12.003899475893958"><ele>245.0</ele><time>2026-05-03T13:35:19.999Z</time></trkpt><trkpt lat="46.03263358343606" lon="12.003923340690665"><ele>246.0</ele><time>2026-05-03T13:35:20.999Z</time></trkpt><trkpt lat="46.032568602437394" lon="12.003950597911539"><ele>247.0</ele><time>2026-05-03T13:35:21.999Z</time></trkpt><trkpt lat="46.03244756098583" lon="12.00396107909968"><ele>248.0</ele><time>2026-05-03T13:35:23.999Z</time></trkpt><trkpt lat="46.032385166567046" lon="12.003985557811223"><ele>249.0</ele><time>2026-05-03T13:35:24.999Z</time></trkpt><trkpt lat="46.032321169816015" lon="12.004048879268412"><ele>250.0</ele><time>2026-05-03T13:35:25.999Z</time></trkpt><trkpt lat="46.03223845642622" lon="12.00408123525873"><ele>251.0</ele><time>2026-05-03T13:35:26.999Z</time></trkpt><trkpt lat="46.03217155239383" lon="12.004112607434648"><ele>252.0</ele><time>2026-05-03T13:35:27.999Z</time></trkpt><trkpt lat="46.032041947591075" lon="12.004158586805168"><ele>253.0</ele><time>2026-05-03T13:35:29.999Z</time></trkpt><trkpt lat="46.03195077979767" lon="12.004197732369883"><ele>254.0</ele><time>2026-05-03T13:35:30.999Z</time></trkpt><trkpt lat="46.03184718814098" lon="12.004256691471626"><ele>255.0</ele><time>2026-05-03T13:35:31.999Z</time></trkpt><trkpt lat="46.03173543448395" lon="12.004339640444261"><ele>256.0</ele><time>2026-05-03T13:35:32.999Z</time></trkpt><trkpt lat="46.031629912693276" lon="12.004424874083963"><ele>257.2</ele><time>2026-05-03T13:35:33.999Z</time></trkpt><trkpt lat="46.03153003088074" lon="12.004515496019728"><ele>258.40000000000003</ele><time>2026-05-03T13:35:34.999Z</time></trkpt><trkpt lat="46.03143987301178" lon="12.00457592752861"><ele>259.6</ele><time>2026-05-03T13:35:35.999Z</time></trkpt><trkpt lat="46.031333509155466" lon="12.004638204172124"><ele>260.8</ele><time>2026-05-03T13:35:37Z</time></trkpt><trkpt lat="46.031233354253594" lon="12.004693272438073"><ele>262.0</ele><time>2026-05-03T13:35:38Z</time></trkpt><trkpt lat="46.03111901221792" lon="12.004663987161203"><ele>262.0</ele><time>2026-05-03T13:35:39Z</time></trkpt><trkpt lat="46.0309957374658" lon="12.004655425069922"><ele>262.0</ele><time>2026-05-03T13:35:40Z</time></trkpt><trkpt lat="46.03086738416823" lon="12.004611673435036"><ele>262.0</ele><time>2026-05-03T13:35:41Z</time></trkpt><trkpt lat="46.03073123420747" lon="12.00458281426186"><ele>262.0</ele><time>2026-05-03T13:35:42Z</time></trkpt><trkpt lat="46.03057485248588" lon="12.004591431961401"><ele>265.0</ele><time>2026-05-03T13:35:43Z</time></trkpt><trkpt lat="46.03041121976548" lon="12.004619750944999"><ele>268.0</ele><time>2026-05-03T13:35:44Z</time></trkpt><trkpt lat="46.03023637239711" lon="12.004631533195823"><ele>271.0</ele><time>2026-05-03T13:35:45Z</time></trkpt><trkpt lat="46.03008697888107" lon="12.004697022720718"><ele>273.25</ele><time>2026-05-03T13:35:46Z</time></trkpt><trkpt lat="46.02993445356387" lon="12.004752599172734"><ele>275.5</ele><time>2026-05-03T13:35:47Z</time></trkpt><trkpt lat="46.02980645815372" lon="12.004791067422465"><ele>277.75</ele><time>2026-05-03T13:35:48Z</time></trkpt><trkpt lat="46.02967205638981" lon="12.004835250537"><ele>280.0</ele><time>2026-05-03T13:35:49Z</time></trkpt><trkpt lat="46.02954332283629" lon="12.004881451677186"><ele>280.0</ele><time>2026-05-03T13:35:50Z</time></trkpt><trkpt lat="46.02942221645591" lon="12.004923784285518"><ele>280.0</ele><time>2026-05-03T13:35:51Z</time></trkpt><trkpt lat="46.02930267527542" lon="12.004961490209604"><ele>280.0</ele><time>2026-05-03T13:35:52Z</time></trkpt><trkpt lat="46.029197552695905" lon="12.004996269004584"><ele>280.0</ele><time>2026-05-03T13:35:53Z</time></trkpt><trkpt lat="46.02909077580981" lon="12.005062095629008"><ele>283.5</ele><time>2026-05-03T13:35:54Z</time></trkpt><trkpt lat="46.028988240937274" lon="12.00517466382913"><ele>287.0</ele><time>2026-05-03T13:35:55Z</time></trkpt><trkpt lat="46.028887311926475" lon="12.005310790679442"><ele>290.5</ele><time>2026-05-03T13:35:56Z</time></trkpt><trkpt lat="46.02878530549748" lon="12.005458673823352"><ele>294.0</ele><time>2026-05-03T13:35:57Z</time></trkpt><trkpt lat="46.02868909309558" lon="12.005610647611688"><ele>294.0</ele><time>2026-05-03T13:35:58Z</time></trkpt><trkpt lat="46.02861520582224" lon="12.005726448615434"><ele>294.0</ele><time>2026-05-03T13:35:59Z</time></trkpt><trkpt lat="46.028547617574276" lon="12.005827193389068"><ele>294.0</ele><time>2026-05-03T13:36:00Z</time></trkpt><trkpt lat="46.02847537045568" lon="12.00589321032393"><ele>294.0</ele><time>2026-05-03T13:36:01Z</time></trkpt><trkpt lat="46.02843370185748" lon="12.005970602647908"><ele>294.0</ele><time>2026-05-03T13:36:02Z</time></trkpt><trkpt lat="46.02835306816102" lon="12.006003301017465"><ele>294.0</ele><time>2026-05-03T13:36:04Z</time></trkpt><trkpt lat="46.02824909924484" lon="12.005886539731527"><ele>298.4</ele><time>2026-05-03T13:36:06Z</time></trkpt><trkpt lat="46.02824512145898" lon="12.005759617020896"><ele>302.79999999999995</ele><time>2026-05-03T13:36:07Z</time></trkpt><trkpt lat="46.02819508361726" lon="12.005652285527747"><ele>307.20000000000005</ele><time>2026-05-03T13:36:08Z</time></trkpt><trkpt lat="46.02813979516491" lon="12.005542416388458"><ele>311.6</ele><time>2026-05-03T13:36:09Z</time></trkpt><trkpt lat="46.02805798518441" lon="12.005448055914014"><ele>316.0</ele><time>2026-05-03T13:36:10Z</time></trkpt><trkpt lat="46.02796061189763" lon="12.005386810265959"><ele>316.0</ele><time>2026-05-03T13:36:11Z</time></trkpt><trkpt lat="46.02783470793303" lon="12.005317686865183"><ele>316.0</ele><time>2026-05-03T13:36:12Z</time></trkpt><trkpt lat="46.02767494316266" lon="12.005284946001028"><ele>316.0</ele><time>2026-05-03T13:36:13Z</time></trkpt><trkpt lat="46.02757255048571" lon="12.005212556196698"><ele>316.0</ele><time>2026-05-03T13:36:14Z</time></trkpt><trkpt lat="46.027480562875674" lon="12.005133738959431"><ele>317.6</ele><time>2026-05-03T13:36:15Z</time></trkpt><trkpt lat="46.02739104100787" lon="12.005025293065787"><ele>319.20000000000005</ele><time>2026-05-03T13:36:16Z</time></trkpt><trkpt lat="46.02730594708728" lon="12.004929254045214"><ele>320.79999999999995</ele><time>2026-05-03T13:36:17Z</time></trkpt><trkpt lat="46.027246668093255" lon="12.00485763676263"><ele>322.4</ele><time>2026-05-03T13:36:18Z</time></trkpt><trkpt lat="46.027159084471734" lon="12.004769663884579"><ele>324.0</ele><time>2026-05-03T13:36:20Z</time></trkpt><trkpt lat="46.027063345925335" lon="12.004779787403326"><ele>324.0</ele><time>2026-05-03T13:36:22Z</time></trkpt><trkpt lat="46.02701745609635" lon="12.0049606173935"><ele>324.0</ele><time>2026-05-03T13:36:24Z</time></trkpt><trkpt lat="46.02704300907541" lon="12.005076694689018"><ele>324.0</ele><time>2026-05-03T13:36:25Z</time></trkpt><trkpt lat="46.027072595706564" lon="12.005209601792101"><ele>324.0</ele><time>2026-05-03T13:36:26Z</time></trkpt><trkpt lat="46.027096283599434" lon="12.005335042300535"><ele>324.0</ele><time>2026-05-03T13:36:27Z</time></trkpt><trkpt lat="46.02711674391366" lon="12.005462047549502"><ele>327.79999999999995</ele><time>2026-05-03T13:36:28Z</time></trkpt><trkpt lat="46.02713995821336" lon="12.0055988287943"><ele>331.59999999999997</ele><time>2026-05-03T13:36:29Z</time></trkpt><trkpt lat="46.02715981432063" lon="12.005701928559985"><ele>335.4</ele><time>2026-05-03T13:36:30Z</time></trkpt><trkpt lat="46.027166265189145" lon="12.005839662988171"><ele>339.2</ele><time>2026-05-03T13:36:32Z</time></trkpt><trkpt lat="46.02710677642678" lon="12.005922620808128"><ele>343.0</ele><time>2026-05-03T13:36:34Z</time></trkpt><trkpt lat="46.027010971822136" lon="12.005866604354162"><ele>343.0</ele><time>2026-05-03T13:36:36Z</time></trkpt><trkpt lat="46.02698732708666" lon="12.00576709350582"><ele>343.0</ele><time>2026-05-03T13:36:37Z</time></trkpt><trkpt lat="46.026978428249585" lon="12.00563949529789"><ele>343.0</ele><time>2026-05-03T13:36:38Z</time></trkpt><trkpt lat="46.026942332953794" lon="12.005559223620619"><ele>343.0</ele><time>2026-05-03T13:36:39Z</time></trkpt><trkpt lat="46.026901453912735" lon="12.005462264824187"><ele>343.0</ele><time>2026-05-03T13:36:40Z</time></trkpt><trkpt lat="46.02684933031022" lon="12.005374141269991"><ele>343.0</ele><time>2026-05-03T13:36:41Z</time></trkpt><trkpt lat="46.0267858630286" lon="12.00529882213418"><ele>343.0</ele><time>2026-05-03T13:36:42Z</time></trkpt><trkpt lat="46.02667165012796" lon="12.005231529421126"><ele>343.0</ele><time>2026-05-03T13:36:43Z</time></trkpt><trkpt lat="46.02656043372328" lon="12.00515056472068"><ele>343.0</ele><time>2026-05-03T13:36:44Z</time></trkpt><trkpt lat="46.026466284367935" lon="12.005071935844278"><ele>343.0</ele><time>2026-05-03T13:36:45Z</time></trkpt><trkpt lat="46.02638840293207" lon="12.00499465498026"><ele>347.79999999999995</ele><time>2026-05-03T13:36:46Z</time></trkpt><trkpt lat="46.02629865361724" lon="12.004896834426553"><ele>352.6</ele><time>2026-05-03T13:36:47Z</time></trkpt><trkpt lat="46.026211411512534" lon="12.004808348905126"><ele>357.4</ele><time>2026-05-03T13:36:48Z</time></trkpt><trkpt lat="46.02612245672174" lon="12.004714706204183"><ele>362.20000000000005</ele><time>2026-05-03T13:36:49Z</time></trkpt><trkpt lat="46.026053329357495" lon="12.004599938848875"><ele>367.0</ele><time>2026-05-03T13:36:50Z</time></trkpt><trkpt lat="46.026003521607244" lon="12.004481267294683"><ele>367.0</ele><time>2026-05-03T13:36:51Z</time></trkpt><trkpt lat="46.02596696263556" lon="12.004349257776033"><ele>367.0</ele><time>2026-05-03T13:36:52Z</time></trkpt><trkpt lat="46.025945341989505" lon="12.004203813845123"><ele>367.0</ele><time>2026-05-03T13:36:53Z</time></trkpt><trkpt lat="46.02593788773397" lon="12.00405493506599"><ele>367.0</ele><time>2026-05-03T13:36:54Z</time></trkpt><trkpt lat="46.025924752457875" lon="12.003899303592105"><ele>367.0</ele><time>2026-05-03T13:36:55Z</time></trkpt><trkpt lat="46.025912976922655" lon="12.003756241507299"><ele>368.5</ele><time>2026-05-03T13:36:56Z</time></trkpt><trkpt lat="46.02590437334684" lon="12.003647465150776"><ele>370.0</ele><time>2026-05-03T13:36:57Z</time></trkpt><trkpt lat="46.02588513045922" lon="12.003538760743664"><ele>371.5</ele><time>2026-05-03T13:36:58Z</time></trkpt><trkpt lat="46.025838460729695" lon="12.003420602485999"><ele>373.0</ele><time>2026-05-03T13:36:59Z</time></trkpt><trkpt lat="46.02577113560902" lon="12.003321936541072"><ele>374.5</ele><time>2026-05-03T13:37:00Z</time></trkpt><trkpt lat="46.025699198246265" lon="12.00324361109554"><ele>376.0</ele><time>2026-05-03T13:37:01Z</time></trkpt><trkpt lat="46.025599898949615" lon="12.003164566984923"><ele>376.0</ele><time>2026-05-03T13:37:02Z</time></trkpt><trkpt lat="46.02546934611936" lon="12.003087002797821"><ele>376.0</ele><time>2026-05-03T13:37:03Z</time></trkpt><trkpt lat="46.02536327411732" lon="12.003027389066643"><ele>376.0</ele><time>2026-05-03T13:37:04Z</time></trkpt><trkpt lat="46.02526472003045" lon="12.00293965491582"><ele>376.0</ele><time>2026-05-03T13:37:05Z</time></trkpt><trkpt lat="46.025176545486815" lon="12.002821063027397"><ele>376.0</ele><time>2026-05-03T13:37:06Z</time></trkpt><trkpt lat="46.02509078300109" lon="12.00268080811411"><ele>376.0</ele><time>2026-05-03T13:37:07Z</time></trkpt><trkpt lat="46.025014987566" lon="12.00251281964145"><ele>376.0</ele><time>2026-05-03T13:37:08Z</time></trkpt><trkpt lat="46.024943401852845" lon="12.00233862759442"><ele>376.0</ele><time>2026-05-03T13:37:09Z</time></trkpt><trkpt lat="46.024860033530224" lon="12.002176998689677"><ele>378.8</ele><time>2026-05-03T13:37:10Z</time></trkpt><trkpt lat="46.024789013022556" lon="12.00204621400973"><ele>381.6</ele><time>2026-05-03T13:37:11Z</time></trkpt><trkpt lat="46.02472153260451" lon="12.001916059515082"><ele>384.4</ele><time>2026-05-03T13:37:12Z</time></trkpt><trkpt lat="46.024663587408405" lon="12.001786109397932"><ele>387.2</ele><time>2026-05-03T13:37:13Z</time></trkpt><trkpt lat="46.02462601242679" lon="12.00163925441824"><ele>390.0</ele><time>2026-05-03T13:37:14Z</time></trkpt><trkpt lat="46.02459113786481" lon="12.001485724017646"><ele>390.0</ele><time>2026-05-03T13:37:15Z</time></trkpt><trkpt lat="46.024540651908985" lon="12.001328251336071"><ele>390.0</ele><time>2026-05-03T13:37:16Z</time></trkpt><trkpt lat="46.02449843087069" lon="12.00119222716557"><ele>390.0</ele><time>2026-05-03T13:37:17Z</time></trkpt><trkpt lat="46.02445615479764" lon="12.00109196777019"><ele>390.0</ele><time>2026-05-03T13:37:18Z</time></trkpt><trkpt lat="46.02439418414724" lon="12.000984055375142"><ele>390.0</ele><time>2026-05-03T13:37:19Z</time></trkpt><trkpt lat="46.02430405952144" lon="12.000827475669443"><ele>389.0</ele><time>2026-05-03T13:37:21Z</time></trkpt><trkpt lat="46.024245806092075" lon="12.000783181828542"><ele>388.0</ele><time>2026-05-03T13:37:22Z</time></trkpt><trkpt lat="46.02415362919813" lon="12.000761633428436"><ele>387.0</ele><time>2026-05-03T13:37:23Z</time></trkpt><trkpt lat="46.024040393798685" lon="12.000756094217516"><ele>386.0</ele><time>2026-05-03T13:37:24Z</time></trkpt><trkpt lat="46.023938714428" lon="12.000744199751242"><ele>385.0</ele><time>2026-05-03T13:37:24.999Z</time></trkpt><trkpt lat="46.02385458697865" lon="12.000748773983517"><ele>387.4</ele><time>2026-05-03T13:37:25.999Z</time></trkpt><trkpt lat="46.02375889861682" lon="12.000741249185058"><ele>389.8</ele><time>2026-05-03T13:37:26.999Z</time></trkpt><trkpt lat="46.023663261616186" lon="12.000733727693452"><ele>392.20000000000005</ele><time>2026-05-03T13:37:27.999Z</time></trkpt><trkpt lat="46.02358342477381" lon="12.000697566627073"><ele>394.6</ele><time>2026-05-03T13:37:28.999Z</time></trkpt><trkpt lat="46.02349837699311" lon="12.000620593636603"><ele>397.0</ele><time>2026-05-03T13:37:29.999Z</time></trkpt><trkpt lat="46.023421114262646" lon="12.000506745916512"><ele>397.0</ele><time>2026-05-03T13:37:30.999Z</time></trkpt><trkpt lat="46.02336482473454" lon="12.000365231356755"><ele>397.0</ele><time>2026-05-03T13:37:31.999Z</time></trkpt><trkpt lat="46.023302379858244" lon="12.000224471354038"><ele>397.0</ele><time>2026-05-03T13:37:32.999Z</time></trkpt><trkpt lat="46.02326324901823" lon="12.000090455129586"><ele>397.0</ele><time>2026-05-03T13:37:33.999Z</time></trkpt><trkpt lat="46.023226029412015" lon="11.999982965268089"><ele>397.0</ele><time>2026-05-03T13:37:34.999Z</time></trkpt><trkpt lat="46.02315659724573" lon="11.999884172257248"><ele>402.40000000000003</ele><time>2026-05-03T13:37:36.999Z</time></trkpt><trkpt lat="46.023064540693724" lon="11.999906409449832"><ele>407.8</ele><time>2026-05-03T13:37:38.999Z</time></trkpt><trkpt lat="46.02304888040062" lon="12.000039124317258"><ele>413.2</ele><time>2026-05-03T13:37:39.999Z</time></trkpt><trkpt lat="46.02305215243612" lon="12.000169126244055"><ele>418.6</ele><time>2026-05-03T13:37:40.999Z</time></trkpt><trkpt lat="46.02304084358583" lon="12.00031380094117"><ele>424.0</ele><time>2026-05-03T13:37:41.999Z</time></trkpt><trkpt lat="46.02304642540574" lon="12.000444629712602"><ele>424.0</ele><time>2026-05-03T13:37:43Z</time></trkpt><trkpt lat="46.02302671883931" lon="12.000571895786559"><ele>424.0</ele><time>2026-05-03T13:37:44Z</time></trkpt><trkpt lat="46.022971642557444" lon="12.000661325366968"><ele>424.0</ele><time>2026-05-03T13:37:45Z</time></trkpt><trkpt lat="46.02291235391338" lon="12.000777996997469"><ele>424.0</ele><time>2026-05-03T13:37:46Z</time></trkpt><trkpt lat="46.02284838484684" lon="12.00089668239053"><ele>424.0</ele><time>2026-05-03T13:37:47Z</time></trkpt><trkpt lat="46.022781433887566" lon="12.001056122602204"><ele>424.75</ele><time>2026-05-03T13:37:48Z</time></trkpt><trkpt lat="46.02274647394614" lon="12.001221204596074"><ele>425.5</ele><time>2026-05-03T13:37:49Z</time></trkpt><trkpt lat="46.022745306401525" lon="12.001426062183748"><ele>426.25</ele><time>2026-05-03T13:37:50Z</time></trkpt><trkpt lat="46.02273950850254" lon="12.001654141779191"><ele>427.0</ele><time>2026-05-03T13:37:51Z</time></trkpt><trkpt lat="46.022756373024855" lon="12.001925280081258"><ele>428.0</ele><time>2026-05-03T13:37:52Z</time></trkpt><trkpt lat="46.02277061900191" lon="12.002117339738303"><ele>429.00000000000006</ele><time>2026-05-03T13:37:53Z</time></trkpt><trkpt lat="46.02278342978856" lon="12.002290050590688"><ele>430.00000000000006</ele><time>2026-05-03T13:37:54Z</time></trkpt><trkpt lat="46.022791350338956" lon="12.002432694979763"><ele>431.0</ele><time>2026-05-03T13:37:55Z</time></trkpt><trkpt lat="46.02279753748492" lon="12.002544836960771"><ele>432.0</ele><time>2026-05-03T13:37:56Z</time></trkpt><trkpt lat="46.02280527483722" lon="12.002666851898226"><ele>433.8</ele><time>2026-05-03T13:37:57Z</time></trkpt><trkpt lat="46.02280532973928" lon="12.002816731810816"><ele>435.6</ele><time>2026-05-03T13:37:59Z</time></trkpt><trkpt lat="46.02274603991157" lon="12.002970742960905"><ele>437.40000000000003</ele><time>2026-05-03T13:38:01Z</time></trkpt><trkpt lat="46.022677684199294" lon="12.003042950619548"><ele>439.20000000000005</ele><time>2026-05-03T13:38:02Z</time></trkpt><trkpt lat="46.02260867041184" lon="12.003078211649695"><ele>441.0</ele><time>2026-05-03T13:38:03Z</time></trkpt><trkpt lat="46.02254246588334" lon="12.003077398401432"><ele>441.0</ele><time>2026-05-03T13:38:04Z</time></trkpt><trkpt lat="46.022482688952316" lon="12.003038887885804"><ele>441.0</ele><time>2026-05-03T13:38:05Z</time></trkpt><trkpt lat="46.02243551825672" lon="12.002974813724324"><ele>441.0</ele><time>2026-05-03T13:38:06Z</time></trkpt><trkpt lat="46.02242847889689" lon="12.002823966636432"><ele>441.0</ele><time>2026-05-03T13:38:07Z</time></trkpt><trkpt lat="46.02239394749923" lon="12.00270283989195"><ele>441.0</ele><time>2026-05-03T13:38:08Z</time></trkpt><trkpt lat="46.0223445020883" lon="12.002581998267896"><ele>441.0</ele><time>2026-05-03T13:38:09Z</time></trkpt><trkpt lat="46.02225823150001" lon="12.002469168655544"><ele>444.20000000000005</ele><time>2026-05-03T13:38:10Z</time></trkpt><trkpt lat="46.022155736384505" lon="12.002355435565242"><ele>447.40000000000003</ele><time>2026-05-03T13:38:11Z</time></trkpt><trkpt lat="46.022107410403464" lon="12.002260583615781"><ele>450.6</ele><time>2026-05-03T13:38:12Z</time></trkpt><trkpt lat="46.02205522636825" lon="12.00216117820032"><ele>453.8</ele><time>2026-05-03T13:38:13Z</time></trkpt><trkpt lat="46.022032497501684" lon="12.002056146637129"><ele>457.0</ele><time>2026-05-03T13:38:14Z</time></trkpt><trkpt lat="46.0220289265186" lon="12.00192731353164"><ele>457.00000000000006</ele><time>2026-05-03T13:38:15Z</time></trkpt><trkpt lat="46.0220357276534" lon="12.00182354109076"><ele>457.0</ele><time>2026-05-03T13:38:16Z</time></trkpt><trkpt lat="46.02202863197287" lon="12.001725616382124"><ele>457.0</ele><time>2026-05-03T13:38:17Z</time></trkpt><trkpt lat="46.021987769150975" lon="12.001631329550756"><ele>457.0</ele><time>2026-05-03T13:38:18Z</time></trkpt><trkpt lat="46.0219086656084" lon="12.001564204274551"><ele>457.00000000000006</ele><time>2026-05-03T13:38:19Z</time></trkpt><trkpt lat="46.02180186858148" lon="12.001492132560136"><ele>457.0</ele><time>2026-05-03T13:38:20Z</time></trkpt><trkpt lat="46.02168218636916" lon="12.00141396360915"><ele>458.0</ele><time>2026-05-03T13:38:21Z</time></trkpt><trkpt lat="46.02155981259828" lon="12.001304681494714"><ele>459.0</ele><time>2026-05-03T13:38:22Z</time></trkpt><trkpt lat="46.02141447075145" lon="12.001205003039702"><ele>460.0</ele><time>2026-05-03T13:38:23Z</time></trkpt><trkpt lat="46.02127462116383" lon="12.001108348134036"><ele>460.0</ele><time>2026-05-03T13:38:24Z</time></trkpt><trkpt lat="46.02112224147749" lon="12.001000786260894"><ele>460.0</ele><time>2026-05-03T13:38:25Z</time></trkpt><trkpt lat="46.02096049819525" lon="12.000890132134018"><ele>460.0</ele><time>2026-05-03T13:38:26Z</time></trkpt><trkpt lat="46.02079614742374" lon="12.000774579315761"><ele>463.33333333333337</ele><time>2026-05-03T13:38:27Z</time></trkpt><trkpt lat="46.02062525630981" lon="12.000654428815194"><ele>466.66666666666663</ele><time>2026-05-03T13:38:28Z</time></trkpt><trkpt lat="46.02046389157081" lon="12.000546044827567"><ele>470.0</ele><time>2026-05-03T13:38:29Z</time></trkpt><trkpt lat="46.020305327058004" lon="12.000434757073757"><ele>470.0</ele><time>2026-05-03T13:38:30Z</time></trkpt><trkpt lat="46.020175535200494" lon="12.000331527812785"><ele>470.0</ele><time>2026-05-03T13:38:31Z</time></trkpt><trkpt lat="46.0200524104213" lon="12.000211767660746"><ele>470.0</ele><time>2026-05-03T13:38:32Z</time></trkpt><trkpt lat="46.01994345608782" lon="12.000087977797804"><ele>470.0</ele><time>2026-05-03T13:38:33Z</time></trkpt><trkpt lat="46.019846295734915" lon="11.999950221691469"><ele>477.5</ele><time>2026-05-03T13:38:34Z</time></trkpt><trkpt lat="46.019751195224245" lon="11.999821189105687"><ele>485.0</ele><time>2026-05-03T13:38:35Z</time></trkpt><trkpt lat="46.01967359330559" lon="11.999713487780342"><ele>492.5</ele><time>2026-05-03T13:38:36Z</time></trkpt><trkpt lat="46.01958103683813" lon="11.999626509348168"><ele>500.0</ele><time>2026-05-03T13:38:37Z</time></trkpt><trkpt lat="46.01949087123425" lon="11.999550544876161"><ele>500.0</ele><time>2026-05-03T13:38:38Z</time></trkpt><trkpt lat="46.019398415348924" lon="11.999475094341491"><ele>500.0</ele><time>2026-05-03T13:38:39Z</time></trkpt><trkpt lat="46.01931202411761" lon="11.999382016058313"><ele>500.0</ele><time>2026-05-03T13:38:40Z</time></trkpt><trkpt lat="46.01922675709911" lon="11.999309316771072"><ele>500.0</ele><time>2026-05-03T13:38:41Z</time></trkpt><trkpt lat="46.019156919300585" lon="11.999259074159665"><ele>500.0</ele><time>2026-05-03T13:38:42Z</time></trkpt><trkpt lat="46.0190915121188" lon="11.999214034062756"><ele>500.4</ele><time>2026-05-03T13:38:43Z</time></trkpt><trkpt lat="46.019035905995196" lon="11.999167581322528"><ele>500.8</ele><time>2026-05-03T13:38:44Z</time></trkpt><trkpt lat="46.01893517958042" lon="11.999184231951997"><ele>501.20000000000005</ele><time>2026-05-03T13:38:46Z</time></trkpt><trkpt lat="46.01887201533384" lon="11.999235596927328"><ele>501.6</ele><time>2026-05-03T13:38:48Z</time></trkpt><trkpt lat="46.018937089871976" lon="11.999420924952622"><ele>502.0</ele><time>2026-05-03T13:38:50Z</time></trkpt><trkpt lat="46.01902140535008" lon="11.99951754785132"><ele>502.00000000000006</ele><time>2026-05-03T13:38:52Z</time></trkpt><trkpt lat="46.01904648440985" lon="11.999601228515024"><ele>502.0</ele><time>2026-05-03T13:38:53Z</time></trkpt><trkpt lat="46.019059616487496" lon="11.999696011411936"><ele>502.0</ele><time>2026-05-03T13:38:54Z</time></trkpt><trkpt lat="46.01905088942439" lon="11.999823163438391"><ele>502.0</ele><time>2026-05-03T13:38:55Z</time></trkpt><trkpt lat="46.01905873509109" lon="11.999970465367863"><ele>502.00000000000006</ele><time>2026-05-03T13:38:56Z</time></trkpt><trkpt lat="46.019087206624995" lon="12.000123034979861"><ele>502.0</ele><time>2026-05-03T13:38:57Z</time></trkpt><trkpt lat="46.019102663389795" lon="12.00021964042789"><ele>502.00000000000006</ele><time>2026-05-03T13:38:58Z</time></trkpt><trkpt lat="46.01914956234588" lon="12.000297797450894"><ele>502.0</ele><time>2026-05-03T13:38:59Z</time></trkpt><trkpt lat="46.01918119576906" lon="12.000405136385384"><ele>502.0</ele><time>2026-05-03T13:39:00Z</time></trkpt><trkpt lat="46.01921756749744" lon="12.000479758550405"><ele>502.0</ele><time>2026-05-03T13:39:01Z</time></trkpt><trkpt lat="46.019276635147214" lon="12.00063426813779"><ele>502.00000000000006</ele><time>2026-05-03T13:39:03Z</time></trkpt><trkpt lat="46.01929077253885" lon="12.000741052628426"><ele>502.0</ele><time>2026-05-03T13:39:04Z</time></trkpt><trkpt lat="46.019291421712474" lon="12.000894409309801"><ele>503.40000000000003</ele><time>2026-05-03T13:39:06Z</time></trkpt><trkpt lat="46.01924795124833" lon="12.001077548490196"><ele>504.80000000000007</ele><time>2026-05-03T13:39:08Z</time></trkpt><trkpt lat="46.01921890064985" lon="12.001197110304016"><ele>506.2</ele><time>2026-05-03T13:39:09Z</time></trkpt><trkpt lat="46.019191427464285" lon="12.001317800398795"><ele>507.6</ele><time>2026-05-03T13:39:10Z</time></trkpt><trkpt lat="46.01914091739533" lon="12.001477471482879"><ele>509.0</ele><time>2026-05-03T13:39:12Z</time></trkpt><trkpt lat="46.01907981829549" lon="12.001584680769442"><ele>510.66666666666663</ele><time>2026-05-03T13:39:14Z</time></trkpt><trkpt lat="46.01903459643715" lon="12.001687820591963"><ele>512.3333333333333</ele><time>2026-05-03T13:39:16Z</time></trkpt><trkpt lat="46.018992561697885" lon="12.001756464818513"><ele>514.0</ele><time>2026-05-03T13:39:19Z</time></trkpt><trkpt lat="46.01889348504544" lon="12.001864371288613"><ele>515.6666666666666</ele><time>2026-05-03T13:39:21Z</time></trkpt><trkpt lat="46.018834846633666" lon="12.001920285342742"><ele>517.3333333333334</ele><time>2026-05-03T13:39:22Z</time></trkpt><trkpt lat="46.018778046791425" lon="12.002006739628952"><ele>519.0</ele><time>2026-05-03T13:39:23Z</time></trkpt><trkpt lat="46.01871967575144" lon="12.002095585298862"><ele>519.0</ele><time>2026-05-03T13:39:24Z</time></trkpt><trkpt lat="46.01865906853629" lon="12.002182097602661"><ele>519.0</ele><time>2026-05-03T13:39:25Z</time></trkpt><trkpt lat="46.018588637238146" lon="12.00225674939495"><ele>519.0</ele><time>2026-05-03T13:39:26Z</time></trkpt><trkpt lat="46.01851136875086" lon="12.002333344252381"><ele>519.0</ele><time>2026-05-03T13:39:27Z</time></trkpt><trkpt lat="46.01842401860013" lon="12.002362021895033"><ele>519.0</ele><time>2026-05-03T13:39:27.999Z</time></trkpt><trkpt lat="46.0183309260851" lon="12.002387626098002"><ele>523.3333333333334</ele><time>2026-05-03T13:39:28.999Z</time></trkpt><trkpt lat="46.018237015988596" lon="12.002406524771192"><ele>527.6666666666666</ele><time>2026-05-03T13:39:29.999Z</time></trkpt><trkpt lat="46.0181602867517" lon="12.002398839866421"><ele>532.0</ele><time>2026-05-03T13:39:30.999Z</time></trkpt><trkpt lat="46.01809476477887" lon="12.00243596555409"><ele>536.3333333333333</ele><time>2026-05-03T13:39:31.999Z</time></trkpt><trkpt lat="46.01803144294901" lon="12.002508645906342"><ele>540.6666666666666</ele><time>2026-05-03T13:39:32.999Z</time></trkpt><trkpt lat="46.01799186834192" lon="12.002617510879425"><ele>545.0</ele><time>2026-05-03T13:39:33.999Z</time></trkpt><trkpt lat="46.01799065747715" lon="12.002742656592353"><ele>548.0</ele><time>2026-05-03T13:39:34.999Z</time></trkpt><trkpt lat="46.01802247484788" lon="12.002868671514166"><ele>551.0</ele><time>2026-05-03T13:39:35.999Z</time></trkpt><trkpt lat="46.01811481979895" lon="12.002944548013904"><ele>554.0</ele><time>2026-05-03T13:39:36.999Z</time></trkpt><trkpt lat="46.01819921624442" lon="12.003038235865386"><ele>557.0</ele><time>2026-05-03T13:39:37.999Z</time></trkpt><trkpt lat="46.01828195420756" lon="12.003145510921367"><ele>560.0</ele><time>2026-05-03T13:39:38.999Z</time></trkpt><trkpt lat="46.01837990658028" lon="12.00325113096306"><ele>557.5</ele><time>2026-05-03T13:39:39.999Z</time></trkpt><trkpt lat="46.01845982556835" lon="12.003349996176851"><ele>555.0</ele><time>2026-05-03T13:39:40.999Z</time></trkpt><trkpt lat="46.01851748720836" lon="12.003416540152584"><ele>552.5</ele><time>2026-05-03T13:39:41.999Z</time></trkpt><trkpt lat="46.01862333308276" lon="12.003514376553937"><ele>550.0</ele><time>2026-05-03T13:39:43.999Z</time></trkpt><trkpt lat="46.01868379854414" lon="12.003559555580882"><ele>547.5</ele><time>2026-05-03T13:39:44.999Z</time></trkpt><trkpt lat="46.01874887445823" lon="12.00360193178216"><ele>545.0</ele><time>2026-05-03T13:39:45.999Z</time></trkpt><trkpt lat="46.018860335563254" lon="12.003671752134123"><ele>545.0</ele><time>2026-05-03T13:39:47.999Z</time></trkpt><trkpt lat="46.01892349106521" lon="12.003718434388821"><ele>545.0</ele><time>2026-05-03T13:39:49Z</time></trkpt><trkpt lat="46.0189900666416" lon="12.003771343975405"><ele>545.0</ele><time>2026-05-03T13:39:50Z</time></trkpt><trkpt lat="46.019093683720484" lon="12.003866302221661"><ele>545.0</ele><time>2026-05-03T13:39:52Z</time></trkpt><trkpt lat="46.01915735511218" lon="12.003915865951765"><ele>545.0</ele><time>2026-05-03T13:39:53Z</time></trkpt><trkpt lat="46.019215349752464" lon="12.003975410013993"><ele>545.0</ele><time>2026-05-03T13:39:54Z</time></trkpt><trkpt lat="46.01930453202937" lon="12.00408073294537"><ele>546.6666666666666</ele><time>2026-05-03T13:39:56Z</time></trkpt><trkpt lat="46.01936958494808" lon="12.004178789932238"><ele>548.3333333333333</ele><time>2026-05-03T13:39:58Z</time></trkpt><trkpt lat="46.01935312790834" lon="12.004302955816062"><ele>550.0</ele><time>2026-05-03T13:40:00Z</time></trkpt><trkpt lat="46.019231672929585" lon="12.004285348776346"><ele>551.6666666666666</ele><time>2026-05-03T13:40:02Z</time></trkpt><trkpt lat="46.01916931578473" lon="12.004298653262548"><ele>553.3333333333334</ele><time>2026-05-03T13:40:03Z</time></trkpt><trkpt lat="46.019103386898195" lon="12.004294781215457"><ele>555.0</ele><time>2026-05-03T13:40:04Z</time></trkpt><trkpt lat="46.01903381244695" lon="12.004293193045275"><ele>557.8</ele><time>2026-05-03T13:40:05Z</time></trkpt><trkpt lat="46.01896078064952" lon="12.004291880837146"><ele>560.6</ele><time>2026-05-03T13:40:06Z</time></trkpt><trkpt lat="46.01882711604792" lon="12.00428052028054"><ele>563.4</ele><time>2026-05-03T13:40:08Z</time></trkpt><trkpt lat="46.01873196128447" lon="12.004270629008706"><ele>566.2</ele><time>2026-05-03T13:40:10Z</time></trkpt><trkpt lat="46.01863907864936" lon="12.00429504842914"><ele>569.0</ele><time>2026-05-03T13:40:12Z</time></trkpt><trkpt lat="46.01857495584211" lon="12.004366906159909"><ele>569.0</ele><time>2026-05-03T13:40:14Z</time></trkpt><trkpt lat="46.0185907745248" lon="12.004531022963565"><ele>569.0</ele><time>2026-05-03T13:40:16Z</time></trkpt><trkpt lat="46.018709165230646" lon="12.004573993208346"><ele>569.0</ele><time>2026-05-03T13:40:17Z</time></trkpt><trkpt lat="46.01876524184051" lon="12.004638276942785"><ele>569.0</ele><time>2026-05-03T13:40:18Z</time></trkpt><trkpt lat="46.018815687649564" lon="12.004722982005392"><ele>569.0</ele><time>2026-05-03T13:40:19Z</time></trkpt><trkpt lat="46.01884918448748" lon="12.00482847307341"><ele>569.0</ele><time>2026-05-03T13:40:20Z</time></trkpt><trkpt lat="46.01888945945667" lon="12.004958486689445"><ele>569.0</ele><time>2026-05-03T13:40:21Z</time></trkpt><trkpt lat="46.01893032748916" lon="12.005072874706206"><ele>569.0</ele><time>2026-05-03T13:40:22Z</time></trkpt><trkpt lat="46.01899974870389" lon="12.005186147124396"><ele>569.0</ele><time>2026-05-03T13:40:23Z</time></trkpt><trkpt lat="46.01906164182992" lon="12.005337017939182"><ele>569.0</ele><time>2026-05-03T13:40:24Z</time></trkpt><trkpt lat="46.01911353385171" lon="12.005434172699776"><ele>569.3333333333333</ele><time>2026-05-03T13:40:25Z</time></trkpt><trkpt lat="46.01916721680258" lon="12.005539329612903"><ele>569.6666666666666</ele><time>2026-05-03T13:40:26Z</time></trkpt><trkpt lat="46.019220457324444" lon="12.005634544953628"><ele>570.0</ele><time>2026-05-03T13:40:27Z</time></trkpt><trkpt lat="46.019267634751294" lon="12.005722339967894"><ele>570.3333333333334</ele><time>2026-05-03T13:40:28Z</time></trkpt><trkpt lat="46.01931135371073" lon="12.00580844429901"><ele>570.6666666666667</ele><time>2026-05-03T13:40:29Z</time></trkpt><trkpt lat="46.019354268335874" lon="12.005911247662912"><ele>571.0</ele><time>2026-05-03T13:40:30Z</time></trkpt><trkpt lat="46.019384940189006" lon="12.006014705578975"><ele>574.0</ele><time>2026-05-03T13:40:31Z</time></trkpt><trkpt lat="46.01941292000134" lon="12.006127030797254"><ele>577.0</ele><time>2026-05-03T13:40:32Z</time></trkpt><trkpt lat="46.01943748879379" lon="12.006245355718674"><ele>580.0</ele><time>2026-05-03T13:40:33Z</time></trkpt><trkpt lat="46.01946056475628" lon="12.006357991921979"><ele>583.0</ele><time>2026-05-03T13:40:34Z</time></trkpt><trkpt lat="46.01947509219139" lon="12.006468067690573"><ele>586.0</ele><time>2026-05-03T13:40:35Z</time></trkpt><trkpt lat="46.01946279788011" lon="12.0065915103443"><ele>589.0</ele><time>2026-05-03T13:40:36Z</time></trkpt><trkpt lat="46.0194616456485" lon="12.00670980645604"><ele>591.3333333333334</ele><time>2026-05-03T13:40:37Z</time></trkpt><trkpt lat="46.01944358178606" lon="12.006846246716833"><ele>593.6666666666667</ele><time>2026-05-03T13:40:38Z</time></trkpt><trkpt lat="46.019427108407406" lon="12.006987417319886"><ele>596.0</ele><time>2026-05-03T13:40:39Z</time></trkpt><trkpt lat="46.01941868818257" lon="12.007091657430596"><ele>598.3333333333334</ele><time>2026-05-03T13:40:40Z</time></trkpt><trkpt lat="46.01940605031905" lon="12.00718258916542"><ele>600.6666666666666</ele><time>2026-05-03T13:40:41Z</time></trkpt><trkpt lat="46.019380415157805" lon="12.00728731476682"><ele>603.0</ele><time>2026-05-03T13:40:42Z</time></trkpt><trkpt lat="46.01934559907718" lon="12.007389137887047"><ele>604.8</ele><time>2026-05-03T13:40:43Z</time></trkpt><trkpt lat="46.01933223560685" lon="12.007516242772885"><ele>606.5999999999999</ele><time>2026-05-03T13:40:44Z</time></trkpt><trkpt lat="46.019339633919444" lon="12.007641204588879"><ele>608.4000000000001</ele><time>2026-05-03T13:40:45Z</time></trkpt><trkpt lat="46.01935727871472" lon="12.007764545066205"><ele>610.2</ele><time>2026-05-03T13:40:46Z</time></trkpt><trkpt lat="46.01937878706614" lon="12.007906270408352"><ele>612.0</ele><time>2026-05-03T13:40:48Z</time></trkpt><trkpt lat="46.019381639780605" lon="12.00808007306311"><ele>612.0</ele><time>2026-05-03T13:40:50Z</time></trkpt><trkpt lat="46.019346692435484" lon="12.008181468405125"><ele>612.0</ele><time>2026-05-03T13:40:51Z</time></trkpt><trkpt lat="46.019304465353144" lon="12.008276702949356"><ele>612.0</ele><time>2026-05-03T13:40:52Z</time></trkpt><trkpt lat="46.01926318572825" lon="12.00836673297464"><ele>612.0</ele><time>2026-05-03T13:40:53Z</time></trkpt><trkpt lat="46.01921214491861" lon="12.008436758330033"><ele>612.0</ele><time>2026-05-03T13:40:54Z</time></trkpt><trkpt lat="46.01916455816167" lon="12.008588367426082"><ele>612.0</ele><time>2026-05-03T13:40:55Z</time></trkpt><trkpt lat="46.019155794389825" lon="12.00871539673258"><ele>613.1666666666666</ele><time>2026-05-03T13:40:56Z</time></trkpt><trkpt lat="46.01915201888389" lon="12.00883655039935"><ele>614.3333333333334</ele><time>2026-05-03T13:40:57Z</time></trkpt><trkpt lat="46.01914218445432" lon="12.009014727296233"><ele>615.5</ele><time>2026-05-03T13:40:59Z</time></trkpt><trkpt lat="46.019126856207" lon="12.00911505001249"><ele>616.6666666666667</ele><time>2026-05-03T13:41:00Z</time></trkpt><trkpt lat="46.01909855783036" lon="12.00921792956152"><ele>617.8333333333334</ele><time>2026-05-03T13:41:01Z</time></trkpt><trkpt lat="46.019069291650155" lon="12.009327575058045"><ele>619.0</ele><time>2026-05-03T13:41:02Z</time></trkpt><trkpt lat="46.019013430398765" lon="12.009394143042094"><ele>624.2</ele><time>2026-05-03T13:41:03Z</time></trkpt><trkpt lat="46.018966400530594" lon="12.00946182723761"><ele>629.4</ele><time>2026-05-03T13:41:04Z</time></trkpt><trkpt lat="46.01886541869262" lon="12.0094608214016"><ele>634.6</ele><time>2026-05-03T13:41:05Z</time></trkpt><trkpt lat="46.01878276857276" lon="12.009450097948946"><ele>639.8</ele><time>2026-05-03T13:41:06Z</time></trkpt><trkpt lat="46.018686544183666" lon="12.009409498153952"><ele>645.0</ele><time>2026-05-03T13:41:07Z</time></trkpt><trkpt lat="46.018591461948496" lon="12.009342208108578"><ele>645.0</ele><time>2026-05-03T13:41:08Z</time></trkpt><trkpt lat="46.01848685243322" lon="12.009300082892663"><ele>645.0</ele><time>2026-05-03T13:41:09Z</time></trkpt><trkpt lat="46.018408524474694" lon="12.009274419609277"><ele>645.0</ele><time>2026-05-03T13:41:10Z</time></trkpt><trkpt lat="46.018339682053075" lon="12.009251864193361"><ele>645.0</ele><time>2026-05-03T13:41:11Z</time></trkpt><trkpt lat="46.018273603040896" lon="12.009228416991137"><ele>645.0</ele><time>2026-05-03T13:41:12Z</time></trkpt><trkpt lat="46.018208021294086" lon="12.009223522245888"><ele>645.0</ele><time>2026-05-03T13:41:13Z</time></trkpt><trkpt lat="46.01815079383002" lon="12.009178965325846"><ele>648.0</ele><time>2026-05-03T13:41:14Z</time></trkpt><trkpt lat="46.01803998813532" lon="12.009125975659325"><ele>651.0</ele><time>2026-05-03T13:41:16Z</time></trkpt><trkpt lat="46.017968740198015" lon="12.009090132967954"><ele>654.0</ele><time>2026-05-03T13:41:17Z</time></trkpt><trkpt lat="46.01787451828168" lon="12.009028728911963"><ele>657.0</ele><time>2026-05-03T13:41:18Z</time></trkpt><trkpt lat="46.01777336948752" lon="12.008952057592696"><ele>660.0</ele><time>2026-05-03T13:41:20Z</time></trkpt><trkpt lat="46.01764910987183" lon="12.008866859161182"><ele>660.0</ele><time>2026-05-03T13:41:22Z</time></trkpt><trkpt lat="46.01756303303645" lon="12.008817429958095"><ele>660.0</ele><time>2026-05-03T13:41:23Z</time></trkpt><trkpt lat="46.01748987428664" lon="12.008797657473949"><ele>660.0</ele><time>2026-05-03T13:41:24Z</time></trkpt><trkpt lat="46.017422731273925" lon="12.008814866625636"><ele>660.0</ele><time>2026-05-03T13:41:25Z</time></trkpt><trkpt lat="46.0173569188395" lon="12.008833347658454"><ele>660.0</ele><time>2026-05-03T13:41:26Z</time></trkpt><trkpt lat="46.01729015140908" lon="12.008884465246101"><ele>660.0</ele><time>2026-05-03T13:41:27Z</time></trkpt><trkpt lat="46.01720968036786" lon="12.008930568509266"><ele>663.5</ele><time>2026-05-03T13:41:28Z</time></trkpt><trkpt lat="46.01713564953143" lon="12.008992267112454"><ele>667.0</ele><time>2026-05-03T13:41:29Z</time></trkpt><trkpt lat="46.017061039786945" lon="12.009058259915571"><ele>670.5</ele><time>2026-05-03T13:41:30Z</time></trkpt><trkpt lat="46.01700680505213" lon="12.009109115453242"><ele>674.0</ele><time>2026-05-03T13:41:31Z</time></trkpt><trkpt lat="46.01695724221988" lon="12.009188959979666"><ele>677.5</ele><time>2026-05-03T13:41:33Z</time></trkpt><trkpt lat="46.01689368874315" lon="12.009280451720707"><ele>681.0</ele><time>2026-05-03T13:41:39Z</time></trkpt><trkpt lat="46.016805453561076" lon="12.00928222212036"><ele>681.0</ele><time>2026-05-03T13:41:53.999Z</time></trkpt><trkpt lat="46.01670979620542" lon="12.009308332587004"><ele>681.0</ele><time>2026-05-03T13:41:56Z</time></trkpt><trkpt lat="46.01660164363289" lon="12.009336674349386"><ele>681.0</ele><time>2026-05-03T13:41:58Z</time></trkpt><trkpt lat="46.01649579693541" lon="12.009381002664298"><ele>681.0</ele><time>2026-05-03T13:42:00Z</time></trkpt><trkpt lat="46.01641846044755" lon="12.009407984993066"><ele>681.0</ele><time>2026-05-03T13:42:01Z</time></trkpt><trkpt lat="46.0163450123198" lon="12.00942060238315"><ele>685.5714285714287</ele><time>2026-05-03T13:42:02Z</time></trkpt><trkpt lat="46.016278539194005" lon="12.009429927746153"><ele>690.1428571428571</ele><time>2026-05-03T13:42:03Z</time></trkpt><trkpt lat="46.01619400706015" lon="12.009459687727965"><ele>694.7142857142858</ele><time>2026-05-03T13:42:05Z</time></trkpt><trkpt lat="46.01613144982444" lon="12.009422395618943"><ele>699.2857142857143</ele><time>2026-05-03T13:42:08Z</time></trkpt><trkpt lat="46.01609147894883" lon="12.009342643549251"><ele>703.8571428571429</ele><time>2026-05-03T13:42:11Z</time></trkpt><trkpt lat="46.01609188133215" lon="12.009218087210016"><ele>708.4285714285714</ele><time>2026-05-03T13:42:13Z</time></trkpt><trkpt lat="46.01612213820581" lon="12.009123598076279"><ele>713.0</ele><time>2026-05-03T13:42:14Z</time></trkpt><trkpt lat="46.01614858307502" lon="12.009008613458539"><ele>713.0</ele><time>2026-05-03T13:42:15Z</time></trkpt><trkpt lat="46.016211109238355" lon="12.008842684174972"><ele>713.0</ele><time>2026-05-03T13:42:17Z</time></trkpt><trkpt lat="46.01621684797163" lon="12.008658106523212"><ele>713.0</ele><time>2026-05-03T13:42:19Z</time></trkpt><trkpt lat="46.01615658936374" lon="12.008567718441036"><ele>713.0</ele><time>2026-05-03T13:42:20Z</time></trkpt><trkpt lat="46.01607874940994" lon="12.00845322455977"><ele>713.0</ele><time>2026-05-03T13:42:22Z</time></trkpt><trkpt lat="46.015979917748226" lon="12.008327887012197"><ele>713.0</ele><time>2026-05-03T13:42:24Z</time></trkpt><trkpt lat="46.015903437531264" lon="12.00827073154279"><ele>713.0</ele><time>2026-05-03T13:42:25Z</time></trkpt><trkpt lat="46.015832018766964" lon="12.00821718092417"><ele>713.0</ele><time>2026-05-03T13:42:26Z</time></trkpt><trkpt lat="46.015757187397476" lon="12.00816055676538"><ele>713.0</ele><time>2026-05-03T13:42:27Z</time></trkpt><trkpt lat="46.01568658549864" lon="12.008103818464566"><ele>717.0</ele><time>2026-05-03T13:42:28Z</time></trkpt><trkpt lat="46.015558133030936" lon="12.007993831113238"><ele>721.0</ele><time>2026-05-03T13:42:30Z</time></trkpt><trkpt lat="46.01548680043499" lon="12.007932309128083"><ele>725.0</ele><time>2026-05-03T13:42:31Z</time></trkpt><trkpt lat="46.015393230034" lon="12.007836678058668"><ele>729.0</ele><time>2026-05-03T13:42:34Z</time></trkpt><trkpt lat="46.015273119191555" lon="12.007736273323648"><ele>729.0</ele><time>2026-05-03T13:42:36Z</time></trkpt><trkpt lat="46.01517894570814" lon="12.007668399040895"><ele>729.0</ele><time>2026-05-03T13:42:38Z</time></trkpt><trkpt lat="46.01508093454101" lon="12.007681107962648"><ele>729.0</ele><time>2026-05-03T13:42:40Z</time></trkpt><trkpt lat="46.01499778271395" lon="12.007764256163757"><ele>729.0</ele><time>2026-05-03T13:42:42Z</time></trkpt><trkpt lat="46.01494165290667" lon="12.00783445526814"><ele>729.0</ele><time>2026-05-03T13:42:43Z</time></trkpt><trkpt lat="46.01488052344154" lon="12.007925173370898"><ele>732.3333333333334</ele><time>2026-05-03T13:42:44Z</time></trkpt><trkpt lat="46.014826254794734" lon="12.008032305319844"><ele>735.6666666666666</ele><time>2026-05-03T13:42:45Z</time></trkpt><trkpt lat="46.014773545911396" lon="12.00814225909185"><ele>739.0</ele><time>2026-05-03T13:42:46Z</time></trkpt><trkpt lat="46.01472687989079" lon="12.008241999719726"><ele>742.3333333333333</ele><time>2026-05-03T13:42:47Z</time></trkpt><trkpt lat="46.014662897015555" lon="12.008378752169984"><ele>745.6666666666666</ele><time>2026-05-03T13:42:49Z</time></trkpt><trkpt lat="46.01462507387691" lon="12.008454674474681"><ele>749.0</ele><time>2026-05-03T13:42:50Z</time></trkpt><trkpt lat="46.01458135925429" lon="12.008542543878884"><ele>750.4000000000001</ele><time>2026-05-03T13:42:51Z</time></trkpt><trkpt lat="46.0145356347494" lon="12.00864260158296"><ele>751.8</ele><time>2026-05-03T13:42:52Z</time></trkpt><trkpt lat="46.01449619695256" lon="12.008797212968348"><ele>753.2</ele><time>2026-05-03T13:42:53Z</time></trkpt><trkpt lat="46.01443859768545" lon="12.008977878138909"><ele>754.5999999999999</ele><time>2026-05-03T13:42:55Z</time></trkpt><trkpt lat="46.014401992404366" lon="12.009068703374007"><ele>756.0</ele><time>2026-05-03T13:42:56Z</time></trkpt><trkpt lat="46.0143739054345" lon="12.009173400734063"><ele>757.0</ele><time>2026-05-03T13:42:57Z</time></trkpt><trkpt lat="46.01434646353276" lon="12.009270006216376"><ele>758.0</ele><time>2026-05-03T13:42:58Z</time></trkpt><trkpt lat="46.014305345523304" lon="12.009359473375154"><ele>759.0</ele><time>2026-05-03T13:42:59Z</time></trkpt><trkpt lat="46.01425500836285" lon="12.009423760545232"><ele>760.0</ele><time>2026-05-03T13:43:00Z</time></trkpt><trkpt lat="46.014212971563644" lon="12.009554380624134"><ele>761.0</ele><time>2026-05-03T13:43:02Z</time></trkpt><trkpt lat="46.014120964932346" lon="12.009672402405151"><ele>762.0</ele><time>2026-05-03T13:43:04Z</time></trkpt><trkpt lat="46.01405318104147" lon="12.009764844429236"><ele>765.2</ele><time>2026-05-03T13:43:06Z</time></trkpt><trkpt lat="46.01399156983717" lon="12.009838945629678"><ele>768.4000000000001</ele><time>2026-05-03T13:43:08Z</time></trkpt><trkpt lat="46.01389435153747" lon="12.009928045923202"><ele>771.5999999999999</ele><time>2026-05-03T13:43:19Z</time></trkpt><trkpt lat="46.013842921060004" lon="12.009983093126191"><ele>774.8</ele><time>2026-05-03T13:43:20Z</time></trkpt><trkpt lat="46.01375506930656" lon="12.01009710801325"><ele>778.0</ele><time>2026-05-03T13:43:22Z</time></trkpt><trkpt lat="46.01369944082743" lon="12.010179430935679"><ele>778.4</ele><time>2026-05-03T13:43:23Z</time></trkpt><trkpt lat="46.01364498392809" lon="12.010267762202117"><ele>778.8</ele><time>2026-05-03T13:43:24Z</time></trkpt><trkpt lat="46.01358932394112" lon="12.010371929422513"><ele>779.2</ele><time>2026-05-03T13:43:25Z</time></trkpt><trkpt lat="46.01355243152508" lon="12.01050260213134"><ele>779.6</ele><time>2026-05-03T13:43:26Z</time></trkpt><trkpt lat="46.013521578605996" lon="12.010617013620275"><ele>780.0</ele><time>2026-05-03T13:43:27Z</time></trkpt><trkpt lat="46.01347454641438" lon="12.010775269847127"><ele>781.2</ele><time>2026-05-03T13:43:29Z</time></trkpt><trkpt lat="46.0134417716766" lon="12.010863697461117"><ele>782.4</ele><time>2026-05-03T13:43:30Z</time></trkpt><trkpt lat="46.01340592032909" lon="12.01101901161631"><ele>783.5999999999999</ele><time>2026-05-03T13:43:32Z</time></trkpt><trkpt lat="46.01335597659354" lon="12.011165059920199"><ele>784.8</ele><time>2026-05-03T13:43:34Z</time></trkpt><trkpt lat="46.01329469260899" lon="12.011327592109184"><ele>786.0</ele><time>2026-05-03T13:43:36Z</time></trkpt><trkpt lat="46.013225929660024" lon="12.011480444407178"><ele>792.0</ele><time>2026-05-03T13:43:38Z</time></trkpt><trkpt lat="46.01315336984379" lon="12.011600955727285"><ele>798.0</ele><time>2026-05-03T13:43:40Z</time></trkpt><trkpt lat="46.013079149147764" lon="12.011720303100473"><ele>804.0</ele><time>2026-05-03T13:43:42Z</time></trkpt><trkpt lat="46.01301493795099" lon="12.011811080704723"><ele>810.0</ele><time>2026-05-03T13:43:44Z</time></trkpt><trkpt lat="46.012950144566325" lon="12.011908952609964"><ele>816.0</ele><time>2026-05-03T13:43:45Z</time></trkpt><trkpt lat="46.01288868882633" lon="12.012010253686517"><ele>817.1666666666666</ele><time>2026-05-03T13:43:47Z</time></trkpt><trkpt lat="46.01281600896001" lon="12.0121432731583"><ele>818.3333333333333</ele><time>2026-05-03T13:43:49Z</time></trkpt><trkpt lat="46.01277517665501" lon="12.012224837152514"><ele>819.5</ele><time>2026-05-03T13:43:51Z</time></trkpt><trkpt lat="46.012729575830726" lon="12.01231747808654"><ele>820.6666666666666</ele><time>2026-05-03T13:43:53Z</time></trkpt><trkpt lat="46.012688939113005" lon="12.012400034296443"><ele>821.8333333333333</ele><time>2026-05-03T13:43:54Z</time></trkpt><trkpt lat="46.01262241408551" lon="12.01253031806329"><ele>823.0</ele><time>2026-05-03T13:43:56Z</time></trkpt><trkpt lat="46.01255246826788" lon="12.012655531039627"><ele>828.3333333333333</ele><time>2026-05-03T13:43:58Z</time></trkpt><trkpt lat="46.0124732753032" lon="12.012792617205195"><ele>833.6666666666666</ele><time>2026-05-03T13:44:00Z</time></trkpt><trkpt lat="46.01242556136553" lon="12.012873302932782"><ele>839.0</ele><time>2026-05-03T13:44:01Z</time></trkpt><trkpt lat="46.01238132731393" lon="12.012948104070107"><ele>844.3333333333333</ele><time>2026-05-03T13:44:02Z</time></trkpt><trkpt lat="46.01233466606639" lon="12.013027009726379"><ele>849.6666666666666</ele><time>2026-05-03T13:44:03Z</time></trkpt><trkpt lat="46.01228454520243" lon="12.013111765735207"><ele>855.0</ele><time>2026-05-03T13:44:04Z</time></trkpt><trkpt lat="46.012196291323335" lon="12.013256396888154"><ele>855.2</ele><time>2026-05-03T13:44:06Z</time></trkpt><trkpt lat="46.012095367645436" lon="12.013379660100119"><ele>855.4</ele><time>2026-05-03T13:44:08Z</time></trkpt><trkpt lat="46.0120332810321" lon="12.013455488959421"><ele>855.5999999999999</ele><time>2026-05-03T13:44:09Z</time></trkpt><trkpt lat="46.011967434848884" lon="12.013540351583254"><ele>855.8</ele><time>2026-05-03T13:44:10Z</time></trkpt><trkpt lat="46.01190829859053" lon="12.013617747306927"><ele>856.0</ele><time>2026-05-03T13:44:11Z</time></trkpt><trkpt lat="46.011836075678026" lon="12.01372058992071"><ele>856.0</ele><time>2026-05-03T13:44:13Z</time></trkpt><trkpt lat="46.011766195664215" lon="12.013830116415708"><ele>855.9999999999999</ele><time>2026-05-03T13:44:15Z</time></trkpt><trkpt lat="46.01170204837468" lon="12.013919940493889"><ele>855.9999999999999</ele><time>2026-05-03T13:44:17Z</time></trkpt><trkpt lat="46.01166005288592" lon="12.014083035349055"><ele>856.0</ele><time>2026-05-03T13:44:19Z</time></trkpt><trkpt lat="46.01164241500064" lon="12.014175788217708"><ele>856.0</ele><time>2026-05-03T13:44:20Z</time></trkpt><trkpt lat="46.01163676373235" lon="12.014298624232149"><ele>860.6666666666666</ele><time>2026-05-03T13:44:21Z</time></trkpt><trkpt lat="46.011613029983685" lon="12.014393818925292"><ele>865.3333333333333</ele><time>2026-05-03T13:44:22Z</time></trkpt><trkpt lat="46.011587262406316" lon="12.014481969150983"><ele>870.0</ele><time>2026-05-03T13:44:23Z</time></trkpt><trkpt lat="46.011569128777495" lon="12.014570157051278"><ele>874.6666666666667</ele><time>2026-05-03T13:44:24Z</time></trkpt><trkpt lat="46.01151847893046" lon="12.01473340735492"><ele>879.3333333333334</ele><time>2026-05-03T13:44:26Z</time></trkpt><trkpt lat="46.0114536818711" lon="12.014841659338733"><ele>884.0</ele><time>2026-05-03T13:44:28Z</time></trkpt><trkpt lat="46.01135073646336" lon="12.014856638849485"><ele>884.0</ele><time>2026-05-03T13:44:30Z</time></trkpt><trkpt lat="46.01124660503067" lon="12.014817266696358"><ele>884.0000000000001</ele><time>2026-05-03T13:44:32Z</time></trkpt><trkpt lat="46.011190648102335" lon="12.014772028201806"><ele>884.0000000000001</ele><time>2026-05-03T13:44:33Z</time></trkpt><trkpt lat="46.011142064874186" lon="12.014709992452092"><ele>884.0</ele><time>2026-05-03T13:44:34Z</time></trkpt><trkpt lat="46.01103001887116" lon="12.01464028916197"><ele>884.0</ele><time>2026-05-03T13:44:36Z</time></trkpt><trkpt lat="46.0109245901896" lon="12.014555422161608"><ele>889.0</ele><time>2026-05-03T13:44:38Z</time></trkpt><trkpt lat="46.01081868396665" lon="12.014494147459864"><ele>894.0000000000001</ele><time>2026-05-03T13:44:40Z</time></trkpt><trkpt lat="46.01076381828536" lon="12.014446003250749"><ele>899.0000000000001</ele><time>2026-05-03T13:44:41Z</time></trkpt><trkpt lat="46.01065904336723" lon="12.014365761397226"><ele>904.0</ele><time>2026-05-03T13:44:43Z</time></trkpt><trkpt lat="46.0105714066979" lon="12.014279837238977"><ele>909.0</ele><time>2026-05-03T13:44:45Z</time></trkpt><trkpt lat="46.010479918674335" lon="12.014203027051563"><ele>909.6</ele><time>2026-05-03T13:44:47Z</time></trkpt><trkpt lat="46.010397776515354" lon="12.014100936371085"><ele>910.2</ele><time>2026-05-03T13:44:49Z</time></trkpt><trkpt lat="46.01033411770352" lon="12.013978694482109"><ele>910.8000000000001</ele><time>2026-05-03T13:44:51Z</time></trkpt><trkpt lat="46.01029378226976" lon="12.013851312129862"><ele>911.4000000000001</ele><time>2026-05-03T13:44:53Z</time></trkpt><trkpt lat="46.01026717264252" lon="12.013756123456925"><ele>912.0</ele><time>2026-05-03T13:44:54Z</time></trkpt><trkpt lat="46.01024388335364" lon="12.013657166255602"><ele>912.0</ele><time>2026-05-03T13:44:55Z</time></trkpt><trkpt lat="46.01020121540327" lon="12.013507740421725"><ele>912.0</ele><time>2026-05-03T13:44:57Z</time></trkpt><trkpt lat="46.010167856283076" lon="12.013363269490494"><ele>912.0</ele><time>2026-05-03T13:44:59Z</time></trkpt><trkpt lat="46.01014358052674" lon="12.013196094653654"><ele>912.0</ele><time>2026-05-03T13:45:01Z</time></trkpt><trkpt lat="46.01011528424212" lon="12.013087705480956"><ele>912.0</ele><time>2026-05-03T13:45:03Z</time></trkpt><trkpt lat="46.01010211375867" lon="12.013187534320839"><ele>912.0</ele><time>2026-05-03T13:45:08Z</time></trkpt><trkpt lat="46.01009678870999" lon="12.01333035981286"><ele>912.0</ele><time>2026-05-03T13:45:10Z</time></trkpt><trkpt lat="46.01006532397671" lon="12.013423009628184"><ele>912.0</ele><time>2026-05-03T13:45:12Z</time></trkpt><trkpt lat="46.00963776497159" lon="12.013433413394484"><ele>915.6666666666666</ele><time>2026-05-03T13:45:15Z</time></trkpt><trkpt lat="46.00956402399078" lon="12.01336421969367"><ele>919.3333333333333</ele><time>2026-05-03T13:45:17Z</time></trkpt><trkpt lat="46.009498029968654" lon="12.013254495407468"><ele>923.0</ele><time>2026-05-03T13:45:19Z</time></trkpt><trkpt lat="46.009437069969344" lon="12.013194713255025"><ele>926.6666666666666</ele><time>2026-05-03T13:45:20Z</time></trkpt><trkpt lat="46.00944529343089" lon="12.013079723770815"><ele>930.3333333333333</ele><time>2026-05-03T13:45:22Z</time></trkpt><trkpt lat="46.00940813411508" lon="12.012992257364726"><ele>934.0</ele><time>2026-05-03T13:45:23Z</time></trkpt><trkpt lat="46.009422159895074" lon="12.01286674217903"><ele>934.0</ele><time>2026-05-03T13:45:24Z</time></trkpt><trkpt lat="46.00934827917129" lon="12.01275219777131"><ele>934.0000000000001</ele><time>2026-05-03T13:45:26Z</time></trkpt><trkpt lat="46.00927402930402" lon="12.012646247315288"><ele>934.0000000000001</ele><time>2026-05-03T13:45:28Z</time></trkpt><trkpt lat="46.00920412089054" lon="12.012557559324845"><ele>934.0</ele><time>2026-05-03T13:45:30Z</time></trkpt><trkpt lat="46.009157544175544" lon="12.012488365037559"><ele>934.0</ele><time>2026-05-03T13:45:31Z</time></trkpt><trkpt lat="46.00909867526847" lon="12.012415708510536"><ele>938.6</ele><time>2026-05-03T13:45:33Z</time></trkpt><trkpt lat="46.00903069364872" lon="12.012301341900288"><ele>943.2</ele><time>2026-05-03T13:45:35Z</time></trkpt><trkpt lat="46.008959593025104" lon="12.012188479346683"><ele>947.8000000000001</ele><time>2026-05-03T13:45:37Z</time></trkpt><trkpt lat="46.00890972744414" lon="12.012100692672481"><ele>952.4000000000001</ele><time>2026-05-03T13:45:39Z</time></trkpt><trkpt lat="46.008865628178974" lon="12.011980643561275"><ele>957.0</ele><time>2026-05-03T13:45:41Z</time></trkpt><trkpt lat="46.00881299894382" lon="12.011883583930084"><ele>957.0</ele><time>2026-05-03T13:45:43Z</time></trkpt><trkpt lat="46.00873577026234" lon="12.011821435345478"><ele>957.0</ele><time>2026-05-03T13:45:45Z</time></trkpt><trkpt lat="46.00867159779166" lon="12.011814924019273"><ele>957.0</ele><time>2026-05-03T13:45:47Z</time></trkpt><trkpt lat="46.00855693647847" lon="12.011817842801232"><ele>957.0</ele><time>2026-05-03T13:45:50Z</time></trkpt><trkpt lat="46.00844589580661" lon="12.011680822723546"><ele>957.0</ele><time>2026-05-03T13:45:52Z</time></trkpt><trkpt lat="46.008340626471146" lon="12.011591139183693"><ele>955.3333333333334</ele><time>2026-05-03T13:45:54Z</time></trkpt><trkpt lat="46.008265885943345" lon="12.011559414379818"><ele>953.6666666666667</ele><time>2026-05-03T13:45:55Z</time></trkpt><trkpt lat="46.00818418251514" lon="12.011476774923027"><ele>952.0</ele><time>2026-05-03T13:45:57Z</time></trkpt><trkpt lat="46.008125712427656" lon="12.01143434196083"><ele>950.3333333333334</ele><time>2026-05-03T13:45:58Z</time></trkpt><trkpt lat="46.00803023439334" lon="12.011372429443162"><ele>948.6666666666667</ele><time>2026-05-03T13:46:00Z</time></trkpt><trkpt lat="46.00796665705457" lon="12.011346360558578"><ele>947.0</ele><time>2026-05-03T13:46:01Z</time></trkpt><trkpt lat="46.007849930570096" lon="12.01132901250793"><ele>947.0</ele><time>2026-05-03T13:46:03Z</time></trkpt><trkpt lat="46.00776386593519" lon="12.011294488713066"><ele>947.0</ele><time>2026-05-03T13:46:04Z</time></trkpt><trkpt lat="46.00765948264434" lon="12.011237145806547"><ele>947.0</ele><time>2026-05-03T13:46:06Z</time></trkpt><trkpt lat="46.00754809163175" lon="12.011225997530431"><ele>947.0</ele><time>2026-05-03T13:46:08Z</time></trkpt><trkpt lat="46.007434584442294" lon="12.011205099505041"><ele>947.0</ele><time>2026-05-03T13:46:10Z</time></trkpt><trkpt lat="46.00732329902966" lon="12.011179454044944"><ele>948.0000000000001</ele><time>2026-05-03T13:46:12Z</time></trkpt><trkpt lat="46.00724155128524" lon="12.011184292694416"><ele>949.0</ele><time>2026-05-03T13:46:13Z</time></trkpt><trkpt lat="46.00712523233468" lon="12.011174090213716"><ele>950.0</ele><time>2026-05-03T13:46:15Z</time></trkpt><trkpt lat="46.00703517760017" lon="12.011176278873888"><ele>951.0</ele><time>2026-05-03T13:46:17Z</time></trkpt><trkpt lat="46.006951830942796" lon="12.011184889044321"><ele>952.0000000000001</ele><time>2026-05-03T13:46:19Z</time></trkpt><trkpt lat="46.00689010179752" lon="12.01120906444139"><ele>953.0</ele><time>2026-05-03T13:46:22Z</time></trkpt><trkpt lat="46.00675278987457" lon="12.01129903574836"><ele>953.0000000000001</ele><time>2026-05-03T13:46:25Z</time></trkpt><trkpt lat="46.00668052911045" lon="12.011335316291822"><ele>953.0</ele><time>2026-05-03T13:46:26Z</time></trkpt><trkpt lat="46.006612156794034" lon="12.011356337009548"><ele>953.0</ele><time>2026-05-03T13:46:27Z</time></trkpt><trkpt lat="46.00653493853272" lon="12.0113516659292"><ele>953.0</ele><time>2026-05-03T13:46:29Z</time></trkpt><trkpt lat="46.00641882916871" lon="12.011356818634399"><ele>953.0000000000001</ele><time>2026-05-03T13:46:30Z</time></trkpt><trkpt lat="46.006333187926344" lon="12.011350852432265"><ele>953.0</ele><time>2026-05-03T13:46:31Z</time></trkpt><trkpt lat="46.0062290164439" lon="12.011291848589305"><ele>958.2</ele><time>2026-05-03T13:46:33Z</time></trkpt><trkpt lat="46.006155880458316" lon="12.011175034216944"><ele>963.4</ele><time>2026-05-03T13:46:35Z</time></trkpt><trkpt lat="46.00608802202481" lon="12.011086608246282"><ele>968.6000000000001</ele><time>2026-05-03T13:46:37Z</time></trkpt><trkpt lat="46.00601126278891" lon="12.011033040395466"><ele>973.8000000000001</ele><time>2026-05-03T13:46:39Z</time></trkpt><trkpt lat="46.005968855102736" lon="12.010952641419282"><ele>979.0</ele><time>2026-05-03T13:46:42Z</time></trkpt><trkpt lat="46.00592159258589" lon="12.01083030981536"><ele>977.2</ele><time>2026-05-03T13:47:22Z</time></trkpt><trkpt lat="46.00587366445196" lon="12.010753059808478"><ele>975.4000000000001</ele><time>2026-05-03T13:47:24Z</time></trkpt><trkpt lat="46.00579011366088" lon="12.010667549876748"><ele>973.6</ele><time>2026-05-03T13:47:26Z</time></trkpt><trkpt lat="46.00568941019397" lon="12.010559458054333"><ele>971.8</ele><time>2026-05-03T13:47:28Z</time></trkpt><trkpt lat="46.005603068159175" lon="12.010491598798318"><ele>970.0</ele><time>2026-05-03T13:47:30Z</time></trkpt><trkpt lat="46.00549226290052" lon="12.010445366364005"><ele>969.9999999999999</ele><time>2026-05-03T13:47:32Z</time></trkpt><trkpt lat="46.005391117342924" lon="12.010443397366855"><ele>970.0</ele><time>2026-05-03T13:47:34Z</time></trkpt><trkpt lat="46.00531625114663" lon="12.010407075169677"><ele>970.0</ele><time>2026-05-03T13:47:35Z</time></trkpt><trkpt lat="46.00524862579857" lon="12.010399712704587"><ele>970.0</ele><time>2026-05-03T13:47:36Z</time></trkpt><trkpt lat="46.005135352822506" lon="12.01036795086698"><ele>969.9999999999999</ele><time>2026-05-03T13:47:38Z</time></trkpt><trkpt lat="46.00506376996214" lon="12.010362045351476"><ele>970.0</ele><time>2026-05-03T13:47:39Z</time></trkpt><trkpt lat="46.0049894568841" lon="12.010349155588901"><ele>972.75</ele><time>2026-05-03T13:47:40Z</time></trkpt><trkpt lat="46.00487791498589" lon="12.01035751609512"><ele>975.5</ele><time>2026-05-03T13:47:42Z</time></trkpt><trkpt lat="46.004770797994055" lon="12.01032367425569"><ele>978.25</ele><time>2026-05-03T13:47:44Z</time></trkpt><trkpt lat="46.00466192361484" lon="12.01023803257895"><ele>981.0</ele><time>2026-05-03T13:47:46Z</time></trkpt><trkpt lat="46.004557092829074" lon="12.010183290031751"><ele>981.0</ele><time>2026-05-03T13:47:48Z</time></trkpt><trkpt lat="46.0044463528153" lon="12.010170771922976"><ele>980.9999999999999</ele><time>2026-05-03T13:47:50Z</time></trkpt><trkpt lat="46.00435469144644" lon="12.010174495239704"><ele>980.9999999999999</ele><time>2026-05-03T13:47:52Z</time></trkpt><trkpt lat="46.004254484915386" lon="12.010179342134247"><ele>981.0</ele><time>2026-05-03T13:47:54Z</time></trkpt><trkpt lat="46.004158871527956" lon="12.010190337982312"><ele>981.0</ele><time>2026-05-03T13:47:56Z</time></trkpt><trkpt lat="46.00405996656534" lon="12.010239837294076"><ele>979.5</ele><time>2026-05-03T13:47:58Z</time></trkpt><trkpt lat="46.00394741833733" lon="12.010348132172439"><ele>978.0</ele><time>2026-05-03T13:48:00Z</time></trkpt><trkpt lat="46.003865948615484" lon="12.010445166448328"><ele>976.5</ele><time>2026-05-03T13:48:02Z</time></trkpt><trkpt lat="46.00379867504927" lon="12.010483172738226"><ele>975.0</ele><time>2026-05-03T13:48:03Z</time></trkpt><trkpt lat="46.003733827160914" lon="12.010493060332537"><ele>973.5</ele><time>2026-05-03T13:48:04Z</time></trkpt><trkpt lat="46.00366732359779" lon="12.010503926780942"><ele>972.0</ele><time>2026-05-03T13:48:05Z</time></trkpt><trkpt lat="46.003579562034325" lon="12.010509061478936"><ele>972.0</ele><time>2026-05-03T13:48:07Z</time></trkpt><trkpt lat="46.003508663562044" lon="12.010561868862164"><ele>972.0</ele><time>2026-05-03T13:48:09Z</time></trkpt><trkpt lat="46.00344415149165" lon="12.010676834891953"><ele>972.0</ele><time>2026-05-03T13:48:11Z</time></trkpt><trkpt lat="46.003380605399684" lon="12.010790377658275"><ele>972.0</ele><time>2026-05-03T13:48:13Z</time></trkpt><trkpt lat="46.00329319961351" lon="12.01089025664168"><ele>972.0</ele><time>2026-05-03T13:48:15Z</time></trkpt><trkpt lat="46.003186267513094" lon="12.010932745590168"><ele>971.6666666666666</ele><time>2026-05-03T13:48:17Z</time></trkpt><trkpt lat="46.00307847202219" lon="12.010947691172994"><ele>971.3333333333333</ele><time>2026-05-03T13:48:19Z</time></trkpt><trkpt lat="46.003010412827074" lon="12.010947103151747"><ele>971.0</ele><time>2026-05-03T13:48:20Z</time></trkpt><trkpt lat="46.002903624783286" lon="12.010927734366442"><ele>970.6666666666666</ele><time>2026-05-03T13:48:22Z</time></trkpt><trkpt lat="46.0028340675038" lon="12.01089707971461"><ele>970.3333333333333</ele><time>2026-05-03T13:48:26Z</time></trkpt><trkpt lat="46.00276052790113" lon="12.010849536076147"><ele>970.0</ele><time>2026-05-03T13:48:28Z</time></trkpt><trkpt lat="46.0026538257898" lon="12.010819742411014"><ele>969.9999999999999</ele><time>2026-05-03T13:48:30Z</time></trkpt><trkpt lat="46.00257595845206" lon="12.010812592934204"><ele>970.0</ele><time>2026-05-03T13:48:32Z</time></trkpt><trkpt lat="46.002490531264186" lon="12.010809741498058"><ele>970.0</ele><time>2026-05-03T13:48:35Z</time></trkpt><trkpt lat="46.002426276867915" lon="12.010819327760025"><ele>970.0</ele><time>2026-05-03T13:48:38Z</time></trkpt><trkpt lat="46.0023837953164" lon="12.010888103561282"><ele>969.9999999999999</ele><time>2026-05-03T13:48:40Z</time></trkpt><trkpt lat="46.002340543708655" lon="12.011000328556973"><ele>970.0</ele><time>2026-05-03T13:48:43Z</time></trkpt><trkpt lat="46.00229626532097" lon="12.011142488502303"><ele>969.0</ele><time>2026-05-03T13:48:46Z</time></trkpt><trkpt lat="46.002223684121624" lon="12.011262949571059"><ele>968.0</ele><time>2026-05-03T13:48:48Z</time></trkpt><trkpt lat="46.00214169125881" lon="12.01134960264866"><ele>967.0</ele><time>2026-05-03T13:48:50Z</time></trkpt><trkpt lat="46.00205559291986" lon="12.011442565786885"><ele>966.0</ele><time>2026-05-03T13:48:52Z</time></trkpt><trkpt lat="46.00198041271569" lon="12.011467154003626"><ele>965.0</ele><time>2026-05-03T13:48:55Z</time></trkpt><trkpt lat="46.001910226861355" lon="12.011519859975863"><ele>965.0</ele><time>2026-05-03T13:48:56Z</time></trkpt><trkpt lat="46.00181279841308" lon="12.011467057821019"><ele>965.0</ele><time>2026-05-03T13:48:59Z</time></trkpt><trkpt lat="46.00172564634269" lon="12.011463419289646"><ele>965.0</ele><time>2026-05-03T13:49:01Z</time></trkpt><trkpt lat="46.001672932882" lon="12.011562381695688"><ele>965.0</ele><time>2026-05-03T13:49:03Z</time></trkpt><trkpt lat="46.00161384981981" lon="12.01167644281321"><ele>965.0</ele><time>2026-05-03T13:49:05Z</time></trkpt><trkpt lat="46.0015343609477" lon="12.011735902346356"><ele>965.5000000000001</ele><time>2026-05-03T13:49:07Z</time></trkpt><trkpt lat="46.0014917952712" lon="12.011818485042346"><ele>966.0</ele><time>2026-05-03T13:49:09Z</time></trkpt><trkpt lat="46.00145675480063" lon="12.01194823073144"><ele>966.5</ele><time>2026-05-03T13:49:12Z</time></trkpt><trkpt lat="46.001407408346076" lon="12.012054962821209"><ele>967.0</ele><time>2026-05-03T13:49:14Z</time></trkpt><trkpt lat="46.00136924476764" lon="12.012146877418456"><ele>967.5000000000001</ele><time>2026-05-03T13:49:16Z</time></trkpt><trkpt lat="46.00128499742593" lon="12.012200338443707"><ele>968.0</ele><time>2026-05-03T13:49:18Z</time></trkpt><trkpt lat="46.001214587688594" lon="12.012275815916107"><ele>968.0000000000001</ele><time>2026-05-03T13:49:20Z</time></trkpt><trkpt lat="46.001144747361025" lon="12.012318464768555"><ele>968.0</ele><time>2026-05-03T13:49:23Z</time></trkpt><trkpt lat="46.001133210219066" lon="12.01240914721369"><ele>968.0</ele><time>2026-05-03T13:49:24Z</time></trkpt><trkpt lat="46.001078139796306" lon="12.012465738245815"><ele>968.0</ele><time>2026-05-03T13:49:26Z</time></trkpt><trkpt lat="46.00097491116536" lon="12.012492495571774"><ele>968.0000000000001</ele><time>2026-05-03T13:49:29Z</time></trkpt><trkpt lat="46.000867072167814" lon="12.012591661426427"><ele>968.0</ele><time>2026-05-03T13:49:31Z</time></trkpt><trkpt lat="46.00078700673671" lon="12.012631330414866"><ele>969.1666666666667</ele><time>2026-05-03T13:49:33Z</time></trkpt><trkpt lat="46.00070257163023" lon="12.012622099969144"><ele>970.3333333333334</ele><time>2026-05-03T13:49:36Z</time></trkpt><trkpt lat="46.00060303949717" lon="12.01258348612467"><ele>971.5</ele><time>2026-05-03T13:49:38Z</time></trkpt><trkpt lat="46.0005526898208" lon="12.012509936544081"><ele>972.6666666666667</ele><time>2026-05-03T13:49:41Z</time></trkpt><trkpt lat="46.00051015502246" lon="12.01243368890421"><ele>973.8333333333334</ele><time>2026-05-03T13:49:43Z</time></trkpt><trkpt lat="46.00046883196816" lon="12.012331803994915"><ele>975.0</ele><time>2026-05-03T13:49:45Z</time></trkpt><trkpt lat="46.00043801950093" lon="12.012247890648247"><ele>975.0</ele><time>2026-05-03T13:49:47Z</time></trkpt><trkpt lat="46.00040660465471" lon="12.012152213340293"><ele>974.9999999999999</ele><time>2026-05-03T13:49:49Z</time></trkpt><trkpt lat="46.000367491524635" lon="12.012076831307489"><ele>975.0</ele><time>2026-05-03T13:49:52Z</time></trkpt><trkpt lat="46.00030218514607" lon="12.012067878651195"><ele>975.0</ele><time>2026-05-03T13:49:55Z</time></trkpt><trkpt lat="46.00020990718252" lon="12.012069936823444"><ele>974.9999999999999</ele><time>2026-05-03T13:49:58Z</time></trkpt><trkpt lat="46.000144122756744" lon="12.012059435573073"><ele>975.0</ele><time>2026-05-03T13:50:00Z</time></trkpt><trkpt lat="46.00006111427833" lon="12.012087714098564"><ele>975.0</ele><time>2026-05-03T13:50:02Z</time></trkpt><trkpt lat="45.99995890048132" lon="12.012046856890706"><ele>975.0</ele><time>2026-05-03T13:50:05Z</time></trkpt><trkpt lat="45.999860319406444" lon="12.01202055827206"><ele>975.0</ele><time>2026-05-03T13:50:07Z</time></trkpt><trkpt lat="45.999774354048846" lon="12.012013746876582"><ele>975.0</ele><time>2026-05-03T13:50:09Z</time></trkpt><trkpt lat="45.9997428510971" lon="12.011894583452058"><ele>975.0</ele><time>2026-05-03T13:50:11.999Z</time></trkpt><trkpt lat="45.99968554110534" lon="12.011808181262063"><ele>975.0</ele><time>2026-05-03T13:50:13.999Z</time></trkpt><trkpt lat="45.999613120521815" lon="12.01174120815809"><ele>975.0</ele><time>2026-05-03T13:50:16.999Z</time></trkpt><trkpt lat="45.99954767180452" lon="12.011673179029485"><ele>968.5</ele><time>2026-05-03T13:50:20Z</time></trkpt><trkpt lat="45.999462973772" lon="12.011631574087604"><ele>962.0</ele><time>2026-05-03T13:50:23Z</time></trkpt><trkpt lat="45.99940404701476" lon="12.011557210868313"><ele>955.5</ele><time>2026-05-03T13:50:25Z</time></trkpt><trkpt lat="45.99932926873212" lon="12.011477967764133"><ele>949.0</ele><time>2026-05-03T13:50:28Z</time></trkpt><trkpt lat="45.99927290920812" lon="12.01139703209113"><ele>942.5</ele><time>2026-05-03T13:50:30Z</time></trkpt><trkpt lat="45.999227883666755" lon="12.0113240651095"><ele>936.0</ele><time>2026-05-03T13:50:34Z</time></trkpt><trkpt lat="45.99920074079518" lon="12.011180803318892"><ele>938.3333333333334</ele><time>2026-05-03T13:50:39Z</time></trkpt><trkpt lat="45.99915791150658" lon="12.011090861162941"><ele>940.6666666666667</ele><time>2026-05-03T13:50:44Z</time></trkpt><trkpt lat="45.999093741960635" lon="12.011001293209265"><ele>943.0</ele><time>2026-05-03T13:50:49Z</time></trkpt><trkpt lat="45.999098287251854" lon="12.010887181764858"><ele>945.3333333333334</ele><time>2026-05-03T13:50:51Z</time></trkpt><trkpt lat="45.999128404030664" lon="12.010785508445672"><ele>947.6666666666667</ele><time>2026-05-03T13:50:53Z</time></trkpt><trkpt lat="45.999202260501505" lon="12.01071534988705"><ele>950.0</ele><time>2026-05-03T13:50:57Z</time></trkpt><trkpt lat="45.99923336994771" lon="12.010617141572272"><ele>942.3333333333334</ele><time>2026-05-03T13:50:59Z</time></trkpt><trkpt lat="45.99921248448132" lon="12.010529346057517"><ele>934.6666666666667</ele><time>2026-05-03T13:51:06Z</time></trkpt><trkpt lat="45.99925277238764" lon="12.010422398940923"><ele>927.0</ele><time>2026-05-03T13:51:11Z</time></trkpt><trkpt lat="45.99925763820492" lon="12.01028367316987"><ele>919.3333333333333</ele><time>2026-05-03T13:51:15Z</time></trkpt><trkpt lat="45.99921400255" lon="12.010165512457315"><ele>911.6666666666666</ele><time>2026-05-03T13:51:19Z</time></trkpt><trkpt lat="45.999220018203566" lon="12.010048167099066"><ele>904.0</ele><time>2026-05-03T13:51:22Z</time></trkpt><trkpt lat="45.99922472831348" lon="12.009956427115812"><ele>900.8000000000001</ele><time>2026-05-03T13:51:24Z</time></trkpt><trkpt lat="45.99923722831812" lon="12.009845250206375"><ele>897.6000000000001</ele><time>2026-05-03T13:51:26Z</time></trkpt><trkpt lat="45.999265266862814" lon="12.009701861285262"><ele>894.4</ele><time>2026-05-03T13:51:29Z</time></trkpt><trkpt lat="45.999251119911804" lon="12.00957737849554"><ele>891.2</ele><time>2026-05-03T13:51:31Z</time></trkpt><trkpt lat="45.999238769447174" lon="12.009422011223652"><ele>888.0</ele><time>2026-05-03T13:51:33Z</time></trkpt><trkpt lat="45.999221406875506" lon="12.009316152679181"><ele>888.0</ele><time>2026-05-03T13:51:35Z</time></trkpt><trkpt lat="45.999201819741984" lon="12.009210577672851"><ele>888.0</ele><time>2026-05-03T13:51:37Z</time></trkpt><trkpt lat="45.999184517996945" lon="12.009120277425797"><ele>888.0</ele><time>2026-05-03T13:51:39Z</time></trkpt><trkpt lat="45.99913785648131" lon="12.009004951192424"><ele>888.0</ele><time>2026-05-03T13:51:42Z</time></trkpt><trkpt lat="45.99913540252054" lon="12.008850700967807"><ele>888.0</ele><time>2026-05-03T13:51:44Z</time></trkpt><trkpt lat="45.999118276483074" lon="12.0087021985878"><ele>888.0</ele><time>2026-05-03T13:51:46Z</time></trkpt><trkpt lat="45.99907405231705" lon="12.008622283417015"><ele>890.4</ele><time>2026-05-03T13:51:48Z</time></trkpt><trkpt lat="45.99904147744855" lon="12.008520904765712"><ele>892.8</ele><time>2026-05-03T13:51:49Z</time></trkpt><trkpt lat="45.998993982378735" lon="12.008435300361787"><ele>895.2</ele><time>2026-05-03T13:51:50Z</time></trkpt><trkpt lat="45.998901858228784" lon="12.008338437482575"><ele>897.6</ele><time>2026-05-03T13:51:52Z</time></trkpt><trkpt lat="45.99881279988504" lon="12.008237478999861"><ele>900.0</ele><time>2026-05-03T13:51:54Z</time></trkpt><trkpt lat="45.99875501563412" lon="12.00815050209237"><ele>900.0</ele><time>2026-05-03T13:51:55Z</time></trkpt><trkpt lat="45.998703045188236" lon="12.008095765371536"><ele>900.0</ele><time>2026-05-03T13:51:56Z</time></trkpt><trkpt lat="45.99865617587985" lon="12.008003908039129"><ele>900.0</ele><time>2026-05-03T13:51:57Z</time></trkpt><trkpt lat="45.99861716370228" lon="12.007918896857852"><ele>900.0</ele><time>2026-05-03T13:51:58Z</time></trkpt><trkpt lat="45.998566249950485" lon="12.007839972952706"><ele>900.0</ele><time>2026-05-03T13:51:59Z</time></trkpt><trkpt lat="45.99846901992006" lon="12.007711348634686"><ele>900.0</ele><time>2026-05-03T13:52:01Z</time></trkpt><trkpt lat="45.9984050912993" lon="12.007654252533998"><ele>901.5</ele><time>2026-05-03T13:52:02Z</time></trkpt><trkpt lat="45.99831508664326" lon="12.007532761118215"><ele>903.0</ele><time>2026-05-03T13:52:04Z</time></trkpt><trkpt lat="45.99821436562218" lon="12.007419509956208"><ele>904.5</ele><time>2026-05-03T13:52:06Z</time></trkpt><trkpt lat="45.99812342059254" lon="12.007321914484095"><ele>906.0</ele><time>2026-05-03T13:52:07.999Z</time></trkpt><trkpt lat="45.99802606498167" lon="12.007270225480783"><ele>906.0</ele><time>2026-05-03T13:52:09.999Z</time></trkpt><trkpt lat="45.99791566125629" lon="12.007237233341979"><ele>905.9999999999999</ele><time>2026-05-03T13:52:11.999Z</time></trkpt><trkpt lat="45.99780257826357" lon="12.007244681781238"><ele>905.9999999999999</ele><time>2026-05-03T13:52:13.999Z</time></trkpt><trkpt lat="45.99769914808132" lon="12.007251641421048"><ele>906.0</ele><time>2026-05-03T13:52:15.999Z</time></trkpt><trkpt lat="45.99763967275658" lon="12.007198840927057"><ele>906.0</ele><time>2026-05-03T13:52:16.999Z</time></trkpt><trkpt lat="45.99759200254365" lon="12.007128195785025"><ele>906.0</ele><time>2026-05-03T13:52:17.999Z</time></trkpt><trkpt lat="45.99756351866609" lon="12.007040093373458"><ele>906.0</ele><time>2026-05-03T13:52:18.999Z</time></trkpt><trkpt lat="45.9975218933466" lon="12.006881109911143"><ele>906.0</ele><time>2026-05-03T13:52:20.999Z</time></trkpt><trkpt lat="45.99749345522129" lon="12.006796406509993"><ele>906.0</ele><time>2026-05-03T13:52:22.999Z</time></trkpt><trkpt lat="45.99745551520937" lon="12.006723426364488"><ele>906.0</ele><time>2026-05-03T13:52:47Z</time></trkpt><trkpt lat="45.99745776357258" lon="12.00659005837174"><ele>906.0</ele><time>2026-05-03T13:52:49Z</time></trkpt><trkpt lat="45.9974881314149" lon="12.006458453266193"><ele>908.4</ele><time>2026-05-03T13:52:51Z</time></trkpt><trkpt lat="45.997555325291465" lon="12.006313253325857"><ele>910.8</ele><time>2026-05-03T13:52:53Z</time></trkpt><trkpt lat="45.99760954410815" lon="12.006234892104931"><ele>913.1999999999999</ele><time>2026-05-03T13:52:54Z</time></trkpt><trkpt lat="45.997701735807404" lon="12.006124897830068"><ele>915.5999999999999</ele><time>2026-05-03T13:52:56Z</time></trkpt><trkpt lat="45.99776435936871" lon="12.006057962455193"><ele>918.0</ele><time>2026-05-03T13:52:57Z</time></trkpt><trkpt lat="45.997819426465234" lon="12.005979573436123"><ele>918.0</ele><time>2026-05-03T13:52:58Z</time></trkpt><trkpt lat="45.997913881844845" lon="12.005944333927006"><ele>918.0</ele><time>2026-05-03T13:52:59Z</time></trkpt><trkpt lat="45.99799486417386" lon="12.005876781490661"><ele>918.0</ele><time>2026-05-03T13:53:00Z</time></trkpt><trkpt lat="45.99811694336687" lon="12.005800799604513"><ele>918.0</ele><time>2026-05-03T13:53:02Z</time></trkpt><trkpt lat="45.998199223567624" lon="12.005772824634024"><ele>918.0</ele><time>2026-05-03T13:53:03Z</time></trkpt><trkpt lat="45.998227424100286" lon="12.005687505555985"><ele>915.3333333333334</ele><time>2026-05-03T13:53:04Z</time></trkpt><trkpt lat="45.99830332954613" lon="12.005619804410319"><ele>912.6666666666667</ele><time>2026-05-03T13:53:07Z</time></trkpt><trkpt lat="45.99837515976869" lon="12.005555543058561"><ele>910.0</ele><time>2026-05-03T13:53:09Z</time></trkpt><trkpt lat="45.99843835743897" lon="12.005541782323217"><ele>907.3333333333334</ele><time>2026-05-03T13:53:10Z</time></trkpt><trkpt lat="45.99850029120314" lon="12.005488990089905"><ele>904.6666666666667</ele><time>2026-05-03T13:53:12Z</time></trkpt><trkpt lat="45.998577471774766" lon="12.00544228961729"><ele>902.0</ele><time>2026-05-03T13:53:14Z</time></trkpt><trkpt lat="45.99867695495201" lon="12.005384967663073"><ele>902.0000000000001</ele><time>2026-05-03T13:53:16Z</time></trkpt><trkpt lat="45.99874030771082" lon="12.00538402828366"><ele>902.0</ele><time>2026-05-03T13:53:17Z</time></trkpt><trkpt lat="45.99881191471573" lon="12.005312328757823"><ele>902.0</ele><time>2026-05-03T13:53:19Z</time></trkpt><trkpt lat="45.9989224127971" lon="12.0052494872696"><ele>902.0</ele><time>2026-05-03T13:53:21Z</time></trkpt><trkpt lat="45.99892725882053" lon="12.005144485404907"><ele>902.0000000000001</ele><time>2026-05-03T13:53:23Z</time></trkpt><trkpt lat="45.998929250709246" lon="12.00504356359421"><ele>902.0</ele><time>2026-05-03T13:53:25Z</time></trkpt><trkpt lat="45.998941095539166" lon="12.00493430098814"><ele>902.6</ele><time>2026-05-03T13:53:27Z</time></trkpt><trkpt lat="45.99895819166295" lon="12.004832515064928"><ele>903.2</ele><time>2026-05-03T13:53:29Z</time></trkpt><trkpt lat="45.99890351336776" lon="12.00468749718474"><ele>903.8</ele><time>2026-05-03T13:53:31Z</time></trkpt><trkpt lat="45.99887348236673" lon="12.004521094273327"><ele>904.4</ele><time>2026-05-03T13:53:33Z</time></trkpt><trkpt lat="45.99885331691815" lon="12.004427717293275"><ele>905.0</ele><time>2026-05-03T13:53:34Z</time></trkpt><trkpt lat="45.99879612436974" lon="12.00432983761154"><ele>904.8</ele><time>2026-05-03T13:53:35Z</time></trkpt><trkpt lat="45.99882288995347" lon="12.00413836196982"><ele>904.6</ele><time>2026-05-03T13:53:37Z</time></trkpt><trkpt lat="45.998863759868044" lon="12.004027577057865"><ele>904.4000000000001</ele><time>2026-05-03T13:53:38Z</time></trkpt><trkpt lat="45.9988565356414" lon="12.003918141856825"><ele>904.2</ele><time>2026-05-03T13:53:39Z</time></trkpt><trkpt lat="45.99887557610256" lon="12.003733161866935"><ele>904.0</ele><time>2026-05-03T13:53:41Z</time></trkpt><trkpt lat="45.99884150995568" lon="12.003601882329297"><ele>904.0</ele><time>2026-05-03T13:53:43Z</time></trkpt><trkpt lat="45.99882578725034" lon="12.003422403224986"><ele>904.0000000000001</ele><time>2026-05-03T13:53:45Z</time></trkpt><trkpt lat="45.99882692263453" lon="12.003304046305539"><ele>904.0000000000001</ele><time>2026-05-03T13:53:46Z</time></trkpt><trkpt lat="45.99876987420147" lon="12.003243094365754"><ele>904.0</ele><time>2026-05-03T13:53:47Z</time></trkpt><trkpt lat="45.99875720398549" lon="12.003142065809794"><ele>904.0</ele><time>2026-05-03T13:53:48Z</time></trkpt><trkpt lat="45.99872443052875" lon="12.002963168449991"><ele>903.6</ele><time>2026-05-03T13:53:50Z</time></trkpt><trkpt lat="45.99868358676448" lon="12.002806054947865"><ele>903.2</ele><time>2026-05-03T13:53:52Z</time></trkpt><trkpt lat="45.998624409398296" lon="12.002634032420797"><ele>902.8000000000001</ele><time>2026-05-03T13:53:54Z</time></trkpt><trkpt lat="45.998598416693554" lon="12.002525950250893"><ele>902.4000000000001</ele><time>2026-05-03T13:53:55Z</time></trkpt><trkpt lat="45.998551747705605" lon="12.002387813743924"><ele>902.0</ele><time>2026-05-03T13:53:57Z</time></trkpt><trkpt lat="45.998526651119455" lon="12.00229987032405"><ele>901.1666666666667</ele><time>2026-05-03T13:53:58Z</time></trkpt><trkpt lat="45.99849064753694" lon="12.002220137144072"><ele>900.3333333333334</ele><time>2026-05-03T13:53:59Z</time></trkpt><trkpt lat="45.9984657120514" lon="12.00213464619721"><ele>899.5</ele><time>2026-05-03T13:54:00Z</time></trkpt><trkpt lat="45.99839133119532" lon="12.001993123633842"><ele>898.6666666666667</ele><time>2026-05-03T13:54:02Z</time></trkpt><trkpt lat="45.998326929977424" lon="12.001939520076212"><ele>897.8333333333334</ele><time>2026-05-03T13:54:03Z</time></trkpt><trkpt lat="45.99827706191178" lon="12.001883191910904"><ele>897.0</ele><time>2026-05-03T13:54:03.999Z</time></trkpt><trkpt lat="45.99815234086721" lon="12.00179774079333"><ele>904.2</ele><time>2026-05-03T13:54:05.999Z</time></trkpt><trkpt lat="45.99808260936141" lon="12.001743526546658"><ele>911.4000000000001</ele><time>2026-05-03T13:54:06.999Z</time></trkpt><trkpt lat="45.99797531127155" lon="12.001678453132305"><ele>918.5999999999999</ele><time>2026-05-03T13:54:08.999Z</time></trkpt><trkpt lat="45.99788464704129" lon="12.001681709742755"><ele>925.8</ele><time>2026-05-03T13:54:10.999Z</time></trkpt><trkpt lat="45.99780536584615" lon="12.001779124079217"><ele>933.0</ele><time>2026-05-03T13:54:12.999Z</time></trkpt><trkpt lat="45.997824893564946" lon="12.001886023103237"><ele>933.0</ele><time>2026-05-03T13:54:13.999Z</time></trkpt><trkpt lat="45.9978518184722" lon="12.001970237029079"><ele>933.0</ele><time>2026-05-03T13:54:14.999Z</time></trkpt><trkpt lat="45.997918584681116" lon="12.002009605205505"><ele>933.0</ele><time>2026-05-03T13:54:15.999Z</time></trkpt><trkpt lat="45.99800429090304" lon="12.00211327581317"><ele>933.0</ele><time>2026-05-03T13:54:17.999Z</time></trkpt><trkpt lat="45.99805855668288" lon="12.002195613702781"><ele>933.0</ele><time>2026-05-03T13:54:21.999Z</time></trkpt><trkpt lat="45.99808867991641" lon="12.002331387023093"><ele>933.0</ele><time>2026-05-03T13:54:24.999Z</time></trkpt><trkpt lat="45.99809759452516" lon="12.002477707145577"><ele>933.0</ele><time>2026-05-03T13:54:26.999Z</time></trkpt><trkpt lat="45.99801738867113" lon="12.002573871142527"><ele>933.0</ele><time>2026-05-03T13:54:28.999Z</time></trkpt><trkpt lat="45.99788461835581" lon="12.002605525480718"><ele>933.0</ele><time>2026-05-03T13:54:31Z</time></trkpt><trkpt lat="45.99776882599042" lon="12.002544584122615"><ele>933.0</ele><time>2026-05-03T13:54:33Z</time></trkpt><trkpt lat="45.99770516809872" lon="12.00252380086913"><ele>933.0</ele><time>2026-05-03T13:54:34Z</time></trkpt><trkpt lat="45.997613943164154" lon="12.002469100371163"><ele>933.0</ele><time>2026-05-03T13:54:35Z</time></trkpt><trkpt lat="45.99753667270175" lon="12.002451765925654"><ele>933.0</ele><time>2026-05-03T13:54:36Z</time></trkpt><trkpt lat="45.99746376027381" lon="12.002441286010646"><ele>933.0</ele><time>2026-05-03T13:54:37Z</time></trkpt><trkpt lat="45.99739453851087" lon="12.002454423713173"><ele>933.0</ele><time>2026-05-03T13:54:38Z</time></trkpt><trkpt lat="45.99732578906465" lon="12.002436420032002"><ele>933.0</ele><time>2026-05-03T13:54:39Z</time></trkpt><trkpt lat="45.99719783584283" lon="12.002435998291688"><ele>933.0</ele><time>2026-05-03T13:54:41Z</time></trkpt><trkpt lat="45.99713265395602" lon="12.002451574017885"><ele>935.0</ele><time>2026-05-03T13:54:42Z</time></trkpt><trkpt lat="45.99700354668901" lon="12.002489037386002"><ele>937.0</ele><time>2026-05-03T13:54:44Z</time></trkpt><trkpt lat="45.99693837771144" lon="12.002501181462168"><ele>939.0</ele><time>2026-05-03T13:54:45Z</time></trkpt><trkpt lat="45.99686639013051" lon="12.002500742837002"><ele>941.0</ele><time>2026-05-03T13:54:46Z</time></trkpt><trkpt lat="45.996785992455536" lon="12.0025232596127"><ele>943.0</ele><time>2026-05-03T13:54:47Z</time></trkpt><trkpt lat="45.996710939451184" lon="12.002561882465656"><ele>945.0</ele><time>2026-05-03T13:54:48Z</time></trkpt><trkpt lat="45.996610524772684" lon="12.002655346892528"><ele>952.0</ele><time>2026-05-03T13:54:50Z</time></trkpt><trkpt lat="45.996497601457236" lon="12.002745214243488"><ele>959.0</ele><time>2026-05-03T13:54:52Z</time></trkpt><trkpt lat="45.996429889165604" lon="12.002781992955358"><ele>966.0</ele><time>2026-05-03T13:54:53Z</time></trkpt><trkpt lat="45.99634812872447" lon="12.002776210924072"><ele>973.0</ele><time>2026-05-03T13:54:54Z</time></trkpt><trkpt lat="45.99625540184685" lon="12.002807282649723"><ele>980.0</ele><time>2026-05-03T13:54:55Z</time></trkpt><trkpt lat="45.99615073070908" lon="12.002814271815245"><ele>980.0000000000001</ele><time>2026-05-03T13:54:56Z</time></trkpt><trkpt lat="45.99607563634206" lon="12.0028032193259"><ele>980.0</ele><time>2026-05-03T13:54:58Z</time></trkpt><trkpt lat="45.99602052487897" lon="12.002868809341217"><ele>980.0</ele><time>2026-05-03T13:55:00Z</time></trkpt><trkpt lat="45.99597750595108" lon="12.00296341736187"><ele>980.0</ele><time>2026-05-03T13:55:01Z</time></trkpt><trkpt lat="45.996015570214986" lon="12.003099603130915"><ele>980.0000000000001</ele><time>2026-05-03T13:55:02Z</time></trkpt><trkpt lat="45.99604045639555" lon="12.003192745067523"><ele>980.0</ele><time>2026-05-03T13:55:03Z</time></trkpt><trkpt lat="45.99606798406366" lon="12.003291576662601"><ele>981.2857142857142</ele><time>2026-05-03T13:55:04Z</time></trkpt><trkpt lat="45.996085647293505" lon="12.003387210305073"><ele>982.5714285714286</ele><time>2026-05-03T13:55:05Z</time></trkpt><trkpt lat="45.99610058221999" lon="12.003486176897612"><ele>983.8571428571429</ele><time>2026-05-03T13:55:06Z</time></trkpt><trkpt lat="45.99610932881074" lon="12.003582085712194"><ele>985.1428571428571</ele><time>2026-05-03T13:55:07Z</time></trkpt><trkpt lat="45.99611005863507" lon="12.003674300216865"><ele>986.4285714285713</ele><time>2026-05-03T13:55:08Z</time></trkpt><trkpt lat="45.996117899402996" lon="12.003773178367808"><ele>987.7142857142857</ele><time>2026-05-03T13:55:09Z</time></trkpt><trkpt lat="45.99609113526534" lon="12.003861480893406"><ele>989.0</ele><time>2026-05-03T13:55:10Z</time></trkpt><trkpt lat="45.996084541581496" lon="12.003988957712432"><ele>989.0</ele><time>2026-05-03T13:55:11Z</time></trkpt><trkpt lat="45.99605864135347" lon="12.004119057416476"><ele>989.0000000000001</ele><time>2026-05-03T13:55:12Z</time></trkpt><trkpt lat="45.996011929399195" lon="12.004284966613405"><ele>989.0000000000001</ele><time>2026-05-03T13:55:13Z</time></trkpt><trkpt lat="45.995969585285756" lon="12.004434403192743"><ele>989.0</ele><time>2026-05-03T13:55:14Z</time></trkpt><trkpt lat="45.99592754430402" lon="12.004572327841284"><ele>989.0</ele><time>2026-05-03T13:55:15Z</time></trkpt><trkpt lat="45.995882114345235" lon="12.00472597026823"><ele>990.6</ele><time>2026-05-03T13:55:16Z</time></trkpt><trkpt lat="45.995843522746" lon="12.004855547119679"><ele>992.2</ele><time>2026-05-03T13:55:17Z</time></trkpt><trkpt lat="45.99580164719101" lon="12.00496996804594"><ele>993.8000000000001</ele><time>2026-05-03T13:55:18Z</time></trkpt><trkpt lat="45.99577754333478" lon="12.005094920369155"><ele>995.4000000000001</ele><time>2026-05-03T13:55:19Z</time></trkpt><trkpt lat="45.99573536283542" lon="12.00522940203333"><ele>997.0</ele><time>2026-05-03T13:55:20Z</time></trkpt><trkpt lat="45.995729571832065" lon="12.005364060635207"><ele>1002.4999999999999</ele><time>2026-05-03T13:55:21Z</time></trkpt><trkpt lat="45.99570662294345" lon="12.005474757315094"><ele>1008.0</ele><time>2026-05-03T13:55:22Z</time></trkpt><trkpt lat="45.99568730474889" lon="12.005592559057236"><ele>1013.5</ele><time>2026-05-03T13:55:23Z</time></trkpt><trkpt lat="45.99564441334018" lon="12.005670033495049"><ele>1019.0</ele><time>2026-05-03T13:55:24Z</time></trkpt><trkpt lat="45.99560432947502" lon="12.005763232436971"><ele>1024.5</ele><time>2026-05-03T13:55:25Z</time></trkpt><trkpt lat="45.99555103518901" lon="12.005842803927893"><ele>1030.0</ele><time>2026-05-03T13:55:26Z</time></trkpt><trkpt lat="45.99547733456407" lon="12.005903216319812"><ele>1030.0</ele><time>2026-05-03T13:55:27Z</time></trkpt><trkpt lat="45.995414686946475" lon="12.005940307547458"><ele>1030.0</ele><time>2026-05-03T13:55:28Z</time></trkpt><trkpt lat="45.99535439416663" lon="12.005976898186423"><ele>1030.0</ele><time>2026-05-03T13:55:29Z</time></trkpt><trkpt lat="45.99528212149853" lon="12.006006967324375"><ele>1030.0</ele><time>2026-05-03T13:55:30Z</time></trkpt><trkpt lat="45.99519340310393" lon="12.006039511842364"><ele>1030.0</ele><time>2026-05-03T13:55:31Z</time></trkpt><trkpt lat="45.99509758403887" lon="12.006084409165119"><ele>1030.0</ele><time>2026-05-03T13:55:32Z</time></trkpt><trkpt lat="45.995005939944775" lon="12.006139566745121"><ele>1035.6666666666665</ele><time>2026-05-03T13:55:33Z</time></trkpt><trkpt lat="45.99493779128222" lon="12.006182715312617"><ele>1041.3333333333333</ele><time>2026-05-03T13:55:34Z</time></trkpt><trkpt lat="45.9948736131082" lon="12.006225128736462"><ele>1047.0</ele><time>2026-05-03T13:55:35Z</time></trkpt><trkpt lat="45.99481935259337" lon="12.006287455887191"><ele>1052.6666666666667</ele><time>2026-05-03T13:55:37Z</time></trkpt><trkpt lat="45.994758426563415" lon="12.006329472643385"><ele>1058.3333333333335</ele><time>2026-05-03T13:55:39Z</time></trkpt><trkpt lat="45.99467688735586" lon="12.006444285055952"><ele>1064.0</ele><time>2026-05-03T13:55:41Z</time></trkpt><trkpt lat="45.99463229387354" lon="12.006551264065267"><ele>1062.6000000000001</ele><time>2026-05-03T13:55:42Z</time></trkpt><trkpt lat="45.994630761245126" lon="12.006701609563223"><ele>1061.2</ele><time>2026-05-03T13:55:44Z</time></trkpt><trkpt lat="45.9946395171013" lon="12.006801838879461"><ele>1059.8000000000002</ele><time>2026-05-03T13:55:45Z</time></trkpt><trkpt lat="45.99465806140891" lon="12.006951356112149"><ele>1058.4</ele><time>2026-05-03T13:55:47Z</time></trkpt><trkpt lat="45.994691366740305" lon="12.007092907167385"><ele>1057.0</ele><time>2026-05-03T13:55:49Z</time></trkpt><trkpt lat="45.99472645313127" lon="12.007196945785143"><ele>1057.0</ele><time>2026-05-03T13:55:52Z</time></trkpt><trkpt lat="45.994701568277115" lon="12.007301123839962"><ele>1057.0</ele><time>2026-05-03T13:55:56Z</time></trkpt><trkpt lat="45.994630732877695" lon="12.007285993583398"><ele>1057.0</ele><time>2026-05-03T13:55:58Z</time></trkpt><trkpt lat="45.99459750806513" lon="12.00714813852801"><ele>1057.0</ele><time>2026-05-03T13:56:00Z</time></trkpt><trkpt lat="45.9945331447595" lon="12.007013217647584"><ele>1057.0</ele><time>2026-05-03T13:56:02Z</time></trkpt><trkpt lat="45.99446560331977" lon="12.006882889510173"><ele>1057.0</ele><time>2026-05-03T13:56:03.999Z</time></trkpt><trkpt lat="45.994393858797146" lon="12.006748871306677"><ele>1057.0</ele><time>2026-05-03T13:56:05.999Z</time></trkpt><trkpt lat="45.994319127716174" lon="12.00661294478392"><ele>1057.0</ele><time>2026-05-03T13:56:07.999Z</time></trkpt><trkpt lat="45.994263917902686" lon="12.006507584262788"><ele>1057.0</ele><time>2026-05-03T13:56:09.999Z</time></trkpt><trkpt lat="45.99419693924216" lon="12.006383883909262"><ele>1057.0</ele><time>2026-05-03T13:56:11.999Z</time></trkpt><trkpt lat="45.994167534644916" lon="12.00629180167627"><ele>1060.6666666666665</ele><time>2026-05-03T13:56:12.999Z</time></trkpt><trkpt lat="45.9941227367556" lon="12.006197945134538"><ele>1064.3333333333333</ele><time>2026-05-03T13:56:13.999Z</time></trkpt><trkpt lat="45.994081399568515" lon="12.006109379235703"><ele>1068.0</ele><time>2026-05-03T13:56:14.999Z</time></trkpt><trkpt lat="45.994008161671005" lon="12.005965948207555"><ele>1071.6666666666667</ele><time>2026-05-03T13:56:18.999Z</time></trkpt><trkpt lat="45.99398604009599" lon="12.005868770563142"><ele>1075.3333333333335</ele><time>2026-05-03T13:56:20.999Z</time></trkpt><trkpt lat="45.9939881595132" lon="12.005743520291976"><ele>1079.0</ele><time>2026-05-03T13:56:22.999Z</time></trkpt><trkpt lat="45.99401878583706" lon="12.005640494801506"><ele>1079.0</ele><time>2026-05-03T13:56:24.999Z</time></trkpt><trkpt lat="45.994018547422634" lon="12.00545986652544"><ele>1079.0</ele><time>2026-05-03T13:56:26.999Z</time></trkpt><trkpt lat="45.99399134410643" lon="12.005366360326187"><ele>1079.0</ele><time>2026-05-03T13:56:27.999Z</time></trkpt><trkpt lat="45.9939619180055" lon="12.005265215596147"><ele>1079.0</ele><time>2026-05-03T13:56:28.999Z</time></trkpt><trkpt lat="45.993920162214394" lon="12.005184815887427"><ele>1079.0</ele><time>2026-05-03T13:56:30.999Z</time></trkpt><trkpt lat="45.99386331407018" lon="12.005113409267976"><ele>1079.0</ele><time>2026-05-03T13:56:32.999Z</time></trkpt><trkpt lat="45.993775088260776" lon="12.0050692726122"><ele>1079.0</ele><time>2026-05-03T13:56:34.999Z</time></trkpt><trkpt lat="45.993673673718604" lon="12.005047964703842"><ele>1079.0</ele><time>2026-05-03T13:56:37Z</time></trkpt><trkpt lat="45.99357421464159" lon="12.005025435348749"><ele>1079.0</ele><time>2026-05-03T13:56:39Z</time></trkpt><trkpt lat="45.99348813343771" lon="12.005013345217309"><ele>1079.0</ele><time>2026-05-03T13:56:41Z</time></trkpt><trkpt lat="45.9933990268614" lon="12.005020534784627"><ele>1079.0</ele><time>2026-05-03T13:56:43Z</time></trkpt><trkpt lat="45.993299218463235" lon="12.005072702628803"><ele>1084.0</ele><time>2026-05-03T13:56:45Z</time></trkpt><trkpt lat="45.9931980157275" lon="12.0051384005576"><ele>1089.0</ele><time>2026-05-03T13:56:47Z</time></trkpt><trkpt lat="45.9931286039668" lon="12.0051631030926"><ele>1094.0</ele><time>2026-05-03T13:56:48Z</time></trkpt><trkpt lat="45.993010293100674" lon="12.005168963410274"><ele>1099.0</ele><time>2026-05-03T13:56:50Z</time></trkpt><trkpt lat="45.99290103342954" lon="12.005128592234056"><ele>1104.0</ele><time>2026-05-03T13:56:52Z</time></trkpt><trkpt lat="45.99283904346115" lon="12.005103135454616"><ele>1104.0</ele><time>2026-05-03T13:56:53Z</time></trkpt><trkpt lat="45.99273417295602" lon="12.005032734193906"><ele>1104.0</ele><time>2026-05-03T13:56:55Z</time></trkpt><trkpt lat="45.99263875040868" lon="12.004992631446694"><ele>1104.0</ele><time>2026-05-03T13:56:57Z</time></trkpt><trkpt lat="45.992540117565824" lon="12.005019535680521"><ele>1104.0</ele><time>2026-05-03T13:56:59Z</time></trkpt><trkpt lat="45.992517730390766" lon="12.005123248908394"><ele>1104.0</ele><time>2026-05-03T13:57:00Z</time></trkpt><trkpt lat="45.992514802176174" lon="12.005228218238338"><ele>1104.0</ele><time>2026-05-03T13:57:04Z</time></trkpt><trkpt lat="45.99249469281646" lon="12.005318290434621"><ele>1104.0</ele><time>2026-05-03T13:57:05Z</time></trkpt><trkpt lat="45.99251824017949" lon="12.005470693019241"><ele>1104.0</ele><time>2026-05-03T13:57:06Z</time></trkpt><trkpt lat="45.992592368621224" lon="12.005551896168956"><ele>1104.0</ele><time>2026-05-03T13:57:08Z</time></trkpt><trkpt lat="45.99266610117348" lon="12.005584589879517"><ele>1104.0</ele><time>2026-05-03T13:57:09Z</time></trkpt><trkpt lat="45.99273941480582" lon="12.005644836933048"><ele>1104.0</ele><time>2026-05-03T13:57:10Z</time></trkpt><trkpt lat="45.992774686671495" lon="12.00572586290419"><ele>1106.1666666666667</ele><time>2026-05-03T13:57:11Z</time></trkpt><trkpt lat="45.99286322835389" lon="12.005859098605207"><ele>1108.3333333333333</ele><time>2026-05-03T13:57:13Z</time></trkpt><trkpt lat="45.99282622895387" lon="12.005942145111417"><ele>1110.5</ele><time>2026-05-03T13:57:25Z</time></trkpt><trkpt lat="45.99279942943099" lon="12.006026893821096"><ele>1112.6666666666665</ele><time>2026-05-03T13:57:28Z</time></trkpt><trkpt lat="45.99269793247485" lon="12.005995943744951"><ele>1114.8333333333333</ele><time>2026-05-03T13:57:31Z</time></trkpt><trkpt lat="45.99263399180896" lon="12.005972535502842"><ele>1117.0</ele><time>2026-05-03T13:57:33Z</time></trkpt><trkpt lat="45.99255279650109" lon="12.006068002782511"><ele>1117.0</ele><time>2026-05-03T13:57:37Z</time></trkpt><trkpt lat="45.99253022042041" lon="12.006179274940173"><ele>1117.0</ele><time>2026-05-03T13:57:39Z</time></trkpt><trkpt lat="45.992505745855006" lon="12.006263617361995"><ele>1117.0</ele><time>2026-05-03T13:57:40Z</time></trkpt><trkpt lat="45.99250269023079" lon="12.006423791228364"><ele>1117.0</ele><time>2026-05-03T13:57:42Z</time></trkpt><trkpt lat="45.992515630759726" lon="12.006529737076383"><ele>1117.0</ele><time>2026-05-03T13:57:44Z</time></trkpt><trkpt lat="45.99250990729139" lon="12.006640154612255"><ele>1117.0</ele><time>2026-05-03T13:57:46Z</time></trkpt><trkpt lat="45.99249805608845" lon="12.006785863586869"><ele>1122.2</ele><time>2026-05-03T13:57:48Z</time></trkpt><trkpt lat="45.99250346296344" lon="12.006930467259206"><ele>1127.4</ele><time>2026-05-03T13:57:50Z</time></trkpt><trkpt lat="45.99250201585635" lon="12.00706783657766"><ele>1132.6</ele><time>2026-05-03T13:57:52Z</time></trkpt><trkpt lat="45.99245847759343" lon="12.007140881370304"><ele>1137.8</ele><time>2026-05-03T13:57:54Z</time></trkpt><trkpt lat="45.992349594441066" lon="12.00716050191178"><ele>1143.0</ele><time>2026-05-03T13:57:56Z</time></trkpt><trkpt lat="45.99224415060104" lon="12.007164504750449"><ele>1143.0</ele><time>2026-05-03T13:57:58Z</time></trkpt><trkpt lat="45.9921691208815" lon="12.007253024734485"><ele>1143.0</ele><time>2026-05-03T13:58:00Z</time></trkpt><trkpt lat="45.99219463651605" lon="12.00736039752681"><ele>1143.0</ele><time>2026-05-03T13:58:02Z</time></trkpt><trkpt lat="45.9922563609199" lon="12.00749991076529"><ele>1143.0</ele><time>2026-05-03T13:58:04Z</time></trkpt><trkpt lat="45.99229188831835" lon="12.007588021022588"><ele>1143.0</ele><time>2026-05-03T13:58:05Z</time></trkpt><trkpt lat="45.992352584130046" lon="12.007773311950233"><ele>1141.8333333333333</ele><time>2026-05-03T13:58:07Z</time></trkpt><trkpt lat="45.99240035862958" lon="12.007854440513606"><ele>1140.6666666666667</ele><time>2026-05-03T13:58:08Z</time></trkpt><trkpt lat="45.992429828845644" lon="12.007980447764872"><ele>1139.5</ele><time>2026-05-03T13:58:09.999Z</time></trkpt><trkpt lat="45.99248189231838" lon="12.008031991161884"><ele>1138.3333333333335</ele><time>2026-05-03T13:58:10.999Z</time></trkpt><trkpt lat="45.992518522066135" lon="12.008153718287332"><ele>1137.1666666666667</ele><time>2026-05-03T13:58:12.999Z</time></trkpt><trkpt lat="45.99245603118555" lon="12.008179963485142"><ele>1136.0</ele><time>2026-05-03T13:58:18.999Z</time></trkpt><trkpt lat="45.992354314763695" lon="12.008106362647148"><ele>1140.6</ele><time>2026-05-03T13:58:21.999Z</time></trkpt><trkpt lat="45.99229316945025" lon="12.008061306949658"><ele>1145.1999999999998</ele><time>2026-05-03T13:58:22.999Z</time></trkpt><trkpt lat="45.992157389423156" lon="12.008011881505716"><ele>1149.8000000000002</ele><time>2026-05-03T13:58:24.999Z</time></trkpt><trkpt lat="45.99205702455715" lon="12.00803491734237"><ele>1154.4</ele><time>2026-05-03T13:58:26.999Z</time></trkpt><trkpt lat="45.991992058031784" lon="12.008120868134169"><ele>1159.0</ele><time>2026-05-03T13:58:28.999Z</time></trkpt><trkpt lat="45.99200345352909" lon="12.00825363015075"><ele>1163.0</ele><time>2026-05-03T13:58:29.999Z</time></trkpt><trkpt lat="45.99203469166738" lon="12.008391531232197"><ele>1167.0</ele><time>2026-05-03T13:58:32.999Z</time></trkpt><trkpt lat="45.99210746240244" lon="12.008612427624877"><ele>1171.0</ele><time>2026-05-03T13:58:35.999Z</time></trkpt><trkpt lat="45.992124653125174" lon="12.008763211671125"><ele>1175.0</ele><time>2026-05-03T13:58:37.999Z</time></trkpt><trkpt lat="45.992100885611556" lon="12.008932541903503"><ele>1175.0</ele><time>2026-05-03T13:58:38.999Z</time></trkpt><trkpt lat="45.99207283480208" lon="12.009048127818492"><ele>1175.0</ele><time>2026-05-03T13:58:39.999Z</time></trkpt><trkpt lat="45.992034676221024" lon="12.00920467657301"><ele>1175.0</ele><time>2026-05-03T13:58:40.999Z</time></trkpt><trkpt lat="45.9919964799581" lon="12.009361380309223"><ele>1175.0</ele><time>2026-05-03T13:58:41.999Z</time></trkpt><trkpt lat="45.991964182026294" lon="12.00948889149838"><ele>1175.0</ele><time>2026-05-03T13:58:43Z</time></trkpt><trkpt lat="45.99193140780682" lon="12.009613729072571"><ele>1176.857142857143</ele><time>2026-05-03T13:58:44Z</time></trkpt><trkpt lat="45.991905794380024" lon="12.009706920726034"><ele>1178.7142857142858</ele><time>2026-05-03T13:58:45Z</time></trkpt><trkpt lat="45.9918781966473" lon="12.009790841892682"><ele>1180.5714285714287</ele><time>2026-05-03T13:58:46Z</time></trkpt><trkpt lat="45.99183870923366" lon="12.009889557418054"><ele>1182.4285714285716</ele><time>2026-05-03T13:58:47Z</time></trkpt><trkpt lat="45.99182029727029" lon="12.009986428032397"><ele>1184.2857142857144</ele><time>2026-05-03T13:58:48Z</time></trkpt><trkpt lat="45.991784142164946" lon="12.01009535650062"><ele>1186.142857142857</ele><time>2026-05-03T13:58:49Z</time></trkpt><trkpt lat="45.99175691064924" lon="12.010187256534422"><ele>1188.0</ele><time>2026-05-03T13:58:50Z</time></trkpt><trkpt lat="45.99173548373367" lon="12.010289913552779"><ele>1188.1666666666667</ele><time>2026-05-03T13:58:51Z</time></trkpt><trkpt lat="45.991698064954974" lon="12.010407237346184"><ele>1188.3333333333333</ele><time>2026-05-03T13:58:52Z</time></trkpt><trkpt lat="45.991676391490934" lon="12.010519702815714"><ele>1188.5</ele><time>2026-05-03T13:58:53Z</time></trkpt><trkpt lat="45.99166379070413" lon="12.010636994449795"><ele>1188.6666666666665</ele><time>2026-05-03T13:58:54Z</time></trkpt><trkpt lat="45.9916609900685" lon="12.010734782587816"><ele>1188.8333333333333</ele><time>2026-05-03T13:58:55Z</time></trkpt><trkpt lat="45.991673305605005" lon="12.01083809389859"><ele>1189.0</ele><time>2026-05-03T13:58:56Z</time></trkpt><trkpt lat="45.99169576049285" lon="12.010958791338341"><ele>1189.5714285714284</ele><time>2026-05-03T13:58:57Z</time></trkpt><trkpt lat="45.991721149879034" lon="12.011066192009737"><ele>1190.142857142857</ele><time>2026-05-03T13:58:58Z</time></trkpt><trkpt lat="45.99174744533897" lon="12.01117562190528"><ele>1190.7142857142858</ele><time>2026-05-03T13:58:59Z</time></trkpt><trkpt lat="45.99176072264768" lon="12.011275218100586"><ele>1191.2857142857142</ele><time>2026-05-03T13:59:00Z</time></trkpt><trkpt lat="45.99178755364408" lon="12.01137552428341"><ele>1191.857142857143</ele><time>2026-05-03T13:59:01Z</time></trkpt><trkpt lat="45.99180271319171" lon="12.011480578493806"><ele>1192.4285714285713</ele><time>2026-05-03T13:59:02Z</time></trkpt><trkpt lat="45.99179330050122" lon="12.011581023177744"><ele>1193.0</ele><time>2026-05-03T13:59:03Z</time></trkpt><trkpt lat="45.99181333764025" lon="12.011678685806167"><ele>1195.3333333333335</ele><time>2026-05-03T13:59:04Z</time></trkpt><trkpt lat="45.99183736619342" lon="12.011849268640601"><ele>1197.6666666666667</ele><time>2026-05-03T13:59:06Z</time></trkpt><trkpt lat="45.99186050981101" lon="12.011949957981443"><ele>1200.0</ele><time>2026-05-03T13:59:07Z</time></trkpt><trkpt lat="45.991881244870726" lon="12.01204049800368"><ele>1202.3333333333333</ele><time>2026-05-03T13:59:08Z</time></trkpt><trkpt lat="45.991908977870715" lon="12.012132545719693"><ele>1204.6666666666665</ele><time>2026-05-03T13:59:09Z</time></trkpt><trkpt lat="45.991931620589455" lon="12.012289518008409"><ele>1207.0</ele><time>2026-05-03T13:59:11Z</time></trkpt><trkpt lat="45.99193151330806" lon="12.0124592764608"><ele>1207.4285714285713</ele><time>2026-05-03T13:59:13Z</time></trkpt><trkpt lat="45.99188483129443" lon="12.012526451682033"><ele>1207.857142857143</ele><time>2026-05-03T13:59:14Z</time></trkpt><trkpt lat="45.99184077718954" lon="12.01263675026982"><ele>1208.2857142857142</ele><time>2026-05-03T13:59:16Z</time></trkpt><trkpt lat="45.991812991728835" lon="12.012724544044234"><ele>1208.7142857142858</ele><time>2026-05-03T13:59:18Z</time></trkpt><trkpt lat="45.99175270623456" lon="12.012761291699457"><ele>1209.142857142857</ele><time>2026-05-03T13:59:25Z</time></trkpt><trkpt lat="45.991717597940855" lon="12.012849758733442"><ele>1209.5714285714284</ele><time>2026-05-03T14:02:55Z</time></trkpt><trkpt lat="45.99166209046251" lon="12.012907834233118"><ele>1210.0</ele><time>2026-05-03T14:02:57Z</time></trkpt><trkpt lat="45.99159550524605" lon="12.012977854283813"><ele>1212.6666666666665</ele><time>2026-05-03T14:02:59Z</time></trkpt><trkpt lat="45.99151657586626" lon="12.013037255354032"><ele>1215.3333333333333</ele><time>2026-05-03T14:03:01Z</time></trkpt><trkpt lat="45.991446499513046" lon="12.01310254625396"><ele>1218.0</ele><time>2026-05-03T14:03:03Z</time></trkpt><trkpt lat="45.99137607954061" lon="12.013167434212239"><ele>1220.6666666666667</ele><time>2026-05-03T14:03:05Z</time></trkpt><trkpt lat="45.99129346650492" lon="12.013221945320979"><ele>1223.3333333333335</ele><time>2026-05-03T14:03:07Z</time></trkpt><trkpt lat="45.99120367851846" lon="12.01328861716466"><ele>1226.0</ele><time>2026-05-03T14:03:09Z</time></trkpt><trkpt lat="45.99109600350509" lon="12.013305005519769"><ele>1224.1666666666667</ele><time>2026-05-03T14:03:11Z</time></trkpt><trkpt lat="45.991019862655286" lon="12.013337906736085"><ele>1222.3333333333335</ele><time>2026-05-03T14:03:13Z</time></trkpt><trkpt lat="45.99091930203959" lon="12.013350616799556"><ele>1220.5</ele><time>2026-05-03T14:03:15Z</time></trkpt><trkpt lat="45.99083315399893" lon="12.013344243738349"><ele>1218.6666666666667</ele><time>2026-05-03T14:03:17Z</time></trkpt><trkpt lat="45.99076110005374" lon="12.01335169747094"><ele>1216.8333333333333</ele><time>2026-05-03T14:03:19Z</time></trkpt><trkpt lat="45.99066832056392" lon="12.013410511776518"><ele>1215.0</ele><time>2026-05-03T14:03:21Z</time></trkpt><trkpt lat="45.99057826562628" lon="12.013422031568618"><ele>1215.0</ele><time>2026-05-03T14:03:23Z</time></trkpt><trkpt lat="45.99043080169851" lon="12.013401747587094"><ele>1215.0</ele><time>2026-05-03T14:03:25Z</time></trkpt><trkpt lat="45.99034513595996" lon="12.013394241284109"><ele>1215.0</ele><time>2026-05-03T14:03:26Z</time></trkpt><trkpt lat="45.99027190918648" lon="12.013397692442567"><ele>1215.0</ele><time>2026-05-03T14:03:27Z</time></trkpt><trkpt lat="45.990170274898155" lon="12.013409157979652"><ele>1215.0</ele><time>2026-05-03T14:03:28Z</time></trkpt><trkpt lat="45.99008492195573" lon="12.013422933377981"><ele>1215.0</ele><time>2026-05-03T14:03:29Z</time></trkpt><trkpt lat="45.99001124181481" lon="12.013436847214317"><ele>1215.0</ele><time>2026-05-03T14:03:30Z</time></trkpt><trkpt lat="45.989921333703684" lon="12.013446752634307"><ele>1215.0</ele><time>2026-05-03T14:03:31Z</time></trkpt><trkpt lat="45.98983687426721" lon="12.01344742501696"><ele>1215.0</ele><time>2026-05-03T14:03:32Z</time></trkpt><trkpt lat="45.989759060868785" lon="12.013437369018867"><ele>1215.0</ele><time>2026-05-03T14:03:33Z</time></trkpt><trkpt lat="45.98969410231651" lon="12.013423481769214"><ele>1215.0</ele><time>2026-05-03T14:03:34Z</time></trkpt><trkpt lat="45.98956426403232" lon="12.013395316152394"><ele>1214.6666666666667</ele><time>2026-05-03T14:03:36Z</time></trkpt><trkpt lat="45.989489200500564" lon="12.01338169278315"><ele>1214.3333333333333</ele><time>2026-05-03T14:03:37Z</time></trkpt><trkpt lat="45.98940563432821" lon="12.013368642994514"><ele>1214.0</ele><time>2026-05-03T14:03:38Z</time></trkpt><trkpt lat="45.98933129635753" lon="12.013357850977242"><ele>1213.6666666666665</ele><time>2026-05-03T14:03:39Z</time></trkpt><trkpt lat="45.989265428182414" lon="12.013347780556211"><ele>1213.3333333333333</ele><time>2026-05-03T14:03:40Z</time></trkpt><trkpt lat="45.989188722896564" lon="12.013335758502775"><ele>1213.0</ele><time>2026-05-03T14:03:41Z</time></trkpt><trkpt lat="45.9891167011728" lon="12.013322797978095"><ele>1209.5714285714287</ele><time>2026-05-03T14:03:42Z</time></trkpt><trkpt lat="45.98905094112601" lon="12.013310966405136"><ele>1206.142857142857</ele><time>2026-05-03T14:03:43Z</time></trkpt><trkpt lat="45.98898374689972" lon="12.013298874616206"><ele>1202.7142857142858</ele><time>2026-05-03T14:03:44Z</time></trkpt><trkpt lat="45.9889082355235" lon="12.013288509202543"><ele>1199.2857142857142</ele><time>2026-05-03T14:03:45Z</time></trkpt><trkpt lat="45.98882589024949" lon="12.013280778835602"><ele>1195.857142857143</ele><time>2026-05-03T14:03:46Z</time></trkpt><trkpt lat="45.98874848393739" lon="12.013271119376222"><ele>1192.4285714285713</ele><time>2026-05-03T14:03:47Z</time></trkpt><trkpt lat="45.98867621163512" lon="12.01324992654214"><ele>1189.0</ele><time>2026-05-03T14:03:48Z</time></trkpt><trkpt lat="45.98859288692218" lon="12.01323177094146"><ele>1189.0</ele><time>2026-05-03T14:03:49Z</time></trkpt><trkpt lat="45.988512835893836" lon="12.013176599161012"><ele>1189.0</ele><time>2026-05-03T14:03:50Z</time></trkpt><trkpt lat="45.98844545245313" lon="12.013098505351621"><ele>1189.0</ele><time>2026-05-03T14:03:51Z</time></trkpt><trkpt lat="45.98837320228124" lon="12.013052576135482"><ele>1189.0</ele><time>2026-05-03T14:03:52Z</time></trkpt><trkpt lat="45.988289195600444" lon="12.013013228958973"><ele>1189.0</ele><time>2026-05-03T14:03:53Z</time></trkpt><trkpt lat="45.98820551928677" lon="12.013022505333634"><ele>1189.0</ele><time>2026-05-03T14:03:54Z</time></trkpt><trkpt lat="45.988141660277684" lon="12.013018532854115"><ele>1189.6666666666665</ele><time>2026-05-03T14:03:55Z</time></trkpt><trkpt lat="45.98806732910138" lon="12.013013396757348"><ele>1190.3333333333333</ele><time>2026-05-03T14:03:56Z</time></trkpt><trkpt lat="45.98799168847485" lon="12.01300749335801"><ele>1191.0</ele><time>2026-05-03T14:03:57Z</time></trkpt><trkpt lat="45.98791502912038" lon="12.012973536187824"><ele>1191.6666666666667</ele><time>2026-05-03T14:03:58Z</time></trkpt><trkpt lat="45.9878326790521" lon="12.012955914694563"><ele>1192.3333333333335</ele><time>2026-05-03T14:03:59Z</time></trkpt><trkpt lat="45.9877548893027" lon="12.0129351118541"><ele>1193.0</ele><time>2026-05-03T14:04:00Z</time></trkpt><trkpt lat="45.98766863650937" lon="12.012908636680773"><ele>1193.0</ele><time>2026-05-03T14:04:01Z</time></trkpt><trkpt lat="45.98758318392674" lon="12.012875493006396"><ele>1193.0</ele><time>2026-05-03T14:04:02Z</time></trkpt><trkpt lat="45.9874998023261" lon="12.012843550317921"><ele>1193.0</ele><time>2026-05-03T14:04:03Z</time></trkpt><trkpt lat="45.98739387035019" lon="12.012805853162632"><ele>1193.0</ele><time>2026-05-03T14:04:04Z</time></trkpt><trkpt lat="45.98727764011368" lon="12.012764087766199"><ele>1193.0</ele><time>2026-05-03T14:04:05Z</time></trkpt><trkpt lat="45.98717875476834" lon="12.012748858914005"><ele>1194.0</ele><time>2026-05-03T14:04:06Z</time></trkpt><trkpt lat="45.98708815726813" lon="12.0126888292712"><ele>1195.0</ele><time>2026-05-03T14:04:07Z</time></trkpt><trkpt lat="45.9869956122147" lon="12.01264370768408"><ele>1196.0</ele><time>2026-05-03T14:04:08Z</time></trkpt><trkpt lat="45.986910988107525" lon="12.01259049986846"><ele>1197.0</ele><time>2026-05-03T14:04:09Z</time></trkpt><trkpt lat="45.98683091657476" lon="12.012517899699123"><ele>1198.0</ele><time>2026-05-03T14:04:10Z</time></trkpt><trkpt lat="45.98675529492452" lon="12.012440650717224"><ele>1196.6</ele><time>2026-05-03T14:04:11Z</time></trkpt><trkpt lat="45.98667776647673" lon="12.01235998253965"><ele>1195.1999999999998</ele><time>2026-05-03T14:04:12Z</time></trkpt><trkpt lat="45.98660409355977" lon="12.01228226187298"><ele>1193.8</ele><time>2026-05-03T14:04:13Z</time></trkpt><trkpt lat="45.98649660776233" lon="12.012261561845637"><ele>1192.3999999999999</ele><time>2026-05-03T14:04:14Z</time></trkpt><trkpt lat="45.98640505859117" lon="12.012196176615493"><ele>1191.0</ele><time>2026-05-03T14:04:15Z</time></trkpt><trkpt lat="45.98632728474169" lon="12.01213194469313"><ele>1191.0</ele><time>2026-05-03T14:04:16Z</time></trkpt><trkpt lat="45.98625703403573" lon="12.012064871402066"><ele>1191.0</ele><time>2026-05-03T14:04:17Z</time></trkpt><trkpt lat="45.98622891367974" lon="12.01194998214001"><ele>1191.0</ele><time>2026-05-03T14:04:18Z</time></trkpt><trkpt lat="45.98616543956273" lon="12.011870796051538"><ele>1191.0</ele><time>2026-05-03T14:04:19Z</time></trkpt><trkpt lat="45.98610496849671" lon="12.011802035159683"><ele>1191.0</ele><time>2026-05-03T14:04:20Z</time></trkpt><trkpt lat="45.98604065394561" lon="12.011776143692154"><ele>1191.0</ele><time>2026-05-03T14:04:21Z</time></trkpt><trkpt lat="45.9859851273765" lon="12.01171046144476"><ele>1190.3333333333333</ele><time>2026-05-03T14:04:22Z</time></trkpt><trkpt lat="45.98591870488642" lon="12.011638925588953"><ele>1189.6666666666667</ele><time>2026-05-03T14:04:23Z</time></trkpt><trkpt lat="45.98587314277176" lon="12.011573515749491"><ele>1189.0</ele><time>2026-05-03T14:04:24Z</time></trkpt><trkpt lat="45.98582642234263" lon="12.011488937808393"><ele>1188.3333333333335</ele><time>2026-05-03T14:04:25Z</time></trkpt><trkpt lat="45.98577036000564" lon="12.011421557405333"><ele>1187.6666666666667</ele><time>2026-05-03T14:04:26Z</time></trkpt><trkpt lat="45.98569706731977" lon="12.011376946397872"><ele>1187.0</ele><time>2026-05-03T14:04:27Z</time></trkpt><trkpt lat="45.985622548532994" lon="12.011346365818692"><ele>1187.0</ele><time>2026-05-03T14:04:28Z</time></trkpt><trkpt lat="45.98555945037164" lon="12.011318987598994"><ele>1187.0</ele><time>2026-05-03T14:04:29Z</time></trkpt><trkpt lat="45.985494063312515" lon="12.011283076437815"><ele>1187.0</ele><time>2026-05-03T14:04:30Z</time></trkpt><trkpt lat="45.98542656833289" lon="12.011218637314313"><ele>1187.0</ele><time>2026-05-03T14:04:31Z</time></trkpt><trkpt lat="45.98533778672766" lon="12.01113432192407"><ele>1187.0</ele><time>2026-05-03T14:04:33Z</time></trkpt><trkpt lat="45.98525765124119" lon="12.011075968923151"><ele>1187.0</ele><time>2026-05-03T14:04:35Z</time></trkpt><trkpt lat="45.985180866642054" lon="12.0110324038447"><ele>1187.0</ele><time>2026-05-03T14:04:37Z</time></trkpt><trkpt lat="45.98506950751958" lon="12.0110503046204"><ele>1187.0</ele><time>2026-05-03T14:04:39Z</time></trkpt><trkpt lat="45.98499832147002" lon="12.011037633013629"><ele>1187.0</ele><time>2026-05-03T14:04:40Z</time></trkpt><trkpt lat="45.984884676202235" lon="12.010954365988882"><ele>1187.0</ele><time>2026-05-03T14:04:42Z</time></trkpt><trkpt lat="45.98481499667418" lon="12.010926860136044"><ele>1187.0</ele><time>2026-05-03T14:04:43Z</time></trkpt><trkpt lat="45.98474745426124" lon="12.010865156368173"><ele>1185.8333333333335</ele><time>2026-05-03T14:04:44Z</time></trkpt><trkpt lat="45.984673397406276" lon="12.01079670860647"><ele>1184.6666666666667</ele><time>2026-05-03T14:04:44.999Z</time></trkpt><trkpt lat="45.98460118369831" lon="12.010737605047288"><ele>1183.5</ele><time>2026-05-03T14:04:45.999Z</time></trkpt><trkpt lat="45.98452727480883" lon="12.010634559109546"><ele>1182.3333333333333</ele><time>2026-05-03T14:04:46.999Z</time></trkpt><trkpt lat="45.9844554615495" lon="12.010586419489195"><ele>1181.1666666666665</ele><time>2026-05-03T14:04:47.999Z</time></trkpt><trkpt lat="45.984386648394135" lon="12.010516877901216"><ele>1180.0</ele><time>2026-05-03T14:04:49.999Z</time></trkpt><trkpt lat="45.98428814660012" lon="12.0104624217566"><ele>1183.8</ele><time>2026-05-03T14:04:51.999Z</time></trkpt><trkpt lat="45.98417577127166" lon="12.0104638969278"><ele>1187.6</ele><time>2026-05-03T14:04:53.999Z</time></trkpt><trkpt lat="45.98406473792031" lon="12.010452158052685"><ele>1191.4</ele><time>2026-05-03T14:04:55.999Z</time></trkpt><trkpt lat="45.98395585600922" lon="12.010450504993683"><ele>1195.2</ele><time>2026-05-03T14:04:57.999Z</time></trkpt><trkpt lat="45.983928757067815" lon="12.010367854445565"><ele>1199.0</ele><time>2026-05-03T14:04:58.999Z</time></trkpt><trkpt lat="45.98385680847704" lon="12.010324131509527"><ele>1199.0</ele><time>2026-05-03T14:05:01Z</time></trkpt><trkpt lat="45.983784462028964" lon="12.010308468016104"><ele>1199.0</ele><time>2026-05-03T14:05:03Z</time></trkpt><trkpt lat="45.983690974209004" lon="12.010333271081201"><ele>1199.0</ele><time>2026-05-03T14:05:05Z</time></trkpt><trkpt lat="45.98361629201214" lon="12.010493262050284"><ele>1199.0</ele><time>2026-05-03T14:05:07Z</time></trkpt><trkpt lat="45.983580664755245" lon="12.010601455576559"><ele>1199.0</ele><time>2026-05-03T14:05:08Z</time></trkpt><trkpt lat="45.98354861556114" lon="12.010698475136634"><ele>1199.0</ele><time>2026-05-03T14:05:09Z</time></trkpt><trkpt lat="45.983516429483025" lon="12.010801586434004"><ele>1199.0</ele><time>2026-05-03T14:05:10Z</time></trkpt><trkpt lat="45.983444195642534" lon="12.010897890486179"><ele>1199.0</ele><time>2026-05-03T14:05:11Z</time></trkpt><trkpt lat="45.9834054239445" lon="12.011006440414782"><ele>1199.0</ele><time>2026-05-03T14:05:12Z</time></trkpt><trkpt lat="45.98336420277612" lon="12.011110997088888"><ele>1199.0</ele><time>2026-05-03T14:05:13Z</time></trkpt><trkpt lat="45.983326838797836" lon="12.011187989869091"><ele>1199.0</ele><time>2026-05-03T14:05:14Z</time></trkpt><trkpt lat="45.98327569329745" lon="12.011256677385518"><ele>1200.8</ele><time>2026-05-03T14:05:15Z</time></trkpt><trkpt lat="45.9831988485498" lon="12.011323755982916"><ele>1202.6000000000001</ele><time>2026-05-03T14:05:16Z</time></trkpt><trkpt lat="45.98311291174839" lon="12.011344069746402"><ele>1204.4</ele><time>2026-05-03T14:05:17Z</time></trkpt><trkpt lat="45.98301620108951" lon="12.01137715613102"><ele>1206.2</ele><time>2026-05-03T14:05:18Z</time></trkpt><trkpt lat="45.98287522637165" lon="12.011444522083957"><ele>1208.0</ele><time>2026-05-03T14:05:20Z</time></trkpt><trkpt lat="45.98279726754817" lon="12.011493178722295"><ele>1208.0</ele><time>2026-05-03T14:05:21Z</time></trkpt><trkpt lat="45.98269527899825" lon="12.011578256379334"><ele>1208.0</ele><time>2026-05-03T14:05:23Z</time></trkpt><trkpt lat="45.9826463409121" lon="12.011646349827085"><ele>1208.0</ele><time>2026-05-03T14:05:24Z</time></trkpt><trkpt lat="45.982608545286745" lon="12.011734702592742"><ele>1208.0</ele><time>2026-05-03T14:05:25Z</time></trkpt><trkpt lat="45.982600457225146" lon="12.01183744110365"><ele>1208.0</ele><time>2026-05-03T14:05:26Z</time></trkpt><trkpt lat="45.98256288458275" lon="12.011935930407192"><ele>1208.0</ele><time>2026-05-03T14:05:27Z</time></trkpt><trkpt lat="45.98253037017177" lon="12.012044376763939"><ele>1206.4</ele><time>2026-05-03T14:05:28Z</time></trkpt><trkpt lat="45.98247068981376" lon="12.012210839136603"><ele>1204.8</ele><time>2026-05-03T14:05:30Z</time></trkpt><trkpt lat="45.98243517098509" lon="12.012294919766143"><ele>1203.2</ele><time>2026-05-03T14:05:31Z</time></trkpt><trkpt lat="45.982364717742286" lon="12.01243085194299"><ele>1201.6</ele><time>2026-05-03T14:05:33Z</time></trkpt><trkpt lat="45.98228114317183" lon="12.012546526310194"><ele>1200.0</ele><time>2026-05-03T14:05:35Z</time></trkpt><trkpt lat="45.98221791944664" lon="12.012598384430389"><ele>1203.1666666666667</ele><time>2026-05-03T14:05:36Z</time></trkpt><trkpt lat="45.982145622513904" lon="12.012633005923057"><ele>1206.3333333333333</ele><time>2026-05-03T14:05:37Z</time></trkpt><trkpt lat="45.98203199495448" lon="12.01270651920285"><ele>1209.5</ele><time>2026-05-03T14:05:39Z</time></trkpt><trkpt lat="45.98196346623591" lon="12.012766254460281"><ele>1212.6666666666665</ele><time>2026-05-03T14:05:40Z</time></trkpt><trkpt lat="45.98189862853144" lon="12.012835137655353"><ele>1215.8333333333333</ele><time>2026-05-03T14:05:41Z</time></trkpt><trkpt lat="45.98184109287439" lon="12.012898949940356"><ele>1219.0</ele><time>2026-05-03T14:05:42Z</time></trkpt><trkpt lat="45.98174706657313" lon="12.012995801964669"><ele>1217.1666666666665</ele><time>2026-05-03T14:05:44Z</time></trkpt><trkpt lat="45.98166823569977" lon="12.013074280295617"><ele>1215.3333333333333</ele><time>2026-05-03T14:05:45Z</time></trkpt><trkpt lat="45.98160476080455" lon="12.013132571755563"><ele>1213.5</ele><time>2026-05-03T14:05:46Z</time></trkpt><trkpt lat="45.981498045221265" lon="12.013218179687877"><ele>1211.6666666666667</ele><time>2026-05-03T14:05:48Z</time></trkpt><trkpt lat="45.98143685808636" lon="12.013260187526287"><ele>1209.8333333333335</ele><time>2026-05-03T14:05:49Z</time></trkpt><trkpt lat="45.981372297237634" lon="12.013324230164597"><ele>1208.0</ele><time>2026-05-03T14:05:50Z</time></trkpt><trkpt lat="45.98131344666731" lon="12.013365893704291"><ele>1208.0</ele><time>2026-05-03T14:05:51Z</time></trkpt><trkpt lat="45.981251705057836" lon="12.013406825238276"><ele>1208.0</ele><time>2026-05-03T14:05:52Z</time></trkpt><trkpt lat="45.981185774171465" lon="12.013446140118473"><ele>1208.0</ele><time>2026-05-03T14:05:53Z</time></trkpt><trkpt lat="45.98103666273579" lon="12.013410221962936"><ele>1208.0</ele><time>2026-05-03T14:05:55Z</time></trkpt><trkpt lat="45.9809688087788" lon="12.013378936654176"><ele>1208.0</ele><time>2026-05-03T14:05:56Z</time></trkpt><trkpt lat="45.98090749389099" lon="12.013335438154387"><ele>1208.0</ele><time>2026-05-03T14:05:57Z</time></trkpt><trkpt lat="45.98084478324222" lon="12.013320881700434"><ele>1207.8333333333335</ele><time>2026-05-03T14:05:58Z</time></trkpt><trkpt lat="45.98078189279758" lon="12.013337611833698"><ele>1207.6666666666667</ele><time>2026-05-03T14:05:59Z</time></trkpt><trkpt lat="45.98066241713265" lon="12.013318394376178"><ele>1207.5</ele><time>2026-05-03T14:06:01Z</time></trkpt><trkpt lat="45.980592979874125" lon="12.013322621932897"><ele>1207.3333333333333</ele><time>2026-05-03T14:06:02Z</time></trkpt><trkpt lat="45.980518665827844" lon="12.01332932630746"><ele>1207.1666666666665</ele><time>2026-05-03T14:06:03Z</time></trkpt><trkpt lat="45.98040406591389" lon="12.013347800083835"><ele>1207.0</ele><time>2026-05-03T14:06:05Z</time></trkpt><trkpt lat="45.98032061329972" lon="12.013370851634173"><ele>1207.0</ele><time>2026-05-03T14:06:07Z</time></trkpt><trkpt lat="45.980221227396434" lon="12.013447272794675"><ele>1207.0</ele><time>2026-05-03T14:06:09Z</time></trkpt><trkpt lat="45.98017794138557" lon="12.013517578050944"><ele>1207.0</ele><time>2026-05-03T14:06:10Z</time></trkpt><trkpt lat="45.98009283013216" lon="12.013617193208413"><ele>1207.0</ele><time>2026-05-03T14:06:12Z</time></trkpt><trkpt lat="45.98001645672147" lon="12.013695024811454"><ele>1207.0</ele><time>2026-05-03T14:06:14Z</time></trkpt><trkpt lat="45.97998782395355" lon="12.013818099325608"><ele>1206.0</ele><time>2026-05-03T14:06:16Z</time></trkpt><trkpt lat="45.97997999213306" lon="12.013977543886451"><ele>1205.0</ele><time>2026-05-03T14:06:18Z</time></trkpt><trkpt lat="45.97994390930027" lon="12.014147887069049"><ele>1204.0</ele><time>2026-05-03T14:06:20Z</time></trkpt><trkpt lat="45.97994021947049" lon="12.014245327710292"><ele>1203.0</ele><time>2026-05-03T14:06:21Z</time></trkpt><trkpt lat="45.97991487591327" lon="12.014355434980898"><ele>1202.0</ele><time>2026-05-03T14:06:22Z</time></trkpt><trkpt lat="45.97989234387799" lon="12.014472660363015"><ele>1204.6666666666667</ele><time>2026-05-03T14:06:23Z</time></trkpt><trkpt lat="45.979852217653004" lon="12.014585944744637"><ele>1207.3333333333335</ele><time>2026-05-03T14:06:24Z</time></trkpt><trkpt lat="45.97981718463647" lon="12.014706751475972"><ele>1210.0</ele><time>2026-05-03T14:06:25Z</time></trkpt><trkpt lat="45.97975123883271" lon="12.014874318843841"><ele>1212.6666666666667</ele><time>2026-05-03T14:06:27Z</time></trkpt><trkpt lat="45.97970771646361" lon="12.014942748935747"><ele>1215.3333333333333</ele><time>2026-05-03T14:06:28Z</time></trkpt><trkpt lat="45.979649361496456" lon="12.014984105033864"><ele>1218.0</ele><time>2026-05-03T14:06:29Z</time></trkpt><trkpt lat="45.97958888213424" lon="12.015022728758138"><ele>1218.1666666666667</ele><time>2026-05-03T14:06:30Z</time></trkpt><trkpt lat="45.97951600999471" lon="12.015065833689722"><ele>1218.3333333333333</ele><time>2026-05-03T14:06:31Z</time></trkpt><trkpt lat="45.9794499454099" lon="12.015111631711887"><ele>1218.5</ele><time>2026-05-03T14:06:32Z</time></trkpt><trkpt lat="45.9793842594888" lon="12.01515792871428"><ele>1218.6666666666665</ele><time>2026-05-03T14:06:32.999Z</time></trkpt><trkpt lat="45.979309552662926" lon="12.015240180007341"><ele>1218.8333333333333</ele><time>2026-05-03T14:06:33.999Z</time></trkpt><trkpt lat="45.97921618561552" lon="12.01529918470004"><ele>1219.0</ele><time>2026-05-03T14:06:34.999Z</time></trkpt><trkpt lat="45.979132793865254" lon="12.01533089728406"><ele>1221.4</ele><time>2026-05-03T14:06:35.999Z</time></trkpt><trkpt lat="45.979033988778205" lon="12.015379343856461"><ele>1223.8000000000002</ele><time>2026-05-03T14:06:36.999Z</time></trkpt><trkpt lat="45.9789528081398" lon="12.01539401952915"><ele>1226.1999999999998</ele><time>2026-05-03T14:06:37.999Z</time></trkpt><trkpt lat="45.9788887900258" lon="12.015409096310991"><ele>1228.6</ele><time>2026-05-03T14:06:38.999Z</time></trkpt><trkpt lat="45.97882155058204" lon="12.015416066560647"><ele>1231.0</ele><time>2026-05-03T14:06:39.999Z</time></trkpt><trkpt lat="45.97868894263624" lon="12.015446284406627"><ele>1231.0</ele><time>2026-05-03T14:06:41.999Z</time></trkpt><trkpt lat="45.97861900748286" lon="12.015458288045574"><ele>1231.0</ele><time>2026-05-03T14:06:42.999Z</time></trkpt><trkpt lat="45.97855236447691" lon="12.015482996523998"><ele>1231.0</ele><time>2026-05-03T14:06:43.999Z</time></trkpt><trkpt lat="45.97848785332947" lon="12.015526374122077"><ele>1231.0</ele><time>2026-05-03T14:06:44.999Z</time></trkpt><trkpt lat="45.9784199315618" lon="12.01558848583354"><ele>1231.0</ele><time>2026-05-03T14:06:45.999Z</time></trkpt><trkpt lat="45.97834629652688" lon="12.015632747847969"><ele>1231.0</ele><time>2026-05-03T14:06:46.999Z</time></trkpt><trkpt lat="45.97826882587638" lon="12.015658364514952"><ele>1230.6666666666665</ele><time>2026-05-03T14:06:47.999Z</time></trkpt><trkpt lat="45.978186747346534" lon="12.015650844977845"><ele>1230.3333333333333</ele><time>2026-05-03T14:06:48.999Z</time></trkpt><trkpt lat="45.97810595212102" lon="12.015692886820565"><ele>1230.0</ele><time>2026-05-03T14:06:49.999Z</time></trkpt><trkpt lat="45.97802900213291" lon="12.015731784942254"><ele>1229.6666666666667</ele><time>2026-05-03T14:06:50.999Z</time></trkpt><trkpt lat="45.977957279650205" lon="12.015762122173758"><ele>1229.3333333333335</ele><time>2026-05-03T14:06:51.999Z</time></trkpt><trkpt lat="45.97789235117611" lon="12.015783430497281"><ele>1229.0</ele><time>2026-05-03T14:06:52.999Z</time></trkpt><trkpt lat="45.9778205149821" lon="12.015799345669807"><ele>1229.0</ele><time>2026-05-03T14:06:53.999Z</time></trkpt><trkpt lat="45.97774637430565" lon="12.015823971722035"><ele>1229.0</ele><time>2026-05-03T14:06:54.999Z</time></trkpt><trkpt lat="45.97768164138432" lon="12.01579612691138"><ele>1229.0</ele><time>2026-05-03T14:06:55.999Z</time></trkpt><trkpt lat="45.97756954183257" lon="12.015819645712773"><ele>1229.0</ele><time>2026-05-03T14:06:57.999Z</time></trkpt><trkpt lat="45.97750512981182" lon="12.015873340111161"><ele>1229.0</ele><time>2026-05-03T14:06:58.999Z</time></trkpt><trkpt lat="45.97744748108129" lon="12.015929062892363"><ele>1229.0</ele><time>2026-05-03T14:06:59.999Z</time></trkpt><trkpt lat="45.97739221446316" lon="12.01598312515177"><ele>1233.0</ele><time>2026-05-03T14:07:00.999Z</time></trkpt><trkpt lat="45.97730524824929" lon="12.016061745191015"><ele>1237.0</ele><time>2026-05-03T14:07:02.999Z</time></trkpt><trkpt lat="45.97723259848951" lon="12.016137513174852"><ele>1241.0</ele><time>2026-05-03T14:07:05.999Z</time></trkpt><trkpt lat="45.9771766576372" lon="12.016032647929356"><ele>1245.0</ele><time>2026-05-03T14:07:09Z</time></trkpt><trkpt lat="45.9771836693543" lon="12.015869691627522"><ele>1249.0</ele><time>2026-05-03T14:07:11Z</time></trkpt><trkpt lat="45.97715292272115" lon="12.015789675172446"><ele>1251.75</ele><time>2026-05-03T14:07:12Z</time></trkpt><trkpt lat="45.97708717790586" lon="12.015653642051655"><ele>1254.5</ele><time>2026-05-03T14:07:14Z</time></trkpt><trkpt lat="45.97706948976276" lon="12.015478172087269"><ele>1257.25</ele><time>2026-05-03T14:07:16Z</time></trkpt><trkpt lat="45.97704115659026" lon="12.01530708181567"><ele>1260.0</ele><time>2026-05-03T14:07:18Z</time></trkpt><trkpt lat="45.976993805338175" lon="12.01515465040231"><ele>1260.0</ele><time>2026-05-03T14:07:20Z</time></trkpt><trkpt lat="45.97694088890909" lon="12.01501139445192"><ele>1260.0</ele><time>2026-05-03T14:07:22Z</time></trkpt><trkpt lat="45.97688636317138" lon="12.014878930296579"><ele>1260.0</ele><time>2026-05-03T14:07:24Z</time></trkpt><trkpt lat="45.97684033826324" lon="12.014814371429573"><ele>1260.0</ele><time>2026-05-03T14:07:25Z</time></trkpt><trkpt lat="45.97677678489599" lon="12.01467532248362"><ele>1260.0</ele><time>2026-05-03T14:07:27Z</time></trkpt><trkpt lat="45.97670709746757" lon="12.014550642174727"><ele>1258.8</ele><time>2026-05-03T14:07:29Z</time></trkpt><trkpt lat="45.97664078916871" lon="12.014427823537314"><ele>1257.6</ele><time>2026-05-03T14:07:31Z</time></trkpt><trkpt lat="45.97657675800959" lon="12.01429784076488"><ele>1256.4</ele><time>2026-05-03T14:07:33Z</time></trkpt><trkpt lat="45.97652251275772" lon="12.014189629909966"><ele>1255.2</ele><time>2026-05-03T14:07:35Z</time></trkpt><trkpt lat="45.97646642887725" lon="12.01410247610927"><ele>1254.0</ele><time>2026-05-03T14:07:37Z</time></trkpt><trkpt lat="45.97640333978837" lon="12.01414052904"><ele>1258.0</ele><time>2026-05-03T14:07:38Z</time></trkpt><trkpt lat="45.97638494396241" lon="12.014255671977976"><ele>1262.0</ele><time>2026-05-03T14:07:39Z</time></trkpt><trkpt lat="45.97642180981196" lon="12.014399997206693"><ele>1266.0</ele><time>2026-05-03T14:07:40Z</time></trkpt><trkpt lat="45.976426337517275" lon="12.014512185306177"><ele>1270.0</ele><time>2026-05-03T14:07:41Z</time></trkpt><trkpt lat="45.97640375302165" lon="12.014667454747178"><ele>1274.0</ele><time>2026-05-03T14:07:43Z</time></trkpt><trkpt lat="45.97637017792589" lon="12.01482081534056"><ele>1274.0</ele><time>2026-05-03T14:07:45Z</time></trkpt><trkpt lat="45.9763451310646" lon="12.01496416550455"><ele>1274.0</ele><time>2026-05-03T14:07:47Z</time></trkpt><trkpt lat="45.976275906663794" lon="12.015087290596833"><ele>1274.0</ele><time>2026-05-03T14:07:49Z</time></trkpt><trkpt lat="45.97620354597643" lon="12.0152291251553"><ele>1274.0</ele><time>2026-05-03T14:07:51Z</time></trkpt><trkpt lat="45.97611146673105" lon="12.01534632549232"><ele>1275.8000000000002</ele><time>2026-05-03T14:07:53Z</time></trkpt><trkpt lat="45.976054241769084" lon="12.01547992302453"><ele>1277.6000000000001</ele><time>2026-05-03T14:07:55Z</time></trkpt><trkpt lat="45.97598579202295" lon="12.015581968091231"><ele>1279.4</ele><time>2026-05-03T14:07:57Z</time></trkpt><trkpt lat="45.97591091604629" lon="12.015663271625161"><ele>1281.2</ele><time>2026-05-03T14:07:59Z</time></trkpt><trkpt lat="45.975839691196846" lon="12.015730485410144"><ele>1283.0</ele><time>2026-05-03T14:08:01Z</time></trkpt><trkpt lat="45.97576864433049" lon="12.015778908763597"><ele>1286.6666666666667</ele><time>2026-05-03T14:08:03Z</time></trkpt><trkpt lat="45.97570181164087" lon="12.01582419618899"><ele>1290.3333333333335</ele><time>2026-05-03T14:08:05Z</time></trkpt><trkpt lat="45.97562012901605" lon="12.015855801748803"><ele>1294.0</ele><time>2026-05-03T14:08:07Z</time></trkpt><trkpt lat="45.97552646926529" lon="12.01593371569742"><ele>1297.6666666666667</ele><time>2026-05-03T14:08:09Z</time></trkpt><trkpt lat="45.975461961101026" lon="12.015980862080335"><ele>1301.3333333333333</ele><time>2026-05-03T14:08:11Z</time></trkpt><trkpt lat="45.975396615271166" lon="12.016027017404905"><ele>1305.0</ele><time>2026-05-03T14:08:14Z</time></trkpt><trkpt lat="45.975336426641746" lon="12.016058809703612"><ele>1305.0</ele><time>2026-05-03T14:08:19Z</time></trkpt><trkpt lat="45.975394724392444" lon="12.016121162675264"><ele>1305.0</ele><time>2026-05-03T14:10:38Z</time></trkpt><trkpt lat="45.97531955355695" lon="12.016119712089575"><ele>1305.0</ele><time>2026-05-03T14:14:21Z</time></trkpt><trkpt lat="45.97537314274492" lon="12.016022105136276"><ele>1305.0</ele><time>2026-05-03T14:16:23Z</time></trkpt><trkpt lat="45.97543533879834" lon="12.01600328637298"><ele>1305.0</ele><time>2026-05-03T14:16:25Z</time></trkpt><trkpt lat="45.97550844302068" lon="12.015946832382784"><ele>1305.0</ele><time>2026-05-03T14:16:27Z</time></trkpt><trkpt lat="45.97558829210776" lon="12.015907367218198"><ele>1305.0</ele><time>2026-05-03T14:16:29Z</time></trkpt><trkpt lat="45.97565549089397" lon="12.015860231255518"><ele>1305.0</ele><time>2026-05-03T14:16:31Z</time></trkpt><trkpt lat="45.975736837348364" lon="12.01581273913164"><ele>1305.0</ele><time>2026-05-03T14:16:33Z</time></trkpt><trkpt lat="45.975794653160634" lon="12.015768338503651"><ele>1305.0</ele><time>2026-05-03T14:16:34Z</time></trkpt><trkpt lat="45.97589193587469" lon="12.0157140132492"><ele>1305.0</ele><time>2026-05-03T14:16:36Z</time></trkpt><trkpt lat="45.97596726728834" lon="12.015672657689217"><ele>1305.0</ele><time>2026-05-03T14:16:38Z</time></trkpt><trkpt lat="45.97601974732189" lon="12.015610748874424"><ele>1300.6</ele><time>2026-05-03T14:16:39Z</time></trkpt><trkpt lat="45.976053123092115" lon="12.015529578395489"><ele>1296.2</ele><time>2026-05-03T14:16:40Z</time></trkpt><trkpt lat="45.97610233114593" lon="12.01541418525456"><ele>1291.8000000000002</ele><time>2026-05-03T14:16:42Z</time></trkpt><trkpt lat="45.97616368689155" lon="12.015312282125095"><ele>1287.4</ele><time>2026-05-03T14:16:44Z</time></trkpt><trkpt lat="45.97626214249779" lon="12.015187944096946"><ele>1283.0</ele><time>2026-05-03T14:16:46Z</time></trkpt><trkpt lat="45.97629081799105" lon="12.015097164832667"><ele>1283.0</ele><time>2026-05-03T14:16:47Z</time></trkpt><trkpt lat="45.97633912391701" lon="12.015032621706414"><ele>1283.0</ele><time>2026-05-03T14:16:48Z</time></trkpt><trkpt lat="45.976370858664545" lon="12.014944702345476"><ele>1283.0</ele><time>2026-05-03T14:16:49Z</time></trkpt><trkpt lat="45.97641241917772" lon="12.014791195827556"><ele>1283.0</ele><time>2026-05-03T14:16:51Z</time></trkpt><trkpt lat="45.976441759478085" lon="12.014647744383204"><ele>1283.0</ele><time>2026-05-03T14:16:53Z</time></trkpt><trkpt lat="45.97644287649651" lon="12.014518618154018"><ele>1283.0</ele><time>2026-05-03T14:16:55Z</time></trkpt><trkpt lat="45.976454973744815" lon="12.01439590455772"><ele>1281.5</ele><time>2026-05-03T14:16:57Z</time></trkpt><trkpt lat="45.97644677959818" lon="12.014282697965397"><ele>1280.0</ele><time>2026-05-03T14:16:59Z</time></trkpt><trkpt lat="45.97644029759021" lon="12.014178291144956"><ele>1278.5</ele><time>2026-05-03T14:17:01Z</time></trkpt><trkpt lat="45.97651281775119" lon="12.014189417408666"><ele>1277.0</ele><time>2026-05-03T14:17:05Z</time></trkpt><trkpt lat="45.97657156157844" lon="12.014306281803618"><ele>1275.5</ele><time>2026-05-03T14:17:07Z</time></trkpt><trkpt lat="45.976643959768005" lon="12.014443300158817"><ele>1274.0</ele><time>2026-05-03T14:17:09Z</time></trkpt><trkpt lat="45.97671520778523" lon="12.014580332963254"><ele>1271.6666666666667</ele><time>2026-05-03T14:17:11Z</time></trkpt><trkpt lat="45.97675456754701" lon="12.014664694298316"><ele>1269.3333333333335</ele><time>2026-05-03T14:17:12Z</time></trkpt><trkpt lat="45.976795040678915" lon="12.014747039550139"><ele>1267.0</ele><time>2026-05-03T14:17:12.999Z</time></trkpt><trkpt lat="45.97683693053242" lon="12.01482807706636"><ele>1264.6666666666667</ele><time>2026-05-03T14:17:13.999Z</time></trkpt><trkpt lat="45.97686969312301" lon="12.01490565537361"><ele>1262.3333333333333</ele><time>2026-05-03T14:17:14.999Z</time></trkpt><trkpt lat="45.976920721035086" lon="12.015058302495055"><ele>1260.0</ele><time>2026-05-03T14:17:16.999Z</time></trkpt><trkpt lat="45.97697211339259" lon="12.015199200894187"><ele>1260.0</ele><time>2026-05-03T14:17:18.999Z</time></trkpt><trkpt lat="45.97701494583881" lon="12.015342524534455"><ele>1260.0</ele><time>2026-05-03T14:17:20.999Z</time></trkpt><trkpt lat="45.97703750563531" lon="12.015497509789327"><ele>1260.0</ele><time>2026-05-03T14:17:22.999Z</time></trkpt><trkpt lat="45.97705888509899" lon="12.015678897061775"><ele>1260.0</ele><time>2026-05-03T14:17:24.999Z</time></trkpt><trkpt lat="45.97711315696504" lon="12.015745929286869"><ele>1260.0</ele><time>2026-05-03T14:17:25.999Z</time></trkpt><trkpt lat="45.97715024320739" lon="12.015876929009645"><ele>1257.8</ele><time>2026-05-03T14:17:27.999Z</time></trkpt><trkpt lat="45.977162905196586" lon="12.016003571894862"><ele>1255.6</ele><time>2026-05-03T14:17:29.999Z</time></trkpt><trkpt lat="45.97718485153589" lon="12.01611538261839"><ele>1253.4</ele><time>2026-05-03T14:17:31.999Z</time></trkpt><trkpt lat="45.977248681689886" lon="12.016158967380548"><ele>1251.2</ele><time>2026-05-03T14:17:33.999Z</time></trkpt><trkpt lat="45.977342946241386" lon="12.016084528371493"><ele>1249.0</ele><time>2026-05-03T14:17:35.999Z</time></trkpt><trkpt lat="45.9774411245327" lon="12.015993062610745"><ele>1249.0</ele><time>2026-05-03T14:17:38Z</time></trkpt><trkpt lat="45.977486321871424" lon="12.015920606527034"><ele>1249.0</ele><time>2026-05-03T14:17:39Z</time></trkpt><trkpt lat="45.97759510160369" lon="12.015831244313857"><ele>1249.0</ele><time>2026-05-03T14:17:41Z</time></trkpt><trkpt lat="45.97765977917281" lon="12.015837062121816"><ele>1249.0</ele><time>2026-05-03T14:17:42Z</time></trkpt><trkpt lat="45.977778260659264" lon="12.01585067659282"><ele>1249.0</ele><time>2026-05-03T14:17:44Z</time></trkpt><trkpt lat="45.97784114196077" lon="12.015844060925936"><ele>1249.0</ele><time>2026-05-03T14:17:45Z</time></trkpt><trkpt lat="45.97790649822268" lon="12.015827960438777"><ele>1246.142857142857</ele><time>2026-05-03T14:17:46Z</time></trkpt><trkpt lat="45.97797455297148" lon="12.015805004822614"><ele>1243.2857142857142</ele><time>2026-05-03T14:17:47Z</time></trkpt><trkpt lat="45.97803420836234" lon="12.015755999492242"><ele>1240.4285714285716</ele><time>2026-05-03T14:17:48Z</time></trkpt><trkpt lat="45.978096182320435" lon="12.015727916952963"><ele>1237.5714285714284</ele><time>2026-05-03T14:17:49Z</time></trkpt><trkpt lat="45.978160247505855" lon="12.015697125902188"><ele>1234.7142857142858</ele><time>2026-05-03T14:17:50Z</time></trkpt><trkpt lat="45.97822109753352" lon="12.01566698314858"><ele>1231.857142857143</ele><time>2026-05-03T14:17:51Z</time></trkpt><trkpt lat="45.97828223562985" lon="12.015637561866935"><ele>1229.0</ele><time>2026-05-03T14:17:52Z</time></trkpt><trkpt lat="45.97834453303001" lon="12.015607809330202"><ele>1229.3333333333335</ele><time>2026-05-03T14:17:53Z</time></trkpt><trkpt lat="45.978409370776966" lon="12.01557804358887"><ele>1229.6666666666667</ele><time>2026-05-03T14:17:54Z</time></trkpt><trkpt lat="45.97847457884902" lon="12.015544412291375"><ele>1230.0</ele><time>2026-05-03T14:17:55Z</time></trkpt><trkpt lat="45.978543271091254" lon="12.015509518874099"><ele>1230.3333333333333</ele><time>2026-05-03T14:17:56Z</time></trkpt><trkpt lat="45.978608670735944" lon="12.015479334876929"><ele>1230.6666666666665</ele><time>2026-05-03T14:17:57Z</time></trkpt><trkpt lat="45.97873332782862" lon="12.015451023650531"><ele>1231.0</ele><time>2026-05-03T14:17:59Z</time></trkpt><trkpt lat="45.97883602927949" lon="12.015416993405834"><ele>1231.0</ele><time>2026-05-03T14:18:01Z</time></trkpt><trkpt lat="45.97889974497564" lon="12.01540140650649"><ele>1231.0</ele><time>2026-05-03T14:18:02Z</time></trkpt><trkpt lat="45.97903247606758" lon="12.015351701457245"><ele>1231.0</ele><time>2026-05-03T14:18:04Z</time></trkpt><trkpt lat="45.979105000111325" lon="12.015326358392468"><ele>1231.0</ele><time>2026-05-03T14:18:05Z</time></trkpt><trkpt lat="45.97917988076134" lon="12.015300077769412"><ele>1231.0</ele><time>2026-05-03T14:18:06Z</time></trkpt><trkpt lat="45.97924243344004" lon="12.01527774876601"><ele>1231.0</ele><time>2026-05-03T14:18:07Z</time></trkpt><trkpt lat="45.979335284990604" lon="12.01522113179335"><ele>1228.6</ele><time>2026-05-03T14:18:09Z</time></trkpt><trkpt lat="45.979430877888376" lon="12.015159133152443"><ele>1226.1999999999998</ele><time>2026-05-03T14:18:11Z</time></trkpt><trkpt lat="45.979530650433965" lon="12.015084559604237"><ele>1223.8000000000002</ele><time>2026-05-03T14:18:13Z</time></trkpt><trkpt lat="45.97963509130995" lon="12.015047032479067"><ele>1221.4</ele><time>2026-05-03T14:18:15Z</time></trkpt><trkpt lat="45.97968563496917" lon="12.014982791471489"><ele>1219.0</ele><time>2026-05-03T14:18:16Z</time></trkpt><trkpt lat="45.9797510586533" lon="12.014945294519817"><ele>1218.8</ele><time>2026-05-03T14:18:17Z</time></trkpt><trkpt lat="45.97979352732366" lon="12.01487039134985"><ele>1218.6000000000001</ele><time>2026-05-03T14:18:18Z</time></trkpt><trkpt lat="45.97985589885529" lon="12.01470060844775"><ele>1218.4</ele><time>2026-05-03T14:18:20Z</time></trkpt><trkpt lat="45.97988423171448" lon="12.014599341835241"><ele>1218.2</ele><time>2026-05-03T14:18:21Z</time></trkpt><trkpt lat="45.9799056591315" lon="12.014424145877648"><ele>1218.0</ele><time>2026-05-03T14:18:23Z</time></trkpt><trkpt lat="45.97994666442668" lon="12.014214566639044"><ele>1216.1666666666667</ele><time>2026-05-03T14:18:25Z</time></trkpt><trkpt lat="45.97996866640708" lon="12.014090884702107"><ele>1214.3333333333333</ele><time>2026-05-03T14:18:27Z</time></trkpt><trkpt lat="45.979980954895254" lon="12.013994358213347"><ele>1212.5</ele><time>2026-05-03T14:18:28Z</time></trkpt><trkpt lat="45.97998718803482" lon="12.01384696339713"><ele>1210.6666666666665</ele><time>2026-05-03T14:18:30Z</time></trkpt><trkpt lat="45.98000756434599" lon="12.013759465946029"><ele>1208.8333333333333</ele><time>2026-05-03T14:18:31Z</time></trkpt><trkpt lat="45.98008178507071" lon="12.013656356693804"><ele>1207.0</ele><time>2026-05-03T14:18:33Z</time></trkpt><trkpt lat="45.98015768960881" lon="12.013559369470487"><ele>1207.0</ele><time>2026-05-03T14:18:35Z</time></trkpt><trkpt lat="45.98023444883428" lon="12.013484317417308"><ele>1207.0</ele><time>2026-05-03T14:18:37Z</time></trkpt><trkpt lat="45.98031347847823" lon="12.013421407906472"><ele>1207.0</ele><time>2026-05-03T14:18:39Z</time></trkpt><trkpt lat="45.98042155241158" lon="12.013397440280574"><ele>1207.0</ele><time>2026-05-03T14:18:41Z</time></trkpt><trkpt lat="45.98049455827893" lon="12.013380811045694"><ele>1207.0</ele><time>2026-05-03T14:18:42Z</time></trkpt><trkpt lat="45.98062385174106" lon="12.01337622428415"><ele>1207.0</ele><time>2026-05-03T14:18:44Z</time></trkpt><trkpt lat="45.98073822144014" lon="12.013362231570573"><ele>1207.0</ele><time>2026-05-03T14:18:46Z</time></trkpt><trkpt lat="45.980851071625196" lon="12.013382722553729"><ele>1207.0</ele><time>2026-05-03T14:18:48Z</time></trkpt><trkpt lat="45.98097608074101" lon="12.013417601068058"><ele>1207.0</ele><time>2026-05-03T14:18:50Z</time></trkpt><trkpt lat="45.98108521816401" lon="12.013461848326575"><ele>1207.2</ele><time>2026-05-03T14:18:52Z</time></trkpt><trkpt lat="45.98118127621759" lon="12.0135464359745"><ele>1207.4</ele><time>2026-05-03T14:18:54Z</time></trkpt><trkpt lat="45.98127139919678" lon="12.013447825651992"><ele>1207.6</ele><time>2026-05-03T14:18:55Z</time></trkpt><trkpt lat="45.981363532464606" lon="12.013355417204844"><ele>1207.8</ele><time>2026-05-03T14:18:57Z</time></trkpt><trkpt lat="45.98141983433754" lon="12.01331118678486"><ele>1208.0</ele><time>2026-05-03T14:18:58Z</time></trkpt><trkpt lat="45.981483408317615" lon="12.01326223053197"><ele>1209.8333333333335</ele><time>2026-05-03T14:18:59Z</time></trkpt><trkpt lat="45.981555397268" lon="12.013209694808213"><ele>1211.6666666666667</ele><time>2026-05-03T14:19:00Z</time></trkpt><trkpt lat="45.98163536749695" lon="12.013146150473661"><ele>1213.5</ele><time>2026-05-03T14:19:01Z</time></trkpt><trkpt lat="45.98172229279728" lon="12.01306046744337"><ele>1215.3333333333333</ele><time>2026-05-03T14:19:02Z</time></trkpt><trkpt lat="45.981786242046255" lon="12.013000777298165"><ele>1217.1666666666665</ele><time>2026-05-03T14:19:03Z</time></trkpt><trkpt lat="45.98185704299816" lon="12.012928384019276"><ele>1219.0</ele><time>2026-05-03T14:19:04Z</time></trkpt><trkpt lat="45.981912542791235" lon="12.01286599769485"><ele>1219.0</ele><time>2026-05-03T14:19:05Z</time></trkpt><trkpt lat="45.9819782812026" lon="12.012798249988624"><ele>1219.0</ele><time>2026-05-03T14:19:06Z</time></trkpt><trkpt lat="45.982047178305756" lon="12.012727558562352"><ele>1219.0</ele><time>2026-05-03T14:19:07Z</time></trkpt><trkpt lat="45.98210785095756" lon="12.01269035649707"><ele>1219.0</ele><time>2026-05-03T14:19:08Z</time></trkpt><trkpt lat="45.98219514978913" lon="12.01265488696535"><ele>1219.0</ele><time>2026-05-03T14:19:09Z</time></trkpt><trkpt lat="45.98226492729607" lon="12.012589928977196"><ele>1219.0</ele><time>2026-05-03T14:19:10Z</time></trkpt><trkpt lat="45.98233685727155" lon="12.012518067586752"><ele>1220.5</ele><time>2026-05-03T14:19:11Z</time></trkpt><trkpt lat="45.98238913083033" lon="12.012431966105725"><ele>1222.0</ele><time>2026-05-03T14:19:11.999Z</time></trkpt><trkpt lat="45.98244372286523" lon="12.012334765597197"><ele>1223.5</ele><time>2026-05-03T14:19:12.999Z</time></trkpt><trkpt lat="45.9824954259926" lon="12.012245197860498"><ele>1225.0</ele><time>2026-05-03T14:19:13.999Z</time></trkpt><trkpt lat="45.98253098455962" lon="12.012149681807939"><ele>1226.5</ele><time>2026-05-03T14:19:14.999Z</time></trkpt><trkpt lat="45.98255112693276" lon="12.012049631704887"><ele>1228.0</ele><time>2026-05-03T14:19:15.999Z</time></trkpt><trkpt lat="45.98259364337866" lon="12.011952309959236"><ele>1228.0</ele><time>2026-05-03T14:19:16.999Z</time></trkpt><trkpt lat="45.98261394736167" lon="12.011856877607435"><ele>1228.0</ele><time>2026-05-03T14:19:17.999Z</time></trkpt><trkpt lat="45.982634322269256" lon="12.011769979742"><ele>1228.0</ele><time>2026-05-03T14:19:18.999Z</time></trkpt><trkpt lat="45.98267697075934" lon="12.011648125321644"><ele>1228.0</ele><time>2026-05-03T14:19:20.999Z</time></trkpt><trkpt lat="45.98274622005016" lon="12.01158875461964"><ele>1228.0</ele><time>2026-05-03T14:19:21.999Z</time></trkpt><trkpt lat="45.98283716095246" lon="12.011543460448404"><ele>1228.0</ele><time>2026-05-03T14:19:22.999Z</time></trkpt><trkpt lat="45.98292777678591" lon="12.01146634882445"><ele>1227.6</ele><time>2026-05-03T14:19:23.999Z</time></trkpt><trkpt lat="45.98304141758915" lon="12.011416900597235"><ele>1227.1999999999998</ele><time>2026-05-03T14:19:25.999Z</time></trkpt><trkpt lat="45.983148589117306" lon="12.011385256788303"><ele>1226.8</ele><time>2026-05-03T14:19:27.999Z</time></trkpt><trkpt lat="45.98325503144675" lon="12.011357177246353"><ele>1226.3999999999999</ele><time>2026-05-03T14:19:29.999Z</time></trkpt><trkpt lat="45.98332007440628" lon="12.011264292395625"><ele>1226.0</ele><time>2026-05-03T14:19:31.999Z</time></trkpt><trkpt lat="45.983378736751924" lon="12.011144559668837"><ele>1226.0</ele><time>2026-05-03T14:19:33.999Z</time></trkpt><trkpt lat="45.9834385137343" lon="12.01101537486177"><ele>1226.0</ele><time>2026-05-03T14:19:35.999Z</time></trkpt><trkpt lat="45.98347924811197" lon="12.01085957087541"><ele>1226.0</ele><time>2026-05-03T14:19:37.999Z</time></trkpt><trkpt lat="45.98353528592159" lon="12.010729624042119"><ele>1226.0</ele><time>2026-05-03T14:19:38.999Z</time></trkpt><trkpt lat="45.98357744023829" lon="12.010572126396124"><ele>1226.0</ele><time>2026-05-03T14:19:40.999Z</time></trkpt><trkpt lat="45.983607928932685" lon="12.010485679570142"><ele>1220.6</ele><time>2026-05-03T14:19:41.999Z</time></trkpt><trkpt lat="45.983686841596175" lon="12.010368568240619"><ele>1215.1999999999998</ele><time>2026-05-03T14:19:44Z</time></trkpt><trkpt lat="45.98379373327728" lon="12.010335431639911"><ele>1209.8000000000002</ele><time>2026-05-03T14:19:46Z</time></trkpt><trkpt lat="45.983902162768295" lon="12.010405453212977"><ele>1204.4</ele><time>2026-05-03T14:19:48Z</time></trkpt><trkpt lat="45.983997261398855" lon="12.010445137791004"><ele>1199.0</ele><time>2026-05-03T14:19:50Z</time></trkpt><trkpt lat="45.984093498433324" lon="12.010461600535153"><ele>1199.0</ele><time>2026-05-03T14:19:52Z</time></trkpt><trkpt lat="45.98415963242532" lon="12.010470651914225"><ele>1199.0</ele><time>2026-05-03T14:19:53Z</time></trkpt><trkpt lat="45.984238558020145" lon="12.010483388409035"><ele>1199.0</ele><time>2026-05-03T14:19:54Z</time></trkpt><trkpt lat="45.98436459766803" lon="12.010527294435837"><ele>1199.0</ele><time>2026-05-03T14:19:56Z</time></trkpt><trkpt lat="45.98445084583795" lon="12.010612465615274"><ele>1199.0</ele><time>2026-05-03T14:19:58Z</time></trkpt><trkpt lat="45.984559111807904" lon="12.010728730760148"><ele>1199.8333333333335</ele><time>2026-05-03T14:20:00Z</time></trkpt><trkpt lat="45.98461725085659" lon="12.010789585909116"><ele>1200.6666666666667</ele><time>2026-05-03T14:20:01Z</time></trkpt><trkpt lat="45.98469456810506" lon="12.010836235367387"><ele>1201.5</ele><time>2026-05-03T14:20:02Z</time></trkpt><trkpt lat="45.984787504376385" lon="12.010910856535471"><ele>1202.3333333333333</ele><time>2026-05-03T14:20:04Z</time></trkpt><trkpt lat="45.9848489806647" lon="12.010959547805273"><ele>1203.1666666666665</ele><time>2026-05-03T14:20:05Z</time></trkpt><trkpt lat="45.984943573176835" lon="12.011017005799633"><ele>1204.0</ele><time>2026-05-03T14:20:07Z</time></trkpt><trkpt lat="45.985044853136195" lon="12.011075613939225"><ele>1201.1666666666665</ele><time>2026-05-03T14:20:09Z</time></trkpt><trkpt lat="45.98511284289092" lon="12.011066666863915"><ele>1198.3333333333333</ele><time>2026-05-03T14:20:10Z</time></trkpt><trkpt lat="45.98519736588613" lon="12.011084609203724"><ele>1195.5</ele><time>2026-05-03T14:20:12Z</time></trkpt><trkpt lat="45.98525890100002" lon="12.011114136320463"><ele>1192.6666666666667</ele><time>2026-05-03T14:20:13Z</time></trkpt><trkpt lat="45.98535798917934" lon="12.011194518112895"><ele>1189.8333333333335</ele><time>2026-05-03T14:20:15Z</time></trkpt><trkpt lat="45.985418168852334" lon="12.01124838937077"><ele>1187.0</ele><time>2026-05-03T14:20:16Z</time></trkpt><trkpt lat="45.9854805263869" lon="12.01129173548586"><ele>1187.0</ele><time>2026-05-03T14:20:17Z</time></trkpt><trkpt lat="45.98555836504625" lon="12.011328756938228"><ele>1187.0</ele><time>2026-05-03T14:20:18Z</time></trkpt><trkpt lat="45.985626523253366" lon="12.011359863394908"><ele>1187.0</ele><time>2026-05-03T14:20:19Z</time></trkpt><trkpt lat="45.98573564153835" lon="12.011415444587188"><ele>1187.0</ele><time>2026-05-03T14:20:21Z</time></trkpt><trkpt lat="45.98584198690209" lon="12.011542059191553"><ele>1187.0</ele><time>2026-05-03T14:20:23Z</time></trkpt><trkpt lat="45.98589863888883" lon="12.011629289161366"><ele>1187.6666666666667</ele><time>2026-05-03T14:20:24Z</time></trkpt><trkpt lat="45.98596001203868" lon="12.01168292425554"><ele>1188.3333333333335</ele><time>2026-05-03T14:20:25Z</time></trkpt><trkpt lat="45.98606212177243" lon="12.011784371759497"><ele>1189.0</ele><time>2026-05-03T14:20:27Z</time></trkpt><trkpt lat="45.98610758112405" lon="12.011865964302054"><ele>1189.6666666666667</ele><time>2026-05-03T14:20:28Z</time></trkpt><trkpt lat="45.98616360673943" lon="12.01193072579992"><ele>1190.3333333333333</ele><time>2026-05-03T14:20:29Z</time></trkpt><trkpt lat="45.98621117876173" lon="12.011991806388396"><ele>1191.0</ele><time>2026-05-03T14:20:30Z</time></trkpt><trkpt lat="45.98625475357382" lon="12.012058544796323"><ele>1191.0</ele><time>2026-05-03T14:20:31Z</time></trkpt><trkpt lat="45.98634470903723" lon="12.01213155177883"><ele>1191.0</ele><time>2026-05-03T14:20:33Z</time></trkpt><trkpt lat="45.98642469471879" lon="12.012191513782732"><ele>1191.0</ele><time>2026-05-03T14:20:35Z</time></trkpt><trkpt lat="45.986494607916676" lon="12.012260154692067"><ele>1191.0</ele><time>2026-05-03T14:20:37Z</time></trkpt><trkpt lat="45.98658980051664" lon="12.012311315835497"><ele>1191.0</ele><time>2026-05-03T14:20:39Z</time></trkpt><trkpt lat="45.986663249448824" lon="12.012374531911295"><ele>1192.3999999999999</ele><time>2026-05-03T14:20:40Z</time></trkpt><trkpt lat="45.98672973830164" lon="12.012446760458904"><ele>1193.8</ele><time>2026-05-03T14:20:41Z</time></trkpt><trkpt lat="45.986797655773906" lon="12.012527910465327"><ele>1195.1999999999998</ele><time>2026-05-03T14:20:42Z</time></trkpt><trkpt lat="45.98688614488855" lon="12.012612847507134"><ele>1196.6</ele><time>2026-05-03T14:20:43Z</time></trkpt><trkpt lat="45.98698048232163" lon="12.01267381633018"><ele>1198.0</ele><time>2026-05-03T14:20:44Z</time></trkpt><trkpt lat="45.987071563959624" lon="12.012719066399328"><ele>1198.0</ele><time>2026-05-03T14:20:45Z</time></trkpt><trkpt lat="45.98717042540407" lon="12.012761058364793"><ele>1198.0</ele><time>2026-05-03T14:20:46Z</time></trkpt><trkpt lat="45.98726227296068" lon="12.012796823726712"><ele>1198.0</ele><time>2026-05-03T14:20:47Z</time></trkpt><trkpt lat="45.987357138413145" lon="12.012822696462266"><ele>1198.0</ele><time>2026-05-03T14:20:48Z</time></trkpt><trkpt lat="45.987456570604635" lon="12.012855524284099"><ele>1198.0</ele><time>2026-05-03T14:20:49Z</time></trkpt><trkpt lat="45.98754189614537" lon="12.01289228851066"><ele>1197.1666666666665</ele><time>2026-05-03T14:20:50Z</time></trkpt><trkpt lat="45.98762175925651" lon="12.012917709918183"><ele>1196.3333333333333</ele><time>2026-05-03T14:20:51Z</time></trkpt><trkpt lat="45.98770538105185" lon="12.012946922183511"><ele>1195.5</ele><time>2026-05-03T14:20:52Z</time></trkpt><trkpt lat="45.987784041095566" lon="12.01297559104471"><ele>1194.6666666666667</ele><time>2026-05-03T14:20:53Z</time></trkpt><trkpt lat="45.98786758497488" lon="12.013007722281953"><ele>1193.8333333333335</ele><time>2026-05-03T14:20:54Z</time></trkpt><trkpt lat="45.98796031429352" lon="12.013024913185093"><ele>1193.0</ele><time>2026-05-03T14:20:55Z</time></trkpt><trkpt lat="45.98805598572212" lon="12.013030041990302"><ele>1193.0</ele><time>2026-05-03T14:20:56Z</time></trkpt><trkpt lat="45.988154581391505" lon="12.013033148632005"><ele>1193.0</ele><time>2026-05-03T14:20:57Z</time></trkpt><trkpt lat="45.98823644321602" lon="12.013054278410817"><ele>1193.0</ele><time>2026-05-03T14:20:58Z</time></trkpt><trkpt lat="45.98830439386586" lon="12.013075131360694"><ele>1193.0</ele><time>2026-05-03T14:20:59Z</time></trkpt><trkpt lat="45.9883786484462" lon="12.013102281031404"><ele>1193.0</ele><time>2026-05-03T14:21:00Z</time></trkpt><trkpt lat="45.988460650151524" lon="12.013155714392816"><ele>1193.0</ele><time>2026-05-03T14:21:01Z</time></trkpt><trkpt lat="45.988544044703445" lon="12.013224265995163"><ele>1192.3333333333335</ele><time>2026-05-03T14:21:02Z</time></trkpt><trkpt lat="45.98862947693666" lon="12.013269887904418"><ele>1191.6666666666667</ele><time>2026-05-03T14:21:03Z</time></trkpt><trkpt lat="45.98871906047828" lon="12.013293818859585"><ele>1191.0</ele><time>2026-05-03T14:21:04Z</time></trkpt><trkpt lat="45.98880683753915" lon="12.013307661128758"><ele>1190.3333333333333</ele><time>2026-05-03T14:21:05Z</time></trkpt><trkpt lat="45.988880684861186" lon="12.013317015768381"><ele>1189.6666666666665</ele><time>2026-05-03T14:21:06Z</time></trkpt><trkpt lat="45.988944750629194" lon="12.013319134479392"><ele>1189.0</ele><time>2026-05-03T14:21:06.999Z</time></trkpt><trkpt lat="45.989011164219455" lon="12.013319127830286"><ele>1192.0</ele><time>2026-05-03T14:21:07.999Z</time></trkpt><trkpt lat="45.98907667416247" lon="12.013332090481661"><ele>1195.0</ele><time>2026-05-03T14:21:08.999Z</time></trkpt><trkpt lat="45.98914084122057" lon="12.01335239519279"><ele>1198.0</ele><time>2026-05-03T14:21:09.999Z</time></trkpt><trkpt lat="45.989209001646714" lon="12.013369296246461"><ele>1201.0</ele><time>2026-05-03T14:21:10.999Z</time></trkpt><trkpt lat="45.98930042172694" lon="12.013381065842342"><ele>1204.0</ele><time>2026-05-03T14:21:11.999Z</time></trkpt><trkpt lat="45.98940018074099" lon="12.013406289375848"><ele>1207.0</ele><time>2026-05-03T14:21:12.999Z</time></trkpt><trkpt lat="45.98950527945345" lon="12.013430251562932"><ele>1208.2</ele><time>2026-05-03T14:21:13.999Z</time></trkpt><trkpt lat="45.98959985102464" lon="12.013446142116228"><ele>1209.4</ele><time>2026-05-03T14:21:14.999Z</time></trkpt><trkpt lat="45.98969445795985" lon="12.013465575641431"><ele>1210.6</ele><time>2026-05-03T14:21:15.999Z</time></trkpt><trkpt lat="45.989789230577664" lon="12.013479652483587"><ele>1211.8</ele><time>2026-05-03T14:21:16.999Z</time></trkpt><trkpt lat="45.98987607702106" lon="12.013482953108955"><ele>1213.0</ele><time>2026-05-03T14:21:17.999Z</time></trkpt><trkpt lat="45.98997312980106" lon="12.013471849608603"><ele>1213.4</ele><time>2026-05-03T14:21:18.999Z</time></trkpt><trkpt lat="45.99008570203911" lon="12.013453958018705"><ele>1213.8</ele><time>2026-05-03T14:21:19.999Z</time></trkpt><trkpt lat="45.99018926805154" lon="12.013431281245836"><ele>1214.2</ele><time>2026-05-03T14:21:20.999Z</time></trkpt><trkpt lat="45.990284079561555" lon="12.013422039072726"><ele>1214.6</ele><time>2026-05-03T14:21:21.999Z</time></trkpt><trkpt lat="45.990379638805905" lon="12.013411401314501"><ele>1215.0</ele><time>2026-05-03T14:21:22.999Z</time></trkpt><trkpt lat="45.990466318984566" lon="12.013411312005253"><ele>1215.0</ele><time>2026-05-03T14:21:23.999Z</time></trkpt><trkpt lat="45.99052701462153" lon="12.013464521830965"><ele>1215.0</ele><time>2026-05-03T14:21:24.999Z</time></trkpt><trkpt lat="45.990598293687846" lon="12.013471127810895"><ele>1215.0</ele><time>2026-05-03T14:21:25.999Z</time></trkpt><trkpt lat="45.99067778460275" lon="12.013476282672173"><ele>1215.0</ele><time>2026-05-03T14:21:26.999Z</time></trkpt><trkpt lat="45.99074499387315" lon="12.013480641101712"><ele>1215.0</ele><time>2026-05-03T14:21:27.999Z</time></trkpt><trkpt lat="45.99087771579749" lon="12.01349088934222"><ele>1215.0</ele><time>2026-05-03T14:21:29.999Z</time></trkpt><trkpt lat="45.9909519826734" lon="12.01346545302428"><ele>1214.5</ele><time>2026-05-03T14:21:30.999Z</time></trkpt><trkpt lat="45.99103422139592" lon="12.013483650117488"><ele>1214.0</ele><time>2026-05-03T14:21:31.999Z</time></trkpt><trkpt lat="45.991111582817844" lon="12.013512673514942"><ele>1213.5</ele><time>2026-05-03T14:21:32.999Z</time></trkpt><trkpt lat="45.99117780187084" lon="12.013529677258981"><ele>1213.0</ele><time>2026-05-03T14:21:33.999Z</time></trkpt><trkpt lat="45.99124335347747" lon="12.013565359233503"><ele>1212.5</ele><time>2026-05-03T14:21:34.999Z</time></trkpt><trkpt lat="45.991323459596714" lon="12.013575041902346"><ele>1212.0</ele><time>2026-05-03T14:21:35.999Z</time></trkpt><trkpt lat="45.991410662182396" lon="12.013565291233737"><ele>1212.0</ele><time>2026-05-03T14:21:36.999Z</time></trkpt><trkpt lat="45.99149564280477" lon="12.013563240927772"><ele>1212.0</ele><time>2026-05-03T14:21:37.999Z</time></trkpt><trkpt lat="45.99158670497947" lon="12.013540181553237"><ele>1212.0</ele><time>2026-05-03T14:21:38.999Z</time></trkpt><trkpt lat="45.9916968336508" lon="12.013556350063785"><ele>1212.0</ele><time>2026-05-03T14:21:39.999Z</time></trkpt><trkpt lat="45.991782817755215" lon="12.013521248982075"><ele>1212.0</ele><time>2026-05-03T14:21:40.999Z</time></trkpt><trkpt lat="45.99186317359501" lon="12.013513915816148"><ele>1210.8333333333333</ele><time>2026-05-03T14:21:41.999Z</time></trkpt><trkpt lat="45.991945951916875" lon="12.013487601093756"><ele>1209.6666666666667</ele><time>2026-05-03T14:21:42.999Z</time></trkpt><trkpt lat="45.99202663119613" lon="12.01346580172455"><ele>1208.5</ele><time>2026-05-03T14:21:43.999Z</time></trkpt><trkpt lat="45.99209197772414" lon="12.013450845864936"><ele>1207.3333333333335</ele><time>2026-05-03T14:21:44.999Z</time></trkpt><trkpt lat="45.9921459262782" lon="12.01339900177933"><ele>1206.1666666666667</ele><time>2026-05-03T14:21:45.999Z</time></trkpt><trkpt lat="45.992258210952336" lon="12.013398895356582"><ele>1205.0</ele><time>2026-05-03T14:21:47.999Z</time></trkpt><trkpt lat="45.992368476965524" lon="12.013418329126711"><ele>1205.0</ele><time>2026-05-03T14:21:50Z</time></trkpt><trkpt lat="45.99243358206367" lon="12.013425184916114"><ele>1205.0</ele><time>2026-05-03T14:21:51Z</time></trkpt><trkpt lat="45.992508685606055" lon="12.013419910655815"><ele>1205.0</ele><time>2026-05-03T14:21:52Z</time></trkpt><trkpt lat="45.99259653745214" lon="12.013412708059393"><ele>1205.0</ele><time>2026-05-03T14:21:53Z</time></trkpt><trkpt lat="45.992690659729085" lon="12.013400364815203"><ele>1205.0</ele><time>2026-05-03T14:21:54Z</time></trkpt><trkpt lat="45.9927723599224" lon="12.01337852643563"><ele>1205.0</ele><time>2026-05-03T14:21:55Z</time></trkpt><trkpt lat="45.99285567406203" lon="12.013373588508038"><ele>1203.4</ele><time>2026-05-03T14:21:56Z</time></trkpt><trkpt lat="45.99293098578812" lon="12.013367087515256"><ele>1201.8</ele><time>2026-05-03T14:21:57Z</time></trkpt><trkpt lat="45.99301401942731" lon="12.013364290124306"><ele>1200.2</ele><time>2026-05-03T14:21:58Z</time></trkpt><trkpt lat="45.99309839733771" lon="12.013366677906713"><ele>1198.6</ele><time>2026-05-03T14:21:59Z</time></trkpt><trkpt lat="45.99321092916774" lon="12.013365654078076"><ele>1197.0</ele><time>2026-05-03T14:22:01Z</time></trkpt><trkpt lat="45.99331789978321" lon="12.013367020504074"><ele>1195.1666666666667</ele><time>2026-05-03T14:22:03Z</time></trkpt><trkpt lat="45.99341449454139" lon="12.013369659822608"><ele>1193.3333333333333</ele><time>2026-05-03T14:22:05Z</time></trkpt><trkpt lat="45.993497775256" lon="12.013404363202197"><ele>1191.5</ele><time>2026-05-03T14:22:07Z</time></trkpt><trkpt lat="45.99356311367512" lon="12.013391796334295"><ele>1189.6666666666665</ele><time>2026-05-03T14:22:09Z</time></trkpt><trkpt lat="45.99365257289135" lon="12.013416746408982"><ele>1187.8333333333333</ele><time>2026-05-03T14:22:12Z</time></trkpt><trkpt lat="45.99374632576051" lon="12.013421194485844"><ele>1186.0</ele><time>2026-05-03T14:22:15Z</time></trkpt><trkpt lat="45.99381339832736" lon="12.01343914933115"><ele>1186.0</ele><time>2026-05-03T14:22:17Z</time></trkpt><trkpt lat="45.99388241262343" lon="12.01345262757663"><ele>1186.0</ele><time>2026-05-03T14:22:20Z</time></trkpt><trkpt lat="45.9939533586002" lon="12.013488224952061"><ele>1186.0</ele><time>2026-05-03T14:24:17Z</time></trkpt><trkpt lat="45.99401759801049" lon="12.013531617993223"><ele>1186.0</ele><time>2026-05-03T14:24:19Z</time></trkpt><trkpt lat="45.99410223695958" lon="12.013599296961578"><ele>1186.0</ele><time>2026-05-03T14:24:21Z</time></trkpt><trkpt lat="45.994181216011675" lon="12.01368720864818"><ele>1186.0</ele><time>2026-05-03T14:24:23Z</time></trkpt><trkpt lat="45.99427185355995" lon="12.013781750311622"><ele>1184.3999999999999</ele><time>2026-05-03T14:24:25Z</time></trkpt><trkpt lat="45.994337449359705" lon="12.013879658511618"><ele>1182.8</ele><time>2026-05-03T14:24:27Z</time></trkpt><trkpt lat="45.994428534192984" lon="12.013986351371463"><ele>1181.1999999999998</ele><time>2026-05-03T14:24:29Z</time></trkpt><trkpt lat="45.99448423645656" lon="12.01403344181614"><ele>1179.6</ele><time>2026-05-03T14:24:30Z</time></trkpt><trkpt lat="45.994573484474955" lon="12.01413450120446"><ele>1178.0</ele><time>2026-05-03T14:24:32Z</time></trkpt><trkpt lat="45.994659730683935" lon="12.014222751077108"><ele>1178.0</ele><time>2026-05-03T14:24:34Z</time></trkpt><trkpt lat="45.994734111455266" lon="12.014309599371435"><ele>1178.0</ele><time>2026-05-03T14:24:36Z</time></trkpt><trkpt lat="45.99480793695887" lon="12.014393502698281"><ele>1178.0</ele><time>2026-05-03T14:24:38Z</time></trkpt><trkpt lat="45.99488337544862" lon="12.014476572444911"><ele>1178.0</ele><time>2026-05-03T14:24:40Z</time></trkpt><trkpt lat="45.99497383909439" lon="12.01457292775284"><ele>1178.0</ele><time>2026-05-03T14:24:42Z</time></trkpt><trkpt lat="45.99506588140264" lon="12.014671290216423"><ele>1176.0</ele><time>2026-05-03T14:24:44Z</time></trkpt><trkpt lat="45.99516473053571" lon="12.01474464365825"><ele>1174.0</ele><time>2026-05-03T14:24:46Z</time></trkpt><trkpt lat="45.9952739687895" lon="12.01479748111424"><ele>1172.0</ele><time>2026-05-03T14:24:48Z</time></trkpt><trkpt lat="45.99537245685243" lon="12.014850479910315"><ele>1170.0</ele><time>2026-05-03T14:24:50Z</time></trkpt><trkpt lat="45.995460896179935" lon="12.014882656303357"><ele>1168.0</ele><time>2026-05-03T14:24:52Z</time></trkpt><trkpt lat="45.995575866403236" lon="12.01490309805138"><ele>1168.0</ele><time>2026-05-03T14:24:54Z</time></trkpt><trkpt lat="45.99567726769566" lon="12.014937835638348"><ele>1168.0</ele><time>2026-05-03T14:24:56Z</time></trkpt><trkpt lat="45.99576691942466" lon="12.014974012311832"><ele>1168.0</ele><time>2026-05-03T14:24:58Z</time></trkpt><trkpt lat="45.99585612446991" lon="12.014994058124891"><ele>1168.0</ele><time>2026-05-03T14:25:00Z</time></trkpt><trkpt lat="45.99596588793705" lon="12.01500805102671"><ele>1168.0</ele><time>2026-05-03T14:25:02Z</time></trkpt><trkpt lat="45.996071229009765" lon="12.015069026212863"><ele>1166.2</ele><time>2026-05-03T14:25:04Z</time></trkpt><trkpt lat="45.9961572987602" lon="12.015122769100785"><ele>1164.4</ele><time>2026-05-03T14:25:06Z</time></trkpt><trkpt lat="45.996241114280075" lon="12.01517751495379"><ele>1162.6000000000001</ele><time>2026-05-03T14:25:08Z</time></trkpt><trkpt lat="45.99631655088291" lon="12.015227990157392"><ele>1160.8</ele><time>2026-05-03T14:25:10Z</time></trkpt><trkpt lat="45.99639380323288" lon="12.015279680293343"><ele>1159.0</ele><time>2026-05-03T14:25:12Z</time></trkpt><trkpt lat="45.99648874548232" lon="12.015319916098253"><ele>1159.0</ele><time>2026-05-03T14:25:14Z</time></trkpt><trkpt lat="45.99657552955106" lon="12.01539745851477"><ele>1159.0</ele><time>2026-05-03T14:25:16Z</time></trkpt><trkpt lat="45.99668410242003" lon="12.015467879738928"><ele>1159.0</ele><time>2026-05-03T14:25:18Z</time></trkpt><trkpt lat="45.996767023360086" lon="12.015517829585495"><ele>1159.0</ele><time>2026-05-03T14:25:20Z</time></trkpt><trkpt lat="45.99686809805501" lon="12.015556638646778"><ele>1159.0</ele><time>2026-05-03T14:25:22Z</time></trkpt><trkpt lat="45.99696241474773" lon="12.015598273923624"><ele>1157.0</ele><time>2026-05-03T14:25:24Z</time></trkpt><trkpt lat="45.997061755662926" lon="12.015657984549106"><ele>1155.0</ele><time>2026-05-03T14:25:26Z</time></trkpt><trkpt lat="45.99716203086195" lon="12.015724615840263"><ele>1153.0</ele><time>2026-05-03T14:25:28Z</time></trkpt><trkpt lat="45.997226096277046" lon="12.015752576456402"><ele>1151.0</ele><time>2026-05-03T14:25:30Z</time></trkpt><trkpt lat="45.99730224855781" lon="12.01577882447885"><ele>1149.0</ele><time>2026-05-03T14:25:32Z</time></trkpt><trkpt lat="45.99739984842046" lon="12.015803870564197"><ele>1150.0</ele><time>2026-05-03T14:25:34Z</time></trkpt><trkpt lat="45.997491953624326" lon="12.015832785127895"><ele>1151.0</ele><time>2026-05-03T14:25:36Z</time></trkpt><trkpt lat="45.99759437426132" lon="12.01586541020025"><ele>1152.0</ele><time>2026-05-03T14:25:38Z</time></trkpt><trkpt lat="45.99767552914335" lon="12.01588729035532"><ele>1153.0</ele><time>2026-05-03T14:25:40Z</time></trkpt><trkpt lat="45.99775301268111" lon="12.015904561698823"><ele>1154.0</ele><time>2026-05-03T14:25:41.999Z</time></trkpt><trkpt lat="45.99782507938702" lon="12.015931788373509"><ele>1155.0</ele><time>2026-05-03T14:25:43.999Z</time></trkpt><trkpt lat="45.997902251728284" lon="12.01595011694068"><ele>1155.0</ele><time>2026-05-03T14:27:53.999Z</time></trkpt><trkpt lat="45.99798872859641" lon="12.01596495907112"><ele>1155.0</ele><time>2026-05-03T14:27:56.999Z</time></trkpt><trkpt lat="45.99809055210963" lon="12.015983502043785"><ele>1155.0</ele><time>2026-05-03T14:27:58.999Z</time></trkpt><trkpt lat="45.99819333283046" lon="12.016008344853812"><ele>1155.0</ele><time>2026-05-03T14:28:00.999Z</time></trkpt><trkpt lat="45.99826940411952" lon="12.016030057688809"><ele>1155.0</ele><time>2026-05-03T14:28:02.999Z</time></trkpt><trkpt lat="45.998358320482104" lon="12.016057674925989"><ele>1155.2</ele><time>2026-05-03T14:28:04.999Z</time></trkpt><trkpt lat="45.99845724401256" lon="12.016104021048763"><ele>1155.4</ele><time>2026-05-03T14:28:07Z</time></trkpt><trkpt lat="45.99854649922139" lon="12.016167447836711"><ele>1155.6</ele><time>2026-05-03T14:28:09Z</time></trkpt><trkpt lat="45.998631260217074" lon="12.01626736228626"><ele>1155.8</ele><time>2026-05-03T14:28:11Z</time></trkpt><trkpt lat="45.99871890056241" lon="12.016383817931281"><ele>1156.0</ele><time>2026-05-03T14:28:13Z</time></trkpt><trkpt lat="45.998817313534495" lon="12.016463966970116"><ele>1156.0</ele><time>2026-05-03T14:28:15Z</time></trkpt><trkpt lat="45.99893080701656" lon="12.016457499806961"><ele>1156.0</ele><time>2026-05-03T14:28:17Z</time></trkpt><trkpt lat="45.99899850148939" lon="12.016460925123845"><ele>1156.0</ele><time>2026-05-03T14:28:18Z</time></trkpt><trkpt lat="45.99909723752283" lon="12.016399981114791"><ele>1156.0</ele><time>2026-05-03T14:28:20Z</time></trkpt><trkpt lat="45.999193162755745" lon="12.016352520128907"><ele>1156.0</ele><time>2026-05-03T14:28:22Z</time></trkpt><trkpt lat="45.99930018013125" lon="12.016330507886432"><ele>1155.0</ele><time>2026-05-03T14:28:24Z</time></trkpt><trkpt lat="45.999412469309604" lon="12.016333848995146"><ele>1154.0</ele><time>2026-05-03T14:28:26Z</time></trkpt><trkpt lat="45.99952707455369" lon="12.016352937303221"><ele>1153.0</ele><time>2026-05-03T14:28:28Z</time></trkpt><trkpt lat="45.99960966686677" lon="12.016378487547467"><ele>1152.0</ele><time>2026-05-03T14:28:30Z</time></trkpt><trkpt lat="45.99971410205868" lon="12.01642646809486"><ele>1151.0</ele><time>2026-05-03T14:28:32Z</time></trkpt><trkpt lat="45.999816989336466" lon="12.016485897826541"><ele>1151.0</ele><time>2026-05-03T14:28:34Z</time></trkpt><trkpt lat="45.99992017006427" lon="12.016544529402255"><ele>1151.0</ele><time>2026-05-03T14:28:36Z</time></trkpt><trkpt lat="46.0000035636462" lon="12.016587456532406"><ele>1151.0</ele><time>2026-05-03T14:28:38Z</time></trkpt><trkpt lat="46.000120372699776" lon="12.016636603405951"><ele>1151.0</ele><time>2026-05-03T14:28:40Z</time></trkpt><trkpt lat="46.000215861768346" lon="12.016749196622078"><ele>1151.0</ele><time>2026-05-03T14:28:42Z</time></trkpt><trkpt lat="46.00028712374658" lon="12.016838635933489"><ele>1154.8333333333335</ele><time>2026-05-03T14:28:44Z</time></trkpt><trkpt lat="46.00033267201814" lon="12.016905492623335"><ele>1158.6666666666667</ele><time>2026-05-03T14:28:46Z</time></trkpt><trkpt lat="46.00036429906355" lon="12.01702389133432"><ele>1162.5</ele><time>2026-05-03T14:28:48Z</time></trkpt><trkpt lat="46.000375637601714" lon="12.017161569281992"><ele>1166.3333333333333</ele><time>2026-05-03T14:28:50Z</time></trkpt><trkpt lat="46.00039109369006" lon="12.017301614669147"><ele>1170.1666666666665</ele><time>2026-05-03T14:28:52Z</time></trkpt><trkpt lat="46.00040337242676" lon="12.017392020243385"><ele>1174.0</ele><time>2026-05-03T14:28:53Z</time></trkpt><trkpt lat="46.0004405942187" lon="12.017559138517395"><ele>1174.2</ele><time>2026-05-03T14:28:55Z</time></trkpt><trkpt lat="46.00047635963414" lon="12.017709421264843"><ele>1174.4</ele><time>2026-05-03T14:28:57Z</time></trkpt><trkpt lat="46.00053519910505" lon="12.017797890373128"><ele>1174.6</ele><time>2026-05-03T14:28:59Z</time></trkpt><trkpt lat="46.00059337260819" lon="12.017857161088905"><ele>1174.8</ele><time>2026-05-03T14:29:01Z</time></trkpt><trkpt lat="46.00067560719454" lon="12.017957279933391"><ele>1175.0</ele><time>2026-05-03T14:29:03Z</time></trkpt><trkpt lat="46.00073232544123" lon="12.018068190871343"><ele>1175.0</ele><time>2026-05-03T14:29:05Z</time></trkpt><trkpt lat="46.0008119650353" lon="12.018170604541291"><ele>1175.0</ele><time>2026-05-03T14:29:07Z</time></trkpt><trkpt lat="46.00090687484185" lon="12.018243913434192"><ele>1175.0</ele><time>2026-05-03T14:29:09Z</time></trkpt><trkpt lat="46.00101195711681" lon="12.018293176959721"><ele>1175.0</ele><time>2026-05-03T14:29:11Z</time></trkpt><trkpt lat="46.001124060256195" lon="12.018312927467859"><ele>1175.0</ele><time>2026-05-03T14:29:13Z</time></trkpt><trkpt lat="46.00120534243985" lon="12.018363283358978"><ele>1173.2</ele><time>2026-05-03T14:29:15Z</time></trkpt><trkpt lat="46.00131176760632" lon="12.018408923134468"><ele>1171.4</ele><time>2026-05-03T14:29:17Z</time></trkpt><trkpt lat="46.00142363162302" lon="12.018457775405377"><ele>1169.6</ele><time>2026-05-03T14:29:19Z</time></trkpt><trkpt lat="46.00153582601894" lon="12.018499728076259"><ele>1167.8</ele><time>2026-05-03T14:29:21Z</time></trkpt><trkpt lat="46.00163477253757" lon="12.01853879488909"><ele>1166.0</ele><time>2026-05-03T14:29:23Z</time></trkpt><trkpt lat="46.00172581505868" lon="12.018603783746876"><ele>1165.6</ele><time>2026-05-03T14:29:25Z</time></trkpt><trkpt lat="46.00182980323123" lon="12.01865854099442"><ele>1165.1999999999998</ele><time>2026-05-03T14:29:27Z</time></trkpt><trkpt lat="46.00191714947258" lon="12.018713362169901"><ele>1164.8000000000002</ele><time>2026-05-03T14:29:29Z</time></trkpt><trkpt lat="46.002011597304985" lon="12.018763923359213"><ele>1164.4</ele><time>2026-05-03T14:29:31Z</time></trkpt><trkpt lat="46.00208053176199" lon="12.018848071550805"><ele>1164.0</ele><time>2026-05-03T14:29:33Z</time></trkpt><trkpt lat="46.002150379918895" lon="12.01893814176251"><ele>1164.0</ele><time>2026-05-03T14:29:35Z</time></trkpt><trkpt lat="46.00223701408756" lon="12.019028666872137"><ele>1164.0</ele><time>2026-05-03T14:29:37Z</time></trkpt><trkpt lat="46.00230530000704" lon="12.0190890503143"><ele>1164.0</ele><time>2026-05-03T14:29:39Z</time></trkpt><trkpt lat="46.00236833076623" lon="12.01915771812899"><ele>1164.0</ele><time>2026-05-03T14:29:41Z</time></trkpt><trkpt lat="46.00244502404618" lon="12.019226742701505"><ele>1164.0</ele><time>2026-05-03T14:29:43Z</time></trkpt><trkpt lat="46.00252966642241" lon="12.019295097384763"><ele>1161.3333333333333</ele><time>2026-05-03T14:29:45Z</time></trkpt><trkpt lat="46.0026244697578" lon="12.019397816305128"><ele>1158.6666666666667</ele><time>2026-05-03T14:29:47Z</time></trkpt><trkpt lat="46.002683282477534" lon="12.019443684379299"><ele>1156.0</ele><time>2026-05-03T14:29:48Z</time></trkpt><trkpt lat="46.0027411004312" lon="12.019487930444306"><ele>1153.3333333333335</ele><time>2026-05-03T14:29:49Z</time></trkpt><trkpt lat="46.00280171601183" lon="12.019520054572856"><ele>1150.6666666666667</ele><time>2026-05-03T14:29:50Z</time></trkpt><trkpt lat="46.00287982344798" lon="12.019561624047467"><ele>1148.0</ele><time>2026-05-03T14:29:51Z</time></trkpt><trkpt lat="46.00295492232781" lon="12.019609657845018"><ele>1148.0</ele><time>2026-05-03T14:29:52Z</time></trkpt><trkpt lat="46.003027473755445" lon="12.019647677264366"><ele>1148.0</ele><time>2026-05-03T14:29:53Z</time></trkpt><trkpt lat="46.00311484948115" lon="12.019699824458366"><ele>1148.0</ele><time>2026-05-03T14:29:54Z</time></trkpt><trkpt lat="46.00319674435152" lon="12.019749643311142"><ele>1148.0</ele><time>2026-05-03T14:29:55Z</time></trkpt><trkpt lat="46.0032673418488" lon="12.019797495253183"><ele>1148.0</ele><time>2026-05-03T14:29:56Z</time></trkpt><trkpt lat="46.00332846963323" lon="12.019843905894813"><ele>1148.0</ele><time>2026-05-03T14:29:57Z</time></trkpt><trkpt lat="46.00338289438213" lon="12.019893072612374"><ele>1146.8333333333335</ele><time>2026-05-03T14:29:58Z</time></trkpt><trkpt lat="46.00344312380652" lon="12.019941617354311"><ele>1145.6666666666667</ele><time>2026-05-03T14:29:59Z</time></trkpt><trkpt lat="46.003495340155624" lon="12.019999340561498"><ele>1144.5</ele><time>2026-05-03T14:29:59.999Z</time></trkpt><trkpt lat="46.00354936005881" lon="12.020051542040203"><ele>1143.3333333333333</ele><time>2026-05-03T14:30:00.999Z</time></trkpt><trkpt lat="46.00361392866073" lon="12.020113912615367"><ele>1142.1666666666665</ele><time>2026-05-03T14:30:01.999Z</time></trkpt><trkpt lat="46.003706446984395" lon="12.02020585862638"><ele>1141.0</ele><time>2026-05-03T14:30:03.999Z</time></trkpt><trkpt lat="46.00379991089285" lon="12.020305328382193"><ele>1139.6</ele><time>2026-05-03T14:30:05.999Z</time></trkpt><trkpt lat="46.00389959784967" lon="12.0204071773975"><ele>1138.1999999999998</ele><time>2026-05-03T14:30:07.999Z</time></trkpt><trkpt lat="46.00399279505636" lon="12.020513124953988"><ele>1136.8000000000002</ele><time>2026-05-03T14:30:09.999Z</time></trkpt><trkpt lat="46.004044319895854" lon="12.020574009873064"><ele>1135.4</ele><time>2026-05-03T14:30:10.999Z</time></trkpt><trkpt lat="46.00413127575631" lon="12.020679615386342"><ele>1134.0</ele><time>2026-05-03T14:30:13Z</time></trkpt><trkpt lat="46.004224261751844" lon="12.02075864071454"><ele>1155.0</ele><time>2026-05-03T14:30:15Z</time></trkpt><trkpt lat="45.997902251728284" lon="12.01595011694068"><ele>1155.0</ele><time>2026-05-03T14:27:53.999Z</time></trkpt><trkpt lat="45.99798872859641" lon="12.01596495907112"><ele>1155.0</ele><time>2026-05-03T14:27:56.999Z</time></trkpt><trkpt lat="45.99809055210963" lon="12.015983502043785"><ele>1155.0</ele><time>2026-05-03T14:27:58.999Z</time></trkpt><trkpt lat="45.99819333283046" lon="12.016008344853812"><ele>1155.0</ele><time>2026-05-03T14:28:00.999Z</time></trkpt><trkpt lat="45.99826940411952" lon="12.016030057688809"><ele>1155.0</ele><time>2026-05-03T14:28:02.999Z</time></trkpt><trkpt lat="45.998358320482104" lon="12.016057674925989"><ele>1155.2</ele><time>2026-05-03T14:28:04.999Z</time></trkpt><trkpt lat="45.99845724401256" lon="12.016104021048763"><ele>1155.4</ele><time>2026-05-03T14:28:07Z</time></trkpt><trkpt lat="45.99854649922139" lon="12.016167447836711"><ele>1155.6</ele><time>2026-05-03T14:28:09Z</time></trkpt><trkpt lat="45.998631260217074" lon="12.01626736228626"><ele>1155.8</ele><time>2026-05-03T14:28:11Z</time></trkpt><trkpt lat="45.99871890056241" lon="12.016383817931281"><ele>1156.0</ele><time>2026-05-03T14:28:13Z</time></trkpt><trkpt lat="45.998817313534495" lon="12.016463966970116"><ele>1156.0</ele><time>2026-05-03T14:28:15Z</time></trkpt><trkpt lat="45.99893080701656" lon="12.016457499806961"><ele>1156.0</ele><time>2026-05-03T14:28:17Z</time></trkpt><trkpt lat="45.99899850148939" lon="12.016460925123845"><ele>1156.0</ele><time>2026-05-03T14:28:18Z</time></trkpt><trkpt lat="45.99909723752283" lon="12.016399981114791"><ele>1156.0</ele><time>2026-05-03T14:28:20Z</time></trkpt><trkpt lat="45.999193162755745" lon="12.016352520128907"><ele>1156.0</ele><time>2026-05-03T14:28:22Z</time></trkpt><trkpt lat="45.99930018013125" lon="12.016330507886432"><ele>1155.0</ele><time>2026-05-03T14:28:24Z</time></trkpt><trkpt lat="45.999412469309604" lon="12.016333848995146"><ele>1154.0</ele><time>2026-05-03T14:28:26Z</time></trkpt><trkpt lat="45.99952707455369" lon="12.016352937303221"><ele>1153.0</ele><time>2026-05-03T14:28:28Z</time></trkpt><trkpt lat="45.99960966686677" lon="12.016378487547467"><ele>1152.0</ele><time>2026-05-03T14:28:30Z</time></trkpt><trkpt lat="45.99971410205868" lon="12.01642646809486"><ele>1151.0</ele><time>2026-05-03T14:28:32Z</time></trkpt><trkpt lat="45.999816989336466" lon="12.016485897826541"><ele>1151.0</ele><time>2026-05-03T14:28:34Z</time></trkpt><trkpt lat="45.99992017006427" lon="12.016544529402255"><ele>1151.0</ele><time>2026-05-03T14:28:36Z</time></trkpt><trkpt lat="46.0000035636462" lon="12.016587456532406"><ele>1151.0</ele><time>2026-05-03T14:28:38Z</time></trkpt><trkpt lat="46.000120372699776" lon="12.016636603405951"><ele>1151.0</ele><time>2026-05-03T14:28:40Z</time></trkpt><trkpt lat="46.000215861768346" lon="12.016749196622078"><ele>1151.0</ele><time>2026-05-03T14:28:42Z</time></trkpt><trkpt lat="46.00028712374658" lon="12.016838635933489"><ele>1154.8333333333335</ele><time>2026-05-03T14:28:44Z</time></trkpt><trkpt lat="46.00033267201814" lon="12.016905492623335"><ele>1158.6666666666667</ele><time>2026-05-03T14:28:46Z</time></trkpt><trkpt lat="46.00036429906355" lon="12.01702389133432"><ele>1162.5</ele><time>2026-05-03T14:28:48Z</time></trkpt><trkpt lat="46.000375637601714" lon="12.017161569281992"><ele>1166.3333333333333</ele><time>2026-05-03T14:28:50Z</time></trkpt><trkpt lat="46.00039109369006" lon="12.017301614669147"><ele>1170.1666666666665</ele><time>2026-05-03T14:28:52Z</time></trkpt><trkpt lat="46.00040337242676" lon="12.017392020243385"><ele>1174.0</ele><time>2026-05-03T14:28:53Z</time></trkpt><trkpt lat="46.0004405942187" lon="12.017559138517395"><ele>1174.2</ele><time>2026-05-03T14:28:55Z</time></trkpt><trkpt lat="46.00047635963414" lon="12.017709421264843"><ele>1174.4</ele><time>2026-05-03T14:28:57Z</time></trkpt><trkpt lat="46.00053519910505" lon="12.017797890373128"><ele>1174.6</ele><time>2026-05-03T14:28:59Z</time></trkpt><trkpt lat="46.00059337260819" lon="12.017857161088905"><ele>1174.8</ele><time>2026-05-03T14:29:01Z</time></trkpt><trkpt lat="46.00067560719454" lon="12.017957279933391"><ele>1175.0</ele><time>2026-05-03T14:29:03Z</time></trkpt><trkpt lat="46.00073232544123" lon="12.018068190871343"><ele>1175.0</ele><time>2026-05-03T14:29:05Z</time></trkpt><trkpt lat="46.0008119650353" lon="12.018170604541291"><ele>1175.0</ele><time>2026-05-03T14:29:07Z</time></trkpt><trkpt lat="46.00090687484185" lon="12.018243913434192"><ele>1175.0</ele><time>2026-05-03T14:29:09Z</time></trkpt><trkpt lat="46.00101195711681" lon="12.018293176959721"><ele>1175.0</ele><time>2026-05-03T14:29:11Z</time></trkpt><trkpt lat="46.001124060256195" lon="12.018312927467859"><ele>1175.0</ele><time>2026-05-03T14:29:13Z</time></trkpt><trkpt lat="46.00120534243985" lon="12.018363283358978"><ele>1173.2</ele><time>2026-05-03T14:29:15Z</time></trkpt><trkpt lat="46.00131176760632" lon="12.018408923134468"><ele>1171.4</ele><time>2026-05-03T14:29:17Z</time></trkpt><trkpt lat="46.00142363162302" lon="12.018457775405377"><ele>1169.6</ele><time>2026-05-03T14:29:19Z</time></trkpt><trkpt lat="46.00153582601894" lon="12.018499728076259"><ele>1167.8</ele><time>2026-05-03T14:29:21Z</time></trkpt><trkpt lat="46.00163477253757" lon="12.01853879488909"><ele>1166.0</ele><time>2026-05-03T14:29:23Z</time></trkpt><trkpt lat="46.00172581505868" lon="12.018603783746876"><ele>1165.6</ele><time>2026-05-03T14:29:25Z</time></trkpt><trkpt lat="46.00182980323123" lon="12.01865854099442"><ele>1165.1999999999998</ele><time>2026-05-03T14:29:27Z</time></trkpt><trkpt lat="46.00191714947258" lon="12.018713362169901"><ele>1164.8000000000002</ele><time>2026-05-03T14:29:29Z</time></trkpt><trkpt lat="46.002011597304985" lon="12.018763923359213"><ele>1164.4</ele><time>2026-05-03T14:29:31Z</time></trkpt><trkpt lat="46.00208053176199" lon="12.018848071550805"><ele>1164.0</ele><time>2026-05-03T14:29:33Z</time></trkpt><trkpt lat="46.002150379918895" lon="12.01893814176251"><ele>1164.0</ele><time>2026-05-03T14:29:35Z</time></trkpt><trkpt lat="46.00223701408756" lon="12.019028666872137"><ele>1164.0</ele><time>2026-05-03T14:29:37Z</time></trkpt><trkpt lat="46.00230530000704" lon="12.0190890503143"><ele>1164.0</ele><time>2026-05-03T14:29:39Z</time></trkpt><trkpt lat="46.00236833076623" lon="12.01915771812899"><ele>1164.0</ele><time>2026-05-03T14:29:41Z</time></trkpt><trkpt lat="46.00244502404618" lon="12.019226742701505"><ele>1164.0</ele><time>2026-05-03T14:29:43Z</time></trkpt><trkpt lat="46.00252966642241" lon="12.019295097384763"><ele>1161.3333333333333</ele><time>2026-05-03T14:29:45Z</time></trkpt><trkpt lat="46.0026244697578" lon="12.019397816305128"><ele>1158.6666666666667</ele><time>2026-05-03T14:29:47Z</time></trkpt><trkpt lat="46.002683282477534" lon="12.019443684379299"><ele>1156.0</ele><time>2026-05-03T14:29:48Z</time></trkpt><trkpt lat="46.0027411004312" lon="12.019487930444306"><ele>1153.3333333333335</ele><time>2026-05-03T14:29:49Z</time></trkpt><trkpt lat="46.00280171601183" lon="12.019520054572856"><ele>1150.6666666666667</ele><time>2026-05-03T14:29:50Z</time></trkpt><trkpt lat="46.00287982344798" lon="12.019561624047467"><ele>1148.0</ele><time>2026-05-03T14:29:51Z</time></trkpt><trkpt lat="46.00295492232781" lon="12.019609657845018"><ele>1148.0</ele><time>2026-05-03T14:29:52Z</time></trkpt><trkpt lat="46.003027473755445" lon="12.019647677264366"><ele>1148.0</ele><time>2026-05-03T14:29:53Z</time></trkpt><trkpt lat="46.00311484948115" lon="12.019699824458366"><ele>1148.0</ele><time>2026-05-03T14:29:54Z</time></trkpt><trkpt lat="46.00319674435152" lon="12.019749643311142"><ele>1148.0</ele><time>2026-05-03T14:29:55Z</time></trkpt><trkpt lat="46.0032673418488" lon="12.019797495253183"><ele>1148.0</ele><time>2026-05-03T14:29:56Z</time></trkpt><trkpt lat="46.00332846963323" lon="12.019843905894813"><ele>1148.0</ele><time>2026-05-03T14:29:57Z</time></trkpt><trkpt lat="46.00338289438213" lon="12.019893072612374"><ele>1146.8333333333335</ele><time>2026-05-03T14:29:58Z</time></trkpt><trkpt lat="46.00344312380652" lon="12.019941617354311"><ele>1145.6666666666667</ele><time>2026-05-03T14:29:59Z</time></trkpt><trkpt lat="46.003495340155624" lon="12.019999340561498"><ele>1144.5</ele><time>2026-05-03T14:29:59.999Z</time></trkpt><trkpt lat="46.00354936005881" lon="12.020051542040203"><ele>1143.3333333333333</ele><time>2026-05-03T14:30:00.999Z</time></trkpt><trkpt lat="46.00361392866073" lon="12.020113912615367"><ele>1142.1666666666665</ele><time>2026-05-03T14:30:01.999Z</time></trkpt><trkpt lat="46.003706446984395" lon="12.02020585862638"><ele>1141.0</ele><time>2026-05-03T14:30:03.999Z</time></trkpt><trkpt lat="46.00379991089285" lon="12.020305328382193"><ele>1139.6</ele><time>2026-05-03T14:30:05.999Z</time></trkpt><trkpt lat="46.00389959784967" lon="12.0204071773975"><ele>1138.1999999999998</ele><time>2026-05-03T14:30:07.999Z</time></trkpt><trkpt lat="46.00399279505636" lon="12.020513124953988"><ele>1136.8000000000002</ele><time>2026-05-03T14:30:09.999Z</time></trkpt><trkpt lat="46.004044319895854" lon="12.020574009873064"><ele>1135.4</ele><time>2026-05-03T14:30:10.999Z</time></trkpt><trkpt lat="46.00413127575631" lon="12.020679615386342"><ele>1134.0</ele><time>2026-05-03T14:30:13Z</time></trkpt><trkpt lat="46.004224261751844" lon="12.02075864071454"><ele>1131.0</ele><time>2026-05-03T14:30:15Z</time></trkpt><trkpt lat="46.00430434299055" lon="12.020859851922326"><ele>1128.0</ele><time>2026-05-03T14:30:17Z</time></trkpt><trkpt lat="46.00439793576674" lon="12.020920905760006"><ele>1125.0</ele><time>2026-05-03T14:30:19Z</time></trkpt><trkpt lat="46.004515751577976" lon="12.020966757258321"><ele>1122.0</ele><time>2026-05-03T14:30:21Z</time></trkpt><trkpt lat="46.00459772236236" lon="12.02095761953231"><ele>1119.0</ele><time>2026-05-03T14:30:22Z</time></trkpt><trkpt lat="46.00466744450569" lon="12.020980955701908"><ele>1119.0</ele><time>2026-05-03T14:30:23Z</time></trkpt><trkpt lat="46.004745568957446" lon="12.020983349356975"><ele>1119.0</ele><time>2026-05-03T14:30:24Z</time></trkpt><trkpt lat="46.00486876894656" lon="12.021008874004798"><ele>1119.0</ele><time>2026-05-03T14:30:26Z</time></trkpt><trkpt lat="46.00493819382378" lon="12.02103134363236"><ele>1119.0</ele><time>2026-05-03T14:30:27Z</time></trkpt><trkpt lat="46.005000952663686" lon="12.021090327400643"><ele>1119.0</ele><time>2026-05-03T14:30:28Z</time></trkpt><trkpt lat="46.005070258875946" lon="12.021138962402471"><ele>1119.0</ele><time>2026-05-03T14:30:29Z</time></trkpt><trkpt lat="46.00513440144247" lon="12.021189591758013"><ele>1119.1666666666667</ele><time>2026-05-03T14:30:30Z</time></trkpt><trkpt lat="46.005200622180666" lon="12.02124169718912"><ele>1119.3333333333333</ele><time>2026-05-03T14:30:31Z</time></trkpt><trkpt lat="46.005265254333935" lon="12.021292882921948"><ele>1119.5</ele><time>2026-05-03T14:30:32Z</time></trkpt><trkpt lat="46.00532575992222" lon="12.02136416211336"><ele>1119.6666666666665</ele><time>2026-05-03T14:30:33Z</time></trkpt><trkpt lat="46.005384525865985" lon="12.0213984631689"><ele>1119.8333333333333</ele><time>2026-05-03T14:30:34Z</time></trkpt><trkpt lat="46.00548632867116" lon="12.021421389837338"><ele>1120.0</ele><time>2026-05-03T14:30:36Z</time></trkpt><trkpt lat="46.005547930484234" lon="12.021453730584094"><ele>1120.0</ele><time>2026-05-03T14:30:37Z</time></trkpt><trkpt lat="46.005610145132785" lon="12.021522905642808"><ele>1120.0</ele><time>2026-05-03T14:30:38Z</time></trkpt><trkpt lat="46.00566416462314" lon="12.021575292828862"><ele>1120.0</ele><time>2026-05-03T14:30:39Z</time></trkpt><trkpt lat="46.00571677109803" lon="12.021631558365872"><ele>1120.0</ele><time>2026-05-03T14:30:40Z</time></trkpt><trkpt lat="46.005828004950885" lon="12.02172549139795"><ele>1120.0</ele><time>2026-05-03T14:30:42Z</time></trkpt><trkpt lat="46.00592309371268" lon="12.021850128090744"><ele>1117.4</ele><time>2026-05-03T14:30:44Z</time></trkpt><trkpt lat="46.00597750457625" lon="12.021908541911309"><ele>1114.8</ele><time>2026-05-03T14:30:45Z</time></trkpt><trkpt lat="46.00607975902742" lon="12.021972837305386"><ele>1112.2</ele><time>2026-05-03T14:30:47Z</time></trkpt><trkpt lat="46.006175370610784" lon="12.022040404178501"><ele>1109.6</ele><time>2026-05-03T14:30:49Z</time></trkpt><trkpt lat="46.00625598152134" lon="12.022087563044998"><ele>1107.0</ele><time>2026-05-03T14:30:51Z</time></trkpt><trkpt lat="46.00634796487559" lon="12.022125860669036"><ele>1107.0</ele><time>2026-05-03T14:30:53Z</time></trkpt><trkpt lat="46.00643857095197" lon="12.022162695516167"><ele>1107.0</ele><time>2026-05-03T14:30:55Z</time></trkpt><trkpt lat="46.00653136684134" lon="12.022216517598999"><ele>1107.0</ele><time>2026-05-03T14:30:57Z</time></trkpt><trkpt lat="46.00662809963218" lon="12.022251261267686"><ele>1107.0</ele><time>2026-05-03T14:30:59Z</time></trkpt><trkpt lat="46.00673768244942" lon="12.022283410780165"><ele>1107.0</ele><time>2026-05-03T14:31:01Z</time></trkpt><trkpt lat="46.006822494322414" lon="12.022338810344129"><ele>1103.75</ele><time>2026-05-03T14:31:03Z</time></trkpt><trkpt lat="46.00692645126101" lon="12.022392493276378"><ele>1100.5</ele><time>2026-05-03T14:31:05Z</time></trkpt><trkpt lat="46.007030227598364" lon="12.022453345849682"><ele>1097.25</ele><time>2026-05-03T14:31:07Z</time></trkpt><trkpt lat="46.00714015374459" lon="12.022523915027948"><ele>1094.0</ele><time>2026-05-03T14:31:09Z</time></trkpt><trkpt lat="46.00724253751333" lon="12.022623640727213"><ele>1092.0</ele><time>2026-05-03T14:31:11Z</time></trkpt><trkpt lat="46.00732756878614" lon="12.022727064109727"><ele>1090.0</ele><time>2026-05-03T14:31:13Z</time></trkpt><trkpt lat="46.00741089678616" lon="12.022821797319397"><ele>1088.0</ele><time>2026-05-03T14:31:15Z</time></trkpt><trkpt lat="46.007493141112896" lon="12.02290598750439"><ele>1086.0</ele><time>2026-05-03T14:31:17Z</time></trkpt><trkpt lat="46.00758483515489" lon="12.022969765846511"><ele>1084.0</ele><time>2026-05-03T14:31:19Z</time></trkpt><trkpt lat="46.007667459679865" lon="12.023011533244311"><ele>1082.142857142857</ele><time>2026-05-03T14:31:21Z</time></trkpt><trkpt lat="46.00773729107806" lon="12.023037371094016"><ele>1080.2857142857142</ele><time>2026-05-03T14:31:24Z</time></trkpt><trkpt lat="46.007795048564276" lon="12.023087147175941"><ele>1078.4285714285716</ele><time>2026-05-03T14:36:06.999Z</time></trkpt><trkpt lat="46.00785605536362" lon="12.023118413079434"><ele>1076.5714285714284</ele><time>2026-05-03T14:37:57.999Z</time></trkpt><trkpt lat="46.0079307692141" lon="12.023139446866143"><ele>1074.7142857142858</ele><time>2026-05-03T14:37:59.999Z</time></trkpt><trkpt lat="46.007998061022846" lon="12.023143808426083"><ele>1072.857142857143</ele><time>2026-05-03T14:38:00.999Z</time></trkpt><trkpt lat="46.008099836412505" lon="12.02314623836134"><ele>1071.0</ele><time>2026-05-03T14:38:02.999Z</time></trkpt><trkpt lat="46.008164379598455" lon="12.023130954896052"><ele>1071.0</ele><time>2026-05-03T14:38:03.999Z</time></trkpt><trkpt lat="46.00827267137028" lon="12.0230963104665"><ele>1071.0</ele><time>2026-05-03T14:38:05.999Z</time></trkpt><trkpt lat="46.008348613960315" lon="12.02307176107521"><ele>1071.0</ele><time>2026-05-03T14:38:06.999Z</time></trkpt><trkpt lat="46.00846461769045" lon="12.023046380284304"><ele>1071.0</ele><time>2026-05-03T14:38:08.999Z</time></trkpt><trkpt lat="46.00857534247298" lon="12.023089894240123"><ele>1071.0</ele><time>2026-05-03T14:38:10.999Z</time></trkpt><trkpt lat="46.008644492117014" lon="12.02313426056499"><ele>1068.6666666666667</ele><time>2026-05-03T14:38:11.999Z</time></trkpt><trkpt lat="46.008712995537415" lon="12.023201891453196"><ele>1066.3333333333333</ele><time>2026-05-03T14:38:12.999Z</time></trkpt><trkpt lat="46.00878011915952" lon="12.023273983059296"><ele>1064.0</ele><time>2026-05-03T14:38:13.999Z</time></trkpt><trkpt lat="46.008836250632264" lon="12.023346643326445"><ele>1061.6666666666665</ele><time>2026-05-03T14:38:14.999Z</time></trkpt><trkpt lat="46.00890759861211" lon="12.02342829490099"><ele>1059.3333333333333</ele><time>2026-05-03T14:38:15.999Z</time></trkpt><trkpt lat="46.008975413488514" lon="12.023549384368762"><ele>1057.0</ele><time>2026-05-03T14:38:16.999Z</time></trkpt><trkpt lat="46.00904189454772" lon="12.023638069699123"><ele>1057.0</ele><time>2026-05-03T14:38:17.999Z</time></trkpt><trkpt lat="46.00910527056602" lon="12.02372114439688"><ele>1057.0</ele><time>2026-05-03T14:38:18.999Z</time></trkpt><trkpt lat="46.00916435955357" lon="12.02379725662237"><ele>1057.0</ele><time>2026-05-03T14:38:19.999Z</time></trkpt><trkpt lat="46.009232744369115" lon="12.023885342664721"><ele>1057.0</ele><time>2026-05-03T14:38:20.999Z</time></trkpt><trkpt lat="46.009305421239866" lon="12.023954540837737"><ele>1057.0</ele><time>2026-05-03T14:38:21.999Z</time></trkpt><trkpt lat="46.0093738861795" lon="12.02403961827607"><ele>1057.0</ele><time>2026-05-03T14:38:22.999Z</time></trkpt><trkpt lat="46.00944233345772" lon="12.024113212158408"><ele>1055.6</ele><time>2026-05-03T14:38:23.999Z</time></trkpt><trkpt lat="46.00951402417056" lon="12.024179042196957"><ele>1054.2</ele><time>2026-05-03T14:38:24.999Z</time></trkpt><trkpt lat="46.00960164940483" lon="12.024241131585866"><ele>1052.8</ele><time>2026-05-03T14:38:25.999Z</time></trkpt><trkpt lat="46.00969355316135" lon="12.024289959724683"><ele>1051.4</ele><time>2026-05-03T14:38:26.999Z</time></trkpt><trkpt lat="46.009791246346076" lon="12.024332589378126"><ele>1050.0</ele><time>2026-05-03T14:38:27.999Z</time></trkpt><trkpt lat="46.00989774326785" lon="12.02439928045159"><ele>1046.8</ele><time>2026-05-03T14:38:28.999Z</time></trkpt><trkpt lat="46.00999438371414" lon="12.024439935308628"><ele>1043.6</ele><time>2026-05-03T14:38:29.999Z</time></trkpt><trkpt lat="46.01007913839206" lon="12.024467956314801"><ele>1040.4</ele><time>2026-05-03T14:38:30.999Z</time></trkpt><trkpt lat="46.01016752379261" lon="12.024512273323904"><ele>1037.2</ele><time>2026-05-03T14:38:31.999Z</time></trkpt><trkpt lat="46.010260216101116" lon="12.024555506315766"><ele>1034.0</ele><time>2026-05-03T14:38:32.999Z</time></trkpt><trkpt lat="46.01033390796328" lon="12.0245782261717"><ele>1034.0</ele><time>2026-05-03T14:38:33.999Z</time></trkpt><trkpt lat="46.01043043616927" lon="12.024603089954477"><ele>1034.0</ele><time>2026-05-03T14:38:34.999Z</time></trkpt><trkpt lat="46.01051853901388" lon="12.024622652094722"><ele>1034.0</ele><time>2026-05-03T14:38:35.999Z</time></trkpt><trkpt lat="46.01061334734735" lon="12.024634368550505"><ele>1034.0</ele><time>2026-05-03T14:38:37Z</time></trkpt><trkpt lat="46.01069617446969" lon="12.024630683738364"><ele>1034.0</ele><time>2026-05-03T14:38:38Z</time></trkpt><trkpt lat="46.01079614992763" lon="12.024607152910882"><ele>1029.0</ele><time>2026-05-03T14:38:39Z</time></trkpt><trkpt lat="46.01090469302583" lon="12.024551393005181"><ele>1024.0</ele><time>2026-05-03T14:38:40Z</time></trkpt><trkpt lat="46.010998926386854" lon="12.024525717747693"><ele>1019.0000000000001</ele><time>2026-05-03T14:38:41Z</time></trkpt><trkpt lat="46.01109453757366" lon="12.02445608351794"><ele>1014.0</ele><time>2026-05-03T14:38:42Z</time></trkpt><trkpt lat="46.011179988862416" lon="12.02442551360197"><ele>1009.0</ele><time>2026-05-03T14:38:43Z</time></trkpt><trkpt lat="46.01125674404979" lon="12.024397837595297"><ele>1009.0</ele><time>2026-05-03T14:38:44Z</time></trkpt><trkpt lat="46.01133705996274" lon="12.024383855385095"><ele>1009.0000000000001</ele><time>2026-05-03T14:38:45Z</time></trkpt><trkpt lat="46.01143317132493" lon="12.024388925923796"><ele>1009.0000000000001</ele><time>2026-05-03T14:38:46Z</time></trkpt><trkpt lat="46.011549497850126" lon="12.024432760820963"><ele>1009.0</ele><time>2026-05-03T14:38:47Z</time></trkpt><trkpt lat="46.01165374728979" lon="12.02446778887793"><ele>1009.0</ele><time>2026-05-03T14:38:48Z</time></trkpt><trkpt lat="46.01176283756987" lon="12.024493440116911"><ele>1007.0</ele><time>2026-05-03T14:38:49Z</time></trkpt><trkpt lat="46.01186481680967" lon="12.024533383080044"><ele>1005.0000000000001</ele><time>2026-05-03T14:38:50Z</time></trkpt><trkpt lat="46.01196357337989" lon="12.024598285338644"><ele>1003.0000000000001</ele><time>2026-05-03T14:38:51Z</time></trkpt><trkpt lat="46.01204637364493" lon="12.024628914593968"><ele>1001.0</ele><time>2026-05-03T14:38:52Z</time></trkpt><trkpt lat="46.012175472799335" lon="12.024651953659285"><ele>999.0</ele><time>2026-05-03T14:38:53Z</time></trkpt><trkpt lat="46.01225279217994" lon="12.0246958942981"><ele>999.0</ele><time>2026-05-03T14:38:54Z</time></trkpt><trkpt lat="46.012318511214296" lon="12.024728597585272"><ele>999.0000000000001</ele><time>2026-05-03T14:38:55Z</time></trkpt><trkpt lat="46.01239260302625" lon="12.024769735151523"><ele>999.0000000000001</ele><time>2026-05-03T14:38:56Z</time></trkpt><trkpt lat="46.012494067240134" lon="12.024918029339068"><ele>999.0</ele><time>2026-05-03T14:38:58Z</time></trkpt><trkpt lat="46.012554543053994" lon="12.025029876004405"><ele>999.0</ele><time>2026-05-03T14:38:59Z</time></trkpt><trkpt lat="46.012616389263506" lon="12.02513857695298"><ele>998.0</ele><time>2026-05-03T14:39:00Z</time></trkpt><trkpt lat="46.01268368014909" lon="12.02523495003202"><ele>997.0000000000001</ele><time>2026-05-03T14:39:01Z</time></trkpt><trkpt lat="46.01275947993918" lon="12.025310190695203"><ele>996.0000000000001</ele><time>2026-05-03T14:39:02Z</time></trkpt><trkpt lat="46.01285402006041" lon="12.025365790101931"><ele>995.0</ele><time>2026-05-03T14:39:03Z</time></trkpt><trkpt lat="46.01294615938375" lon="12.025401139367059"><ele>994.0</ele><time>2026-05-03T14:39:04Z</time></trkpt><trkpt lat="46.013024187668066" lon="12.025459391980647"><ele>994.0</ele><time>2026-05-03T14:39:05Z</time></trkpt><trkpt lat="46.01311193068459" lon="12.025503899087884"><ele>994.0000000000001</ele><time>2026-05-03T14:39:06Z</time></trkpt><trkpt lat="46.013186316519715" lon="12.025548027825579"><ele>994.0000000000001</ele><time>2026-05-03T14:39:07Z</time></trkpt><trkpt lat="46.01327606622651" lon="12.02561079351203"><ele>994.0</ele><time>2026-05-03T14:39:08Z</time></trkpt><trkpt lat="46.013345707872645" lon="12.025666029556408"><ele>994.0</ele><time>2026-05-03T14:39:09Z</time></trkpt><trkpt lat="46.01341048016972" lon="12.025772455250006"><ele>991.4000000000001</ele><time>2026-05-03T14:39:10Z</time></trkpt><trkpt lat="46.01347265773462" lon="12.025926519188333"><ele>988.8000000000001</ele><time>2026-05-03T14:39:11Z</time></trkpt><trkpt lat="46.01352270979555" lon="12.026059665421677"><ele>986.1999999999999</ele><time>2026-05-03T14:39:12Z</time></trkpt><trkpt lat="46.013569897186834" lon="12.026203859011558"><ele>983.5999999999999</ele><time>2026-05-03T14:39:13Z</time></trkpt><trkpt lat="46.013607229467425" lon="12.026335409531955"><ele>981.0</ele><time>2026-05-03T14:39:14Z</time></trkpt><trkpt lat="46.01363760366351" lon="12.026464980026336"><ele>981.0</ele><time>2026-05-03T14:39:15Z</time></trkpt><trkpt lat="46.01367091999191" lon="12.026597435717086"><ele>980.9999999999999</ele><time>2026-05-03T14:39:16Z</time></trkpt><trkpt lat="46.013726752326704" lon="12.026738786785403"><ele>980.9999999999999</ele><time>2026-05-03T14:39:17Z</time></trkpt><trkpt lat="46.013792775525935" lon="12.02685892507378"><ele>981.0</ele><time>2026-05-03T14:39:18Z</time></trkpt><trkpt lat="46.01385364813344" lon="12.026964738568372"><ele>981.0</ele><time>2026-05-03T14:39:19Z</time></trkpt><trkpt lat="46.013919447395246" lon="12.027077557903032"><ele>980.8</ele><time>2026-05-03T14:39:20Z</time></trkpt><trkpt lat="46.013987058101264" lon="12.027181240370433"><ele>980.5999999999999</ele><time>2026-05-03T14:39:21Z</time></trkpt><trkpt lat="46.01404339896893" lon="12.027299202108281"><ele>980.4</ele><time>2026-05-03T14:39:22Z</time></trkpt><trkpt lat="46.0140900947111" lon="12.02740557120961"><ele>980.2</ele><time>2026-05-03T14:39:23Z</time></trkpt><trkpt lat="46.01414889517994" lon="12.02752421567937"><ele>980.0</ele><time>2026-05-03T14:39:24Z</time></trkpt><trkpt lat="46.014197788084566" lon="12.0276303848698"><ele>974.5000000000001</ele><time>2026-05-03T14:39:25Z</time></trkpt><trkpt lat="46.014234934376006" lon="12.027719727257788"><ele>969.0</ele><time>2026-05-03T14:39:26Z</time></trkpt><trkpt lat="46.01428904037809" lon="12.02781205999934"><ele>963.5</ele><time>2026-05-03T14:39:27Z</time></trkpt><trkpt lat="46.01434231249503" lon="12.027913275636678"><ele>958.0</ele><time>2026-05-03T14:39:28Z</time></trkpt><trkpt lat="46.01440728121762" lon="12.028022272053574"><ele>952.5000000000001</ele><time>2026-05-03T14:39:29Z</time></trkpt><trkpt lat="46.01445356775812" lon="12.028111956979206"><ele>947.0</ele><time>2026-05-03T14:39:30Z</time></trkpt><trkpt lat="46.014498995133245" lon="12.028203797604771"><ele>947.0</ele><time>2026-05-03T14:39:31Z</time></trkpt><trkpt lat="46.01454569724784" lon="12.028293174944052"><ele>947.0</ele><time>2026-05-03T14:39:32Z</time></trkpt><trkpt lat="46.0145995596323" lon="12.02838652777599"><ele>947.0</ele><time>2026-05-03T14:39:33Z</time></trkpt><trkpt lat="46.014633749024334" lon="12.02849025295203"><ele>947.0</ele><time>2026-05-03T14:39:34Z</time></trkpt><trkpt lat="46.014677958954884" lon="12.028578527918762"><ele>947.0</ele><time>2026-05-03T14:39:35Z</time></trkpt><trkpt lat="46.01471171159237" lon="12.028767688556792"><ele>946.1666666666667</ele><time>2026-05-03T14:39:37Z</time></trkpt><trkpt lat="46.014716482743815" lon="12.028874100529295"><ele>945.3333333333334</ele><time>2026-05-03T14:39:38Z</time></trkpt><trkpt lat="46.01471130482157" lon="12.02898608219007"><ele>944.5</ele><time>2026-05-03T14:39:39Z</time></trkpt><trkpt lat="46.01471378554184" lon="12.029092940169974"><ele>943.6666666666667</ele><time>2026-05-03T14:39:40Z</time></trkpt><trkpt lat="46.014702744186664" lon="12.029197679339514"><ele>942.8333333333334</ele><time>2026-05-03T14:39:41Z</time></trkpt><trkpt lat="46.01472156449109" lon="12.029314910261142"><ele>942.0</ele><time>2026-05-03T14:39:42Z</time></trkpt><trkpt lat="46.01475717329978" lon="12.029425927167877"><ele>940.1666666666666</ele><time>2026-05-03T14:39:43Z</time></trkpt><trkpt lat="46.014795151302735" lon="12.029525987047641"><ele>938.3333333333333</ele><time>2026-05-03T14:39:44Z</time></trkpt><trkpt lat="46.01483484237101" lon="12.029620249941713"><ele>936.5</ele><time>2026-05-03T14:39:45Z</time></trkpt><trkpt lat="46.01487747639373" lon="12.029706600589689"><ele>934.6666666666666</ele><time>2026-05-03T14:39:46Z</time></trkpt><trkpt lat="46.01492581865422" lon="12.02978979595464"><ele>932.8333333333333</ele><time>2026-05-03T14:39:47Z</time></trkpt><trkpt lat="46.01497919592148" lon="12.02986686581249"><ele>931.0</ele><time>2026-05-03T14:39:48Z</time></trkpt><trkpt lat="46.01503125050017" lon="12.029938825322299"><ele>928.8571428571429</ele><time>2026-05-03T14:39:49Z</time></trkpt><trkpt lat="46.01508941214961" lon="12.030009500388644"><ele>926.7142857142858</ele><time>2026-05-03T14:39:50Z</time></trkpt><trkpt lat="46.01514295612017" lon="12.030071718554598"><ele>924.5714285714286</ele><time>2026-05-03T14:39:51Z</time></trkpt><trkpt lat="46.01521216710316" lon="12.030121960209184"><ele>922.4285714285714</ele><time>2026-05-03T14:39:52Z</time></trkpt><trkpt lat="46.01527125023243" lon="12.03017783961658"><ele>920.2857142857143</ele><time>2026-05-03T14:39:53Z</time></trkpt><trkpt lat="46.01532854250605" lon="12.03021629063638"><ele>918.1428571428571</ele><time>2026-05-03T14:39:54Z</time></trkpt><trkpt lat="46.015393285938465" lon="12.030233359495897"><ele>916.0</ele><time>2026-05-03T14:39:55Z</time></trkpt><trkpt lat="46.0155168609094" lon="12.030242763683342"><ele>916.0</ele><time>2026-05-03T14:39:57Z</time></trkpt><trkpt lat="46.01563943640581" lon="12.030200002877583"><ele>915.9999999999999</ele><time>2026-05-03T14:39:59Z</time></trkpt><trkpt lat="46.01571310229848" lon="12.03015043908961"><ele>915.9999999999999</ele><time>2026-05-03T14:40:00Z</time></trkpt><trkpt lat="46.01576521825729" lon="12.030075283488888"><ele>916.0</ele><time>2026-05-03T14:40:01Z</time></trkpt><trkpt lat="46.01579456637624" lon="12.029982196688335"><ele>916.0</ele><time>2026-05-03T14:40:02Z</time></trkpt><trkpt lat="46.01581266593251" lon="12.029841154653722"><ele>917.4</ele><time>2026-05-03T14:40:03Z</time></trkpt><trkpt lat="46.01580103788013" lon="12.029679464914995"><ele>918.8</ele><time>2026-05-03T14:40:04Z</time></trkpt><trkpt lat="46.01575532330113" lon="12.02952649129833"><ele>920.1999999999999</ele><time>2026-05-03T14:40:05Z</time></trkpt><trkpt lat="46.01571860178308" lon="12.029404657926843"><ele>921.5999999999999</ele><time>2026-05-03T14:40:06Z</time></trkpt><trkpt lat="46.01568150157369" lon="12.029283202960508"><ele>923.0</ele><time>2026-05-03T14:40:06.999Z</time></trkpt><trkpt lat="46.01564791026669" lon="12.029115235973444"><ele>923.8</ele><time>2026-05-03T14:40:08.999Z</time></trkpt><trkpt lat="46.01566618054914" lon="12.028984842964723"><ele>924.5999999999999</ele><time>2026-05-03T14:40:10.999Z</time></trkpt><trkpt lat="46.01573514328389" lon="12.028873636625441"><ele>925.4000000000001</ele><time>2026-05-03T14:40:12.999Z</time></trkpt><trkpt lat="46.01584818406508" lon="12.02891589073823"><ele>926.2</ele><time>2026-05-03T14:40:14.999Z</time></trkpt><trkpt lat="46.01589754677616" lon="12.029032960034113"><ele>927.0</ele><time>2026-05-03T14:40:15.999Z</time></trkpt><trkpt lat="46.01593181417171" lon="12.029194459259493"><ele>922.2</ele><time>2026-05-03T14:40:16.999Z</time></trkpt><trkpt lat="46.01596815358668" lon="12.029366765127582"><ele>917.4000000000001</ele><time>2026-05-03T14:40:17.999Z</time></trkpt><trkpt lat="46.016002612749595" lon="12.029504892606386"><ele>912.5999999999999</ele><time>2026-05-03T14:40:18.999Z</time></trkpt><trkpt lat="46.016041554153354" lon="12.029630695546837"><ele>907.8</ele><time>2026-05-03T14:40:19.999Z</time></trkpt><trkpt lat="46.016094739216484" lon="12.02977417734914"><ele>903.0</ele><time>2026-05-03T14:40:20.999Z</time></trkpt><trkpt lat="46.01616730220082" lon="12.029926791064197"><ele>903.0</ele><time>2026-05-03T14:40:21.999Z</time></trkpt><trkpt lat="46.016236183717005" lon="12.03005185784336"><ele>903.0</ele><time>2026-05-03T14:40:22.999Z</time></trkpt><trkpt lat="46.01630587150977" lon="12.030160417972645"><ele>903.0</ele><time>2026-05-03T14:40:23.999Z</time></trkpt><trkpt lat="46.01637448679005" lon="12.030265848336128"><ele>903.0</ele><time>2026-05-03T14:40:24.999Z</time></trkpt><trkpt lat="46.01643510744308" lon="12.030357065563825"><ele>903.0</ele><time>2026-05-03T14:40:25.999Z</time></trkpt><trkpt lat="46.016488245809875" lon="12.03045285440535"><ele>903.0</ele><time>2026-05-03T14:40:26.999Z</time></trkpt><trkpt lat="46.01654289658347" lon="12.030530143195882"><ele>903.0</ele><time>2026-05-03T14:40:27.999Z</time></trkpt><trkpt lat="46.01665774845181" lon="12.030620199308775"><ele>903.0</ele><time>2026-05-03T14:40:29.999Z</time></trkpt><trkpt lat="46.01672671140532" lon="12.030621324024432"><ele>903.0</ele><time>2026-05-03T14:40:30.999Z</time></trkpt><trkpt lat="46.01679715555712" lon="12.030572879538875"><ele>903.0</ele><time>2026-05-03T14:40:31.999Z</time></trkpt><trkpt lat="46.01686885006092" lon="12.03050483908085"><ele>903.0</ele><time>2026-05-03T14:40:32.999Z</time></trkpt><trkpt lat="46.016885995416175" lon="12.030341182914079"><ele>899.1666666666666</ele><time>2026-05-03T14:40:33.999Z</time></trkpt><trkpt lat="46.01691182786193" lon="12.030164277731505"><ele>895.3333333333333</ele><time>2026-05-03T14:40:34.999Z</time></trkpt><trkpt lat="46.01693526170364" lon="12.0300191143219"><ele>891.5</ele><time>2026-05-03T14:40:35.999Z</time></trkpt><trkpt lat="46.01696300269009" lon="12.02992341266366"><ele>887.6666666666666</ele><time>2026-05-03T14:40:36.999Z</time></trkpt><trkpt lat="46.0169745555199" lon="12.029823599015035"><ele>883.8333333333333</ele><time>2026-05-03T14:40:37.999Z</time></trkpt><trkpt lat="46.01696403485121" lon="12.029726573791933"><ele>880.0</ele><time>2026-05-03T14:40:38.999Z</time></trkpt><trkpt lat="46.01696103402943" lon="12.029635937655405"><ele>879.8333333333333</ele><time>2026-05-03T14:40:39.999Z</time></trkpt><trkpt lat="46.016961184156564" lon="12.029523706954771"><ele>879.6666666666666</ele><time>2026-05-03T14:40:40.999Z</time></trkpt><trkpt lat="46.0169349128763" lon="12.029417986478064"><ele>879.5</ele><time>2026-05-03T14:40:41.999Z</time></trkpt><trkpt lat="46.01690959789051" lon="12.029323749311384"><ele>879.3333333333333</ele><time>2026-05-03T14:40:43Z</time></trkpt><trkpt lat="46.01688061621345" lon="12.029225614875948"><ele>879.1666666666666</ele><time>2026-05-03T14:40:44Z</time></trkpt><trkpt lat="46.016838640696314" lon="12.029129696919233"><ele>879.0</ele><time>2026-05-03T14:40:45Z</time></trkpt><trkpt lat="46.01681826467456" lon="12.029031409620302"><ele>878.1666666666666</ele><time>2026-05-03T14:40:46Z</time></trkpt><trkpt lat="46.01683405560723" lon="12.028938601078297"><ele>877.3333333333333</ele><time>2026-05-03T14:40:47Z</time></trkpt><trkpt lat="46.01689646326233" lon="12.028813052200523"><ele>876.5</ele><time>2026-05-03T14:40:49Z</time></trkpt><trkpt lat="46.016953061229444" lon="12.028769262838034"><ele>875.6666666666666</ele><time>2026-05-03T14:40:50Z</time></trkpt><trkpt lat="46.017020602937514" lon="12.028718891865328"><ele>874.8333333333333</ele><time>2026-05-03T14:40:51Z</time></trkpt><trkpt lat="46.01711771150377" lon="12.0287168818529"><ele>874.0</ele><time>2026-05-03T14:40:52Z</time></trkpt><trkpt lat="46.01722094749343" lon="12.028670880849806"><ele>873.9999999999999</ele><time>2026-05-03T14:40:53Z</time></trkpt><trkpt lat="46.01732920938675" lon="12.028657008561334"><ele>874.0</ele><time>2026-05-03T14:40:54Z</time></trkpt><trkpt lat="46.01742018074847" lon="12.02864704315237"><ele>874.0</ele><time>2026-05-03T14:40:55Z</time></trkpt><trkpt lat="46.017502195482635" lon="12.028609663692007"><ele>874.0</ele><time>2026-05-03T14:40:56Z</time></trkpt><trkpt lat="46.01756924968098" lon="12.028550965233448"><ele>873.9999999999999</ele><time>2026-05-03T14:40:57Z</time></trkpt><trkpt lat="46.01761628108684" lon="12.028449653115882"><ele>874.0</ele><time>2026-05-03T14:40:58Z</time></trkpt><trkpt lat="46.01766339460887" lon="12.028337432017523"><ele>871.0</ele><time>2026-05-03T14:40:59Z</time></trkpt><trkpt lat="46.01768259262538" lon="12.028174599198158"><ele>868.0</ele><time>2026-05-03T14:41:00Z</time></trkpt><trkpt lat="46.0176853064199" lon="12.027966920694306"><ele>865.0</ele><time>2026-05-03T14:41:01Z</time></trkpt><trkpt lat="46.017687382914836" lon="12.027796510475355"><ele>862.0</ele><time>2026-05-03T14:41:02Z</time></trkpt><trkpt lat="46.017689716841474" lon="12.02764031323597"><ele>861.0</ele><time>2026-05-03T14:41:03Z</time></trkpt><trkpt lat="46.017683796366" lon="12.027457709228894"><ele>860.0</ele><time>2026-05-03T14:41:04Z</time></trkpt><trkpt lat="46.01768878310429" lon="12.027318554447712"><ele>859.0</ele><time>2026-05-03T14:41:05Z</time></trkpt><trkpt lat="46.01769230758144" lon="12.027186609176118"><ele>858.0</ele><time>2026-05-03T14:41:06Z</time></trkpt><trkpt lat="46.01769512126922" lon="12.02704539098919"><ele>857.0</ele><time>2026-05-03T14:41:07Z</time></trkpt><trkpt lat="46.017698809457634" lon="12.026934880543251"><ele>857.0000000000001</ele><time>2026-05-03T14:41:08Z</time></trkpt><trkpt lat="46.01770384501488" lon="12.026839894801613"><ele>857.0</ele><time>2026-05-03T14:41:09Z</time></trkpt><trkpt lat="46.017751528423354" lon="12.02668408613721"><ele>857.0</ele><time>2026-05-03T14:41:11Z</time></trkpt><trkpt lat="46.0178036712598" lon="12.026632460554989"><ele>857.0</ele><time>2026-05-03T14:41:12Z</time></trkpt><trkpt lat="46.017871098413515" lon="12.026604598577954"><ele>857.0000000000001</ele><time>2026-05-03T14:41:13Z</time></trkpt><trkpt lat="46.01794493004932" lon="12.02662710530569"><ele>857.0</ele><time>2026-05-03T14:41:14Z</time></trkpt><trkpt lat="46.01798866396812" lon="12.02671996662327"><ele>857.0000000000001</ele><time>2026-05-03T14:41:15Z</time></trkpt><trkpt lat="46.01804508765989" lon="12.026788068074504"><ele>857.0</ele><time>2026-05-03T14:41:16Z</time></trkpt><trkpt lat="46.01812882539747" lon="12.02689144129089"><ele>857.0</ele><time>2026-05-03T14:41:18Z</time></trkpt><trkpt lat="46.01819120226234" lon="12.026931641645161"><ele>857.0</ele><time>2026-05-03T14:41:21Z</time></trkpt><trkpt lat="46.01825486800677" lon="12.026988182610362"><ele>857.0000000000001</ele><time>2026-05-03T14:41:48Z</time></trkpt><trkpt lat="46.01833046325398" lon="12.0269517582183"><ele>857.0</ele><time>2026-05-03T14:41:50Z</time></trkpt><trkpt lat="46.018418008501605" lon="12.026861612497997"><ele>853.6</ele><time>2026-05-03T14:41:52Z</time></trkpt><trkpt lat="46.01845120813859" lon="12.026756171563818"><ele>850.2</ele><time>2026-05-03T14:41:53Z</time></trkpt><trkpt lat="46.01845796759308" lon="12.026611642940907"><ele>846.8</ele><time>2026-05-03T14:41:54Z</time></trkpt><trkpt lat="46.01844949857323" lon="12.026493653257631"><ele>843.4</ele><time>2026-05-03T14:41:55Z</time></trkpt><trkpt lat="46.018445446043906" lon="12.02637057162568"><ele>840.0</ele><time>2026-05-03T14:41:56Z</time></trkpt><trkpt lat="46.01844056647336" lon="12.026222372321426"><ele>838.4</ele><time>2026-05-03T14:41:57Z</time></trkpt><trkpt lat="46.01843635322432" lon="12.026090445018758"><ele>836.8</ele><time>2026-05-03T14:41:58Z</time></trkpt><trkpt lat="46.018434050236415" lon="12.025969154358506"><ele>835.2</ele><time>2026-05-03T14:41:59Z</time></trkpt><trkpt lat="46.01843211114473" lon="12.025804158711445"><ele>833.6</ele><time>2026-05-03T14:42:00Z</time></trkpt><trkpt lat="46.01843073871618" lon="12.025659921233341"><ele>832.0</ele><time>2026-05-03T14:42:01Z</time></trkpt><trkpt lat="46.01843003006432" lon="12.025545169045632"><ele>831.2</ele><time>2026-05-03T14:42:02Z</time></trkpt><trkpt lat="46.01842925536914" lon="12.025419723127797"><ele>830.4000000000001</ele><time>2026-05-03T14:42:03Z</time></trkpt><trkpt lat="46.018428213334694" lon="12.025250987948095"><ele>829.5999999999999</ele><time>2026-05-03T14:42:04Z</time></trkpt><trkpt lat="46.018428980486135" lon="12.025089567792424"><ele>828.8</ele><time>2026-05-03T14:42:05Z</time></trkpt><trkpt lat="46.018431019757365" lon="12.0249446404355"><ele>828.0</ele><time>2026-05-03T14:42:06Z</time></trkpt><trkpt lat="46.018433480766184" lon="12.024801990065175"><ele>826.2</ele><time>2026-05-03T14:42:06.999Z</time></trkpt><trkpt lat="46.018436719485734" lon="12.02466207662967"><ele>824.4</ele><time>2026-05-03T14:42:07.999Z</time></trkpt><trkpt lat="46.01844079172858" lon="12.024524058417674"><ele>822.6</ele><time>2026-05-03T14:42:08.999Z</time></trkpt><trkpt lat="46.01844516435459" lon="12.024384313274261"><ele>820.8000000000001</ele><time>2026-05-03T14:42:09.999Z</time></trkpt><trkpt lat="46.01845039744322" lon="12.024245702675868"><ele>819.0</ele><time>2026-05-03T14:42:10.999Z</time></trkpt><trkpt lat="46.01845522581602" lon="12.024117812165807"><ele>816.4000000000001</ele><time>2026-05-03T14:42:11.999Z</time></trkpt><trkpt lat="46.01845451275109" lon="12.023976331067898"><ele>813.8</ele><time>2026-05-03T14:42:12.999Z</time></trkpt><trkpt lat="46.018462230850496" lon="12.023824611032358"><ele>811.2</ele><time>2026-05-03T14:42:13.999Z</time></trkpt><trkpt lat="46.01846617064326" lon="12.023695939885814"><ele>808.5999999999999</ele><time>2026-05-03T14:42:14.999Z</time></trkpt><trkpt lat="46.018472994986304" lon="12.02355584077811"><ele>806.0</ele><time>2026-05-03T14:42:15.999Z</time></trkpt><trkpt lat="46.01847461855249" lon="12.023443777895073"><ele>806.0</ele><time>2026-05-03T14:42:16.999Z</time></trkpt><trkpt lat="46.018479147419" lon="12.023317507585078"><ele>806.0</ele><time>2026-05-03T14:42:17.999Z</time></trkpt><trkpt lat="46.018513009462445" lon="12.023144445514893"><ele>806.0</ele><time>2026-05-03T14:42:19.999Z</time></trkpt><trkpt lat="46.01854054004689" lon="12.023061709890694"><ele>806.0</ele><time>2026-05-03T14:42:20.999Z</time></trkpt><trkpt lat="46.01861989278209" lon="12.02294771716673"><ele>806.0</ele><time>2026-05-03T14:42:22.999Z</time></trkpt><trkpt lat="46.01874940775818" lon="12.022951758901078"><ele>806.0000000000001</ele><time>2026-05-03T14:42:24.999Z</time></trkpt><trkpt lat="46.01880521304114" lon="12.022995657039703"><ele>806.0</ele><time>2026-05-03T14:42:25.999Z</time></trkpt><trkpt lat="46.01886181840885" lon="12.023087467925036"><ele>806.0</ele><time>2026-05-03T14:42:26.999Z</time></trkpt><trkpt lat="46.01891550112994" lon="12.023205081523914"><ele>806.0</ele><time>2026-05-03T14:42:27.999Z</time></trkpt><trkpt lat="46.01896193235964" lon="12.023302360809723"><ele>806.0000000000001</ele><time>2026-05-03T14:42:28.999Z</time></trkpt><trkpt lat="46.01902582203111" lon="12.023381678856005"><ele>806.0</ele><time>2026-05-03T14:42:29.999Z</time></trkpt><trkpt lat="46.01909317779496" lon="12.023384181703275"><ele>803.4</ele><time>2026-05-03T14:42:30.999Z</time></trkpt><trkpt lat="46.019168424964356" lon="12.023401317211208"><ele>800.8</ele><time>2026-05-03T14:42:31.999Z</time></trkpt><trkpt lat="46.01930534533871" lon="12.023350143584086"><ele>798.1999999999999</ele><time>2026-05-03T14:42:32.999Z</time></trkpt><trkpt lat="46.019428100021415" lon="12.023345575410989"><ele>795.5999999999999</ele><time>2026-05-03T14:42:33.999Z</time></trkpt><trkpt lat="46.0195349130488" lon="12.0233510451491"><ele>793.0</ele><time>2026-05-03T14:42:34.999Z</time></trkpt><trkpt lat="46.01963618395686" lon="12.023318210800111"><ele>793.0</ele><time>2026-05-03T14:42:35.999Z</time></trkpt><trkpt lat="46.01974340488826" lon="12.023314701993876"><ele>793.0</ele><time>2026-05-03T14:42:36.999Z</time></trkpt><trkpt lat="46.01984360778583" lon="12.023305919628065"><ele>793.0</ele><time>2026-05-03T14:42:37.999Z</time></trkpt><trkpt lat="46.019940168828036" lon="12.023292734245288"><ele>793.0</ele><time>2026-05-03T14:42:38.999Z</time></trkpt><trkpt lat="46.02006178974234" lon="12.023277449772921"><ele>793.0</ele><time>2026-05-03T14:42:39.999Z</time></trkpt><trkpt lat="46.02015996869771" lon="12.023249585561286"><ele>789.8</ele><time>2026-05-03T14:42:40.999Z</time></trkpt><trkpt lat="46.02025555035394" lon="12.023260055790514"><ele>786.5999999999999</ele><time>2026-05-03T14:42:41.999Z</time></trkpt><trkpt lat="46.02035595000713" lon="12.023285944738864"><ele>783.4000000000001</ele><time>2026-05-03T14:42:42.999Z</time></trkpt><trkpt lat="46.02044290720253" lon="12.023322969384164"><ele>780.2</ele><time>2026-05-03T14:42:43.999Z</time></trkpt><trkpt lat="46.020512289375155" lon="12.02337531869039"><ele>777.0</ele><time>2026-05-03T14:42:44.999Z</time></trkpt><trkpt lat="46.02058756408059" lon="12.023467895915937"><ele>777.0</ele><time>2026-05-03T14:42:45.999Z</time></trkpt><trkpt lat="46.02068205624788" lon="12.023562217210351"><ele>777.0</ele><time>2026-05-03T14:42:46.999Z</time></trkpt><trkpt lat="46.02077214768251" lon="12.023642492983942"><ele>777.0</ele><time>2026-05-03T14:42:47.999Z</time></trkpt><trkpt lat="46.020868735359656" lon="12.023710997152014"><ele>777.0</ele><time>2026-05-03T14:42:49Z</time></trkpt><trkpt lat="46.020960164263194" lon="12.023781249833611"><ele>777.0</ele><time>2026-05-03T14:42:50Z</time></trkpt><trkpt lat="46.021048948646396" lon="12.023841289206208"><ele>772.2</ele><time>2026-05-03T14:42:51Z</time></trkpt><trkpt lat="46.02113786539069" lon="12.023896025882001"><ele>767.4000000000001</ele><time>2026-05-03T14:42:52Z</time></trkpt><trkpt lat="46.02122356856038" lon="12.023944517474165"><ele>762.5999999999999</ele><time>2026-05-03T14:42:53Z</time></trkpt><trkpt lat="46.02130870595825" lon="12.02399582096398"><ele>757.8</ele><time>2026-05-03T14:42:54Z</time></trkpt><trkpt lat="46.02139109601251" lon="12.02405100700743"><ele>753.0</ele><time>2026-05-03T14:42:55Z</time></trkpt><trkpt lat="46.02148108922037" lon="12.024100065612116"><ele>753.0</ele><time>2026-05-03T14:42:56Z</time></trkpt><trkpt lat="46.0215701908138" lon="12.02413987427006"><ele>753.0</ele><time>2026-05-03T14:42:57Z</time></trkpt><trkpt lat="46.021653393900486" lon="12.024198625299201"><ele>753.0</ele><time>2026-05-03T14:42:58Z</time></trkpt><trkpt lat="46.02172928757165" lon="12.024301434250965"><ele>753.0</ele><time>2026-05-03T14:42:59Z</time></trkpt><trkpt lat="46.021804251703735" lon="12.024413827488146"><ele>753.0</ele><time>2026-05-03T14:43:00Z</time></trkpt><trkpt lat="46.02186326528975" lon="12.024533682031755"><ele>751.0</ele><time>2026-05-03T14:43:01Z</time></trkpt><trkpt lat="46.021917580761134" lon="12.02464406887936"><ele>749.0</ele><time>2026-05-03T14:43:02Z</time></trkpt><trkpt lat="46.02197099988312" lon="12.02475105187096"><ele>747.0</ele><time>2026-05-03T14:43:03Z</time></trkpt><trkpt lat="46.02202021344401" lon="12.02485260795149"><ele>745.0</ele><time>2026-05-03T14:43:04Z</time></trkpt><trkpt lat="46.022075469533355" lon="12.02494742365878"><ele>743.0</ele><time>2026-05-03T14:43:05Z</time></trkpt><trkpt lat="46.02213866641127" lon="12.025014370021127"><ele>741.0</ele><time>2026-05-03T14:43:06Z</time></trkpt><trkpt lat="46.022211292542345" lon="12.025055122814969"><ele>740.8333333333334</ele><time>2026-05-03T14:43:07Z</time></trkpt><trkpt lat="46.02229221962018" lon="12.025072135614264"><ele>740.6666666666666</ele><time>2026-05-03T14:43:08Z</time></trkpt><trkpt lat="46.02237053102823" lon="12.025064970402772"><ele>740.5</ele><time>2026-05-03T14:43:09Z</time></trkpt><trkpt lat="46.022447130227114" lon="12.02505758869981"><ele>740.3333333333333</ele><time>2026-05-03T14:43:10Z</time></trkpt><trkpt lat="46.0225156905321" lon="12.025067168561208"><ele>740.1666666666666</ele><time>2026-05-03T14:43:11Z</time></trkpt><trkpt lat="46.02258275608568" lon="12.025100782673055"><ele>740.0</ele><time>2026-05-03T14:43:12Z</time></trkpt><trkpt lat="46.02265284601679" lon="12.025161081855465"><ele>738.4</ele><time>2026-05-03T14:43:13Z</time></trkpt><trkpt lat="46.0226969614068" lon="12.02525196394391"><ele>736.8</ele><time>2026-05-03T14:43:14Z</time></trkpt><trkpt lat="46.02273457726284" lon="12.025393150484444"><ele>735.2</ele><time>2026-05-03T14:43:15Z</time></trkpt><trkpt lat="46.02279236145734" lon="12.025591146270225"><ele>733.6</ele><time>2026-05-03T14:43:16Z</time></trkpt><trkpt lat="46.022833856105635" lon="12.025745370728835"><ele>732.0</ele><time>2026-05-03T14:43:17Z</time></trkpt><trkpt lat="46.0228753035434" lon="12.025897011886748"><ele>732.0</ele><time>2026-05-03T14:43:18Z</time></trkpt><trkpt lat="46.02291677610955" lon="12.026038560075287"><ele>732.0</ele><time>2026-05-03T14:43:19Z</time></trkpt><trkpt lat="46.02295485659095" lon="12.026176832601095"><ele>732.0</ele><time>2026-05-03T14:43:20Z</time></trkpt><trkpt lat="46.022995533789015" lon="12.02630903368013"><ele>732.0</ele><time>2026-05-03T14:43:21Z</time></trkpt><trkpt lat="46.0230208802504" lon="12.026455170415378"><ele>732.0</ele><time>2026-05-03T14:43:22Z</time></trkpt><trkpt lat="46.023037843183765" lon="12.026579339978113"><ele>731.5</ele><time>2026-05-03T14:43:23Z</time></trkpt><trkpt lat="46.0230754392057" lon="12.026710473259705"><ele>731.0</ele><time>2026-05-03T14:43:24Z</time></trkpt><trkpt lat="46.02308882931657" lon="12.026814148820348"><ele>730.5</ele><time>2026-05-03T14:43:25Z</time></trkpt><trkpt lat="46.02310690538909" lon="12.026921424014263"><ele>730.0</ele><time>2026-05-03T14:43:26Z</time></trkpt><trkpt lat="46.02316109702081" lon="12.02706028590624"><ele>729.5</ele><time>2026-05-03T14:43:28Z</time></trkpt><trkpt lat="46.0232242308029" lon="12.027105179035948"><ele>729.0</ele><time>2026-05-03T14:43:29Z</time></trkpt><trkpt lat="46.02329823601917" lon="12.02712375128091"><ele>724.75</ele><time>2026-05-03T14:43:30Z</time></trkpt><trkpt lat="46.02339940409647" lon="12.027079147676915"><ele>720.5</ele><time>2026-05-03T14:43:31Z</time></trkpt><trkpt lat="46.02353468882727" lon="12.027001371732583"><ele>716.25</ele><time>2026-05-03T14:43:32Z</time></trkpt><trkpt lat="46.023639991181625" lon="12.026880820527046"><ele>712.0</ele><time>2026-05-03T14:43:33Z</time></trkpt><trkpt lat="46.023722487160825" lon="12.026768620318737"><ele>713.0</ele><time>2026-05-03T14:43:34Z</time></trkpt><trkpt lat="46.02380568451604" lon="12.026611083232764"><ele>714.0</ele><time>2026-05-03T14:43:35Z</time></trkpt><trkpt lat="46.02387866341919" lon="12.026491443120781"><ele>715.0</ele><time>2026-05-03T14:43:36Z</time></trkpt><trkpt lat="46.0239520538987" lon="12.0263844771165"><ele>716.0</ele><time>2026-05-03T14:43:37Z</time></trkpt><trkpt lat="46.02400372546147" lon="12.026265907626696"><ele>716.0</ele><time>2026-05-03T14:43:38Z</time></trkpt><trkpt lat="46.02404666975881" lon="12.026117252057789"><ele>716.0</ele><time>2026-05-03T14:43:39Z</time></trkpt><trkpt lat="46.02409121805826" lon="12.025976867200795"><ele>716.0</ele><time>2026-05-03T14:43:40Z</time></trkpt><trkpt lat="46.024126406165735" lon="12.02584259631048"><ele>716.0</ele><time>2026-05-03T14:43:41Z</time></trkpt><trkpt lat="46.0241589237264" lon="12.025721505330965"><ele>716.0</ele><time>2026-05-03T14:43:42Z</time></trkpt><trkpt lat="46.02418872391159" lon="12.02560592986791"><ele>715.5999999999999</ele><time>2026-05-03T14:43:43Z</time></trkpt><trkpt lat="46.024213516652985" lon="12.025489559172613"><ele>715.2</ele><time>2026-05-03T14:43:44Z</time></trkpt><trkpt lat="46.024211984145964" lon="12.025351950408215"><ele>714.8</ele><time>2026-05-03T14:43:45Z</time></trkpt><trkpt lat="46.024184562409935" lon="12.02518273446981"><ele>714.4000000000001</ele><time>2026-05-03T14:43:46Z</time></trkpt><trkpt lat="46.02414577016365" lon="12.025035080071502"><ele>714.0</ele><time>2026-05-03T14:43:47Z</time></trkpt><trkpt lat="46.02411760796096" lon="12.024898813431808"><ele>714.0</ele><time>2026-05-03T14:43:48Z</time></trkpt><trkpt lat="46.024079917942714" lon="12.024758391022692"><ele>714.0</ele><time>2026-05-03T14:43:49Z</time></trkpt><trkpt lat="46.024050215509504" lon="12.024635866516324"><ele>714.0</ele><time>2026-05-03T14:43:50Z</time></trkpt><trkpt lat="46.024020224591894" lon="12.024537015920256"><ele>714.0</ele><time>2026-05-03T14:43:51Z</time></trkpt><trkpt lat="46.02402524533222" lon="12.024352790950926"><ele>714.0</ele><time>2026-05-03T14:43:53Z</time></trkpt><trkpt lat="46.02407159999476" lon="12.024260810666213"><ele>714.0</ele><time>2026-05-03T14:43:54Z</time></trkpt><trkpt lat="46.02413494924846" lon="12.024228210965815"><ele>714.0</ele><time>2026-05-03T14:43:55Z</time></trkpt><trkpt lat="46.02420367910572" lon="12.024233895731431"><ele>714.0</ele><time>2026-05-03T14:43:56Z</time></trkpt><trkpt lat="46.024263770895836" lon="12.024296627995572"><ele>714.0</ele><time>2026-05-03T14:43:57Z</time></trkpt><trkpt lat="46.02429783331262" lon="12.024401030017641"><ele>714.0</ele><time>2026-05-03T14:43:58Z</time></trkpt><trkpt lat="46.02436635995467" lon="12.024528742762675"><ele>714.0</ele><time>2026-05-03T14:43:59Z</time></trkpt><trkpt lat="46.02443439461398" lon="12.024711190053985"><ele>706.5</ele><time>2026-05-03T14:44:00Z</time></trkpt><trkpt lat="46.0244984273025" lon="12.024871008867349"><ele>699.0</ele><time>2026-05-03T14:44:01Z</time></trkpt><trkpt lat="46.0245555926299" lon="12.025013687617351"><ele>691.5</ele><time>2026-05-03T14:44:02Z</time></trkpt><trkpt lat="46.02461038239764" lon="12.025147244952885"><ele>684.0</ele><time>2026-05-03T14:44:03Z</time></trkpt><trkpt lat="46.024684440712036" lon="12.025327116169967"><ele>684.0</ele><time>2026-05-03T14:44:04Z</time></trkpt><trkpt lat="46.02475771984734" lon="12.025509588462588"><ele>684.0</ele><time>2026-05-03T14:44:05Z</time></trkpt><trkpt lat="46.024818678249616" lon="12.025662604255984"><ele>684.0</ele><time>2026-05-03T14:44:06Z</time></trkpt><trkpt lat="46.0248742827985" lon="12.025804988249357"><ele>684.0</ele><time>2026-05-03T14:44:07Z</time></trkpt><trkpt lat="46.02492843868962" lon="12.02594980832559"><ele>679.5</ele><time>2026-05-03T14:44:08Z</time></trkpt><trkpt lat="46.025006676812836" lon="12.026126969942014"><ele>675.0</ele><time>2026-05-03T14:44:09Z</time></trkpt><trkpt lat="46.0250604553917" lon="12.026311952252792"><ele>670.5</ele><time>2026-05-03T14:44:10Z</time></trkpt><trkpt lat="46.02510094186499" lon="12.026491234450274"><ele>666.0</ele><time>2026-05-03T14:44:11Z</time></trkpt><trkpt lat="46.025141351453314" lon="12.026667062462176"><ele>666.0</ele><time>2026-05-03T14:44:11.999Z</time></trkpt><trkpt lat="46.02517931771081" lon="12.026839806302814"><ele>666.0</ele><time>2026-05-03T14:44:12.999Z</time></trkpt><trkpt lat="46.025222807681466" lon="12.02705756370495"><ele>666.0</ele><time>2026-05-03T14:44:13.999Z</time></trkpt><trkpt lat="46.02524956478559" lon="12.02724532503554"><ele>666.0</ele><time>2026-05-03T14:44:14.999Z</time></trkpt><trkpt lat="46.02527340166261" lon="12.027409716259319"><ele>666.1999999999999</ele><time>2026-05-03T14:44:15.999Z</time></trkpt><trkpt lat="46.02530023680968" lon="12.02755736357789"><ele>666.4</ele><time>2026-05-03T14:44:16.999Z</time></trkpt><trkpt lat="46.025323425065665" lon="12.02768943784231"><ele>666.6</ele><time>2026-05-03T14:44:17.999Z</time></trkpt><trkpt lat="46.02534773235028" lon="12.027814072563968"><ele>666.8</ele><time>2026-05-03T14:44:18.999Z</time></trkpt><trkpt lat="46.025358852095486" lon="12.027988531188997"><ele>667.0</ele><time>2026-05-03T14:44:19.999Z</time></trkpt><trkpt lat="46.025390951059514" lon="12.028113611247525"><ele>667.0</ele><time>2026-05-03T14:44:20.999Z</time></trkpt><trkpt lat="46.0254465120528" lon="12.02822957172338"><ele>667.0</ele><time>2026-05-03T14:44:21.999Z</time></trkpt><trkpt lat="46.02554277135596" lon="12.028320789192843"><ele>667.0</ele><time>2026-05-03T14:44:22.999Z</time></trkpt><trkpt lat="46.02566078282735" lon="12.028399104358241"><ele>667.0</ele><time>2026-05-03T14:44:23.999Z</time></trkpt><trkpt lat="46.025763554744294" lon="12.028465313246507"><ele>664.2</ele><time>2026-05-03T14:44:24.999Z</time></trkpt><trkpt lat="46.02585766912302" lon="12.02854022275478"><ele>661.4000000000001</ele><time>2026-05-03T14:44:25.999Z</time></trkpt><trkpt lat="46.025944132790436" lon="12.028592831577456"><ele>658.5999999999999</ele><time>2026-05-03T14:44:26.999Z</time></trkpt><trkpt lat="46.026015216105925" lon="12.02867658015083"><ele>655.8</ele><time>2026-05-03T14:44:27.999Z</time></trkpt><trkpt lat="46.02606612163474" lon="12.0287782113401"><ele>653.0</ele><time>2026-05-03T14:44:28.999Z</time></trkpt><trkpt lat="46.02611820529681" lon="12.028941408010775"><ele>653.0</ele><time>2026-05-03T14:44:29.999Z</time></trkpt><trkpt lat="46.0261656781113" lon="12.02912991611725"><ele>653.0</ele><time>2026-05-03T14:44:30.999Z</time></trkpt><trkpt lat="46.026205040673865" lon="12.029300667629288"><ele>653.0</ele><time>2026-05-03T14:44:31.999Z</time></trkpt><trkpt lat="46.026222640784894" lon="12.029477048544365"><ele>653.0</ele><time>2026-05-03T14:44:32.999Z</time></trkpt><trkpt lat="46.02625392932013" lon="12.02963422378541"><ele>653.0</ele><time>2026-05-03T14:44:33.999Z</time></trkpt><trkpt lat="46.02629213123333" lon="12.029762953276185"><ele>653.0</ele><time>2026-05-03T14:44:34.999Z</time></trkpt><trkpt lat="46.026332789739755" lon="12.029903233983"><ele>653.0</ele><time>2026-05-03T14:44:35.999Z</time></trkpt><trkpt lat="46.026381174534954" lon="12.030075357864794"><ele>653.0</ele><time>2026-05-03T14:44:36.999Z</time></trkpt><trkpt lat="46.02642509939867" lon="12.030224161155152"><ele>653.0</ele><time>2026-05-03T14:44:37.999Z</time></trkpt><trkpt lat="46.02646783198824" lon="12.030364849247595"><ele>652.8333333333333</ele><time>2026-05-03T14:44:38.999Z</time></trkpt><trkpt lat="46.02650864059205" lon="12.030493072377414"><ele>652.6666666666666</ele><time>2026-05-03T14:44:39.999Z</time></trkpt><trkpt lat="46.02654862301661" lon="12.030612069022414"><ele>652.5</ele><time>2026-05-03T14:44:40.999Z</time></trkpt><trkpt lat="46.0265896687855" lon="12.030724711309054"><ele>652.3333333333334</ele><time>2026-05-03T14:44:41.999Z</time></trkpt><trkpt lat="46.026624043498444" lon="12.030829166996089"><ele>652.1666666666667</ele><time>2026-05-03T14:44:42.999Z</time></trkpt><trkpt lat="46.02666375403076" lon="12.030938884985328"><ele>652.0</ele><time>2026-05-03T14:44:43.999Z</time></trkpt><trkpt lat="46.026705850804895" lon="12.031070891362907"><ele>648.5</ele><time>2026-05-03T14:44:44.999Z</time></trkpt><trkpt lat="46.02674052159799" lon="12.031175090821689"><ele>645.0</ele><time>2026-05-03T14:44:45.999Z</time></trkpt><trkpt lat="46.026772037047344" lon="12.031282694822146"><ele>641.5</ele><time>2026-05-03T14:44:46.999Z</time></trkpt><trkpt lat="46.02680921891569" lon="12.031403929978547"><ele>638.0</ele><time>2026-05-03T14:44:47.999Z</time></trkpt><trkpt lat="46.02684427036894" lon="12.031519635979013"><ele>634.5</ele><time>2026-05-03T14:44:48.999Z</time></trkpt><trkpt lat="46.02687632238006" lon="12.031633143522368"><ele>631.0</ele><time>2026-05-03T14:44:49.999Z</time></trkpt><trkpt lat="46.026910988823005" lon="12.031746229604689"><ele>631.0</ele><time>2026-05-03T14:44:50.999Z</time></trkpt><trkpt lat="46.026942526102545" lon="12.031853202923413"><ele>631.0</ele><time>2026-05-03T14:44:51.999Z</time></trkpt><trkpt lat="46.02697689732708" lon="12.031958939327433"><ele>631.0</ele><time>2026-05-03T14:44:52.999Z</time></trkpt><trkpt lat="46.02701367423686" lon="12.03207503321615"><ele>631.0</ele><time>2026-05-03T14:44:53.999Z</time></trkpt><trkpt lat="46.02704937592156" lon="12.032183717543207"><ele>631.0</ele><time>2026-05-03T14:44:55Z</time></trkpt><trkpt lat="46.02708913678896" lon="12.03228834384171"><ele>631.0</ele><time>2026-05-03T14:44:56Z</time></trkpt><trkpt lat="46.027134172261796" lon="12.032401734814894"><ele>632.2</ele><time>2026-05-03T14:44:57Z</time></trkpt><trkpt lat="46.02717448492387" lon="12.032509886732356"><ele>633.4000000000001</ele><time>2026-05-03T14:44:58Z</time></trkpt><trkpt lat="46.02721784575764" lon="12.032631522653865"><ele>634.6</ele><time>2026-05-03T14:44:59Z</time></trkpt><trkpt lat="46.027259831567896" lon="12.0327509037852"><ele>635.8000000000001</ele><time>2026-05-03T14:45:00Z</time></trkpt><trkpt lat="46.027298713180116" lon="12.032864549279738"><ele>637.0</ele><time>2026-05-03T14:45:01Z</time></trkpt><trkpt lat="46.0273382924081" lon="12.032987930147506"><ele>637.0</ele><time>2026-05-03T14:45:02Z</time></trkpt><trkpt lat="46.027378327235624" lon="12.033114269239555"><ele>637.0</ele><time>2026-05-03T14:45:03Z</time></trkpt><trkpt lat="46.02743042671408" lon="12.033227977042989"><ele>637.0</ele><time>2026-05-03T14:45:04Z</time></trkpt><trkpt lat="46.027491121141836" lon="12.033333888811592"><ele>637.0</ele><time>2026-05-03T14:45:05Z</time></trkpt><trkpt lat="46.02756426791149" lon="12.033422498947202"><ele>637.0</ele><time>2026-05-03T14:45:06Z</time></trkpt><trkpt lat="46.02763328411742" lon="12.033514027054649"><ele>631.8000000000001</ele><time>2026-05-03T14:45:07Z</time></trkpt><trkpt lat="46.027711212189274" lon="12.03359616392703"><ele>626.6</ele><time>2026-05-03T14:45:08Z</time></trkpt><trkpt lat="46.02778387039593" lon="12.033683612315102"><ele>621.4000000000001</ele><time>2026-05-03T14:45:09Z</time></trkpt><trkpt lat="46.02785273856977" lon="12.033784613615872"><ele>616.2</ele><time>2026-05-03T14:45:10Z</time></trkpt><trkpt lat="46.02794181557229" lon="12.033893608267649"><ele>611.0</ele><time>2026-05-03T14:45:11Z</time></trkpt><trkpt lat="46.02802803630986" lon="12.03399009152497"><ele>611.0</ele><time>2026-05-03T14:45:12Z</time></trkpt><trkpt lat="46.02811214250401" lon="12.034092187953465"><ele>611.0</ele><time>2026-05-03T14:45:13Z</time></trkpt><trkpt lat="46.028196383750156" lon="12.034195855471593"><ele>611.0</ele><time>2026-05-03T14:45:14Z</time></trkpt><trkpt lat="46.02827871370825" lon="12.034290041244283"><ele>611.0</ele><time>2026-05-03T14:45:15Z</time></trkpt><trkpt lat="46.02837004389479" lon="12.034387722706809"><ele>611.0</ele><time>2026-05-03T14:45:16Z</time></trkpt><trkpt lat="46.02847923356894" lon="12.034496285413256"><ele>606.0</ele><time>2026-05-03T14:45:17Z</time></trkpt><trkpt lat="46.02859804216032" lon="12.034595387337772"><ele>601.0</ele><time>2026-05-03T14:45:18Z</time></trkpt><trkpt lat="46.02871461441133" lon="12.034682094683337"><ele>596.0</ele><time>2026-05-03T14:45:19Z</time></trkpt><trkpt lat="46.028828130795546" lon="12.034758177414815"><ele>591.0</ele><time>2026-05-03T14:45:20Z</time></trkpt><trkpt lat="46.02894518759836" lon="12.034832433940457"><ele>591.0</ele><time>2026-05-03T14:45:21Z</time></trkpt><trkpt lat="46.029055233690784" lon="12.034901631405978"><ele>591.0</ele><time>2026-05-03T14:45:22Z</time></trkpt><trkpt lat="46.02916012110973" lon="12.034971597310836"><ele>591.0</ele><time>2026-05-03T14:45:23Z</time></trkpt><trkpt lat="46.02926381753859" lon="12.035038061559561"><ele>591.0</ele><time>2026-05-03T14:45:24Z</time></trkpt><trkpt lat="46.02936716918103" lon="12.03509043123687"><ele>588.75</ele><time>2026-05-03T14:45:25Z</time></trkpt><trkpt lat="46.029468488739965" lon="12.035133730572191"><ele>586.5</ele><time>2026-05-03T14:45:26Z</time></trkpt><trkpt lat="46.029604377056174" lon="12.035155280394724"><ele>584.25</ele><time>2026-05-03T14:45:27Z</time></trkpt><trkpt lat="46.02973429119486" lon="12.035161466389257"><ele>582.0</ele><time>2026-05-03T14:45:28Z</time></trkpt><trkpt lat="46.0298691185575" lon="12.035158614304722"><ele>580.25</ele><time>2026-05-03T14:45:29Z</time></trkpt><trkpt lat="46.0300173644372" lon="12.035138501659429"><ele>578.5</ele><time>2026-05-03T14:45:30Z</time></trkpt><trkpt lat="46.03014565731659" lon="12.035122743174734"><ele>576.75</ele><time>2026-05-03T14:45:31Z</time></trkpt><trkpt lat="46.03027870906347" lon="12.035105257533171"><ele>575.0</ele><time>2026-05-03T14:45:32Z</time></trkpt><trkpt lat="46.030420319327234" lon="12.035100864881711"><ele>575.0</ele><time>2026-05-03T14:45:33Z</time></trkpt><trkpt lat="46.03053570813812" lon="12.035091822613444"><ele>575.0</ele><time>2026-05-03T14:45:34Z</time></trkpt><trkpt lat="46.030645201793945" lon="12.035070861319852"><ele>575.0</ele><time>2026-05-03T14:45:35Z</time></trkpt><trkpt lat="46.03076635344436" lon="12.035046537378964"><ele>575.0</ele><time>2026-05-03T14:45:36Z</time></trkpt><trkpt lat="46.030881388544906" lon="12.03502956471153"><ele>575.25</ele><time>2026-05-03T14:45:37Z</time></trkpt><trkpt lat="46.0310109178939" lon="12.03500458385892"><ele>575.5</ele><time>2026-05-03T14:45:38Z</time></trkpt><trkpt lat="46.03112913488611" lon="12.034984922914512"><ele>575.75</ele><time>2026-05-03T14:45:39Z</time></trkpt><trkpt lat="46.031241203261274" lon="12.03497759756252"><ele>576.0</ele><time>2026-05-03T14:45:40Z</time></trkpt><trkpt lat="46.031338224420345" lon="12.034962355530707"><ele>576.0</ele><time>2026-05-03T14:45:41Z</time></trkpt><trkpt lat="46.031439484831225" lon="12.034943291600571"><ele>576.0</ele><time>2026-05-03T14:45:42Z</time></trkpt><trkpt lat="46.031537045015625" lon="12.034928294712152"><ele>576.0</ele><time>2026-05-03T14:45:43Z</time></trkpt><trkpt lat="46.031625932470256" lon="12.034911655631847"><ele>576.0</ele><time>2026-05-03T14:45:44Z</time></trkpt><trkpt lat="46.03170569480125" lon="12.03491082116621"><ele>576.0</ele><time>2026-05-03T14:45:45Z</time></trkpt><trkpt lat="46.03181380130572" lon="12.034843710945688"><ele>572.0</ele><time>2026-05-03T14:45:46Z</time></trkpt><trkpt lat="46.03189588674878" lon="12.034727800317892"><ele>568.0</ele><time>2026-05-03T14:45:47Z</time></trkpt><trkpt lat="46.03196657716019" lon="12.034556978294658"><ele>564.0</ele><time>2026-05-03T14:45:48Z</time></trkpt><trkpt lat="46.03202270750168" lon="12.034360975583198"><ele>560.0</ele><time>2026-05-03T14:45:49Z</time></trkpt><trkpt lat="46.032064488918465" lon="12.034170211045963"><ele>559.25</ele><time>2026-05-03T14:45:50Z</time></trkpt><trkpt lat="46.03208708470085" lon="12.033988053616005"><ele>558.5</ele><time>2026-05-03T14:45:51Z</time></trkpt><trkpt lat="46.032123105505974" lon="12.033818980785327"><ele>557.75</ele><time>2026-05-03T14:45:52Z</time></trkpt><trkpt lat="46.03214843737026" lon="12.033645855229384"><ele>557.0</ele><time>2026-05-03T14:45:53Z</time></trkpt><trkpt lat="46.03217713453586" lon="12.033487313709946"><ele>557.0</ele><time>2026-05-03T14:45:54Z</time></trkpt><trkpt lat="46.03220526471097" lon="12.033323006054628"><ele>557.0</ele><time>2026-05-03T14:45:55Z</time></trkpt><trkpt lat="46.032233263939645" lon="12.033170246561436"><ele>557.0</ele><time>2026-05-03T14:45:56Z</time></trkpt><trkpt lat="46.03225765931791" lon="12.033017174078665"><ele>557.0</ele><time>2026-05-03T14:45:57Z</time></trkpt><trkpt lat="46.0322838027184" lon="12.032863934770129"><ele>557.0</ele><time>2026-05-03T14:45:58Z</time></trkpt><trkpt lat="46.032308808641325" lon="12.032707666997586"><ele>556.4</ele><time>2026-05-03T14:45:59Z</time></trkpt><trkpt lat="46.03232815237294" lon="12.032574648526644"><ele>555.8000000000001</ele><time>2026-05-03T14:46:00Z</time></trkpt><trkpt lat="46.03235636610571" lon="12.032444623335008"><ele>555.2</ele><time>2026-05-03T14:46:01Z</time></trkpt><trkpt lat="46.03239653355728" lon="12.032328377303934"><ele>554.6</ele><time>2026-05-03T14:46:02Z</time></trkpt><trkpt lat="46.032448868068" lon="12.032208440220062"><ele>554.0</ele><time>2026-05-03T14:46:03Z</time></trkpt><trkpt lat="46.03250998338148" lon="12.032131196181526"><ele>550.5</ele><time>2026-05-03T14:46:04Z</time></trkpt><trkpt lat="46.032577276066725" lon="12.032053236972155"><ele>547.0</ele><time>2026-05-03T14:46:05Z</time></trkpt><trkpt lat="46.03262807607213" lon="12.031975935650596"><ele>543.5</ele><time>2026-05-03T14:46:06Z</time></trkpt><trkpt lat="46.03270129963784" lon="12.031903425320076"><ele>540.0</ele><time>2026-05-03T14:46:07Z</time></trkpt><trkpt lat="46.03274909951509" lon="12.031819475990183"><ele>536.5</ele><time>2026-05-03T14:46:08Z</time></trkpt><trkpt lat="46.03278828276122" lon="12.031730772283007"><ele>533.0</ele><time>2026-05-03T14:46:09Z</time></trkpt><trkpt lat="46.03280819640761" lon="12.031604547493702"><ele>532.3333333333333</ele><time>2026-05-03T14:46:10Z</time></trkpt><trkpt lat="46.03284311515253" lon="12.031511193678025"><ele>531.6666666666666</ele><time>2026-05-03T14:46:11Z</time></trkpt><trkpt lat="46.032858431834455" lon="12.031397995887678"><ele>531.0</ele><time>2026-05-03T14:46:12Z</time></trkpt><trkpt lat="46.03286234251917" lon="12.031282927869762"><ele>530.3333333333334</ele><time>2026-05-03T14:46:13Z</time></trkpt><trkpt lat="46.03285591812335" lon="12.031166118612187"><ele>529.6666666666667</ele><time>2026-05-03T14:46:14Z</time></trkpt><trkpt lat="46.032844475340326" lon="12.03106014660032"><ele>529.0</ele><time>2026-05-03T14:46:15Z</time></trkpt><trkpt lat="46.03281465857821" lon="12.030942586946567"><ele>529.0</ele><time>2026-05-03T14:46:16Z</time></trkpt><trkpt lat="46.032809028502996" lon="12.030807724286591"><ele>529.0</ele><time>2026-05-03T14:46:17Z</time></trkpt><trkpt lat="46.03279362170279" lon="12.030676632686392"><ele>529.0</ele><time>2026-05-03T14:46:18Z</time></trkpt><trkpt lat="46.032781681208625" lon="12.030556155928876"><ele>529.0</ele><time>2026-05-03T14:46:19Z</time></trkpt><trkpt lat="46.0327715774098" lon="12.030456258337493"><ele>529.0</ele><time>2026-05-03T14:46:20Z</time></trkpt><trkpt lat="46.032778419784556" lon="12.03034625553082"><ele>529.0</ele><time>2026-05-03T14:46:21Z</time></trkpt><trkpt lat="46.032795752040336" lon="12.030244369984839"><ele>528.8333333333334</ele><time>2026-05-03T14:46:22Z</time></trkpt><trkpt lat="46.03283534238119" lon="12.030137556079394"><ele>528.6666666666667</ele><time>2026-05-03T14:46:22.999Z</time></trkpt><trkpt lat="46.03287044867268" lon="12.030029041228643"><ele>528.5</ele><time>2026-05-03T14:46:23.999Z</time></trkpt><trkpt lat="46.03289981304741" lon="12.02992503856399"><ele>528.3333333333334</ele><time>2026-05-03T14:46:24.999Z</time></trkpt><trkpt lat="46.032952336213064" lon="12.02983268208333"><ele>528.1666666666666</ele><time>2026-05-03T14:46:25.999Z</time></trkpt><trkpt lat="46.032987014343085" lon="12.029724178964996"><ele>528.0</ele><time>2026-05-03T14:46:26.999Z</time></trkpt><trkpt lat="46.03300366950391" lon="12.029609057984723"><ele>528.0</ele><time>2026-05-03T14:46:27.999Z</time></trkpt><trkpt lat="46.033008651007705" lon="12.029482246005493"><ele>528.0</ele><time>2026-05-03T14:46:28.999Z</time></trkpt><trkpt lat="46.033014529939955" lon="12.029376685284534"><ele>528.0</ele><time>2026-05-03T14:46:29.999Z</time></trkpt><trkpt lat="46.03301304354913" lon="12.029260983158851"><ele>528.0</ele><time>2026-05-03T14:46:30.999Z</time></trkpt><trkpt lat="46.03300858315396" lon="12.029154913391642"><ele>528.0</ele><time>2026-05-03T14:46:31.999Z</time></trkpt><trkpt lat="46.033001426554556" lon="12.029047268252322"><ele>528.0</ele><time>2026-05-03T14:46:32.999Z</time></trkpt><trkpt lat="46.03299950818408" lon="12.028919326427793"><ele>526.5</ele><time>2026-05-03T14:46:33.999Z</time></trkpt><trkpt lat="46.03299219471237" lon="12.028788585741278"><ele>525.0</ele><time>2026-05-03T14:46:34.999Z</time></trkpt><trkpt lat="46.03298183365756" lon="12.028685101361715"><ele>523.5</ele><time>2026-05-03T14:46:35.999Z</time></trkpt><trkpt lat="46.03296169842517" lon="12.028572324159612"><ele>522.0</ele><time>2026-05-03T14:46:36.999Z</time></trkpt><trkpt lat="46.032930038927724" lon="12.028460968810974"><ele>520.5</ele><time>2026-05-03T14:46:37.999Z</time></trkpt><trkpt lat="46.032911691607474" lon="12.02833728514904"><ele>519.0</ele><time>2026-05-03T14:46:38.999Z</time></trkpt><trkpt lat="46.032877114720684" lon="12.028226363494703"><ele>516.3333333333334</ele><time>2026-05-03T14:46:39.999Z</time></trkpt><trkpt lat="46.032841275084884" lon="12.028115394168813"><ele>513.6666666666666</ele><time>2026-05-03T14:46:40.999Z</time></trkpt><trkpt lat="46.03280069971705" lon="12.02800286270512"><ele>511.0</ele><time>2026-05-03T14:46:41.999Z</time></trkpt><trkpt lat="46.032748167778664" lon="12.027906312077786"><ele>508.3333333333333</ele><time>2026-05-03T14:46:42.999Z</time></trkpt><trkpt lat="46.03271063281021" lon="12.02779668664661"><ele>505.66666666666663</ele><time>2026-05-03T14:46:43.999Z</time></trkpt><trkpt lat="46.0326844332301" lon="12.02766789813223"><ele>503.0</ele><time>2026-05-03T14:46:44.999Z</time></trkpt><trkpt lat="46.03267492386516" lon="12.027559969292385"><ele>500.99999999999994</ele><time>2026-05-03T14:46:45.999Z</time></trkpt><trkpt lat="46.03265324824979" lon="12.0274291940253"><ele>499.0</ele><time>2026-05-03T14:46:46.999Z</time></trkpt><trkpt lat="46.03262749202371" lon="12.027317343556689"><ele>497.0</ele><time>2026-05-03T14:46:47.999Z</time></trkpt><trkpt lat="46.03263641130142" lon="12.027181429772293"><ele>495.0</ele><time>2026-05-03T14:46:48.999Z</time></trkpt><trkpt lat="46.03264672576687" lon="12.02706250028135"><ele>492.99999999999994</ele><time>2026-05-03T14:46:49.999Z</time></trkpt><trkpt lat="46.03266522161814" lon="12.026947211085398"><ele>491.0</ele><time>2026-05-03T14:46:50.999Z</time></trkpt><trkpt lat="46.03268689556109" lon="12.026827592697638"><ele>490.99999999999994</ele><time>2026-05-03T14:46:51.999Z</time></trkpt><trkpt lat="46.03270536306258" lon="12.026725670718415"><ele>491.0</ele><time>2026-05-03T14:46:52.999Z</time></trkpt><trkpt lat="46.03272522758877" lon="12.026614723626604"><ele>491.0</ele><time>2026-05-03T14:46:53.999Z</time></trkpt><trkpt lat="46.03274504761578" lon="12.026503966773761"><ele>491.0</ele><time>2026-05-03T14:46:54.999Z</time></trkpt><trkpt lat="46.032763695068454" lon="12.026399762091796"><ele>490.99999999999994</ele><time>2026-05-03T14:46:55.999Z</time></trkpt><trkpt lat="46.032781975982495" lon="12.026291853534877"><ele>491.0</ele><time>2026-05-03T14:46:56.999Z</time></trkpt><trkpt lat="46.03280221041359" lon="12.026170043502173"><ele>489.16666666666663</ele><time>2026-05-03T14:46:57.999Z</time></trkpt><trkpt lat="46.03282393311895" lon="12.026039795211313"><ele>487.3333333333333</ele><time>2026-05-03T14:46:58.999Z</time></trkpt><trkpt lat="46.03284494757356" lon="12.025914012335894"><ele>485.5</ele><time>2026-05-03T14:46:59.999Z</time></trkpt><trkpt lat="46.03286657570226" lon="12.025789955379167"><ele>483.66666666666663</ele><time>2026-05-03T14:47:01Z</time></trkpt><trkpt lat="46.03287580320119" lon="12.025681677038094"><ele>481.8333333333333</ele><time>2026-05-03T14:47:02Z</time></trkpt><trkpt lat="46.032893413065814" lon="12.025575409985974"><ele>480.0</ele><time>2026-05-03T14:47:03Z</time></trkpt><trkpt lat="46.03292744049979" lon="12.025397561595053"><ele>478.6666666666667</ele><time>2026-05-03T14:47:05Z</time></trkpt><trkpt lat="46.03294483606517" lon="12.025297929991332"><ele>477.33333333333337</ele><time>2026-05-03T14:47:06Z</time></trkpt><trkpt lat="46.03296787867484" lon="12.02512049188215"><ele>476.0</ele><time>2026-05-03T14:47:08Z</time></trkpt><trkpt lat="46.03297723455541" lon="12.025023796691192"><ele>474.6666666666667</ele><time>2026-05-03T14:47:09Z</time></trkpt><trkpt lat="46.03298594526572" lon="12.024916512888305"><ele>473.33333333333337</ele><time>2026-05-03T14:47:10Z</time></trkpt><trkpt lat="46.03299633845058" lon="12.024820061425926"><ele>472.0</ele><time>2026-05-03T14:47:11Z</time></trkpt><trkpt lat="46.03301984292885" lon="12.024649831249933"><ele>469.20000000000005</ele><time>2026-05-03T14:47:13Z</time></trkpt><trkpt lat="46.03303543932546" lon="12.024558660119045"><ele>466.40000000000003</ele><time>2026-05-03T14:47:14Z</time></trkpt><trkpt lat="46.03305935724121" lon="12.024451891625365"><ele>463.59999999999997</ele><time>2026-05-03T14:47:15Z</time></trkpt><trkpt lat="46.03310743874578" lon="12.024388608806829"><ele>460.79999999999995</ele><time>2026-05-03T14:47:16Z</time></trkpt><trkpt lat="46.033175235461094" lon="12.02425204732376"><ele>458.0</ele><time>2026-05-03T14:47:18Z</time></trkpt><trkpt lat="46.03329953409047" lon="12.024168378508564"><ele>457.16666666666663</ele><time>2026-05-03T14:47:20Z</time></trkpt><trkpt lat="46.03338659382538" lon="12.024153884841184"><ele>456.3333333333333</ele><time>2026-05-03T14:47:21Z</time></trkpt><trkpt lat="46.033450371703076" lon="12.024097374808916"><ele>455.5</ele><time>2026-05-03T14:47:22Z</time></trkpt><trkpt lat="46.03351851897767" lon="12.024054526014089"><ele>454.66666666666663</ele><time>2026-05-03T14:47:23Z</time></trkpt><trkpt lat="46.03364071832558" lon="12.024001157155679"><ele>453.8333333333333</ele><time>2026-05-03T14:47:25Z</time></trkpt><trkpt lat="46.0336984437052" lon="12.023946275474012"><ele>453.0</ele><time>2026-05-03T14:47:26Z</time></trkpt><trkpt lat="46.033822370340246" lon="12.023905772195434"><ele>453.0</ele><time>2026-05-03T14:47:28Z</time></trkpt><trkpt lat="46.033938729067046" lon="12.023953516728248"><ele>453.0</ele><time>2026-05-03T14:47:30Z</time></trkpt><trkpt lat="46.03398408931011" lon="12.024027701610358"><ele>453.0</ele><time>2026-05-03T14:47:31Z</time></trkpt><trkpt lat="46.03404984612991" lon="12.02411181388727"><ele>453.0</ele><time>2026-05-03T14:47:32Z</time></trkpt><trkpt lat="46.03410467266949" lon="12.024188407484763"><ele>453.0</ele><time>2026-05-03T14:47:33Z</time></trkpt><trkpt lat="46.034161131457" lon="12.024266716700959"><ele>453.0</ele><time>2026-05-03T14:47:34Z</time></trkpt><trkpt lat="46.03421474507908" lon="12.024339402398056"><ele>453.0</ele><time>2026-05-03T14:47:35Z</time></trkpt><trkpt lat="46.03425377455321" lon="12.024418656943048"><ele>453.0</ele><time>2026-05-03T14:47:36Z</time></trkpt><trkpt lat="46.03429209672604" lon="12.024494924280397"><ele>453.0</ele><time>2026-05-03T14:47:37Z</time></trkpt><trkpt lat="46.03432634936567" lon="12.024583044827418"><ele>453.0</ele><time>2026-05-03T14:47:38Z</time></trkpt><trkpt lat="46.03436340575587" lon="12.024672733145616"><ele>453.0</ele><time>2026-05-03T14:47:39Z</time></trkpt><trkpt lat="46.034420454686654" lon="12.024813789971049"><ele>453.0</ele><time>2026-05-03T14:47:40Z</time></trkpt><trkpt lat="46.03446269534629" lon="12.024999672893868"><ele>453.0</ele><time>2026-05-03T14:47:41Z</time></trkpt><trkpt lat="46.03448997278758" lon="12.025160824288887"><ele>453.0</ele><time>2026-05-03T14:47:42Z</time></trkpt><trkpt lat="46.03452381810732" lon="12.025348711856386"><ele>453.0</ele><time>2026-05-03T14:47:43Z</time></trkpt><trkpt lat="46.034554483975334" lon="12.025523974334769"><ele>453.0</ele><time>2026-05-03T14:47:44Z</time></trkpt><trkpt lat="46.034590367481165" lon="12.025700128277846"><ele>453.25</ele><time>2026-05-03T14:47:45Z</time></trkpt><trkpt lat="46.034647092387125" lon="12.025906407441644"><ele>453.5</ele><time>2026-05-03T14:47:46Z</time></trkpt><trkpt lat="46.03470406164261" lon="12.026080252600677"><ele>453.75</ele><time>2026-05-03T14:47:47Z</time></trkpt><trkpt lat="46.034748753545394" lon="12.026247595920344"><ele>454.0</ele><time>2026-05-03T14:47:48Z</time></trkpt><trkpt lat="46.03477548512026" lon="12.026418342202128"><ele>454.0</ele><time>2026-05-03T14:47:49Z</time></trkpt><trkpt lat="46.034794478954744" lon="12.026588532958156"><ele>454.0</ele><time>2026-05-03T14:47:50Z</time></trkpt><trkpt lat="46.03482270323662" lon="12.02675338791716"><ele>454.0</ele><time>2026-05-03T14:47:51Z</time></trkpt><trkpt lat="46.034867873934246" lon="12.026916251050068"><ele>454.0</ele><time>2026-05-03T14:47:52Z</time></trkpt><trkpt lat="46.034936900552054" lon="12.027078376318173"><ele>447.75</ele><time>2026-05-03T14:47:53Z</time></trkpt><trkpt lat="46.03504498422751" lon="12.027241074201067"><ele>441.5</ele><time>2026-05-03T14:47:54Z</time></trkpt><trkpt lat="46.03513991615329" lon="12.027370143715402"><ele>435.25</ele><time>2026-05-03T14:47:55Z</time></trkpt><trkpt lat="46.035216609895585" lon="12.027511433217283"><ele>429.0</ele><time>2026-05-03T14:47:56Z</time></trkpt><trkpt lat="46.03529788874924" lon="12.02763268499879"><ele>429.0</ele><time>2026-05-03T14:47:57Z</time></trkpt><trkpt lat="46.0353764451151" lon="12.027745618890034"><ele>429.0</ele><time>2026-05-03T14:47:58Z</time></trkpt><trkpt lat="46.03545280723472" lon="12.027857637398595"><ele>429.0</ele><time>2026-05-03T14:47:59Z</time></trkpt><trkpt lat="46.03552530747751" lon="12.027964178606501"><ele>429.0</ele><time>2026-05-03T14:48:00Z</time></trkpt><trkpt lat="46.03559317343314" lon="12.02806558037657"><ele>429.0</ele><time>2026-05-03T14:48:01Z</time></trkpt><trkpt lat="46.035657805744165" lon="12.028157117628604"><ele>429.0</ele><time>2026-05-03T14:48:02Z</time></trkpt><trkpt lat="46.03573163420586" lon="12.0282571851919"><ele>429.0</ele><time>2026-05-03T14:48:03Z</time></trkpt><trkpt lat="46.03580770987023" lon="12.02834650239083"><ele>429.0</ele><time>2026-05-03T14:48:04Z</time></trkpt><trkpt lat="46.03588835654635" lon="12.02841762850791"><ele>429.0</ele><time>2026-05-03T14:48:05Z</time></trkpt><trkpt lat="46.03598188536158" lon="12.028456106157599"><ele>429.0</ele><time>2026-05-03T14:48:06Z</time></trkpt><trkpt lat="46.03611016309667" lon="12.02846112421023"><ele>425.25</ele><time>2026-05-03T14:48:07Z</time></trkpt><trkpt lat="46.03626003804796" lon="12.02842267675838"><ele>421.5</ele><time>2026-05-03T14:48:08Z</time></trkpt><trkpt lat="46.03638657020049" lon="12.028391757135303"><ele>417.75</ele><time>2026-05-03T14:48:09Z</time></trkpt><trkpt lat="46.03650762825892" lon="12.02836009044465"><ele>414.0</ele><time>2026-05-03T14:48:10Z</time></trkpt><trkpt lat="46.036630211305656" lon="12.0283207095309"><ele>410.6</ele><time>2026-05-03T14:48:11Z</time></trkpt><trkpt lat="46.036746649293406" lon="12.028276552150677"><ele>407.2</ele><time>2026-05-03T14:48:12Z</time></trkpt><trkpt lat="46.036855729206934" lon="12.028243145474754"><ele>403.8</ele><time>2026-05-03T14:48:13Z</time></trkpt><trkpt lat="46.03696565596891" lon="12.028206376989"><ele>400.40000000000003</ele><time>2026-05-03T14:48:14Z</time></trkpt><trkpt lat="46.03706312056234" lon="12.028153879196003"><ele>397.0</ele><time>2026-05-03T14:48:15Z</time></trkpt><trkpt lat="46.03715230249213" lon="12.028086947281976"><ele>397.0</ele><time>2026-05-03T14:48:16Z</time></trkpt><trkpt lat="46.03725015961157" lon="12.02800384230074"><ele>397.0</ele><time>2026-05-03T14:48:17Z</time></trkpt><trkpt lat="46.0373419703842" lon="12.027906832131574"><ele>397.0</ele><time>2026-05-03T14:48:18Z</time></trkpt><trkpt lat="46.03742031599716" lon="12.027807610122304"><ele>397.0</ele><time>2026-05-03T14:48:19Z</time></trkpt><trkpt lat="46.03748898059793" lon="12.027688000555095"><ele>397.0</ele><time>2026-05-03T14:48:20Z</time></trkpt><trkpt lat="46.037542548281344" lon="12.02753492792807"><ele>394.6</ele><time>2026-05-03T14:48:21Z</time></trkpt><trkpt lat="46.037579482509635" lon="12.027409407780345"><ele>392.20000000000005</ele><time>2026-05-03T14:48:22Z</time></trkpt><trkpt lat="46.03759763719853" lon="12.027289445803854"><ele>389.8</ele><time>2026-05-03T14:48:23Z</time></trkpt><trkpt lat="46.03760621297068" lon="12.027140440217936"><ele>387.4</ele><time>2026-05-03T14:48:24Z</time></trkpt><trkpt lat="46.03760501245363" lon="12.026989767082435"><ele>385.0</ele><time>2026-05-03T14:48:25Z</time></trkpt><trkpt lat="46.03759346036084" lon="12.026856876884205"><ele>385.00000000000006</ele><time>2026-05-03T14:48:26Z</time></trkpt><trkpt lat="46.03760572419726" lon="12.026730456758258"><ele>385.0</ele><time>2026-05-03T14:48:27Z</time></trkpt><trkpt lat="46.037603430303236" lon="12.026618901689075"><ele>385.0</ele><time>2026-05-03T14:48:28Z</time></trkpt><trkpt lat="46.03764021598502" lon="12.026519571341135"><ele>385.0</ele><time>2026-05-03T14:48:29Z</time></trkpt><trkpt lat="46.037696642476185" lon="12.026444662558193"><ele>385.00000000000006</ele><time>2026-05-03T14:48:30Z</time></trkpt><trkpt lat="46.037763351199935" lon="12.026402899034851"><ele>385.0</ele><time>2026-05-03T14:48:31Z</time></trkpt><trkpt lat="46.03784400349629" lon="12.026383761917394"><ele>385.0</ele><time>2026-05-03T14:48:32Z</time></trkpt><trkpt lat="46.03792379720369" lon="12.026403815121931"><ele>385.0</ele><time>2026-05-03T14:48:33Z</time></trkpt><trkpt lat="46.03800234684584" lon="12.026460141996095"><ele>385.0</ele><time>2026-05-03T14:48:34Z</time></trkpt><trkpt lat="46.038085008769805" lon="12.02656745439882"><ele>385.0</ele><time>2026-05-03T14:48:35Z</time></trkpt><trkpt lat="46.03817075740909" lon="12.026736477600497"><ele>385.0</ele><time>2026-05-03T14:48:36Z</time></trkpt><trkpt lat="46.03826091742139" lon="12.026889533160032"><ele>381.0</ele><time>2026-05-03T14:48:37Z</time></trkpt><trkpt lat="46.038346726772815" lon="12.027026192542513"><ele>377.0</ele><time>2026-05-03T14:48:38Z</time></trkpt><trkpt lat="46.03842894772256" lon="12.027172138382857"><ele>373.0</ele><time>2026-05-03T14:48:39Z</time></trkpt><trkpt lat="46.038514851150545" lon="12.027321147453453"><ele>369.0</ele><time>2026-05-03T14:48:40Z</time></trkpt><trkpt lat="46.03859817532947" lon="12.027460526240791"><ele>369.0</ele><time>2026-05-03T14:48:40.999Z</time></trkpt><trkpt lat="46.038673272857366" lon="12.027588938743696"><ele>369.0</ele><time>2026-05-03T14:48:41.999Z</time></trkpt><trkpt lat="46.0387452693594" lon="12.02771694205791"><ele>369.0</ele><time>2026-05-03T14:48:42.999Z</time></trkpt><trkpt lat="46.03881702553811" lon="12.027831650944977"><ele>369.0</ele><time>2026-05-03T14:48:43.999Z</time></trkpt><trkpt lat="46.03888828659083" lon="12.027947655414764"><ele>369.0</ele><time>2026-05-03T14:48:44.999Z</time></trkpt><trkpt lat="46.03895009387833" lon="12.028056011769054"><ele>369.0</ele><time>2026-05-03T14:48:45.999Z</time></trkpt><trkpt lat="46.03901688546722" lon="12.028165553472716"><ele>369.0</ele><time>2026-05-03T14:48:46.999Z</time></trkpt><trkpt lat="46.039106157320724" lon="12.028283376462964"><ele>369.0</ele><time>2026-05-03T14:48:47.999Z</time></trkpt><trkpt lat="46.039201837114554" lon="12.02837985626841"><ele>369.0</ele><time>2026-05-03T14:48:48.999Z</time></trkpt><trkpt lat="46.03929488132371" lon="12.028444348284376"><ele>369.0</ele><time>2026-05-03T14:48:49.999Z</time></trkpt><trkpt lat="46.039405375600126" lon="12.028497471360675"><ele>364.75</ele><time>2026-05-03T14:48:50.999Z</time></trkpt><trkpt lat="46.03951354674768" lon="12.0285300358856"><ele>360.5</ele><time>2026-05-03T14:48:51.999Z</time></trkpt><trkpt lat="46.03962913628231" lon="12.028531554379787"><ele>356.25</ele><time>2026-05-03T14:48:52.999Z</time></trkpt><trkpt lat="46.03974506760395" lon="12.02851525147198"><ele>352.0</ele><time>2026-05-03T14:48:53.999Z</time></trkpt><trkpt lat="46.03986585509161" lon="12.028469547274764"><ele>350.5</ele><time>2026-05-03T14:48:54.999Z</time></trkpt><trkpt lat="46.03999039404807" lon="12.028385095908167"><ele>349.0</ele><time>2026-05-03T14:48:55.999Z</time></trkpt><trkpt lat="46.04009662853747" lon="12.028300068656415"><ele>347.5</ele><time>2026-05-03T14:48:56.999Z</time></trkpt><trkpt lat="46.040202690069805" lon="12.028225346979273"><ele>346.0</ele><time>2026-05-03T14:48:57.999Z</time></trkpt><trkpt lat="46.040301129023426" lon="12.028150401671407"><ele>345.8</ele><time>2026-05-03T14:48:58.999Z</time></trkpt><trkpt lat="46.040407576326245" lon="12.028072237576414"><ele>345.6</ele><time>2026-05-03T14:48:59.999Z</time></trkpt><trkpt lat="46.04050769229364" lon="12.027997917489202"><ele>345.4</ele><time>2026-05-03T14:49:00.999Z</time></trkpt><trkpt lat="46.040604272566966" lon="12.02792718670397"><ele>345.2</ele><time>2026-05-03T14:49:01.999Z</time></trkpt><trkpt lat="46.04069510475436" lon="12.027860729047081"><ele>345.0</ele><time>2026-05-03T14:49:02.999Z</time></trkpt><trkpt lat="46.040778227031126" lon="12.027795211501775"><ele>343.6666666666667</ele><time>2026-05-03T14:49:03.999Z</time></trkpt><trkpt lat="46.040860627105104" lon="12.02773326055915"><ele>342.3333333333333</ele><time>2026-05-03T14:49:04.999Z</time></trkpt><trkpt lat="46.04093246311082" lon="12.027671894182626"><ele>341.0</ele><time>2026-05-03T14:49:05.999Z</time></trkpt><trkpt lat="46.040990372444874" lon="12.027602641110098"><ele>339.66666666666663</ele><time>2026-05-03T14:49:07Z</time></trkpt><trkpt lat="46.04104816041205" lon="12.027520206286614"><ele>338.3333333333333</ele><time>2026-05-03T14:49:08Z</time></trkpt><trkpt lat="46.04108138071517" lon="12.027363781375518"><ele>337.0</ele><time>2026-05-03T14:49:09Z</time></trkpt><trkpt lat="46.04108417611787" lon="12.027168003697193"><ele>335.5</ele><time>2026-05-03T14:49:10Z</time></trkpt><trkpt lat="46.04108132434503" lon="12.02698347963176"><ele>334.0</ele><time>2026-05-03T14:49:11Z</time></trkpt><trkpt lat="46.04108275288824" lon="12.026815167304704"><ele>332.5</ele><time>2026-05-03T14:49:12Z</time></trkpt><trkpt lat="46.04106765696675" lon="12.026650594224963"><ele>331.0</ele><time>2026-05-03T14:49:13Z</time></trkpt><trkpt lat="46.04106759306542" lon="12.026500700066377"><ele>328.2</ele><time>2026-05-03T14:49:14Z</time></trkpt><trkpt lat="46.04107271101539" lon="12.026349420873478"><ele>325.40000000000003</ele><time>2026-05-03T14:49:15Z</time></trkpt><trkpt lat="46.04107092389833" lon="12.026212193856182"><ele>322.6</ele><time>2026-05-03T14:49:16Z</time></trkpt><trkpt lat="46.04104824046475" lon="12.026080014642766"><ele>319.8</ele><time>2026-05-03T14:49:17Z</time></trkpt><trkpt lat="46.04101255158793" lon="12.025954613638643"><ele>317.0</ele><time>2026-05-03T14:49:18Z</time></trkpt><trkpt lat="46.040973120884225" lon="12.025841713973511"><ele>315.8</ele><time>2026-05-03T14:49:19Z</time></trkpt><trkpt lat="46.040944813774075" lon="12.025731381667573"><ele>314.6</ele><time>2026-05-03T14:49:20Z</time></trkpt><trkpt lat="46.04093340223034" lon="12.025613146738637"><ele>313.40000000000003</ele><time>2026-05-03T14:49:21Z</time></trkpt><trkpt lat="46.04095501529123" lon="12.025497721002392"><ele>312.2</ele><time>2026-05-03T14:49:22Z</time></trkpt><trkpt lat="46.04101893421884" lon="12.025390389902459"><ele>311.0</ele><time>2026-05-03T14:49:23Z</time></trkpt><trkpt lat="46.041105089002606" lon="12.025301748983445"><ele>311.0</ele><time>2026-05-03T14:49:24Z</time></trkpt><trkpt lat="46.041220010925784" lon="12.02518445086801"><ele>311.0</ele><time>2026-05-03T14:49:25Z</time></trkpt><trkpt lat="46.04131199643414" lon="12.02506562029742"><ele>311.0</ele><time>2026-05-03T14:49:26Z</time></trkpt><trkpt lat="46.04141477734221" lon="12.024957273678584"><ele>311.0</ele><time>2026-05-03T14:49:27Z</time></trkpt><trkpt lat="46.04150572519876" lon="12.024847298302731"><ele>311.25</ele><time>2026-05-03T14:49:28Z</time></trkpt><trkpt lat="46.04158123158829" lon="12.024711844010852"><ele>311.5</ele><time>2026-05-03T14:49:29Z</time></trkpt><trkpt lat="46.04166288371061" lon="12.024561019200846"><ele>311.75</ele><time>2026-05-03T14:49:30Z</time></trkpt><trkpt lat="46.04173330953628" lon="12.02443084594838"><ele>312.0</ele><time>2026-05-03T14:49:31Z</time></trkpt><trkpt lat="46.041800662434945" lon="12.024321317480505"><ele>310.1666666666667</ele><time>2026-05-03T14:49:32Z</time></trkpt><trkpt lat="46.0418460257858" lon="12.02424446580709"><ele>308.3333333333333</ele><time>2026-05-03T14:49:33Z</time></trkpt><trkpt lat="46.04189794823918" lon="12.024166880502428"><ele>306.5</ele><time>2026-05-03T14:49:34Z</time></trkpt><trkpt lat="46.041958027835946" lon="12.024102815567367"><ele>304.66666666666663</ele><time>2026-05-03T14:49:35Z</time></trkpt><trkpt lat="46.04202725073608" lon="12.024059017950407"><ele>302.8333333333333</ele><time>2026-05-03T14:49:36Z</time></trkpt><trkpt lat="46.04210915290113" lon="12.02402315318703"><ele>301.0</ele><time>2026-05-03T14:49:37Z</time></trkpt><trkpt lat="46.04219897721684" lon="12.024019206094989"><ele>299.40000000000003</ele><time>2026-05-03T14:49:38Z</time></trkpt><trkpt lat="46.042299133753026" lon="12.024041700989068"><ele>297.8</ele><time>2026-05-03T14:49:39Z</time></trkpt><trkpt lat="46.042396175081564" lon="12.02409911991513"><ele>296.20000000000005</ele><time>2026-05-03T14:49:40Z</time></trkpt><trkpt lat="46.04248332292614" lon="12.024167361764762"><ele>294.6</ele><time>2026-05-03T14:49:41Z</time></trkpt><trkpt lat="46.04256569970365" lon="12.02423431699963"><ele>293.0</ele><time>2026-05-03T14:49:42Z</time></trkpt><trkpt lat="46.04265010327736" lon="12.02429420013285"><ele>293.0</ele><time>2026-05-03T14:49:43Z</time></trkpt><trkpt lat="46.04272773883823" lon="12.024362085848134"><ele>293.0</ele><time>2026-05-03T14:49:44Z</time></trkpt><trkpt lat="46.04279586005566" lon="12.024445816392053"><ele>293.0</ele><time>2026-05-03T14:49:45Z</time></trkpt><trkpt lat="46.04285491977514" lon="12.024548275476793"><ele>293.0</ele><time>2026-05-03T14:49:46Z</time></trkpt><trkpt lat="46.04291408749939" lon="12.024679720763693"><ele>293.0</ele><time>2026-05-03T14:49:47Z</time></trkpt><trkpt lat="46.04296974960612" lon="12.024821258797305"><ele>293.0</ele><time>2026-05-03T14:49:48Z</time></trkpt><trkpt lat="46.04302824806255" lon="12.02494591526706"><ele>293.0</ele><time>2026-05-03T14:49:49Z</time></trkpt><trkpt lat="46.043085010001604" lon="12.025064462774582"><ele>293.0</ele><time>2026-05-03T14:49:50Z</time></trkpt><trkpt lat="46.043130338896646" lon="12.025185878951568"><ele>293.0</ele><time>2026-05-03T14:49:51Z</time></trkpt><trkpt lat="46.04318756840619" lon="12.025292991953972"><ele>293.0</ele><time>2026-05-03T14:49:52Z</time></trkpt><trkpt lat="46.04324307897199" lon="12.025394540268405"><ele>295.6</ele><time>2026-05-03T14:49:53Z</time></trkpt><trkpt lat="46.04329528035727" lon="12.025485003776039"><ele>298.20000000000005</ele><time>2026-05-03T14:49:54Z</time></trkpt><trkpt lat="46.043357034010086" lon="12.025559524128344"><ele>300.8</ele><time>2026-05-03T14:49:55Z</time></trkpt><trkpt lat="46.04343413399644" lon="12.025607413412178"><ele>303.40000000000003</ele><time>2026-05-03T14:49:56Z</time></trkpt><trkpt lat="46.04353430166759" lon="12.025582381740056"><ele>306.0</ele><time>2026-05-03T14:49:57Z</time></trkpt><trkpt lat="46.043658013731175" lon="12.025553300574424"><ele>299.8</ele><time>2026-05-03T14:49:58Z</time></trkpt><trkpt lat="46.043760834229595" lon="12.025496565142761"><ele>293.6</ele><time>2026-05-03T14:49:59Z</time></trkpt><trkpt lat="46.04385741710357" lon="12.025436763905235"><ele>287.4</ele><time>2026-05-03T14:50:00Z</time></trkpt><trkpt lat="46.043939473841185" lon="12.025356420574434"><ele>281.2</ele><time>2026-05-03T14:50:01Z</time></trkpt><trkpt lat="46.04401733391269" lon="12.025303856765825"><ele>275.0</ele><time>2026-05-03T14:50:02Z</time></trkpt><trkpt lat="46.044086955442964" lon="12.02523854449905"><ele>273.4</ele><time>2026-05-03T14:50:03Z</time></trkpt><trkpt lat="46.04416136664828" lon="12.025178901643775"><ele>271.8</ele><time>2026-05-03T14:50:04Z</time></trkpt><trkpt lat="46.04424617171046" lon="12.025131459866373"><ele>270.2</ele><time>2026-05-03T14:50:05Z</time></trkpt><trkpt lat="46.04435699396639" lon="12.02512236218718"><ele>268.6</ele><time>2026-05-03T14:50:06Z</time></trkpt><trkpt lat="46.04448202505515" lon="12.025130801496996"><ele>267.0</ele><time>2026-05-03T14:50:07Z</time></trkpt><trkpt lat="46.04460251241023" lon="12.02513185585129"><ele>267.0</ele><time>2026-05-03T14:50:08Z</time></trkpt><trkpt lat="46.04473292830681" lon="12.025133343856949"><ele>267.0</ele><time>2026-05-03T14:50:09Z</time></trkpt><trkpt lat="46.04484258481129" lon="12.025137405273435"><ele>267.0</ele><time>2026-05-03T14:50:10Z</time></trkpt><trkpt lat="46.044933339604945" lon="12.025136657930975"><ele>267.0</ele><time>2026-05-03T14:50:11Z</time></trkpt><trkpt lat="46.045005000388514" lon="12.025138094006044"><ele>267.0</ele><time>2026-05-03T14:50:12Z</time></trkpt><trkpt lat="46.04510387262802" lon="12.025148685354218"><ele>266.5</ele><time>2026-05-03T14:50:14Z</time></trkpt><trkpt lat="46.04517602357277" lon="12.02516534849666"><ele>266.0</ele><time>2026-05-03T14:50:18Z</time></trkpt><trkpt lat="46.04523669521588" lon="12.02513876728914"><ele>265.5</ele><time>2026-05-03T14:50:29Z</time></trkpt><trkpt lat="46.04527486581798" lon="12.02496816681066"><ele>265.0</ele><time>2026-05-03T14:50:31Z</time></trkpt><trkpt lat="46.045272841616324" lon="12.024837226753984"><ele>264.5</ele><time>2026-05-03T14:50:32Z</time></trkpt><trkpt lat="46.04527896297925" lon="12.024714255304556"><ele>264.0</ele><time>2026-05-03T14:50:33Z</time></trkpt><trkpt lat="46.0453074537419" lon="12.024579683895775"><ele>264.0</ele><time>2026-05-03T14:50:34Z</time></trkpt><trkpt lat="46.04531592613633" lon="12.024458201184093"><ele>264.0</ele><time>2026-05-03T14:50:35Z</time></trkpt><trkpt lat="46.045306833481995" lon="12.024350580709395"><ele>264.0</ele><time>2026-05-03T14:50:36Z</time></trkpt><trkpt lat="46.04532715001295" lon="12.024240115297422"><ele>264.0</ele><time>2026-05-03T14:50:37Z</time></trkpt><trkpt lat="46.04532569352062" lon="12.024119432330378"><ele>264.0</ele><time>2026-05-03T14:50:38Z</time></trkpt><trkpt lat="46.04532034302345" lon="12.023992574996969"><ele>264.0</ele><time>2026-05-03T14:50:39Z</time></trkpt><trkpt lat="46.045309470612224" lon="12.023845363945899"><ele>263.8</ele><time>2026-05-03T14:50:40Z</time></trkpt><trkpt lat="46.04529198184" lon="12.02369971715459"><ele>263.59999999999997</ele><time>2026-05-03T14:50:41Z</time></trkpt><trkpt lat="46.045272542873164" lon="12.023565254273356"><ele>263.4</ele><time>2026-05-03T14:50:42Z</time></trkpt><trkpt lat="46.045251967350964" lon="12.023434928271456"><ele>263.2</ele><time>2026-05-03T14:50:43Z</time></trkpt><trkpt lat="46.045229509606855" lon="12.023303938158929"><ele>263.0</ele><time>2026-05-03T14:50:44Z</time></trkpt><trkpt lat="46.045206054601515" lon="12.023167131023524"><ele>262.8</ele><time>2026-05-03T14:50:45Z</time></trkpt><trkpt lat="46.045182660149784" lon="12.023030672453633"><ele>262.6</ele><time>2026-05-03T14:50:46Z</time></trkpt><trkpt lat="46.045159719526936" lon="12.022895231799867"><ele>262.4</ele><time>2026-05-03T14:50:47Z</time></trkpt><trkpt lat="46.0451205826464" lon="12.022764540767263"><ele>262.2</ele><time>2026-05-03T14:50:48Z</time></trkpt><trkpt lat="46.045098096088715" lon="12.022625695941281"><ele>262.0</ele><time>2026-05-03T14:50:49Z</time></trkpt><trkpt lat="46.04507609799385" lon="12.022483687691324"><ele>261.8</ele><time>2026-05-03T14:50:50Z</time></trkpt><trkpt lat="46.0450609526424" lon="12.022345852454112"><ele>261.6</ele><time>2026-05-03T14:50:51Z</time></trkpt><trkpt lat="46.045038541770325" lon="12.022204181895752"><ele>261.40000000000003</ele><time>2026-05-03T14:50:52Z</time></trkpt><trkpt lat="46.04501238836789" lon="12.022063540450368"><ele>261.2</ele><time>2026-05-03T14:50:53Z</time></trkpt><trkpt lat="46.044994273435805" lon="12.021927637112048"><ele>261.0</ele><time>2026-05-03T14:50:54Z</time></trkpt><trkpt lat="46.04496801787433" lon="12.021791112877509"><ele>261.40000000000003</ele><time>2026-05-03T14:50:55Z</time></trkpt><trkpt lat="46.044936502931" lon="12.021659858789949"><ele>261.8</ele><time>2026-05-03T14:50:56Z</time></trkpt><trkpt lat="46.04489614956394" lon="12.021526031954137"><ele>262.20000000000005</ele><time>2026-05-03T14:50:57Z</time></trkpt><trkpt lat="46.04485288428927" lon="12.02139689689453"><ele>262.6</ele><time>2026-05-03T14:50:58Z</time></trkpt><trkpt lat="46.044810475372024" lon="12.021268187387589"><ele>263.0</ele><time>2026-05-03T14:50:58.999Z</time></trkpt><trkpt lat="46.044772493255536" lon="12.021132484769247"><ele>263.0</ele><time>2026-05-03T14:50:59.999Z</time></trkpt><trkpt lat="46.04473784973568" lon="12.020995259210487"><ele>263.0</ele><time>2026-05-03T14:51:00.999Z</time></trkpt><trkpt lat="46.044707147969405" lon="12.020856865517558"><ele>263.0</ele><time>2026-05-03T14:51:01.999Z</time></trkpt><trkpt lat="46.04468056210536" lon="12.0207177823034"><ele>263.0</ele><time>2026-05-03T14:51:02.999Z</time></trkpt><trkpt lat="46.04465078731201" lon="12.020589975478302"><ele>263.0</ele><time>2026-05-03T14:51:03.999Z</time></trkpt><trkpt lat="46.0446228076096" lon="12.020455037561755"><ele>262.6</ele><time>2026-05-03T14:51:04.999Z</time></trkpt><trkpt lat="46.04459881484227" lon="12.020306686947226"><ele>262.20000000000005</ele><time>2026-05-03T14:51:05.999Z</time></trkpt><trkpt lat="46.04459486751484" lon="12.020151790485784"><ele>261.8</ele><time>2026-05-03T14:51:06.999Z</time></trkpt><trkpt lat="46.044582123927945" lon="12.020001057694051"><ele>261.40000000000003</ele><time>2026-05-03T14:51:07.999Z</time></trkpt><trkpt lat="46.04457525651236" lon="12.019860101412746"><ele>261.0</ele><time>2026-05-03T14:51:08.999Z</time></trkpt><trkpt lat="46.04457302731083" lon="12.019710674601004"><ele>260.6</ele><time>2026-05-03T14:51:09.999Z</time></trkpt><trkpt lat="46.04457224293966" lon="12.019560343998196"><ele>260.20000000000005</ele><time>2026-05-03T14:51:10.999Z</time></trkpt><trkpt lat="46.04457143841366" lon="12.01940615043729"><ele>259.79999999999995</ele><time>2026-05-03T14:51:11.999Z</time></trkpt><trkpt lat="46.04457059533566" lon="12.01924456762111"><ele>259.4</ele><time>2026-05-03T14:51:13Z</time></trkpt><trkpt lat="46.04456974886331" lon="12.019082334531529"><ele>259.0</ele><time>2026-05-03T14:51:14Z</time></trkpt><trkpt lat="46.04455392081648" lon="12.018927978902546"><ele>258.8</ele><time>2026-05-03T14:51:15Z</time></trkpt><trkpt lat="46.044558986641" lon="12.018779639535245"><ele>258.59999999999997</ele><time>2026-05-03T14:51:16Z</time></trkpt><trkpt lat="46.044560077167276" lon="12.018632001397204"><ele>258.4</ele><time>2026-05-03T14:51:17Z</time></trkpt><trkpt lat="46.04456183472607" lon="12.018481855119775"><ele>258.2</ele><time>2026-05-03T14:51:18Z</time></trkpt><trkpt lat="46.044559947786425" lon="12.018327775382698"><ele>258.0</ele><time>2026-05-03T14:51:19Z</time></trkpt><trkpt lat="46.04455834723129" lon="12.018177728634706"><ele>257.8</ele><time>2026-05-03T14:51:20Z</time></trkpt><trkpt lat="46.044557544360835" lon="12.018026868638959"><ele>257.6</ele><time>2026-05-03T14:51:21Z</time></trkpt><trkpt lat="46.044555064143104" lon="12.017878128213281"><ele>257.4</ele><time>2026-05-03T14:51:22Z</time></trkpt><trkpt lat="46.04455217125407" lon="12.017729335865688"><ele>257.2</ele><time>2026-05-03T14:51:23Z</time></trkpt><trkpt lat="46.04454884852557" lon="12.017581294150038"><ele>257.0</ele><time>2026-05-03T14:51:24Z</time></trkpt><trkpt lat="46.044562892050386" lon="12.017437584172171"><ele>257.0</ele><time>2026-05-03T14:51:25Z</time></trkpt><trkpt lat="46.04456199567924" lon="12.017292885865926"><ele>257.0</ele><time>2026-05-03T14:51:26Z</time></trkpt><trkpt lat="46.04454299305309" lon="12.017124836232782"><ele>257.0</ele><time>2026-05-03T14:51:27Z</time></trkpt><trkpt lat="46.044553100218366" lon="12.016956541982362"><ele>257.0</ele><time>2026-05-03T14:51:28Z</time></trkpt><trkpt lat="46.04453930449168" lon="12.016787207173639"><ele>257.0</ele><time>2026-05-03T14:51:29Z</time></trkpt><trkpt lat="46.0445154196321" lon="12.016607754368438"><ele>257.0</ele><time>2026-05-03T14:51:30Z</time></trkpt><trkpt lat="46.04448705467348" lon="12.016424208829688"><ele>257.0</ele><time>2026-05-03T14:51:31Z</time></trkpt><trkpt lat="46.04444010658301" lon="12.016241770070947"><ele>257.0</ele><time>2026-05-03T14:51:32Z</time></trkpt><trkpt lat="46.04438907267224" lon="12.016064703572455"><ele>257.0</ele><time>2026-05-03T14:51:33Z</time></trkpt><trkpt lat="46.04433725649847" lon="12.015888481845877"><ele>257.0</ele><time>2026-05-03T14:51:34Z</time></trkpt><trkpt lat="46.04428743422367" lon="12.015719041148495"><ele>257.0</ele><time>2026-05-03T14:51:35Z</time></trkpt><trkpt lat="46.044243244684495" lon="12.015568102185423"><ele>257.0</ele><time>2026-05-03T14:51:36Z</time></trkpt><trkpt lat="46.044202061384794" lon="12.015427168686557"><ele>256.8</ele><time>2026-05-03T14:51:37Z</time></trkpt><trkpt lat="46.04416239049633" lon="12.015291411194223"><ele>256.6</ele><time>2026-05-03T14:51:38Z</time></trkpt><trkpt lat="46.044117509762835" lon="12.015137824813092"><ele>256.40000000000003</ele><time>2026-05-03T14:51:39Z</time></trkpt><trkpt lat="46.04407356273459" lon="12.014984868629435"><ele>256.2</ele><time>2026-05-03T14:51:40Z</time></trkpt><trkpt lat="46.044030702422255" lon="12.014835413602126"><ele>256.0</ele><time>2026-05-03T14:51:41Z</time></trkpt><trkpt lat="46.04398607060662" lon="12.0146797815043"><ele>256.0</ele><time>2026-05-03T14:51:42Z</time></trkpt><trkpt lat="46.043939711858265" lon="12.014518127258158"><ele>256.0</ele><time>2026-05-03T14:51:43Z</time></trkpt><trkpt lat="46.04388696171267" lon="12.014334185989398"><ele>256.0</ele><time>2026-05-03T14:51:44Z</time></trkpt><trkpt lat="46.04383639862811" lon="12.014157871311271"><ele>256.0</ele><time>2026-05-03T14:51:45Z</time></trkpt><trkpt lat="46.043785904079236" lon="12.013981795459438"><ele>255.0</ele><time>2026-05-03T14:51:46Z</time></trkpt><trkpt lat="46.04373983326046" lon="12.013821145261694"><ele>254.0</ele><time>2026-05-03T14:51:47Z</time></trkpt><trkpt lat="46.04369197927358" lon="12.013654819740939"><ele>253.0</ele><time>2026-05-03T14:51:48Z</time></trkpt><trkpt lat="46.043646366283575" lon="12.013496459005788"><ele>252.0</ele><time>2026-05-03T14:51:49Z</time></trkpt><trkpt lat="46.043600906190875" lon="12.013338567300993"><ele>251.5</ele><time>2026-05-03T14:51:50Z</time></trkpt><trkpt lat="46.043556354645006" lon="12.013183682087524"><ele>251.0</ele><time>2026-05-03T14:51:51Z</time></trkpt><trkpt lat="46.04351079477741" lon="12.0130252912968"><ele>250.5</ele><time>2026-05-03T14:51:52Z</time></trkpt><trkpt lat="46.0434625912969" lon="12.012857709906983"><ele>250.0</ele><time>2026-05-03T14:51:53Z</time></trkpt><trkpt lat="46.04340444785474" lon="12.012683779728103"><ele>250.0</ele><time>2026-05-03T14:51:54Z</time></trkpt><trkpt lat="46.04335309071668" lon="12.012524171011991"><ele>250.0</ele><time>2026-05-03T14:51:55Z</time></trkpt><trkpt lat="46.04331329003616" lon="12.012376892012798"><ele>250.0</ele><time>2026-05-03T14:51:56Z</time></trkpt><trkpt lat="46.043271275299276" lon="12.012241196019566"><ele>250.0</ele><time>2026-05-03T14:51:57Z</time></trkpt><trkpt lat="46.043231688946506" lon="12.012090142367029"><ele>250.0</ele><time>2026-05-03T14:51:58Z</time></trkpt><trkpt lat="46.04318407625958" lon="12.011932167743412"><ele>250.0</ele><time>2026-05-03T14:51:59Z</time></trkpt><trkpt lat="46.04314101686649" lon="12.01178506133948"><ele>250.0</ele><time>2026-05-03T14:52:00Z</time></trkpt><trkpt lat="46.043102706073604" lon="12.011654297166432"><ele>250.0</ele><time>2026-05-03T14:52:01Z</time></trkpt><trkpt lat="46.04306141875388" lon="12.011503800091452"><ele>250.0</ele><time>2026-05-03T14:52:02Z</time></trkpt><trkpt lat="46.04302612390469" lon="12.011376167934882"><ele>250.0</ele><time>2026-05-03T14:52:03Z</time></trkpt><trkpt lat="46.043000737435754" lon="12.011261677324095"><ele>250.0</ele><time>2026-05-03T14:52:04Z</time></trkpt><trkpt lat="46.0429853889682" lon="12.011126915944372"><ele>250.0</ele><time>2026-05-03T14:52:05Z</time></trkpt><trkpt lat="46.0429846949468" lon="12.01098721593986"><ele>250.0</ele><time>2026-05-03T14:52:06Z</time></trkpt><trkpt lat="46.04297729361105" lon="12.010874785471671"><ele>250.0</ele><time>2026-05-03T14:52:07Z</time></trkpt><trkpt lat="46.042932021877235" lon="12.01076634621999"><ele>250.0</ele><time>2026-05-03T14:52:08Z</time></trkpt><trkpt lat="46.04284211218289" lon="12.010680247428708"><ele>249.75</ele><time>2026-05-03T14:52:09Z</time></trkpt><trkpt lat="46.042777353015204" lon="12.010548364246118"><ele>249.5</ele><time>2026-05-03T14:52:10Z</time></trkpt><trkpt lat="46.04273001570422" lon="12.010376462789374"><ele>249.25</ele><time>2026-05-03T14:52:11Z</time></trkpt><trkpt lat="46.042675264877545" lon="12.010223062394315"><ele>249.0</ele><time>2026-05-03T14:52:12Z</time></trkpt><trkpt lat="46.04261507736691" lon="12.010064870478287"><ele>249.25</ele><time>2026-05-03T14:52:13Z</time></trkpt><trkpt lat="46.04255476682076" lon="12.009910319764828"><ele>249.5</ele><time>2026-05-03T14:52:14Z</time></trkpt><trkpt lat="46.04248168515217" lon="12.00974126199648"><ele>249.75</ele><time>2026-05-03T14:52:15Z</time></trkpt><trkpt lat="46.04240705377149" lon="12.009558625164798"><ele>250.0</ele><time>2026-05-03T14:52:16Z</time></trkpt><trkpt lat="46.042336938204535" lon="12.009395362420868"><ele>250.0</ele><time>2026-05-03T14:52:17Z</time></trkpt><trkpt lat="46.04226230166672" lon="12.0092245170295"><ele>250.0</ele><time>2026-05-03T14:52:18Z</time></trkpt><trkpt lat="46.042186420885805" lon="12.00904692938021"><ele>250.0</ele><time>2026-05-03T14:52:19Z</time></trkpt><trkpt lat="46.04211791526585" lon="12.008866119918466"><ele>250.0</ele><time>2026-05-03T14:52:20Z</time></trkpt><trkpt lat="46.04204382154562" lon="12.008692092128099"><ele>249.75</ele><time>2026-05-03T14:52:21Z</time></trkpt><trkpt lat="46.04196855286594" lon="12.008507787215436"><ele>249.5</ele><time>2026-05-03T14:52:22Z</time></trkpt><trkpt lat="46.04189726281361" lon="12.008343198839043"><ele>249.25</ele><time>2026-05-03T14:52:23Z</time></trkpt><trkpt lat="46.04183016674732" lon="12.008190798352144"><ele>249.0</ele><time>2026-05-03T14:52:24Z</time></trkpt><trkpt lat="46.04175703200525" lon="12.008024837573586"><ele>248.75</ele><time>2026-05-03T14:52:25Z</time></trkpt><trkpt lat="46.04168289950313" lon="12.00785284839757"><ele>248.5</ele><time>2026-05-03T14:52:26Z</time></trkpt><trkpt lat="46.04160631164618" lon="12.007678759073158"><ele>248.25</ele><time>2026-05-03T14:52:27Z</time></trkpt><trkpt lat="46.04153429007168" lon="12.007514227084325"><ele>248.0</ele><time>2026-05-03T14:52:28Z</time></trkpt><trkpt lat="46.04146798183817" lon="12.00736373982254"><ele>247.75</ele><time>2026-05-03T14:52:29Z</time></trkpt><trkpt lat="46.04140012329053" lon="12.00720875267493"><ele>247.5</ele><time>2026-05-03T14:52:30Z</time></trkpt><trkpt lat="46.04133416669134" lon="12.007053982898949"><ele>247.25</ele><time>2026-05-03T14:52:31Z</time></trkpt><trkpt lat="46.04126598983593" lon="12.006897357102355"><ele>247.0</ele><time>2026-05-03T14:52:32Z</time></trkpt><trkpt lat="46.041195181941106" lon="12.00673922947361"><ele>246.75</ele><time>2026-05-03T14:52:33Z</time></trkpt><trkpt lat="46.04112029023286" lon="12.00657631649216"><ele>246.5</ele><time>2026-05-03T14:52:34Z</time></trkpt><trkpt lat="46.041045991453345" lon="12.006409467179028"><ele>246.25</ele><time>2026-05-03T14:52:35Z</time></trkpt><trkpt lat="46.04097059934799" lon="12.006240825400294"><ele>246.0</ele><time>2026-05-03T14:52:36Z</time></trkpt><trkpt lat="46.04090321137737" lon="12.006073489772646"><ele>246.0</ele><time>2026-05-03T14:52:37Z</time></trkpt><trkpt lat="46.04083452754642" lon="12.005914541002664"><ele>246.0</ele><time>2026-05-03T14:52:38Z</time></trkpt><trkpt lat="46.04076581625791" lon="12.005768758591712"><ele>246.0</ele><time>2026-05-03T14:52:39Z</time></trkpt><trkpt lat="46.04071140194213" lon="12.00563276910199"><ele>246.0</ele><time>2026-05-03T14:52:40Z</time></trkpt><trkpt lat="46.04064873187609" lon="12.005483040537722"><ele>246.0</ele><time>2026-05-03T14:52:41Z</time></trkpt><trkpt lat="46.04057668940318" lon="12.005322166148414"><ele>246.0</ele><time>2026-05-03T14:52:42Z</time></trkpt><trkpt lat="46.040498412213836" lon="12.005147294222438"><ele>246.0</ele><time>2026-05-03T14:52:43Z</time></trkpt><trkpt lat="46.04042197383239" lon="12.004971060977295"><ele>246.0</ele><time>2026-05-03T14:52:44Z</time></trkpt><trkpt lat="46.040349498069666" lon="12.004801518766273"><ele>245.75</ele><time>2026-05-03T14:52:45Z</time></trkpt><trkpt lat="46.04027642678206" lon="12.004632486976254"><ele>245.5</ele><time>2026-05-03T14:52:46Z</time></trkpt><trkpt lat="46.04020236833139" lon="12.004462872252585"><ele>245.25</ele><time>2026-05-03T14:52:47Z</time></trkpt><trkpt lat="46.04013665718646" lon="12.004309171866451"><ele>245.0</ele><time>2026-05-03T14:52:48Z</time></trkpt><trkpt lat="46.04007012105606" lon="12.004156938875706"><ele>244.5</ele><time>2026-05-03T14:52:49Z</time></trkpt><trkpt lat="46.03999482231143" lon="12.00399393361971"><ele>244.0</ele><time>2026-05-03T14:52:50Z</time></trkpt><trkpt lat="46.03992529325861" lon="12.003833331617193"><ele>243.5</ele><time>2026-05-03T14:52:51Z</time></trkpt><trkpt lat="46.03985075286901" lon="12.003672848573729"><ele>243.0</ele><time>2026-05-03T14:52:52Z</time></trkpt><trkpt lat="46.039772503529264" lon="12.003508734382107"><ele>243.0</ele><time>2026-05-03T14:52:53Z</time></trkpt><trkpt lat="46.03969217607448" lon="12.003351340629228"><ele>243.0</ele><time>2026-05-03T14:52:54Z</time></trkpt><trkpt lat="46.03960436000215" lon="12.003197007183081"><ele>243.0</ele><time>2026-05-03T14:52:55Z</time></trkpt><trkpt lat="46.039516784460716" lon="12.003039079690266"><ele>243.0</ele><time>2026-05-03T14:52:56Z</time></trkpt><trkpt lat="46.03942344831021" lon="12.002882179653163"><ele>243.0</ele><time>2026-05-03T14:52:57Z</time></trkpt><trkpt lat="46.03933595556177" lon="12.002734724481469"><ele>243.0</ele><time>2026-05-03T14:52:58Z</time></trkpt><trkpt lat="46.039249889818485" lon="12.002592370638538"><ele>243.0</ele><time>2026-05-03T14:52:59Z</time></trkpt><trkpt lat="46.03916234533397" lon="12.002450142843717"><ele>243.0</ele><time>2026-05-03T14:53:00Z</time></trkpt><trkpt lat="46.03907987208996" lon="12.002314007720964"><ele>243.0</ele><time>2026-05-03T14:53:01Z</time></trkpt><trkpt lat="46.038996270943414" lon="12.002170979914704"><ele>243.0</ele><time>2026-05-03T14:53:02Z</time></trkpt><trkpt lat="46.038910313629145" lon="12.002029403536834"><ele>243.0</ele><time>2026-05-03T14:53:03Z</time></trkpt><trkpt lat="46.03882525545844" lon="12.001883736233136"><ele>243.0</ele><time>2026-05-03T14:53:04Z</time></trkpt><trkpt lat="46.038740696157014" lon="12.00173218072635"><ele>243.25</ele><time>2026-05-03T14:53:05Z</time></trkpt><trkpt lat="46.03866017288705" lon="12.001578892534656"><ele>243.5</ele><time>2026-05-03T14:53:06Z</time></trkpt><trkpt lat="46.03854989420236" lon="12.001458979907454"><ele>243.75</ele><time>2026-05-03T14:53:07Z</time></trkpt><trkpt lat="46.03850961009029" lon="12.001253918229768"><ele>244.0</ele><time>2026-05-03T14:53:08Z</time></trkpt><trkpt lat="46.03844342417228" lon="12.001087203299685"><ele>244.0</ele><time>2026-05-03T14:53:09Z</time></trkpt><trkpt lat="46.03837737309609" lon="12.000919328530612"><ele>244.0</ele><time>2026-05-03T14:53:10Z</time></trkpt><trkpt lat="46.038316098464584" lon="12.000754216363145"><ele>244.0</ele><time>2026-05-03T14:53:11Z</time></trkpt><trkpt lat="46.03825561888461" lon="12.000590251821004"><ele>244.0</ele><time>2026-05-03T14:53:12Z</time></trkpt><trkpt lat="46.0382039002153" lon="12.000425406589665"><ele>243.25</ele><time>2026-05-03T14:53:13Z</time></trkpt><trkpt lat="46.03815951152674" lon="12.000259167406531"><ele>242.5</ele><time>2026-05-03T14:53:14Z</time></trkpt><trkpt lat="46.03811255744254" lon="12.000090184519605"><ele>241.75</ele><time>2026-05-03T14:53:15Z</time></trkpt><trkpt lat="46.03807410822968" lon="11.999922738707358"><ele>241.0</ele><time>2026-05-03T14:53:16Z</time></trkpt><trkpt lat="46.03803551770647" lon="11.999754019784394"><ele>241.0</ele><time>2026-05-03T14:53:17Z</time></trkpt><trkpt lat="46.0380140908932" lon="11.999572660597753"><ele>241.0</ele><time>2026-05-03T14:53:18Z</time></trkpt><trkpt lat="46.037968544571775" lon="11.999405748461156"><ele>241.0</ele><time>2026-05-03T14:53:19Z</time></trkpt><trkpt lat="46.037942070293155" lon="11.999232527187415"><ele>241.0</ele><time>2026-05-03T14:53:20Z</time></trkpt><trkpt lat="46.03791765649563" lon="11.999057171333247"><ele>241.25</ele><time>2026-05-03T14:53:21Z</time></trkpt><trkpt lat="46.037886426160185" lon="11.99886865745907"><ele>241.5</ele><time>2026-05-03T14:53:22Z</time></trkpt><trkpt lat="46.037864043903646" lon="11.998680092580239"><ele>241.75</ele><time>2026-05-03T14:53:23Z</time></trkpt><trkpt lat="46.037838573692056" lon="11.998482817042495"><ele>242.0</ele><time>2026-05-03T14:53:24Z</time></trkpt><trkpt lat="46.037818888279276" lon="11.998301769804103"><ele>241.25</ele><time>2026-05-03T14:53:25Z</time></trkpt><trkpt lat="46.037799172925816" lon="11.998120363723713"><ele>240.5</ele><time>2026-05-03T14:53:26Z</time></trkpt><trkpt lat="46.03778498076617" lon="11.997942464521994"><ele>239.75</ele><time>2026-05-03T14:53:27Z</time></trkpt><trkpt lat="46.037797298438264" lon="11.99775937239884"><ele>239.0</ele><time>2026-05-03T14:53:28Z</time></trkpt><trkpt lat="46.03778575833101" lon="11.997583523112826"><ele>239.5</ele><time>2026-05-03T14:53:29Z</time></trkpt><trkpt lat="46.03777621726493" lon="11.997411219464713"><ele>240.0</ele><time>2026-05-03T14:53:30Z</time></trkpt><trkpt lat="46.03776948648143" lon="11.997245378186317"><ele>240.5</ele><time>2026-05-03T14:53:31Z</time></trkpt><trkpt lat="46.03774332344105" lon="11.997080936298314"><ele>241.0</ele><time>2026-05-03T14:53:32Z</time></trkpt><trkpt lat="46.03774241888618" lon="11.996904305276587"><ele>241.0</ele><time>2026-05-03T14:53:33Z</time></trkpt><trkpt lat="46.0377415514735" lon="11.996725611433064"><ele>241.0</ele><time>2026-05-03T14:53:34Z</time></trkpt><trkpt lat="46.03774165709481" lon="11.99653757576587"><ele>241.0</ele><time>2026-05-03T14:53:35Z</time></trkpt><trkpt lat="46.03774508119571" lon="11.996348536596987"><ele>241.0</ele><time>2026-05-03T14:53:36Z</time></trkpt><trkpt lat="46.037749607689044" lon="11.996157600050719"><ele>241.25</ele><time>2026-05-03T14:53:37Z</time></trkpt><trkpt lat="46.037777659017046" lon="11.995963000452646"><ele>241.5</ele><time>2026-05-03T14:53:38Z</time></trkpt><trkpt lat="46.037786339537384" lon="11.995770850924394"><ele>241.75</ele><time>2026-05-03T14:53:39Z</time></trkpt><trkpt lat="46.0377980389843" lon="11.995575193962166"><ele>242.0</ele><time>2026-05-03T14:53:40Z</time></trkpt><trkpt lat="46.03781118415249" lon="11.995380843794488"><ele>242.0</ele><time>2026-05-03T14:53:41Z</time></trkpt><trkpt lat="46.0378272777724" lon="11.995184529397251"><ele>242.0</ele><time>2026-05-03T14:53:42Z</time></trkpt><trkpt lat="46.03784597842484" lon="11.994994923155124"><ele>242.0</ele><time>2026-05-03T14:53:43Z</time></trkpt><trkpt lat="46.03786703463677" lon="11.994800097537274"><ele>242.0</ele><time>2026-05-03T14:53:44Z</time></trkpt><trkpt lat="46.037884798622215" lon="11.994603835434772"><ele>242.0</ele><time>2026-05-03T14:53:45Z</time></trkpt><trkpt lat="46.03788612406451" lon="11.99440776196878"><ele>242.0</ele><time>2026-05-03T14:53:46Z</time></trkpt><trkpt lat="46.037906549604536" lon="11.994223924259535"><ele>242.0</ele><time>2026-05-03T14:53:47Z</time></trkpt><trkpt lat="46.03792910920324" lon="11.994048152051237"><ele>242.0</ele><time>2026-05-03T14:53:48Z</time></trkpt><trkpt lat="46.03794509188674" lon="11.993880033800538"><ele>241.5</ele><time>2026-05-03T14:53:49Z</time></trkpt><trkpt lat="46.037960475569726" lon="11.993716130761907"><ele>241.0</ele><time>2026-05-03T14:53:50Z</time></trkpt><trkpt lat="46.037977588330364" lon="11.993550739577536"><ele>240.5</ele><time>2026-05-03T14:53:51Z</time></trkpt><trkpt lat="46.03799487091567" lon="11.993386724493307"><ele>240.0</ele><time>2026-05-03T14:53:52Z</time></trkpt><trkpt lat="46.03801198771609" lon="11.993216247103238"><ele>240.0</ele><time>2026-05-03T14:53:53Z</time></trkpt><trkpt lat="46.03802871268503" lon="11.993046834565234"><ele>240.0</ele><time>2026-05-03T14:53:54Z</time></trkpt><trkpt lat="46.03804407351953" lon="11.992873589981183"><ele>240.0</ele><time>2026-05-03T14:53:55Z</time></trkpt><trkpt lat="46.038061694526874" lon="11.992695268658125"><ele>240.0</ele><time>2026-05-03T14:53:56Z</time></trkpt><trkpt lat="46.03807888961885" lon="11.992517513827758"><ele>240.25</ele><time>2026-05-03T14:53:57Z</time></trkpt><trkpt lat="46.03809739427477" lon="11.992325965341697"><ele>240.5</ele><time>2026-05-03T14:53:58Z</time></trkpt><trkpt lat="46.0381159740729" lon="11.992138571249892"><ele>240.75</ele><time>2026-05-03T14:53:59Z</time></trkpt><trkpt lat="46.03813276732009" lon="11.991958237147404"><ele>241.0</ele><time>2026-05-03T14:54:00Z</time></trkpt><trkpt lat="46.03814871696896" lon="11.991787541341603"><ele>240.75</ele><time>2026-05-03T14:54:01Z</time></trkpt><trkpt lat="46.038164235378744" lon="11.991604756380887"><ele>240.5</ele><time>2026-05-03T14:54:02Z</time></trkpt><trkpt lat="46.0381834164634" lon="11.991414365832266"><ele>240.25</ele><time>2026-05-03T14:54:03Z</time></trkpt><trkpt lat="46.03820117767132" lon="11.99124404462967"><ele>240.0</ele><time>2026-05-03T14:54:04Z</time></trkpt><trkpt lat="46.03821855918521" lon="11.991077300049586"><ele>240.0</ele><time>2026-05-03T14:54:05Z</time></trkpt><trkpt lat="46.03823566590191" lon="11.990897195503203"><ele>240.0</ele><time>2026-05-03T14:54:06Z</time></trkpt><trkpt lat="46.03825531717112" lon="11.99069525375337"><ele>240.0</ele><time>2026-05-03T14:54:07Z</time></trkpt><trkpt lat="46.03826988902873" lon="11.990491536880288"><ele>240.0</ele><time>2026-05-03T14:54:08Z</time></trkpt><trkpt lat="46.03828105702762" lon="11.990286082324866"><ele>240.0</ele><time>2026-05-03T14:54:09Z</time></trkpt><trkpt lat="46.03829655356313" lon="11.990064024653892"><ele>240.0</ele><time>2026-05-03T14:54:10Z</time></trkpt><trkpt lat="46.038283914391215" lon="11.989838078396142"><ele>240.0</ele><time>2026-05-03T14:54:11Z</time></trkpt><trkpt lat="46.03827539030905" lon="11.989629364736047"><ele>239.75</ele><time>2026-05-03T14:54:12Z</time></trkpt><trkpt lat="46.03823433188495" lon="11.989378688208705"><ele>239.5</ele><time>2026-05-03T14:54:13Z</time></trkpt><trkpt lat="46.038199239041674" lon="11.989242633311369"><ele>239.25</ele><time>2026-05-03T14:54:14Z</time></trkpt><trkpt lat="46.03817737011198" lon="11.98908492677477"><ele>239.0</ele><time>2026-05-03T14:54:15Z</time></trkpt><trkpt lat="46.03815748721513" lon="11.988944716926582"><ele>238.25</ele><time>2026-05-03T14:54:16Z</time></trkpt><trkpt lat="46.03813808174349" lon="11.988783030710756"><ele>237.5</ele><time>2026-05-03T14:54:17Z</time></trkpt><trkpt lat="46.03811789036473" lon="11.988617539523634"><ele>236.75</ele><time>2026-05-03T14:54:18Z</time></trkpt><trkpt lat="46.03809414888058" lon="11.988439643499259"><ele>236.0</ele><time>2026-05-03T14:54:19Z</time></trkpt><trkpt lat="46.038070924529364" lon="11.988258695682273"><ele>235.5</ele><time>2026-05-03T14:54:20Z</time></trkpt><trkpt lat="46.038048096081106" lon="11.988071880561892"><ele>235.0</ele><time>2026-05-03T14:54:21Z</time></trkpt><trkpt lat="46.03803512310833" lon="11.987867140690733"><ele>234.5</ele><time>2026-05-03T14:54:22Z</time></trkpt><trkpt lat="46.038033423886255" lon="11.987655166495625"><ele>234.0</ele><time>2026-05-03T14:54:23Z</time></trkpt><trkpt lat="46.038038041374435" lon="11.987471447683658"><ele>233.75</ele><time>2026-05-03T14:54:24Z</time></trkpt><trkpt lat="46.03804449442329" lon="11.98728290612099"><ele>233.5</ele><time>2026-05-03T14:54:25Z</time></trkpt><trkpt lat="46.03804887489146" lon="11.987075512693343"><ele>233.25</ele><time>2026-05-03T14:54:26Z</time></trkpt><trkpt lat="46.03805299927524" lon="11.986862436526465"><ele>233.0</ele><time>2026-05-03T14:54:27Z</time></trkpt><trkpt lat="46.03805885592008" lon="11.986658559001494"><ele>233.0</ele><time>2026-05-03T14:54:28Z</time></trkpt><trkpt lat="46.03806336517768" lon="11.986471226615476"><ele>233.0</ele><time>2026-05-03T14:54:29Z</time></trkpt><trkpt lat="46.03806466847305" lon="11.986266513198663"><ele>233.0</ele><time>2026-05-03T14:54:30Z</time></trkpt><trkpt lat="46.03807293351964" lon="11.98606490705291"><ele>233.0</ele><time>2026-05-03T14:54:31Z</time></trkpt><trkpt lat="46.03808148182625" lon="11.98588431309058"><ele>233.5</ele><time>2026-05-03T14:54:32Z</time></trkpt><trkpt lat="46.03810666774513" lon="11.98572664992482"><ele>234.0</ele><time>2026-05-03T14:54:33Z</time></trkpt><trkpt lat="46.03815863832124" lon="11.985559297954596"><ele>234.5</ele><time>2026-05-03T14:54:34Z</time></trkpt><trkpt lat="46.0382304698446" lon="11.9853810540163"><ele>235.0</ele><time>2026-05-03T14:54:35Z</time></trkpt><trkpt lat="46.03831995114185" lon="11.98516081150384"><ele>236.25</ele><time>2026-05-03T14:54:36Z</time></trkpt><trkpt lat="46.03839367782813" lon="11.984968645027017"><ele>237.5</ele><time>2026-05-03T14:54:37Z</time></trkpt><trkpt lat="46.03845960788964" lon="11.984802223335095"><ele>238.75</ele><time>2026-05-03T14:54:38Z</time></trkpt><trkpt lat="46.038516924095624" lon="11.98465008130022"><ele>240.0</ele><time>2026-05-03T14:54:39Z</time></trkpt><trkpt lat="46.03858524540763" lon="11.984475305791607"><ele>240.0</ele><time>2026-05-03T14:54:40Z</time></trkpt><trkpt lat="46.03864568256034" lon="11.984313628528124"><ele>240.0</ele><time>2026-05-03T14:54:41Z</time></trkpt><trkpt lat="46.03869191959128" lon="11.984161736650476"><ele>240.0</ele><time>2026-05-03T14:54:42Z</time></trkpt><trkpt lat="46.038728117306725" lon="11.98399174601305"><ele>240.0</ele><time>2026-05-03T14:54:43Z</time></trkpt><trkpt lat="46.038751057503276" lon="11.983845778018425"><ele>241.0</ele><time>2026-05-03T14:54:44Z</time></trkpt><trkpt lat="46.03876117020499" lon="11.983720371333149"><ele>242.0</ele><time>2026-05-03T14:54:45Z</time></trkpt><trkpt lat="46.038764078577636" lon="11.9836212695667"><ele>243.0</ele><time>2026-05-03T14:54:46Z</time></trkpt><trkpt lat="46.038782754588816" lon="11.983451838087051"><ele>244.0</ele><time>2026-05-03T14:54:48Z</time></trkpt><trkpt lat="46.03881196904734" lon="11.983348236790727"><ele>245.0</ele><time>2026-05-03T14:54:49Z</time></trkpt><trkpt lat="46.0388472893358" lon="11.983252285919326"><ele>246.0</ele><time>2026-05-03T14:54:50Z</time></trkpt><trkpt lat="46.0388870925476" lon="11.983149898674563"><ele>246.0</ele><time>2026-05-03T14:54:51Z</time></trkpt><trkpt lat="46.03891233507053" lon="11.983028379362851"><ele>246.0</ele><time>2026-05-03T14:54:52Z</time></trkpt><trkpt lat="46.03890172378565" lon="11.982911189741992"><ele>246.0</ele><time>2026-05-03T14:54:53Z</time></trkpt><trkpt lat="46.03885994769595" lon="11.982810317547335"><ele>246.0</ele><time>2026-05-03T14:54:54Z</time></trkpt><trkpt lat="46.03879933057953" lon="11.982736687381859"><ele>246.0</ele><time>2026-05-03T14:54:55Z</time></trkpt><trkpt lat="46.038749862688206" lon="11.98267554320369"><ele>246.0</ele><time>2026-05-03T14:54:56Z</time></trkpt><trkpt lat="46.03866512688219" lon="11.982587679085922"><ele>245.8</ele><time>2026-05-03T14:54:58Z</time></trkpt><trkpt lat="46.03859648612441" lon="11.982484408452903"><ele>245.60000000000002</ele><time>2026-05-03T14:55:00Z</time></trkpt><trkpt lat="46.03851946363981" lon="11.982340528448331"><ele>245.4</ele><time>2026-05-03T14:55:02Z</time></trkpt><trkpt lat="46.0384649082756" lon="11.982240700053032"><ele>245.2</ele><time>2026-05-03T14:55:03Z</time></trkpt><trkpt lat="46.03840796899762" lon="11.982133045605979"><ele>245.0</ele><time>2026-05-03T14:55:04Z</time></trkpt><trkpt lat="46.03835797558014" lon="11.98203495758742"><ele>245.2</ele><time>2026-05-03T14:55:05Z</time></trkpt><trkpt lat="46.03830129283798" lon="11.981924447581234"><ele>245.4</ele><time>2026-05-03T14:55:06Z</time></trkpt><trkpt lat="46.03823103825799" lon="11.98184379156925"><ele>245.60000000000002</ele><time>2026-05-03T14:55:07Z</time></trkpt><trkpt lat="46.03819216642644" lon="11.98168518446187"><ele>245.8</ele><time>2026-05-03T14:55:08Z</time></trkpt><trkpt lat="46.03814168230644" lon="11.981563183980743"><ele>246.0</ele><time>2026-05-03T14:55:09Z</time></trkpt><trkpt lat="46.03809576728794" lon="11.981454596867259"><ele>246.20000000000002</ele><time>2026-05-03T14:55:10Z</time></trkpt><trkpt lat="46.038049335847944" lon="11.981344472454092"><ele>246.40000000000003</ele><time>2026-05-03T14:55:11Z</time></trkpt><trkpt lat="46.03799401807808" lon="11.981220311065982"><ele>246.6</ele><time>2026-05-03T14:55:12Z</time></trkpt><trkpt lat="46.03793959677607" lon="11.981089712852295"><ele>246.8</ele><time>2026-05-03T14:55:13Z</time></trkpt><trkpt lat="46.037884879004544" lon="11.980951458791857"><ele>247.0</ele><time>2026-05-03T14:55:14Z</time></trkpt><trkpt lat="46.03782901076763" lon="11.980818104979218"><ele>247.0</ele><time>2026-05-03T14:55:15Z</time></trkpt><trkpt lat="46.0377842990943" lon="11.980703271180005"><ele>247.0</ele><time>2026-05-03T14:55:16Z</time></trkpt><trkpt lat="46.03773558770647" lon="11.980576791885913"><ele>247.0</ele><time>2026-05-03T14:55:17Z</time></trkpt><trkpt lat="46.03767973525022" lon="11.980443975947086"><ele>247.0</ele><time>2026-05-03T14:55:18Z</time></trkpt><trkpt lat="46.037625076112306" lon="11.980312105040975"><ele>247.0</ele><time>2026-05-03T14:55:19Z</time></trkpt><trkpt lat="46.03757775347197" lon="11.980189203546356"><ele>247.0</ele><time>2026-05-03T14:55:20Z</time></trkpt><trkpt lat="46.037528233499636" lon="11.980067308574329"><ele>247.0</ele><time>2026-05-03T14:55:21Z</time></trkpt><trkpt lat="46.03747568999947" lon="11.979941821037835"><ele>247.0</ele><time>2026-05-03T14:55:22Z</time></trkpt><trkpt lat="46.03742458242615" lon="11.979815083218272"><ele>247.0</ele><time>2026-05-03T14:55:23Z</time></trkpt><trkpt lat="46.037378648059125" lon="11.97969848757005"><ele>247.0</ele><time>2026-05-03T14:55:24Z</time></trkpt><trkpt lat="46.03733328437588" lon="11.979589255787428"><ele>248.6</ele><time>2026-05-03T14:55:25Z</time></trkpt><trkpt lat="46.037286893363564" lon="11.979474827626909"><ele>250.2</ele><time>2026-05-03T14:55:26Z</time></trkpt><trkpt lat="46.03723891089954" lon="11.979360288857409"><ele>251.8</ele><time>2026-05-03T14:55:27Z</time></trkpt><trkpt lat="46.037189024039506" lon="11.979246533401938"><ele>253.4</ele><time>2026-05-03T14:55:28Z</time></trkpt><trkpt lat="46.03713979974064" lon="11.979125613124586"><ele>255.0</ele><time>2026-05-03T14:55:29Z</time></trkpt><trkpt lat="46.03708532487406" lon="11.978992852547652"><ele>255.4</ele><time>2026-05-03T14:55:30Z</time></trkpt><trkpt lat="46.03702604866537" lon="11.97886050147113"><ele>255.8</ele><time>2026-05-03T14:55:31Z</time></trkpt><trkpt lat="46.03697570692089" lon="11.978737551213653"><ele>256.2</ele><time>2026-05-03T14:55:32Z</time></trkpt><trkpt lat="46.036920619222066" lon="11.978608358081958"><ele>256.6</ele><time>2026-05-03T14:55:33Z</time></trkpt><trkpt lat="46.03686444331107" lon="11.978472797037826"><ele>257.0</ele><time>2026-05-03T14:55:34Z</time></trkpt><trkpt lat="46.036808088156434" lon="11.97833387166855"><ele>257.0</ele><time>2026-05-03T14:55:35Z</time></trkpt><trkpt lat="46.03675187053325" lon="11.978194106751308"><ele>257.0</ele><time>2026-05-03T14:55:36Z</time></trkpt><trkpt lat="46.036693283540316" lon="11.978049179311354"><ele>257.0</ele><time>2026-05-03T14:55:37Z</time></trkpt><trkpt lat="46.036633109168" lon="11.977900772988912"><ele>257.0</ele><time>2026-05-03T14:55:38Z</time></trkpt><trkpt lat="46.03657827108612" lon="11.977761856820013"><ele>257.5</ele><time>2026-05-03T14:55:39Z</time></trkpt><trkpt lat="46.036521148913785" lon="11.977615526841117"><ele>258.0</ele><time>2026-05-03T14:55:40Z</time></trkpt><trkpt lat="46.036462980966434" lon="11.977474016750918"><ele>258.5</ele><time>2026-05-03T14:55:41Z</time></trkpt><trkpt lat="46.03640387591081" lon="11.977329066612722"><ele>259.0</ele><time>2026-05-03T14:55:42Z</time></trkpt><trkpt lat="46.036345321681445" lon="11.977183068807502"><ele>259.0</ele><time>2026-05-03T14:55:43Z</time></trkpt><trkpt lat="46.03628749132348" lon="11.977040538082669"><ele>259.0</ele><time>2026-05-03T14:55:44Z</time></trkpt><trkpt lat="46.036227096699406" lon="11.976899345589645"><ele>259.0</ele><time>2026-05-03T14:55:45Z</time></trkpt><trkpt lat="46.0361705442157" lon="11.976758219986849"><ele>259.0</ele><time>2026-05-03T14:55:46Z</time></trkpt><trkpt lat="46.03611366053507" lon="11.976612653916833"><ele>258.5</ele><time>2026-05-03T14:55:47Z</time></trkpt><trkpt lat="46.03605454741485" lon="11.976469313541601"><ele>258.0</ele><time>2026-05-03T14:55:48Z</time></trkpt><trkpt lat="46.03599446037683" lon="11.976321025232272"><ele>257.5</ele><time>2026-05-03T14:55:49Z</time></trkpt><trkpt lat="46.03593063977612" lon="11.976165440305264"><ele>257.0</ele><time>2026-05-03T14:55:50Z</time></trkpt><trkpt lat="46.035867369236605" lon="11.97600508915108"><ele>258.25</ele><time>2026-05-03T14:55:51Z</time></trkpt><trkpt lat="46.03579827449925" lon="11.975842032810855"><ele>259.5</ele><time>2026-05-03T14:55:52Z</time></trkpt><trkpt lat="46.035728262653315" lon="11.975678805043602"><ele>260.75</ele><time>2026-05-03T14:55:53Z</time></trkpt><trkpt lat="46.03566151113293" lon="11.975518060633593"><ele>262.0</ele><time>2026-05-03T14:55:54Z</time></trkpt><trkpt lat="46.035605173939956" lon="11.975373325892182"><ele>262.0</ele><time>2026-05-03T14:55:55Z</time></trkpt><trkpt lat="46.0355446406816" lon="11.975226071718978"><ele>262.0</ele><time>2026-05-03T14:55:56Z</time></trkpt><trkpt lat="46.03548463562452" lon="11.975073026870044"><ele>262.0</ele><time>2026-05-03T14:55:57Z</time></trkpt><trkpt lat="46.035423811843025" lon="11.974919987282878"><ele>262.0</ele><time>2026-05-03T14:55:58Z</time></trkpt><trkpt lat="46.035360291027146" lon="11.9747662592225"><ele>262.0</ele><time>2026-05-03T14:55:59Z</time></trkpt><trkpt lat="46.035295910602244" lon="11.974608425649382"><ele>262.0</ele><time>2026-05-03T14:56:00Z</time></trkpt><trkpt lat="46.03522761797866" lon="11.97444586711787"><ele>262.0</ele><time>2026-05-03T14:56:01Z</time></trkpt><trkpt lat="46.03516848524379" lon="11.97429813096922"><ele>262.0</ele><time>2026-05-03T14:56:02Z</time></trkpt><trkpt lat="46.035112177185766" lon="11.974170753241118"><ele>262.6</ele><time>2026-05-03T14:56:03Z</time></trkpt><trkpt lat="46.03506013758612" lon="11.974029899149269"><ele>263.2</ele><time>2026-05-03T14:56:04Z</time></trkpt><trkpt lat="46.03500436932668" lon="11.973900200264328"><ele>263.8</ele><time>2026-05-03T14:56:05Z</time></trkpt><trkpt lat="46.03495977944179" lon="11.97378262571375"><ele>264.4</ele><time>2026-05-03T14:56:06Z</time></trkpt><trkpt lat="46.03491239802898" lon="11.973672671451975"><ele>265.0</ele><time>2026-05-03T14:56:07Z</time></trkpt><trkpt lat="46.03487356058111" lon="11.97357846585692"><ele>265.0</ele><time>2026-05-03T14:56:08Z</time></trkpt><trkpt lat="46.034822361799336" lon="11.973444593664299"><ele>265.0</ele><time>2026-05-03T14:56:10Z</time></trkpt><trkpt lat="46.03488078249798" lon="11.973376631810858"><ele>265.0</ele><time>2026-05-03T14:56:13Z</time></trkpt><trkpt lat="46.03497739271267" lon="11.973515289102842"><ele>265.0</ele><time>2026-05-03T14:56:15Z</time></trkpt><trkpt lat="46.035042939406004" lon="11.973633918213478"><ele>265.0</ele><time>2026-05-03T14:56:16Z</time></trkpt><trkpt lat="46.03511072240179" lon="11.9737178236868"><ele>265.0</ele><time>2026-05-03T14:56:17Z</time></trkpt><trkpt lat="46.03516901829451" lon="11.973798466858243"><ele>265.0</ele><time>2026-05-03T14:56:18Z</time></trkpt><trkpt lat="46.03527849284441" lon="11.9737835549367"><ele>265.0</ele><time>2026-05-03T14:56:19Z</time></trkpt><trkpt lat="46.03538420688592" lon="11.973743986348902"><ele>265.0</ele><time>2026-05-03T14:56:20Z</time></trkpt><trkpt lat="46.035526412477445" lon="11.97371976649229"><ele>265.0</ele><time>2026-05-03T14:56:21Z</time></trkpt><trkpt lat="46.03570818905583" lon="11.973701144237154"><ele>266.75</ele><time>2026-05-03T14:56:22Z</time></trkpt><trkpt lat="46.035873744169095" lon="11.973680236922801"><ele>268.5</ele><time>2026-05-03T14:56:23Z</time></trkpt><trkpt lat="46.036004644954325" lon="11.97366687376671"><ele>270.25</ele><time>2026-05-03T14:56:24Z</time></trkpt><trkpt lat="46.03611597325143" lon="11.973647101773832"><ele>272.0</ele><time>2026-05-03T14:56:25Z</time></trkpt><trkpt lat="46.036209947710994" lon="11.973638945568553"><ele>272.0</ele><time>2026-05-03T14:56:26Z</time></trkpt><trkpt lat="46.03628956770904" lon="11.973630022419018"><ele>272.0</ele><time>2026-05-03T14:56:27Z</time></trkpt><trkpt lat="46.03637528222322" lon="11.973621855209513"><ele>272.0</ele><time>2026-05-03T14:56:28Z</time></trkpt><trkpt lat="46.036462728109335" lon="11.973624969029112"><ele>272.0</ele><time>2026-05-03T14:56:29Z</time></trkpt><trkpt lat="46.03654867597548" lon="11.973562778909654"><ele>272.0</ele><time>2026-05-03T14:56:30Z</time></trkpt><trkpt lat="46.036641619371146" lon="11.973459311232633"><ele>273.2</ele><time>2026-05-03T14:56:31Z</time></trkpt><trkpt lat="46.03675244127099" lon="11.973334148259577"><ele>274.4</ele><time>2026-05-03T14:56:32Z</time></trkpt><trkpt lat="46.036836014484784" lon="11.973212823168419"><ele>275.6</ele><time>2026-05-03T14:56:33Z</time></trkpt><trkpt lat="46.03692389381178" lon="11.973140832705552"><ele>276.8</ele><time>2026-05-03T14:56:34Z</time></trkpt><trkpt lat="46.03699265472599" lon="11.973063303793795"><ele>278.0</ele><time>2026-05-03T14:56:35Z</time></trkpt><trkpt lat="46.037052175946776" lon="11.972996192512868"><ele>278.0</ele><time>2026-05-03T14:56:36Z</time></trkpt><trkpt lat="46.03710289327796" lon="11.972939008035237"><ele>278.0</ele><time>2026-05-03T14:56:37Z</time></trkpt><trkpt lat="46.0371828466073" lon="11.972849968163747"><ele>278.0</ele><time>2026-05-03T14:56:39Z</time></trkpt><trkpt lat="46.037239764933446" lon="11.97279668396049"><ele>278.0</ele><time>2026-05-03T14:56:41Z</time></trkpt><trkpt lat="46.03728086043206" lon="11.972963189351423"><ele>278.0</ele><time>2026-05-03T14:56:48Z</time></trkpt><trkpt lat="46.03733254092335" lon="11.973031030046025"><ele>278.0</ele><time>2026-05-03T14:57:52Z</time></trkpt><trkpt lat="46.03737026635036" lon="11.973129855662277"><ele>278.0</ele><time>2026-05-03T14:57:57Z</time></trkpt><trkpt lat="46.03735563342468" lon="11.973236107062347"><ele>278.0</ele><time>2026-05-03T14:57:59Z</time></trkpt><trkpt lat="46.03735027883307" lon="11.973139675578198"><ele>278.0</ele><time>2026-05-03T14:58:02Z</time></trkpt><trkpt lat="46.03727939604258" lon="11.973061639570913"><ele>278.0</ele><time>2026-05-03T14:59:54Z</time></trkpt><trkpt lat="46.037392688828746" lon="11.973138032204089"><ele>278.0</ele><time>2026-05-03T15:00:33Z</time></trkpt><trkpt lat="46.03732225513608" lon="11.973145651914589"><ele>278.0</ele><time>2026-05-03T15:00:46Z</time></trkpt><trkpt lat="46.03727043810055" lon="11.973091003538203"><ele>278.0</ele><time>2026-05-03T15:00:53Z</time></trkpt></trkseg></trk></gpx>